<?xml version="1.0" encoding="UTF-8" standalone="no" ?>
<gpx xmlns="http://www.topografix.com/GPX/1/1" xmlns:xsi="http://www.w3.org/2001/XMLSchema-instance" xsi:schemaLocation="http://www.topografix.com/GPX/1/1 http://www.topografix.com/GPX/1/1/gpx.xsd" version="1.1" creator="VisuGPX - https://www.visugpx.com">
  <metadata>
    <name>21 juillet 2015 changement de pré</name>
    <desc><![CDATA[Nous partons (définitivement) de St Léger.
un GR quitté un chemin trot tôt et un autre chemin loupé (pas \"vu\") au point 175. nous logerons un champ en jachère (le long d\'un bois), pour éviter un peu de route. et nous avons traversé ce fameux pont, (tout de même dangereux !) au point 149. ]]></desc>
  </metadata>
  <trk>
    <name><![CDATA[Saint-Léger-en-Yvelines Autre]]></name>
    <trkseg>
      <trkpt lat="48.70715" lon="1.75398">
        <ele>171.39999389648</ele>
        <time>2015-07-21T06:28:28.000Z</time>
      </trkpt>
      <trkpt lat="48.70723" lon="1.75411">
        <ele>171.39999389648</ele>
        <time>2015-07-21T06:28:31.000Z</time>
      </trkpt>
      <trkpt lat="48.70723" lon="1.75414">
        <ele>171.39999389648</ele>
        <time>2015-07-21T06:28:33.000Z</time>
      </trkpt>
      <trkpt lat="48.70724" lon="1.75414">
        <ele>171.39999389648</ele>
        <time>2015-07-21T06:28:35.000Z</time>
      </trkpt>
      <trkpt lat="48.70732" lon="1.75403">
        <ele>171.60000610352</ele>
        <time>2015-07-21T06:28:42.000Z</time>
      </trkpt>
      <trkpt lat="48.70739" lon="1.75389">
        <ele>171.60000610352</ele>
        <time>2015-07-21T06:28:51.000Z</time>
      </trkpt>
      <trkpt lat="48.70742" lon="1.75383">
        <ele>171.60000610352</ele>
        <time>2015-07-21T06:28:55.000Z</time>
      </trkpt>
      <trkpt lat="48.70742" lon="1.75384">
        <ele>171.60000610352</ele>
        <time>2015-07-21T06:28:57.000Z</time>
      </trkpt>
      <trkpt lat="48.70745" lon="1.75377">
        <ele>171.60000610352</ele>
        <time>2015-07-21T06:29:01.000Z</time>
      </trkpt>
      <trkpt lat="48.7075" lon="1.75368">
        <ele>171.80000305176</ele>
        <time>2015-07-21T06:29:07.000Z</time>
      </trkpt>
      <trkpt lat="48.70756" lon="1.75355">
        <ele>171.80000305176</ele>
        <time>2015-07-21T06:29:15.000Z</time>
      </trkpt>
      <trkpt lat="48.70762" lon="1.75343">
        <ele>171.80000305176</ele>
        <time>2015-07-21T06:29:24.000Z</time>
      </trkpt>
      <trkpt lat="48.70765" lon="1.75332">
        <ele>172</ele>
        <time>2015-07-21T06:29:31.000Z</time>
      </trkpt>
      <trkpt lat="48.7077" lon="1.75323">
        <ele>172</ele>
        <time>2015-07-21T06:29:37.000Z</time>
      </trkpt>
      <trkpt lat="48.70776" lon="1.75314">
        <ele>172.19999694824</ele>
        <time>2015-07-21T06:29:44.000Z</time>
      </trkpt>
      <trkpt lat="48.70781" lon="1.75302">
        <ele>172.39999389648</ele>
        <time>2015-07-21T06:29:52.000Z</time>
      </trkpt>
      <trkpt lat="48.70786" lon="1.7529">
        <ele>172.80000305176</ele>
        <time>2015-07-21T06:29:59.000Z</time>
      </trkpt>
      <trkpt lat="48.70789" lon="1.75276">
        <ele>173</ele>
        <time>2015-07-21T06:30:07.000Z</time>
      </trkpt>
      <trkpt lat="48.70793" lon="1.75265">
        <ele>173.19999694824</ele>
        <time>2015-07-21T06:30:14.000Z</time>
      </trkpt>
      <trkpt lat="48.70797" lon="1.75252">
        <ele>173.39999389648</ele>
        <time>2015-07-21T06:30:22.000Z</time>
      </trkpt>
      <trkpt lat="48.70803" lon="1.75239">
        <ele>173.39999389648</ele>
        <time>2015-07-21T06:30:30.000Z</time>
      </trkpt>
      <trkpt lat="48.70809" lon="1.75229">
        <ele>173.39999389648</ele>
        <time>2015-07-21T06:30:37.000Z</time>
      </trkpt>
      <trkpt lat="48.70815" lon="1.75214">
        <ele>173.60000610352</ele>
        <time>2015-07-21T06:30:46.000Z</time>
      </trkpt>
      <trkpt lat="48.70819" lon="1.75203">
        <ele>173.60000610352</ele>
        <time>2015-07-21T06:30:53.000Z</time>
      </trkpt>
      <trkpt lat="48.70819" lon="1.75203">
        <ele>173.60000610352</ele>
        <time>2015-07-21T06:30:54.000Z</time>
      </trkpt>
      <trkpt lat="48.70827" lon="1.75188">
        <ele>173.39999389648</ele>
        <time>2015-07-21T06:31:21.000Z</time>
      </trkpt>
      <trkpt lat="48.70828" lon="1.75185">
        <ele>173.39999389648</ele>
        <time>2015-07-21T06:31:24.000Z</time>
      </trkpt>
      <trkpt lat="48.70831" lon="1.75181">
        <ele>173.39999389648</ele>
        <time>2015-07-21T06:31:28.000Z</time>
      </trkpt>
      <trkpt lat="48.70831" lon="1.7518">
        <ele>173.39999389648</ele>
        <time>2015-07-21T06:31:29.000Z</time>
      </trkpt>
      <trkpt lat="48.70835" lon="1.75173">
        <ele>173.19999694824</ele>
        <time>2015-07-21T06:31:34.000Z</time>
      </trkpt>
      <trkpt lat="48.70836" lon="1.75172">
        <ele>173.19999694824</ele>
        <time>2015-07-21T06:31:35.000Z</time>
      </trkpt>
      <trkpt lat="48.70841" lon="1.75161">
        <ele>173</ele>
        <time>2015-07-21T06:31:42.000Z</time>
      </trkpt>
      <trkpt lat="48.70847" lon="1.75146">
        <ele>173.19999694824</ele>
        <time>2015-07-21T06:31:51.000Z</time>
      </trkpt>
      <trkpt lat="48.70853" lon="1.75134">
        <ele>173.19999694824</ele>
        <time>2015-07-21T06:31:59.000Z</time>
      </trkpt>
      <trkpt lat="48.70858" lon="1.75122">
        <ele>173.39999389648</ele>
        <time>2015-07-21T06:32:07.000Z</time>
      </trkpt>
      <trkpt lat="48.70864" lon="1.7511">
        <ele>173.80000305176</ele>
        <time>2015-07-21T06:32:16.000Z</time>
      </trkpt>
      <trkpt lat="48.70869" lon="1.75099">
        <ele>174</ele>
        <time>2015-07-21T06:32:24.000Z</time>
      </trkpt>
      <trkpt lat="48.70873" lon="1.75088">
        <ele>174.19999694824</ele>
        <time>2015-07-21T06:32:32.000Z</time>
      </trkpt>
      <trkpt lat="48.70874" lon="1.75086">
        <ele>174.19999694824</ele>
        <time>2015-07-21T06:32:36.000Z</time>
      </trkpt>
      <trkpt lat="48.70889" lon="1.75053">
        <ele>174.19999694824</ele>
        <time>2015-07-21T06:33:05.000Z</time>
      </trkpt>
      <trkpt lat="48.70896" lon="1.75039">
        <ele>174.39999389648</ele>
        <time>2015-07-21T06:33:14.000Z</time>
      </trkpt>
      <trkpt lat="48.70902" lon="1.75024">
        <ele>174.60000610352</ele>
        <time>2015-07-21T06:33:23.000Z</time>
      </trkpt>
      <trkpt lat="48.70904" lon="1.75021">
        <ele>174.60000610352</ele>
        <time>2015-07-21T06:33:27.000Z</time>
      </trkpt>
      <trkpt lat="48.70912" lon="1.75">
        <ele>174.80000305176</ele>
        <time>2015-07-21T06:34:03.000Z</time>
      </trkpt>
      <trkpt lat="48.70913" lon="1.74999">
        <ele>174.80000305176</ele>
        <time>2015-07-21T06:34:04.000Z</time>
      </trkpt>
      <trkpt lat="48.70918" lon="1.74989">
        <ele>175</ele>
        <time>2015-07-21T06:34:10.000Z</time>
      </trkpt>
      <trkpt lat="48.70924" lon="1.74976">
        <ele>174.80000305176</ele>
        <time>2015-07-21T06:34:18.000Z</time>
      </trkpt>
      <trkpt lat="48.70928" lon="1.74969">
        <ele>174.80000305176</ele>
        <time>2015-07-21T06:34:24.000Z</time>
      </trkpt>
      <trkpt lat="48.7093" lon="1.74966">
        <ele>175</ele>
        <time>2015-07-21T06:34:26.000Z</time>
      </trkpt>
      <trkpt lat="48.70934" lon="1.7496">
        <ele>175</ele>
        <time>2015-07-21T06:34:30.000Z</time>
      </trkpt>
      <trkpt lat="48.70937" lon="1.74955">
        <ele>175</ele>
        <time>2015-07-21T06:34:34.000Z</time>
      </trkpt>
      <trkpt lat="48.7094" lon="1.7495">
        <ele>175.19999694824</ele>
        <time>2015-07-21T06:34:37.000Z</time>
      </trkpt>
      <trkpt lat="48.70942" lon="1.74947">
        <ele>175.19999694824</ele>
        <time>2015-07-21T06:34:39.000Z</time>
      </trkpt>
      <trkpt lat="48.70948" lon="1.74938">
        <ele>175.39999389648</ele>
        <time>2015-07-21T06:34:46.000Z</time>
      </trkpt>
      <trkpt lat="48.7095" lon="1.74933">
        <ele>175.39999389648</ele>
        <time>2015-07-21T06:34:49.000Z</time>
      </trkpt>
      <trkpt lat="48.70952" lon="1.7493">
        <ele>175.60000610352</ele>
        <time>2015-07-21T06:34:51.000Z</time>
      </trkpt>
      <trkpt lat="48.70956" lon="1.74923">
        <ele>175.60000610352</ele>
        <time>2015-07-21T06:34:56.000Z</time>
      </trkpt>
      <trkpt lat="48.70959" lon="1.7492">
        <ele>175.80000305176</ele>
        <time>2015-07-21T06:34:59.000Z</time>
      </trkpt>
      <trkpt lat="48.70964" lon="1.74914">
        <ele>176.19999694824</ele>
        <time>2015-07-21T06:35:05.000Z</time>
      </trkpt>
      <trkpt lat="48.70965" lon="1.74913">
        <ele>176.19999694824</ele>
        <time>2015-07-21T06:35:06.000Z</time>
      </trkpt>
      <trkpt lat="48.7097" lon="1.74907">
        <ele>176.60000610352</ele>
        <time>2015-07-21T06:35:11.000Z</time>
      </trkpt>
      <trkpt lat="48.70976" lon="1.749">
        <ele>177</ele>
        <time>2015-07-21T06:35:17.000Z</time>
      </trkpt>
      <trkpt lat="48.70983" lon="1.7489">
        <ele>177.80000305176</ele>
        <time>2015-07-21T06:35:24.000Z</time>
      </trkpt>
      <trkpt lat="48.70989" lon="1.74885">
        <ele>178.19999694824</ele>
        <time>2015-07-21T06:35:29.000Z</time>
      </trkpt>
      <trkpt lat="48.7099" lon="1.74883">
        <ele>178.19999694824</ele>
        <time>2015-07-21T06:35:30.000Z</time>
      </trkpt>
      <trkpt lat="48.70994" lon="1.74877">
        <ele>178.60000610352</ele>
        <time>2015-07-21T06:35:35.000Z</time>
      </trkpt>
      <trkpt lat="48.70996" lon="1.74874">
        <ele>178.80000305176</ele>
        <time>2015-07-21T06:35:37.000Z</time>
      </trkpt>
      <trkpt lat="48.70996" lon="1.74873">
        <ele>178.80000305176</ele>
        <time>2015-07-21T06:35:38.000Z</time>
      </trkpt>
      <trkpt lat="48.70999" lon="1.74869">
        <ele>178.80000305176</ele>
        <time>2015-07-21T06:35:41.000Z</time>
      </trkpt>
      <trkpt lat="48.71" lon="1.74867">
        <ele>178.80000305176</ele>
        <time>2015-07-21T06:35:42.000Z</time>
      </trkpt>
      <trkpt lat="48.71003" lon="1.7486">
        <ele>178.80000305176</ele>
        <time>2015-07-21T06:35:46.000Z</time>
      </trkpt>
      <trkpt lat="48.71004" lon="1.74859">
        <ele>178.80000305176</ele>
        <time>2015-07-21T06:35:47.000Z</time>
      </trkpt>
      <trkpt lat="48.71007" lon="1.74849">
        <ele>178.80000305176</ele>
        <time>2015-07-21T06:35:53.000Z</time>
      </trkpt>
      <trkpt lat="48.71008" lon="1.74847">
        <ele>178.80000305176</ele>
        <time>2015-07-21T06:35:54.000Z</time>
      </trkpt>
      <trkpt lat="48.71007" lon="1.74838">
        <ele>178.80000305176</ele>
        <time>2015-07-21T06:36:00.000Z</time>
      </trkpt>
      <trkpt lat="48.71006" lon="1.74837">
        <ele>178.80000305176</ele>
        <time>2015-07-21T06:36:01.000Z</time>
      </trkpt>
      <trkpt lat="48.71001" lon="1.74827">
        <ele>178.80000305176</ele>
        <time>2015-07-21T06:36:08.000Z</time>
      </trkpt>
      <trkpt lat="48.70994" lon="1.74816">
        <ele>178.60000610352</ele>
        <time>2015-07-21T06:36:17.000Z</time>
      </trkpt>
      <trkpt lat="48.70988" lon="1.74808">
        <ele>178.60000610352</ele>
        <time>2015-07-21T06:36:25.000Z</time>
      </trkpt>
      <trkpt lat="48.7098" lon="1.74799">
        <ele>178.60000610352</ele>
        <time>2015-07-21T06:36:34.000Z</time>
      </trkpt>
      <trkpt lat="48.70972" lon="1.74788">
        <ele>178.39999389648</ele>
        <time>2015-07-21T06:36:43.000Z</time>
      </trkpt>
      <trkpt lat="48.70965" lon="1.74779">
        <ele>178.39999389648</ele>
        <time>2015-07-21T06:36:50.000Z</time>
      </trkpt>
      <trkpt lat="48.70955" lon="1.74765">
        <ele>178.19999694824</ele>
        <time>2015-07-21T06:37:00.000Z</time>
      </trkpt>
      <trkpt lat="48.70943" lon="1.74749">
        <ele>178</ele>
        <time>2015-07-21T06:37:11.000Z</time>
      </trkpt>
      <trkpt lat="48.70937" lon="1.7474">
        <ele>178</ele>
        <time>2015-07-21T06:37:17.000Z</time>
      </trkpt>
      <trkpt lat="48.70926" lon="1.74723">
        <ele>177.60000610352</ele>
        <time>2015-07-21T06:37:29.000Z</time>
      </trkpt>
      <trkpt lat="48.70912" lon="1.74706">
        <ele>177.19999694824</ele>
        <time>2015-07-21T06:37:42.000Z</time>
      </trkpt>
      <trkpt lat="48.709" lon="1.74691">
        <ele>176.80000305176</ele>
        <time>2015-07-21T06:37:54.000Z</time>
      </trkpt>
      <trkpt lat="48.70894" lon="1.74683">
        <ele>176.60000610352</ele>
        <time>2015-07-21T06:38:00.000Z</time>
      </trkpt>
      <trkpt lat="48.70886" lon="1.74674">
        <ele>176.39999389648</ele>
        <time>2015-07-21T06:38:08.000Z</time>
      </trkpt>
      <trkpt lat="48.7088" lon="1.74665">
        <ele>176.19999694824</ele>
        <time>2015-07-21T06:38:14.000Z</time>
      </trkpt>
      <trkpt lat="48.70874" lon="1.74658">
        <ele>176</ele>
        <time>2015-07-21T06:38:20.000Z</time>
      </trkpt>
      <trkpt lat="48.70864" lon="1.74644">
        <ele>176</ele>
        <time>2015-07-21T06:38:31.000Z</time>
      </trkpt>
      <trkpt lat="48.70859" lon="1.74637">
        <ele>176</ele>
        <time>2015-07-21T06:38:37.000Z</time>
      </trkpt>
      <trkpt lat="48.7085" lon="1.74625">
        <ele>176</ele>
        <time>2015-07-21T06:38:46.000Z</time>
      </trkpt>
      <trkpt lat="48.70842" lon="1.74613">
        <ele>176.19999694824</ele>
        <time>2015-07-21T06:38:55.000Z</time>
      </trkpt>
      <trkpt lat="48.70835" lon="1.74602">
        <ele>176.19999694824</ele>
        <time>2015-07-21T06:39:03.000Z</time>
      </trkpt>
      <trkpt lat="48.70825" lon="1.74588">
        <ele>176.39999389648</ele>
        <time>2015-07-21T06:39:14.000Z</time>
      </trkpt>
      <trkpt lat="48.70817" lon="1.74576">
        <ele>176.39999389648</ele>
        <time>2015-07-21T06:39:23.000Z</time>
      </trkpt>
      <trkpt lat="48.70813" lon="1.74572">
        <ele>176.39999389648</ele>
        <time>2015-07-21T06:39:29.000Z</time>
      </trkpt>
      <trkpt lat="48.70805" lon="1.74563">
        <ele>176.60000610352</ele>
        <time>2015-07-21T06:39:37.000Z</time>
      </trkpt>
      <trkpt lat="48.70801" lon="1.74558">
        <ele>176.60000610352</ele>
        <time>2015-07-21T06:39:41.000Z</time>
      </trkpt>
      <trkpt lat="48.70794" lon="1.74548">
        <ele>176.80000305176</ele>
        <time>2015-07-21T06:39:49.000Z</time>
      </trkpt>
      <trkpt lat="48.70788" lon="1.7454">
        <ele>176.80000305176</ele>
        <time>2015-07-21T06:39:55.000Z</time>
      </trkpt>
      <trkpt lat="48.7078" lon="1.7453">
        <ele>176.80000305176</ele>
        <time>2015-07-21T06:40:04.000Z</time>
      </trkpt>
      <trkpt lat="48.70771" lon="1.74519">
        <ele>177</ele>
        <time>2015-07-21T06:40:14.000Z</time>
      </trkpt>
      <trkpt lat="48.7077" lon="1.74518">
        <ele>177</ele>
        <time>2015-07-21T06:40:16.000Z</time>
      </trkpt>
      <trkpt lat="48.70754" lon="1.74444">
        <ele>178</ele>
        <time>2015-07-21T06:42:31.000Z</time>
      </trkpt>
      <trkpt lat="48.70755" lon="1.74443">
        <ele>178</ele>
        <time>2015-07-21T06:42:32.000Z</time>
      </trkpt>
      <trkpt lat="48.70763" lon="1.74438">
        <ele>177.80000305176</ele>
        <time>2015-07-21T06:42:39.000Z</time>
      </trkpt>
      <trkpt lat="48.70771" lon="1.74433">
        <ele>177.60000610352</ele>
        <time>2015-07-21T06:42:46.000Z</time>
      </trkpt>
      <trkpt lat="48.70783" lon="1.74426">
        <ele>177.60000610352</ele>
        <time>2015-07-21T06:42:56.000Z</time>
      </trkpt>
      <trkpt lat="48.70791" lon="1.74421">
        <ele>177.39999389648</ele>
        <time>2015-07-21T06:43:05.000Z</time>
      </trkpt>
      <trkpt lat="48.70798" lon="1.74416">
        <ele>177.39999389648</ele>
        <time>2015-07-21T06:43:11.000Z</time>
      </trkpt>
      <trkpt lat="48.70799" lon="1.74415">
        <ele>177.39999389648</ele>
        <time>2015-07-21T06:43:12.000Z</time>
      </trkpt>
      <trkpt lat="48.70807" lon="1.74409">
        <ele>177.19999694824</ele>
        <time>2015-07-21T06:43:19.000Z</time>
      </trkpt>
      <trkpt lat="48.70817" lon="1.74401">
        <ele>177</ele>
        <time>2015-07-21T06:43:28.000Z</time>
      </trkpt>
      <trkpt lat="48.70826" lon="1.74393">
        <ele>176.80000305176</ele>
        <time>2015-07-21T06:43:36.000Z</time>
      </trkpt>
      <trkpt lat="48.70832" lon="1.74384">
        <ele>176.80000305176</ele>
        <time>2015-07-21T06:43:44.000Z</time>
      </trkpt>
      <trkpt lat="48.70835" lon="1.74379">
        <ele>176.80000305176</ele>
        <time>2015-07-21T06:43:49.000Z</time>
      </trkpt>
      <trkpt lat="48.70901" lon="1.74259">
        <ele>179.19999694824</ele>
        <time>2015-07-21T06:45:50.000Z</time>
      </trkpt>
      <trkpt lat="48.70902" lon="1.74257">
        <ele>179.39999389648</ele>
        <time>2015-07-21T06:45:51.000Z</time>
      </trkpt>
      <trkpt lat="48.70902" lon="1.74253">
        <ele>179.60000610352</ele>
        <time>2015-07-21T06:45:54.000Z</time>
      </trkpt>
      <trkpt lat="48.70902" lon="1.74251">
        <ele>179.80000305176</ele>
        <time>2015-07-21T06:45:55.000Z</time>
      </trkpt>
      <trkpt lat="48.70901" lon="1.74247">
        <ele>180</ele>
        <time>2015-07-21T06:45:58.000Z</time>
      </trkpt>
      <trkpt lat="48.70901" lon="1.74244">
        <ele>180.19999694824</ele>
        <time>2015-07-21T06:46:01.000Z</time>
      </trkpt>
      <trkpt lat="48.709" lon="1.74242">
        <ele>180.19999694824</ele>
        <time>2015-07-21T06:46:03.000Z</time>
      </trkpt>
      <trkpt lat="48.70898" lon="1.74242">
        <ele>180.19999694824</ele>
        <time>2015-07-21T06:46:07.000Z</time>
      </trkpt>
      <trkpt lat="48.70898" lon="1.7424">
        <ele>180.39999389648</ele>
        <time>2015-07-21T06:46:11.000Z</time>
      </trkpt>
      <trkpt lat="48.70926" lon="1.74164">
        <ele>183.60000610352</ele>
        <time>2015-07-21T06:49:49.000Z</time>
      </trkpt>
      <trkpt lat="48.70927" lon="1.74157">
        <ele>183.80000305176</ele>
        <time>2015-07-21T06:49:52.000Z</time>
      </trkpt>
      <trkpt lat="48.70927" lon="1.74156">
        <ele>183.80000305176</ele>
        <time>2015-07-21T06:49:53.000Z</time>
      </trkpt>
      <trkpt lat="48.70929" lon="1.74143">
        <ele>184</ele>
        <time>2015-07-21T06:50:00.000Z</time>
      </trkpt>
      <trkpt lat="48.7093" lon="1.74137">
        <ele>183.80000305176</ele>
        <time>2015-07-21T06:50:03.000Z</time>
      </trkpt>
      <trkpt lat="48.70932" lon="1.74133">
        <ele>183.80000305176</ele>
        <time>2015-07-21T06:50:05.000Z</time>
      </trkpt>
      <trkpt lat="48.70933" lon="1.74129">
        <ele>183.80000305176</ele>
        <time>2015-07-21T06:50:08.000Z</time>
      </trkpt>
      <trkpt lat="48.70933" lon="1.74124">
        <ele>183.60000610352</ele>
        <time>2015-07-21T06:50:10.000Z</time>
      </trkpt>
      <trkpt lat="48.70933" lon="1.74122">
        <ele>183.60000610352</ele>
        <time>2015-07-21T06:50:11.000Z</time>
      </trkpt>
      <trkpt lat="48.70935" lon="1.74115">
        <ele>183.60000610352</ele>
        <time>2015-07-21T06:50:14.000Z</time>
      </trkpt>
      <trkpt lat="48.70937" lon="1.74111">
        <ele>183.39999389648</ele>
        <time>2015-07-21T06:50:16.000Z</time>
      </trkpt>
      <trkpt lat="48.70937" lon="1.7411">
        <ele>183.39999389648</ele>
        <time>2015-07-21T06:50:17.000Z</time>
      </trkpt>
      <trkpt lat="48.70939" lon="1.74104">
        <ele>183.19999694824</ele>
        <time>2015-07-21T06:50:20.000Z</time>
      </trkpt>
      <trkpt lat="48.7094" lon="1.74102">
        <ele>183.19999694824</ele>
        <time>2015-07-21T06:50:22.000Z</time>
      </trkpt>
      <trkpt lat="48.7094" lon="1.74102">
        <ele>183.19999694824</ele>
        <time>2015-07-21T06:50:23.000Z</time>
      </trkpt>
      <trkpt lat="48.7094" lon="1.74087">
        <ele>183</ele>
        <time>2015-07-21T06:50:35.000Z</time>
      </trkpt>
      <trkpt lat="48.7094" lon="1.74085">
        <ele>183</ele>
        <time>2015-07-21T06:50:36.000Z</time>
      </trkpt>
      <trkpt lat="48.70942" lon="1.74074">
        <ele>182.80000305176</ele>
        <time>2015-07-21T06:50:42.000Z</time>
      </trkpt>
      <trkpt lat="48.70944" lon="1.74069">
        <ele>182.80000305176</ele>
        <time>2015-07-21T06:50:46.000Z</time>
      </trkpt>
      <trkpt lat="48.70947" lon="1.74059">
        <ele>182.80000305176</ele>
        <time>2015-07-21T06:50:52.000Z</time>
      </trkpt>
      <trkpt lat="48.70947" lon="1.74058">
        <ele>183</ele>
        <time>2015-07-21T06:50:53.000Z</time>
      </trkpt>
      <trkpt lat="48.70949" lon="1.74053">
        <ele>183</ele>
        <time>2015-07-21T06:50:56.000Z</time>
      </trkpt>
      <trkpt lat="48.7095" lon="1.74049">
        <ele>183</ele>
        <time>2015-07-21T06:50:58.000Z</time>
      </trkpt>
      <trkpt lat="48.7095" lon="1.74048">
        <ele>183</ele>
        <time>2015-07-21T06:50:59.000Z</time>
      </trkpt>
      <trkpt lat="48.70952" lon="1.7404">
        <ele>183</ele>
        <time>2015-07-21T06:51:03.000Z</time>
      </trkpt>
      <trkpt lat="48.70952" lon="1.74037">
        <ele>183</ele>
        <time>2015-07-21T06:51:04.000Z</time>
      </trkpt>
      <trkpt lat="48.70954" lon="1.74032">
        <ele>183</ele>
        <time>2015-07-21T06:51:07.000Z</time>
      </trkpt>
      <trkpt lat="48.70956" lon="1.74028">
        <ele>183</ele>
        <time>2015-07-21T06:51:09.000Z</time>
      </trkpt>
      <trkpt lat="48.7096" lon="1.74014">
        <ele>183.19999694824</ele>
        <time>2015-07-21T06:51:16.000Z</time>
      </trkpt>
      <trkpt lat="48.70962" lon="1.74005">
        <ele>183.19999694824</ele>
        <time>2015-07-21T06:51:20.000Z</time>
      </trkpt>
      <trkpt lat="48.70963" lon="1.74001">
        <ele>183.19999694824</ele>
        <time>2015-07-21T06:51:22.000Z</time>
      </trkpt>
      <trkpt lat="48.70966" lon="1.73988">
        <ele>183.19999694824</ele>
        <time>2015-07-21T06:51:28.000Z</time>
      </trkpt>
      <trkpt lat="48.70967" lon="1.73978">
        <ele>183.19999694824</ele>
        <time>2015-07-21T06:51:33.000Z</time>
      </trkpt>
      <trkpt lat="48.70968" lon="1.73971">
        <ele>183</ele>
        <time>2015-07-21T06:51:36.000Z</time>
      </trkpt>
      <trkpt lat="48.70969" lon="1.73967">
        <ele>183</ele>
        <time>2015-07-21T06:51:38.000Z</time>
      </trkpt>
      <trkpt lat="48.70972" lon="1.73957">
        <ele>182.80000305176</ele>
        <time>2015-07-21T06:51:43.000Z</time>
      </trkpt>
      <trkpt lat="48.70973" lon="1.7395">
        <ele>182.60000610352</ele>
        <time>2015-07-21T06:51:46.000Z</time>
      </trkpt>
      <trkpt lat="48.70974" lon="1.73943">
        <ele>182.60000610352</ele>
        <time>2015-07-21T06:51:49.000Z</time>
      </trkpt>
      <trkpt lat="48.70976" lon="1.73929">
        <ele>183</ele>
        <time>2015-07-21T06:51:55.000Z</time>
      </trkpt>
      <trkpt lat="48.70977" lon="1.73922">
        <ele>183.39999389648</ele>
        <time>2015-07-21T06:51:58.000Z</time>
      </trkpt>
      <trkpt lat="48.70978" lon="1.73918">
        <ele>183.39999389648</ele>
        <time>2015-07-21T06:52:00.000Z</time>
      </trkpt>
      <trkpt lat="48.70979" lon="1.73914">
        <ele>183.60000610352</ele>
        <time>2015-07-21T06:52:02.000Z</time>
      </trkpt>
      <trkpt lat="48.70982" lon="1.73904">
        <ele>184</ele>
        <time>2015-07-21T06:52:08.000Z</time>
      </trkpt>
      <trkpt lat="48.70982" lon="1.73902">
        <ele>184</ele>
        <time>2015-07-21T06:52:09.000Z</time>
      </trkpt>
      <trkpt lat="48.70985" lon="1.73896">
        <ele>183.80000305176</ele>
        <time>2015-07-21T06:52:13.000Z</time>
      </trkpt>
      <trkpt lat="48.70986" lon="1.73891">
        <ele>183.80000305176</ele>
        <time>2015-07-21T06:52:16.000Z</time>
      </trkpt>
      <trkpt lat="48.70986" lon="1.73889">
        <ele>183.60000610352</ele>
        <time>2015-07-21T06:52:17.000Z</time>
      </trkpt>
      <trkpt lat="48.70989" lon="1.73884">
        <ele>183.60000610352</ele>
        <time>2015-07-21T06:52:21.000Z</time>
      </trkpt>
      <trkpt lat="48.70992" lon="1.73878">
        <ele>183.39999389648</ele>
        <time>2015-07-21T06:52:26.000Z</time>
      </trkpt>
      <trkpt lat="48.70992" lon="1.73875">
        <ele>183.19999694824</ele>
        <time>2015-07-21T06:52:27.000Z</time>
      </trkpt>
      <trkpt lat="48.70997" lon="1.73861">
        <ele>183.19999694824</ele>
        <time>2015-07-21T06:52:35.000Z</time>
      </trkpt>
      <trkpt lat="48.70999" lon="1.73854">
        <ele>183</ele>
        <time>2015-07-21T06:52:39.000Z</time>
      </trkpt>
      <trkpt lat="48.71" lon="1.73846">
        <ele>182.80000305176</ele>
        <time>2015-07-21T06:52:42.000Z</time>
      </trkpt>
      <trkpt lat="48.71003" lon="1.73835">
        <ele>182.80000305176</ele>
        <time>2015-07-21T06:52:48.000Z</time>
      </trkpt>
      <trkpt lat="48.71004" lon="1.73831">
        <ele>182.60000610352</ele>
        <time>2015-07-21T06:52:50.000Z</time>
      </trkpt>
      <trkpt lat="48.71008" lon="1.73821">
        <ele>182.60000610352</ele>
        <time>2015-07-21T06:52:55.000Z</time>
      </trkpt>
      <trkpt lat="48.71013" lon="1.73809">
        <ele>182.39999389648</ele>
        <time>2015-07-21T06:53:02.000Z</time>
      </trkpt>
      <trkpt lat="48.71023" lon="1.73798">
        <ele>182.39999389648</ele>
        <time>2015-07-21T06:53:09.000Z</time>
      </trkpt>
      <trkpt lat="48.71024" lon="1.73796">
        <ele>182.39999389648</ele>
        <time>2015-07-21T06:53:10.000Z</time>
      </trkpt>
      <trkpt lat="48.71028" lon="1.73792">
        <ele>182.19999694824</ele>
        <time>2015-07-21T06:53:13.000Z</time>
      </trkpt>
      <trkpt lat="48.71033" lon="1.73787">
        <ele>182</ele>
        <time>2015-07-21T06:53:18.000Z</time>
      </trkpt>
      <trkpt lat="48.71036" lon="1.73783">
        <ele>181.80000305176</ele>
        <time>2015-07-21T06:53:24.000Z</time>
      </trkpt>
      <trkpt lat="48.71036" lon="1.73782">
        <ele>181.80000305176</ele>
        <time>2015-07-21T06:53:27.000Z</time>
      </trkpt>
      <trkpt lat="48.71045" lon="1.73774">
        <ele>181.60000610352</ele>
        <time>2015-07-21T06:53:56.000Z</time>
      </trkpt>
      <trkpt lat="48.71046" lon="1.73773">
        <ele>181.60000610352</ele>
        <time>2015-07-21T06:53:57.000Z</time>
      </trkpt>
      <trkpt lat="48.71051" lon="1.73767">
        <ele>181.39999389648</ele>
        <time>2015-07-21T06:54:01.000Z</time>
      </trkpt>
      <trkpt lat="48.71051" lon="1.73766">
        <ele>181.39999389648</ele>
        <time>2015-07-21T06:54:02.000Z</time>
      </trkpt>
      <trkpt lat="48.71056" lon="1.73759">
        <ele>181.60000610352</ele>
        <time>2015-07-21T06:54:08.000Z</time>
      </trkpt>
      <trkpt lat="48.71058" lon="1.73756">
        <ele>181.60000610352</ele>
        <time>2015-07-21T06:54:10.000Z</time>
      </trkpt>
      <trkpt lat="48.71062" lon="1.73752">
        <ele>181.80000305176</ele>
        <time>2015-07-21T06:54:14.000Z</time>
      </trkpt>
      <trkpt lat="48.71071" lon="1.73746">
        <ele>182.19999694824</ele>
        <time>2015-07-21T06:54:21.000Z</time>
      </trkpt>
      <trkpt lat="48.71075" lon="1.73743">
        <ele>182.19999694824</ele>
        <time>2015-07-21T06:54:25.000Z</time>
      </trkpt>
      <trkpt lat="48.71077" lon="1.7374">
        <ele>182.39999389648</ele>
        <time>2015-07-21T06:54:27.000Z</time>
      </trkpt>
      <trkpt lat="48.71078" lon="1.73739">
        <ele>182.39999389648</ele>
        <time>2015-07-21T06:54:28.000Z</time>
      </trkpt>
      <trkpt lat="48.71086" lon="1.73733">
        <ele>182.39999389648</ele>
        <time>2015-07-21T06:54:35.000Z</time>
      </trkpt>
      <trkpt lat="48.71092" lon="1.73726">
        <ele>182.39999389648</ele>
        <time>2015-07-21T06:54:42.000Z</time>
      </trkpt>
      <trkpt lat="48.71096" lon="1.7372">
        <ele>182</ele>
        <time>2015-07-21T06:54:47.000Z</time>
      </trkpt>
      <trkpt lat="48.71097" lon="1.73718">
        <ele>182</ele>
        <time>2015-07-21T06:54:48.000Z</time>
      </trkpt>
      <trkpt lat="48.71105" lon="1.7371">
        <ele>181.60000610352</ele>
        <time>2015-07-21T06:54:54.000Z</time>
      </trkpt>
      <trkpt lat="48.71112" lon="1.73705">
        <ele>181.60000610352</ele>
        <time>2015-07-21T06:55:00.000Z</time>
      </trkpt>
      <trkpt lat="48.71114" lon="1.73704">
        <ele>181.60000610352</ele>
        <time>2015-07-21T06:55:01.000Z</time>
      </trkpt>
      <trkpt lat="48.7112" lon="1.737">
        <ele>181.39999389648</ele>
        <time>2015-07-21T06:55:06.000Z</time>
      </trkpt>
      <trkpt lat="48.71127" lon="1.73688">
        <ele>181</ele>
        <time>2015-07-21T06:55:13.000Z</time>
      </trkpt>
      <trkpt lat="48.71137" lon="1.73678">
        <ele>180.80000305176</ele>
        <time>2015-07-21T06:55:20.000Z</time>
      </trkpt>
      <trkpt lat="48.71142" lon="1.73671">
        <ele>181</ele>
        <time>2015-07-21T06:55:25.000Z</time>
      </trkpt>
      <trkpt lat="48.71144" lon="1.73669">
        <ele>181.19999694824</ele>
        <time>2015-07-21T06:55:27.000Z</time>
      </trkpt>
      <trkpt lat="48.7115" lon="1.73661">
        <ele>181.39999389648</ele>
        <time>2015-07-21T06:55:32.000Z</time>
      </trkpt>
      <trkpt lat="48.71152" lon="1.73657">
        <ele>181.39999389648</ele>
        <time>2015-07-21T06:55:34.000Z</time>
      </trkpt>
      <trkpt lat="48.71157" lon="1.73651">
        <ele>181.60000610352</ele>
        <time>2015-07-21T06:55:38.000Z</time>
      </trkpt>
      <trkpt lat="48.71163" lon="1.73645">
        <ele>181.80000305176</ele>
        <time>2015-07-21T06:55:43.000Z</time>
      </trkpt>
      <trkpt lat="48.71169" lon="1.73639">
        <ele>182</ele>
        <time>2015-07-21T06:55:49.000Z</time>
      </trkpt>
      <trkpt lat="48.7117" lon="1.73637">
        <ele>182</ele>
        <time>2015-07-21T06:55:50.000Z</time>
      </trkpt>
      <trkpt lat="48.71178" lon="1.73631">
        <ele>182</ele>
        <time>2015-07-21T06:55:56.000Z</time>
      </trkpt>
      <trkpt lat="48.71182" lon="1.73628">
        <ele>182</ele>
        <time>2015-07-21T06:55:59.000Z</time>
      </trkpt>
      <trkpt lat="48.71185" lon="1.73625">
        <ele>182</ele>
        <time>2015-07-21T06:56:02.000Z</time>
      </trkpt>
      <trkpt lat="48.71185" lon="1.73624">
        <ele>181.80000305176</ele>
        <time>2015-07-21T06:56:03.000Z</time>
      </trkpt>
      <trkpt lat="48.71189" lon="1.73618">
        <ele>181.60000610352</ele>
        <time>2015-07-21T06:56:07.000Z</time>
      </trkpt>
      <trkpt lat="48.71196" lon="1.73614">
        <ele>181.60000610352</ele>
        <time>2015-07-21T06:56:12.000Z</time>
      </trkpt>
      <trkpt lat="48.71207" lon="1.73618">
        <ele>181.80000305176</ele>
        <time>2015-07-21T06:56:19.000Z</time>
      </trkpt>
      <trkpt lat="48.71209" lon="1.73619">
        <ele>181.80000305176</ele>
        <time>2015-07-21T06:56:20.000Z</time>
      </trkpt>
      <trkpt lat="48.71213" lon="1.7362">
        <ele>181.80000305176</ele>
        <time>2015-07-21T06:56:24.000Z</time>
      </trkpt>
      <trkpt lat="48.71215" lon="1.73621">
        <ele>181.80000305176</ele>
        <time>2015-07-21T06:56:25.000Z</time>
      </trkpt>
      <trkpt lat="48.71217" lon="1.73621">
        <ele>181.80000305176</ele>
        <time>2015-07-21T06:56:27.000Z</time>
      </trkpt>
      <trkpt lat="48.71225" lon="1.73621">
        <ele>181.80000305176</ele>
        <time>2015-07-21T06:56:32.000Z</time>
      </trkpt>
      <trkpt lat="48.7123" lon="1.73621">
        <ele>181.80000305176</ele>
        <time>2015-07-21T06:56:36.000Z</time>
      </trkpt>
      <trkpt lat="48.71232" lon="1.73622">
        <ele>181.80000305176</ele>
        <time>2015-07-21T06:56:38.000Z</time>
      </trkpt>
      <trkpt lat="48.71241" lon="1.73623">
        <ele>182</ele>
        <time>2015-07-21T06:56:43.000Z</time>
      </trkpt>
      <trkpt lat="48.71243" lon="1.73622">
        <ele>182.19999694824</ele>
        <time>2015-07-21T06:56:44.000Z</time>
      </trkpt>
      <trkpt lat="48.71256" lon="1.7362">
        <ele>183</ele>
        <time>2015-07-21T06:56:52.000Z</time>
      </trkpt>
      <trkpt lat="48.71264" lon="1.73617">
        <ele>183.60000610352</ele>
        <time>2015-07-21T06:56:58.000Z</time>
      </trkpt>
      <trkpt lat="48.71272" lon="1.73612">
        <ele>183.60000610352</ele>
        <time>2015-07-21T06:57:04.000Z</time>
      </trkpt>
      <trkpt lat="48.71276" lon="1.73609">
        <ele>183.19999694824</ele>
        <time>2015-07-21T06:57:08.000Z</time>
      </trkpt>
      <trkpt lat="48.71279" lon="1.73606">
        <ele>182.60000610352</ele>
        <time>2015-07-21T06:57:10.000Z</time>
      </trkpt>
      <trkpt lat="48.71285" lon="1.73598">
        <ele>181.60000610352</ele>
        <time>2015-07-21T06:57:16.000Z</time>
      </trkpt>
      <trkpt lat="48.71288" lon="1.73595">
        <ele>181.19999694824</ele>
        <time>2015-07-21T06:57:19.000Z</time>
      </trkpt>
      <trkpt lat="48.71292" lon="1.73589">
        <ele>180.80000305176</ele>
        <time>2015-07-21T06:57:23.000Z</time>
      </trkpt>
      <trkpt lat="48.71297" lon="1.73582">
        <ele>180.39999389648</ele>
        <time>2015-07-21T06:57:29.000Z</time>
      </trkpt>
      <trkpt lat="48.71298" lon="1.73581">
        <ele>180.19999694824</ele>
        <time>2015-07-21T06:57:30.000Z</time>
      </trkpt>
      <trkpt lat="48.713" lon="1.73574">
        <ele>180.19999694824</ele>
        <time>2015-07-21T06:57:34.000Z</time>
      </trkpt>
      <trkpt lat="48.71302" lon="1.73566">
        <ele>179.80000305176</ele>
        <time>2015-07-21T06:57:39.000Z</time>
      </trkpt>
      <trkpt lat="48.71306" lon="1.73559">
        <ele>179</ele>
        <time>2015-07-21T06:57:43.000Z</time>
      </trkpt>
      <trkpt lat="48.71308" lon="1.73557">
        <ele>178.60000610352</ele>
        <time>2015-07-21T06:57:45.000Z</time>
      </trkpt>
      <trkpt lat="48.71314" lon="1.73552">
        <ele>177.60000610352</ele>
        <time>2015-07-21T06:57:51.000Z</time>
      </trkpt>
      <trkpt lat="48.71315" lon="1.73552">
        <ele>177.39999389648</ele>
        <time>2015-07-21T06:57:52.000Z</time>
      </trkpt>
      <trkpt lat="48.7132" lon="1.73546">
        <ele>176.39999389648</ele>
        <time>2015-07-21T06:57:56.000Z</time>
      </trkpt>
      <trkpt lat="48.71327" lon="1.7354">
        <ele>175.39999389648</ele>
        <time>2015-07-21T06:58:01.000Z</time>
      </trkpt>
      <trkpt lat="48.71328" lon="1.73538">
        <ele>175.39999389648</ele>
        <time>2015-07-21T06:58:02.000Z</time>
      </trkpt>
      <trkpt lat="48.71335" lon="1.73534">
        <ele>175.39999389648</ele>
        <time>2015-07-21T06:58:08.000Z</time>
      </trkpt>
      <trkpt lat="48.71339" lon="1.73535">
        <ele>175</ele>
        <time>2015-07-21T06:58:11.000Z</time>
      </trkpt>
      <trkpt lat="48.71342" lon="1.73538">
        <ele>174.60000610352</ele>
        <time>2015-07-21T06:58:13.000Z</time>
      </trkpt>
      <trkpt lat="48.71345" lon="1.73542">
        <ele>174.19999694824</ele>
        <time>2015-07-21T06:58:17.000Z</time>
      </trkpt>
      <trkpt lat="48.71347" lon="1.73544">
        <ele>174</ele>
        <time>2015-07-21T06:58:19.000Z</time>
      </trkpt>
      <trkpt lat="48.71353" lon="1.73549">
        <ele>173.39999389648</ele>
        <time>2015-07-21T06:58:24.000Z</time>
      </trkpt>
      <trkpt lat="48.71364" lon="1.73559">
        <ele>171.39999389648</ele>
        <time>2015-07-21T06:58:34.000Z</time>
      </trkpt>
      <trkpt lat="48.71371" lon="1.73566">
        <ele>170.19999694824</ele>
        <time>2015-07-21T06:58:40.000Z</time>
      </trkpt>
      <trkpt lat="48.71378" lon="1.73571">
        <ele>169.19999694824</ele>
        <time>2015-07-21T06:58:45.000Z</time>
      </trkpt>
      <trkpt lat="48.71386" lon="1.73576">
        <ele>167.80000305176</ele>
        <time>2015-07-21T06:58:52.000Z</time>
      </trkpt>
      <trkpt lat="48.71394" lon="1.73576">
        <ele>166.80000305176</ele>
        <time>2015-07-21T06:58:57.000Z</time>
      </trkpt>
      <trkpt lat="48.71396" lon="1.73575">
        <ele>166.80000305176</ele>
        <time>2015-07-21T06:58:58.000Z</time>
      </trkpt>
      <trkpt lat="48.71408" lon="1.73572">
        <ele>165.39999389648</ele>
        <time>2015-07-21T06:59:06.000Z</time>
      </trkpt>
      <trkpt lat="48.71418" lon="1.73572">
        <ele>164.19999694824</ele>
        <time>2015-07-21T06:59:13.000Z</time>
      </trkpt>
      <trkpt lat="48.71425" lon="1.73571">
        <ele>163.39999389648</ele>
        <time>2015-07-21T06:59:18.000Z</time>
      </trkpt>
      <trkpt lat="48.71425" lon="1.73571">
        <ele>163.39999389648</ele>
        <time>2015-07-21T06:59:20.000Z</time>
      </trkpt>
      <trkpt lat="48.71444" lon="1.73565">
        <ele>161.60000610352</ele>
        <time>2015-07-21T07:00:05.000Z</time>
      </trkpt>
      <trkpt lat="48.71448" lon="1.73564">
        <ele>161.39999389648</ele>
        <time>2015-07-21T07:00:08.000Z</time>
      </trkpt>
      <trkpt lat="48.71456" lon="1.73561">
        <ele>160.80000305176</ele>
        <time>2015-07-21T07:00:14.000Z</time>
      </trkpt>
      <trkpt lat="48.71465" lon="1.73558">
        <ele>160.19999694824</ele>
        <time>2015-07-21T07:00:22.000Z</time>
      </trkpt>
      <trkpt lat="48.71468" lon="1.73558">
        <ele>160</ele>
        <time>2015-07-21T07:00:25.000Z</time>
      </trkpt>
      <trkpt lat="48.71472" lon="1.73557">
        <ele>159.80000305176</ele>
        <time>2015-07-21T07:00:27.000Z</time>
      </trkpt>
      <trkpt lat="48.71478" lon="1.73553">
        <ele>159.39999389648</ele>
        <time>2015-07-21T07:00:31.000Z</time>
      </trkpt>
      <trkpt lat="48.71481" lon="1.73553">
        <ele>159.19999694824</ele>
        <time>2015-07-21T07:00:34.000Z</time>
      </trkpt>
      <trkpt lat="48.71487" lon="1.73553">
        <ele>158.60000610352</ele>
        <time>2015-07-21T07:00:39.000Z</time>
      </trkpt>
      <trkpt lat="48.71491" lon="1.73552">
        <ele>158.39999389648</ele>
        <time>2015-07-21T07:00:43.000Z</time>
      </trkpt>
      <trkpt lat="48.71494" lon="1.73552">
        <ele>158</ele>
        <time>2015-07-21T07:00:45.000Z</time>
      </trkpt>
      <trkpt lat="48.71499" lon="1.73553">
        <ele>157.60000610352</ele>
        <time>2015-07-21T07:00:49.000Z</time>
      </trkpt>
      <trkpt lat="48.71502" lon="1.73553">
        <ele>157.39999389648</ele>
        <time>2015-07-21T07:00:51.000Z</time>
      </trkpt>
      <trkpt lat="48.71508" lon="1.73552">
        <ele>156.39999389648</ele>
        <time>2015-07-21T07:00:56.000Z</time>
      </trkpt>
      <trkpt lat="48.71509" lon="1.73552">
        <ele>156.19999694824</ele>
        <time>2015-07-21T07:00:57.000Z</time>
      </trkpt>
      <trkpt lat="48.71516" lon="1.73552">
        <ele>155</ele>
        <time>2015-07-21T07:01:02.000Z</time>
      </trkpt>
      <trkpt lat="48.71527" lon="1.73551">
        <ele>153.60000610352</ele>
        <time>2015-07-21T07:01:09.000Z</time>
      </trkpt>
      <trkpt lat="48.71538" lon="1.73547">
        <ele>152</ele>
        <time>2015-07-21T07:01:17.000Z</time>
      </trkpt>
      <trkpt lat="48.71547" lon="1.73545">
        <ele>150.80000305176</ele>
        <time>2015-07-21T07:01:23.000Z</time>
      </trkpt>
      <trkpt lat="48.71554" lon="1.73543">
        <ele>150</ele>
        <time>2015-07-21T07:01:28.000Z</time>
      </trkpt>
      <trkpt lat="48.71565" lon="1.7354">
        <ele>148.60000610352</ele>
        <time>2015-07-21T07:01:35.000Z</time>
      </trkpt>
      <trkpt lat="48.71575" lon="1.73538">
        <ele>147.39999389648</ele>
        <time>2015-07-21T07:01:42.000Z</time>
      </trkpt>
      <trkpt lat="48.71584" lon="1.73535">
        <ele>146.39999389648</ele>
        <time>2015-07-21T07:01:48.000Z</time>
      </trkpt>
      <trkpt lat="48.71593" lon="1.73533">
        <ele>145.60000610352</ele>
        <time>2015-07-21T07:01:55.000Z</time>
      </trkpt>
      <trkpt lat="48.71599" lon="1.73532">
        <ele>145</ele>
        <time>2015-07-21T07:01:59.000Z</time>
      </trkpt>
      <trkpt lat="48.71608" lon="1.73529">
        <ele>144.19999694824</ele>
        <time>2015-07-21T07:02:06.000Z</time>
      </trkpt>
      <trkpt lat="48.71613" lon="1.73527">
        <ele>144</ele>
        <time>2015-07-21T07:02:10.000Z</time>
      </trkpt>
      <trkpt lat="48.71614" lon="1.73527">
        <ele>143.80000305176</ele>
        <time>2015-07-21T07:02:11.000Z</time>
      </trkpt>
      <trkpt lat="48.71621" lon="1.73525">
        <ele>143.39999389648</ele>
        <time>2015-07-21T07:02:16.000Z</time>
      </trkpt>
      <trkpt lat="48.71628" lon="1.73523">
        <ele>143</ele>
        <time>2015-07-21T07:02:21.000Z</time>
      </trkpt>
      <trkpt lat="48.71629" lon="1.73523">
        <ele>142.80000305176</ele>
        <time>2015-07-21T07:02:22.000Z</time>
      </trkpt>
      <trkpt lat="48.71639" lon="1.7352">
        <ele>142.19999694824</ele>
        <time>2015-07-21T07:02:29.000Z</time>
      </trkpt>
      <trkpt lat="48.7165" lon="1.73518">
        <ele>141.80000305176</ele>
        <time>2015-07-21T07:02:37.000Z</time>
      </trkpt>
      <trkpt lat="48.71656" lon="1.73515">
        <ele>141.39999389648</ele>
        <time>2015-07-21T07:02:42.000Z</time>
      </trkpt>
      <trkpt lat="48.71657" lon="1.73515">
        <ele>141.39999389648</ele>
        <time>2015-07-21T07:02:43.000Z</time>
      </trkpt>
      <trkpt lat="48.71664" lon="1.73515">
        <ele>141.19999694824</ele>
        <time>2015-07-21T07:02:48.000Z</time>
      </trkpt>
      <trkpt lat="48.71672" lon="1.73511">
        <ele>140.80000305176</ele>
        <time>2015-07-21T07:02:54.000Z</time>
      </trkpt>
      <trkpt lat="48.71673" lon="1.73511">
        <ele>140.60000610352</ele>
        <time>2015-07-21T07:02:55.000Z</time>
      </trkpt>
      <trkpt lat="48.7168" lon="1.73509">
        <ele>140.39999389648</ele>
        <time>2015-07-21T07:03:02.000Z</time>
      </trkpt>
      <trkpt lat="48.71681" lon="1.7351">
        <ele>140.39999389648</ele>
        <time>2015-07-21T07:03:03.000Z</time>
      </trkpt>
      <trkpt lat="48.71685" lon="1.73509">
        <ele>140.19999694824</ele>
        <time>2015-07-21T07:03:06.000Z</time>
      </trkpt>
      <trkpt lat="48.71689" lon="1.73508">
        <ele>140</ele>
        <time>2015-07-21T07:03:09.000Z</time>
      </trkpt>
      <trkpt lat="48.71697" lon="1.73506">
        <ele>140</ele>
        <time>2015-07-21T07:03:15.000Z</time>
      </trkpt>
      <trkpt lat="48.71703" lon="1.73505">
        <ele>140</ele>
        <time>2015-07-21T07:03:19.000Z</time>
      </trkpt>
      <trkpt lat="48.71707" lon="1.73504">
        <ele>140</ele>
        <time>2015-07-21T07:03:21.000Z</time>
      </trkpt>
      <trkpt lat="48.71722" lon="1.73502">
        <ele>139.19999694824</ele>
        <time>2015-07-21T07:03:31.000Z</time>
      </trkpt>
      <trkpt lat="48.71731" lon="1.735">
        <ele>139</ele>
        <time>2015-07-21T07:03:37.000Z</time>
      </trkpt>
      <trkpt lat="48.71732" lon="1.735">
        <ele>138.80000305176</ele>
        <time>2015-07-21T07:03:38.000Z</time>
      </trkpt>
      <trkpt lat="48.71735" lon="1.735">
        <ele>138.80000305176</ele>
        <time>2015-07-21T07:03:40.000Z</time>
      </trkpt>
      <trkpt lat="48.7174" lon="1.73499">
        <ele>138.39999389648</ele>
        <time>2015-07-21T07:03:44.000Z</time>
      </trkpt>
      <trkpt lat="48.71748" lon="1.735">
        <ele>138.19999694824</ele>
        <time>2015-07-21T07:03:49.000Z</time>
      </trkpt>
      <trkpt lat="48.71751" lon="1.73499">
        <ele>138</ele>
        <time>2015-07-21T07:03:51.000Z</time>
      </trkpt>
      <trkpt lat="48.71754" lon="1.73499">
        <ele>138</ele>
        <time>2015-07-21T07:03:53.000Z</time>
      </trkpt>
      <trkpt lat="48.71757" lon="1.73497">
        <ele>137.80000305176</ele>
        <time>2015-07-21T07:03:55.000Z</time>
      </trkpt>
      <trkpt lat="48.71761" lon="1.73494">
        <ele>137.60000610352</ele>
        <time>2015-07-21T07:03:58.000Z</time>
      </trkpt>
      <trkpt lat="48.71763" lon="1.73492">
        <ele>137.39999389648</ele>
        <time>2015-07-21T07:04:00.000Z</time>
      </trkpt>
      <trkpt lat="48.71773" lon="1.73484">
        <ele>136.80000305176</ele>
        <time>2015-07-21T07:04:07.000Z</time>
      </trkpt>
      <trkpt lat="48.71781" lon="1.7348">
        <ele>136.60000610352</ele>
        <time>2015-07-21T07:04:13.000Z</time>
      </trkpt>
      <trkpt lat="48.71787" lon="1.73478">
        <ele>136.39999389648</ele>
        <time>2015-07-21T07:04:17.000Z</time>
      </trkpt>
      <trkpt lat="48.7179" lon="1.73477">
        <ele>136.19999694824</ele>
        <time>2015-07-21T07:04:19.000Z</time>
      </trkpt>
      <trkpt lat="48.71792" lon="1.73476">
        <ele>136.19999694824</ele>
        <time>2015-07-21T07:04:21.000Z</time>
      </trkpt>
      <trkpt lat="48.71792" lon="1.73476">
        <ele>136.19999694824</ele>
        <time>2015-07-21T07:04:23.000Z</time>
      </trkpt>
      <trkpt lat="48.71804" lon="1.73491">
        <ele>135.80000305176</ele>
        <time>2015-07-21T07:09:18.000Z</time>
      </trkpt>
      <trkpt lat="48.71805" lon="1.73491">
        <ele>135.80000305176</ele>
        <time>2015-07-21T07:09:20.000Z</time>
      </trkpt>
      <trkpt lat="48.71821" lon="1.73474">
        <ele>135.19999694824</ele>
        <time>2015-07-21T07:09:58.000Z</time>
      </trkpt>
      <trkpt lat="48.71823" lon="1.73474">
        <ele>135.19999694824</ele>
        <time>2015-07-21T07:10:00.000Z</time>
      </trkpt>
      <trkpt lat="48.71824" lon="1.73475">
        <ele>135</ele>
        <time>2015-07-21T07:10:02.000Z</time>
      </trkpt>
      <trkpt lat="48.71826" lon="1.73474">
        <ele>135</ele>
        <time>2015-07-21T07:10:03.000Z</time>
      </trkpt>
      <trkpt lat="48.71828" lon="1.73473">
        <ele>135</ele>
        <time>2015-07-21T07:10:05.000Z</time>
      </trkpt>
      <trkpt lat="48.71835" lon="1.73471">
        <ele>134.60000610352</ele>
        <time>2015-07-21T07:10:10.000Z</time>
      </trkpt>
      <trkpt lat="48.71837" lon="1.7347">
        <ele>134.60000610352</ele>
        <time>2015-07-21T07:10:11.000Z</time>
      </trkpt>
      <trkpt lat="48.71841" lon="1.73469">
        <ele>134.39999389648</ele>
        <time>2015-07-21T07:10:15.000Z</time>
      </trkpt>
      <trkpt lat="48.71848" lon="1.73469">
        <ele>134</ele>
        <time>2015-07-21T07:10:20.000Z</time>
      </trkpt>
      <trkpt lat="48.71856" lon="1.73468">
        <ele>133.39999389648</ele>
        <time>2015-07-21T07:10:26.000Z</time>
      </trkpt>
      <trkpt lat="48.71861" lon="1.73468">
        <ele>133.39999389648</ele>
        <time>2015-07-21T07:10:30.000Z</time>
      </trkpt>
      <trkpt lat="48.71865" lon="1.73468">
        <ele>133.19999694824</ele>
        <time>2015-07-21T07:10:33.000Z</time>
      </trkpt>
      <trkpt lat="48.71872" lon="1.73466">
        <ele>133</ele>
        <time>2015-07-21T07:10:38.000Z</time>
      </trkpt>
      <trkpt lat="48.71874" lon="1.73465">
        <ele>133</ele>
        <time>2015-07-21T07:10:40.000Z</time>
      </trkpt>
      <trkpt lat="48.71877" lon="1.73465">
        <ele>133</ele>
        <time>2015-07-21T07:10:42.000Z</time>
      </trkpt>
      <trkpt lat="48.71879" lon="1.73464">
        <ele>132.80000305176</ele>
        <time>2015-07-21T07:10:44.000Z</time>
      </trkpt>
      <trkpt lat="48.71881" lon="1.73465">
        <ele>132.80000305176</ele>
        <time>2015-07-21T07:10:45.000Z</time>
      </trkpt>
      <trkpt lat="48.71883" lon="1.73463">
        <ele>132.80000305176</ele>
        <time>2015-07-21T07:10:47.000Z</time>
      </trkpt>
      <trkpt lat="48.7189" lon="1.73464">
        <ele>132.60000610352</ele>
        <time>2015-07-21T07:10:52.000Z</time>
      </trkpt>
      <trkpt lat="48.71899" lon="1.73462">
        <ele>132.39999389648</ele>
        <time>2015-07-21T07:10:58.000Z</time>
      </trkpt>
      <trkpt lat="48.71903" lon="1.73461">
        <ele>132.19999694824</ele>
        <time>2015-07-21T07:11:02.000Z</time>
      </trkpt>
      <trkpt lat="48.71905" lon="1.73461">
        <ele>132.19999694824</ele>
        <time>2015-07-21T07:11:03.000Z</time>
      </trkpt>
      <trkpt lat="48.71908" lon="1.73459">
        <ele>132</ele>
        <time>2015-07-21T07:11:06.000Z</time>
      </trkpt>
      <trkpt lat="48.71909" lon="1.73459">
        <ele>132</ele>
        <time>2015-07-21T07:11:07.000Z</time>
      </trkpt>
      <trkpt lat="48.71911" lon="1.73461">
        <ele>132</ele>
        <time>2015-07-21T07:11:09.000Z</time>
      </trkpt>
      <trkpt lat="48.71916" lon="1.73459">
        <ele>131.80000305176</ele>
        <time>2015-07-21T07:11:12.000Z</time>
      </trkpt>
      <trkpt lat="48.71919" lon="1.73457">
        <ele>131.80000305176</ele>
        <time>2015-07-21T07:11:14.000Z</time>
      </trkpt>
      <trkpt lat="48.71924" lon="1.73458">
        <ele>131.60000610352</ele>
        <time>2015-07-21T07:11:17.000Z</time>
      </trkpt>
      <trkpt lat="48.71926" lon="1.73457">
        <ele>131.60000610352</ele>
        <time>2015-07-21T07:11:18.000Z</time>
      </trkpt>
      <trkpt lat="48.71929" lon="1.73458">
        <ele>131.60000610352</ele>
        <time>2015-07-21T07:11:20.000Z</time>
      </trkpt>
      <trkpt lat="48.71931" lon="1.73458">
        <ele>131.39999389648</ele>
        <time>2015-07-21T07:11:22.000Z</time>
      </trkpt>
      <trkpt lat="48.71934" lon="1.73458">
        <ele>131.39999389648</ele>
        <time>2015-07-21T07:11:24.000Z</time>
      </trkpt>
      <trkpt lat="48.71936" lon="1.73458">
        <ele>131.39999389648</ele>
        <time>2015-07-21T07:11:26.000Z</time>
      </trkpt>
      <trkpt lat="48.71938" lon="1.73458">
        <ele>131.19999694824</ele>
        <time>2015-07-21T07:11:27.000Z</time>
      </trkpt>
      <trkpt lat="48.71946" lon="1.73454">
        <ele>131.19999694824</ele>
        <time>2015-07-21T07:11:33.000Z</time>
      </trkpt>
      <trkpt lat="48.71952" lon="1.73452">
        <ele>131.19999694824</ele>
        <time>2015-07-21T07:11:37.000Z</time>
      </trkpt>
      <trkpt lat="48.71952" lon="1.73452">
        <ele>131.19999694824</ele>
        <time>2015-07-21T07:11:38.000Z</time>
      </trkpt>
      <trkpt lat="48.71955" lon="1.73452">
        <ele>131.19999694824</ele>
        <time>2015-07-21T07:11:41.000Z</time>
      </trkpt>
      <trkpt lat="48.71957" lon="1.73454">
        <ele>131.19999694824</ele>
        <time>2015-07-21T07:11:43.000Z</time>
      </trkpt>
      <trkpt lat="48.71958" lon="1.73453">
        <ele>131.19999694824</ele>
        <time>2015-07-21T07:11:45.000Z</time>
      </trkpt>
      <trkpt lat="48.71962" lon="1.73451">
        <ele>131.19999694824</ele>
        <time>2015-07-21T07:11:48.000Z</time>
      </trkpt>
      <trkpt lat="48.71963" lon="1.7345">
        <ele>131.19999694824</ele>
        <time>2015-07-21T07:11:49.000Z</time>
      </trkpt>
      <trkpt lat="48.71971" lon="1.73448">
        <ele>131</ele>
        <time>2015-07-21T07:11:55.000Z</time>
      </trkpt>
      <trkpt lat="48.71978" lon="1.73445">
        <ele>131</ele>
        <time>2015-07-21T07:12:01.000Z</time>
      </trkpt>
      <trkpt lat="48.71988" lon="1.73441">
        <ele>130.80000305176</ele>
        <time>2015-07-21T07:12:07.000Z</time>
      </trkpt>
      <trkpt lat="48.72001" lon="1.73435">
        <ele>130.80000305176</ele>
        <time>2015-07-21T07:12:16.000Z</time>
      </trkpt>
      <trkpt lat="48.72013" lon="1.73429">
        <ele>130.60000610352</ele>
        <time>2015-07-21T07:12:25.000Z</time>
      </trkpt>
      <trkpt lat="48.72019" lon="1.73427">
        <ele>130.60000610352</ele>
        <time>2015-07-21T07:12:30.000Z</time>
      </trkpt>
      <trkpt lat="48.72026" lon="1.73423">
        <ele>130.19999694824</ele>
        <time>2015-07-21T07:12:35.000Z</time>
      </trkpt>
      <trkpt lat="48.72027" lon="1.73421">
        <ele>130.19999694824</ele>
        <time>2015-07-21T07:12:36.000Z</time>
      </trkpt>
      <trkpt lat="48.72031" lon="1.7342">
        <ele>130</ele>
        <time>2015-07-21T07:12:40.000Z</time>
      </trkpt>
      <trkpt lat="48.72032" lon="1.7342">
        <ele>130</ele>
        <time>2015-07-21T07:12:41.000Z</time>
      </trkpt>
      <trkpt lat="48.72036" lon="1.7342">
        <ele>129.80000305176</ele>
        <time>2015-07-21T07:12:44.000Z</time>
      </trkpt>
      <trkpt lat="48.72037" lon="1.7342">
        <ele>129.80000305176</ele>
        <time>2015-07-21T07:12:45.000Z</time>
      </trkpt>
      <trkpt lat="48.72041" lon="1.73419">
        <ele>129.80000305176</ele>
        <time>2015-07-21T07:12:49.000Z</time>
      </trkpt>
      <trkpt lat="48.72045" lon="1.73418">
        <ele>129.80000305176</ele>
        <time>2015-07-21T07:12:53.000Z</time>
      </trkpt>
      <trkpt lat="48.72048" lon="1.73419">
        <ele>129.80000305176</ele>
        <time>2015-07-21T07:12:55.000Z</time>
      </trkpt>
      <trkpt lat="48.72054" lon="1.73422">
        <ele>129.80000305176</ele>
        <time>2015-07-21T07:13:00.000Z</time>
      </trkpt>
      <trkpt lat="48.72055" lon="1.73421">
        <ele>129.80000305176</ele>
        <time>2015-07-21T07:13:01.000Z</time>
      </trkpt>
      <trkpt lat="48.72065" lon="1.73421">
        <ele>129.80000305176</ele>
        <time>2015-07-21T07:13:07.000Z</time>
      </trkpt>
      <trkpt lat="48.72067" lon="1.73421">
        <ele>129.80000305176</ele>
        <time>2015-07-21T07:13:08.000Z</time>
      </trkpt>
      <trkpt lat="48.72072" lon="1.73419">
        <ele>129.80000305176</ele>
        <time>2015-07-21T07:13:11.000Z</time>
      </trkpt>
      <trkpt lat="48.72076" lon="1.73417">
        <ele>129.80000305176</ele>
        <time>2015-07-21T07:13:13.000Z</time>
      </trkpt>
      <trkpt lat="48.72077" lon="1.73417">
        <ele>129.80000305176</ele>
        <time>2015-07-21T07:13:14.000Z</time>
      </trkpt>
      <trkpt lat="48.7208" lon="1.73416">
        <ele>129.80000305176</ele>
        <time>2015-07-21T07:13:16.000Z</time>
      </trkpt>
      <trkpt lat="48.72086" lon="1.73411">
        <ele>130</ele>
        <time>2015-07-21T07:13:20.000Z</time>
      </trkpt>
      <trkpt lat="48.72088" lon="1.7341">
        <ele>130</ele>
        <time>2015-07-21T07:13:22.000Z</time>
      </trkpt>
      <trkpt lat="48.72089" lon="1.7341">
        <ele>130</ele>
        <time>2015-07-21T07:13:25.000Z</time>
      </trkpt>
      <trkpt lat="48.72097" lon="1.73408">
        <ele>130</ele>
        <time>2015-07-21T07:13:31.000Z</time>
      </trkpt>
      <trkpt lat="48.72108" lon="1.73405">
        <ele>129.80000305176</ele>
        <time>2015-07-21T07:13:38.000Z</time>
      </trkpt>
      <trkpt lat="48.72115" lon="1.73405">
        <ele>129.60000610352</ele>
        <time>2015-07-21T07:13:43.000Z</time>
      </trkpt>
      <trkpt lat="48.72116" lon="1.73405">
        <ele>129.60000610352</ele>
        <time>2015-07-21T07:13:44.000Z</time>
      </trkpt>
      <trkpt lat="48.72125" lon="1.73413">
        <ele>129.19999694824</ele>
        <time>2015-07-21T07:13:51.000Z</time>
      </trkpt>
      <trkpt lat="48.7213" lon="1.73413">
        <ele>129</ele>
        <time>2015-07-21T07:13:54.000Z</time>
      </trkpt>
      <trkpt lat="48.72136" lon="1.73411">
        <ele>128.80000305176</ele>
        <time>2015-07-21T07:13:58.000Z</time>
      </trkpt>
      <trkpt lat="48.72137" lon="1.73411">
        <ele>128.80000305176</ele>
        <time>2015-07-21T07:13:59.000Z</time>
      </trkpt>
      <trkpt lat="48.72141" lon="1.73411">
        <ele>128.60000610352</ele>
        <time>2015-07-21T07:14:02.000Z</time>
      </trkpt>
      <trkpt lat="48.72143" lon="1.7341">
        <ele>128.60000610352</ele>
        <time>2015-07-21T07:14:03.000Z</time>
      </trkpt>
      <trkpt lat="48.72149" lon="1.73407">
        <ele>128.39999389648</ele>
        <time>2015-07-21T07:14:07.000Z</time>
      </trkpt>
      <trkpt lat="48.72152" lon="1.73405">
        <ele>128.19999694824</ele>
        <time>2015-07-21T07:14:10.000Z</time>
      </trkpt>
      <trkpt lat="48.72161" lon="1.734">
        <ele>127.80000305176</ele>
        <time>2015-07-21T07:14:16.000Z</time>
      </trkpt>
      <trkpt lat="48.7217" lon="1.73398">
        <ele>127.40000152588</ele>
        <time>2015-07-21T07:14:22.000Z</time>
      </trkpt>
      <trkpt lat="48.72177" lon="1.73397">
        <ele>127.19999694824</ele>
        <time>2015-07-21T07:14:27.000Z</time>
      </trkpt>
      <trkpt lat="48.72185" lon="1.73394">
        <ele>126.80000305176</ele>
        <time>2015-07-21T07:14:33.000Z</time>
      </trkpt>
      <trkpt lat="48.72191" lon="1.73393">
        <ele>126.80000305176</ele>
        <time>2015-07-21T07:14:38.000Z</time>
      </trkpt>
      <trkpt lat="48.72196" lon="1.73394">
        <ele>126.80000305176</ele>
        <time>2015-07-21T07:14:42.000Z</time>
      </trkpt>
      <trkpt lat="48.72199" lon="1.73394">
        <ele>126.80000305176</ele>
        <time>2015-07-21T07:14:44.000Z</time>
      </trkpt>
      <trkpt lat="48.72206" lon="1.73392">
        <ele>127</ele>
        <time>2015-07-21T07:14:50.000Z</time>
      </trkpt>
      <trkpt lat="48.72207" lon="1.73393">
        <ele>127</ele>
        <time>2015-07-21T07:14:51.000Z</time>
      </trkpt>
      <trkpt lat="48.72212" lon="1.73393">
        <ele>127</ele>
        <time>2015-07-21T07:14:54.000Z</time>
      </trkpt>
      <trkpt lat="48.72212" lon="1.73392">
        <ele>127</ele>
        <time>2015-07-21T07:14:55.000Z</time>
      </trkpt>
      <trkpt lat="48.72213" lon="1.73392">
        <ele>127</ele>
        <time>2015-07-21T07:14:56.000Z</time>
      </trkpt>
      <trkpt lat="48.72218" lon="1.73391">
        <ele>127</ele>
        <time>2015-07-21T07:14:59.000Z</time>
      </trkpt>
      <trkpt lat="48.7222" lon="1.73389">
        <ele>127</ele>
        <time>2015-07-21T07:15:00.000Z</time>
      </trkpt>
      <trkpt lat="48.72225" lon="1.73385">
        <ele>127</ele>
        <time>2015-07-21T07:15:03.000Z</time>
      </trkpt>
      <trkpt lat="48.72234" lon="1.73387">
        <ele>127.19999694824</ele>
        <time>2015-07-21T07:15:08.000Z</time>
      </trkpt>
      <trkpt lat="48.72243" lon="1.73389">
        <ele>127.40000152588</ele>
        <time>2015-07-21T07:15:13.000Z</time>
      </trkpt>
      <trkpt lat="48.72249" lon="1.73389">
        <ele>127.40000152588</ele>
        <time>2015-07-21T07:15:18.000Z</time>
      </trkpt>
      <trkpt lat="48.7225" lon="1.73389">
        <ele>127.40000152588</ele>
        <time>2015-07-21T07:15:19.000Z</time>
      </trkpt>
      <trkpt lat="48.72259" lon="1.73389">
        <ele>127.59999847412</ele>
        <time>2015-07-21T07:15:25.000Z</time>
      </trkpt>
      <trkpt lat="48.72265" lon="1.73391">
        <ele>127.80000305176</ele>
        <time>2015-07-21T07:15:30.000Z</time>
      </trkpt>
      <trkpt lat="48.72271" lon="1.73394">
        <ele>128</ele>
        <time>2015-07-21T07:15:35.000Z</time>
      </trkpt>
      <trkpt lat="48.7228" lon="1.73394">
        <ele>128</ele>
        <time>2015-07-21T07:15:41.000Z</time>
      </trkpt>
      <trkpt lat="48.72283" lon="1.73394">
        <ele>128</ele>
        <time>2015-07-21T07:15:43.000Z</time>
      </trkpt>
      <trkpt lat="48.72287" lon="1.73396">
        <ele>128</ele>
        <time>2015-07-21T07:15:47.000Z</time>
      </trkpt>
      <trkpt lat="48.72289" lon="1.73397">
        <ele>128</ele>
        <time>2015-07-21T07:15:48.000Z</time>
      </trkpt>
      <trkpt lat="48.72295" lon="1.734">
        <ele>128</ele>
        <time>2015-07-21T07:15:53.000Z</time>
      </trkpt>
      <trkpt lat="48.72296" lon="1.734">
        <ele>128</ele>
        <time>2015-07-21T07:15:54.000Z</time>
      </trkpt>
      <trkpt lat="48.72306" lon="1.73405">
        <ele>128</ele>
        <time>2015-07-21T07:16:01.000Z</time>
      </trkpt>
      <trkpt lat="48.72312" lon="1.73406">
        <ele>128</ele>
        <time>2015-07-21T07:16:05.000Z</time>
      </trkpt>
      <trkpt lat="48.72314" lon="1.73406">
        <ele>128</ele>
        <time>2015-07-21T07:16:07.000Z</time>
      </trkpt>
      <trkpt lat="48.72325" lon="1.73406">
        <ele>128</ele>
        <time>2015-07-21T07:16:14.000Z</time>
      </trkpt>
      <trkpt lat="48.72332" lon="1.73406">
        <ele>128</ele>
        <time>2015-07-21T07:16:19.000Z</time>
      </trkpt>
      <trkpt lat="48.72339" lon="1.73406">
        <ele>128</ele>
        <time>2015-07-21T07:16:23.000Z</time>
      </trkpt>
      <trkpt lat="48.72342" lon="1.73407">
        <ele>128</ele>
        <time>2015-07-21T07:16:26.000Z</time>
      </trkpt>
      <trkpt lat="48.72345" lon="1.73408">
        <ele>128</ele>
        <time>2015-07-21T07:16:28.000Z</time>
      </trkpt>
      <trkpt lat="48.72346" lon="1.73409">
        <ele>128</ele>
        <time>2015-07-21T07:16:29.000Z</time>
      </trkpt>
      <trkpt lat="48.72353" lon="1.73412">
        <ele>128</ele>
        <time>2015-07-21T07:16:34.000Z</time>
      </trkpt>
      <trkpt lat="48.72361" lon="1.73416">
        <ele>127.80000305176</ele>
        <time>2015-07-21T07:16:40.000Z</time>
      </trkpt>
      <trkpt lat="48.72369" lon="1.73416">
        <ele>127.59999847412</ele>
        <time>2015-07-21T07:16:45.000Z</time>
      </trkpt>
      <trkpt lat="48.72374" lon="1.73415">
        <ele>127.59999847412</ele>
        <time>2015-07-21T07:16:48.000Z</time>
      </trkpt>
      <trkpt lat="48.72377" lon="1.73415">
        <ele>127.40000152588</ele>
        <time>2015-07-21T07:16:51.000Z</time>
      </trkpt>
      <trkpt lat="48.72387" lon="1.73418">
        <ele>127.19999694824</ele>
        <time>2015-07-21T07:16:57.000Z</time>
      </trkpt>
      <trkpt lat="48.72388" lon="1.73419">
        <ele>127.19999694824</ele>
        <time>2015-07-21T07:16:58.000Z</time>
      </trkpt>
      <trkpt lat="48.72392" lon="1.73419">
        <ele>127</ele>
        <time>2015-07-21T07:17:01.000Z</time>
      </trkpt>
      <trkpt lat="48.72396" lon="1.73418">
        <ele>127</ele>
        <time>2015-07-21T07:17:04.000Z</time>
      </trkpt>
      <trkpt lat="48.72397" lon="1.73419">
        <ele>127</ele>
        <time>2015-07-21T07:17:05.000Z</time>
      </trkpt>
      <trkpt lat="48.72399" lon="1.73419">
        <ele>127</ele>
        <time>2015-07-21T07:17:06.000Z</time>
      </trkpt>
      <trkpt lat="48.72407" lon="1.73421">
        <ele>126.80000305176</ele>
        <time>2015-07-21T07:17:12.000Z</time>
      </trkpt>
      <trkpt lat="48.7241" lon="1.73422">
        <ele>126.59999847412</ele>
        <time>2015-07-21T07:17:14.000Z</time>
      </trkpt>
      <trkpt lat="48.72414" lon="1.73424">
        <ele>126.59999847412</ele>
        <time>2015-07-21T07:17:17.000Z</time>
      </trkpt>
      <trkpt lat="48.72416" lon="1.73424">
        <ele>126.59999847412</ele>
        <time>2015-07-21T07:17:18.000Z</time>
      </trkpt>
      <trkpt lat="48.72424" lon="1.73429">
        <ele>126.40000152588</ele>
        <time>2015-07-21T07:17:23.000Z</time>
      </trkpt>
      <trkpt lat="48.72427" lon="1.73429">
        <ele>126.19999694824</ele>
        <time>2015-07-21T07:17:24.000Z</time>
      </trkpt>
      <trkpt lat="48.72429" lon="1.73431">
        <ele>126.19999694824</ele>
        <time>2015-07-21T07:17:25.000Z</time>
      </trkpt>
      <trkpt lat="48.72435" lon="1.73433">
        <ele>126</ele>
        <time>2015-07-21T07:17:27.000Z</time>
      </trkpt>
      <trkpt lat="48.72454" lon="1.73436">
        <ele>126.40000152588</ele>
        <time>2015-07-21T07:17:32.000Z</time>
      </trkpt>
      <trkpt lat="48.7247" lon="1.73439">
        <ele>126.80000305176</ele>
        <time>2015-07-21T07:17:37.000Z</time>
      </trkpt>
      <trkpt lat="48.72491" lon="1.73442">
        <ele>127.40000152588</ele>
        <time>2015-07-21T07:17:43.000Z</time>
      </trkpt>
      <trkpt lat="48.72507" lon="1.73447">
        <ele>128</ele>
        <time>2015-07-21T07:17:48.000Z</time>
      </trkpt>
      <trkpt lat="48.72513" lon="1.7345">
        <ele>128.19999694824</ele>
        <time>2015-07-21T07:17:50.000Z</time>
      </trkpt>
      <trkpt lat="48.72521" lon="1.73453">
        <ele>128.39999389648</ele>
        <time>2015-07-21T07:17:52.000Z</time>
      </trkpt>
      <trkpt lat="48.72532" lon="1.73458">
        <ele>128.19999694824</ele>
        <time>2015-07-21T07:17:56.000Z</time>
      </trkpt>
      <trkpt lat="48.72535" lon="1.73461">
        <ele>128.19999694824</ele>
        <time>2015-07-21T07:17:57.000Z</time>
      </trkpt>
      <trkpt lat="48.72542" lon="1.73468">
        <ele>128</ele>
        <time>2015-07-21T07:18:01.000Z</time>
      </trkpt>
      <trkpt lat="48.72546" lon="1.73472">
        <ele>127.80000305176</ele>
        <time>2015-07-21T07:18:04.000Z</time>
      </trkpt>
      <trkpt lat="48.72548" lon="1.73474">
        <ele>127.80000305176</ele>
        <time>2015-07-21T07:18:06.000Z</time>
      </trkpt>
      <trkpt lat="48.72554" lon="1.73481">
        <ele>127.59999847412</ele>
        <time>2015-07-21T07:18:11.000Z</time>
      </trkpt>
      <trkpt lat="48.72556" lon="1.73483">
        <ele>127.59999847412</ele>
        <time>2015-07-21T07:18:12.000Z</time>
      </trkpt>
      <trkpt lat="48.7256" lon="1.73489">
        <ele>127.59999847412</ele>
        <time>2015-07-21T07:18:16.000Z</time>
      </trkpt>
      <trkpt lat="48.72561" lon="1.73491">
        <ele>127.59999847412</ele>
        <time>2015-07-21T07:18:17.000Z</time>
      </trkpt>
      <trkpt lat="48.72567" lon="1.73497">
        <ele>127.59999847412</ele>
        <time>2015-07-21T07:18:22.000Z</time>
      </trkpt>
      <trkpt lat="48.7257" lon="1.73499">
        <ele>127.59999847412</ele>
        <time>2015-07-21T07:18:25.000Z</time>
      </trkpt>
      <trkpt lat="48.72572" lon="1.73501">
        <ele>127.59999847412</ele>
        <time>2015-07-21T07:18:27.000Z</time>
      </trkpt>
      <trkpt lat="48.7258" lon="1.73509">
        <ele>127.59999847412</ele>
        <time>2015-07-21T07:18:32.000Z</time>
      </trkpt>
      <trkpt lat="48.72581" lon="1.7351">
        <ele>127.59999847412</ele>
        <time>2015-07-21T07:18:33.000Z</time>
      </trkpt>
      <trkpt lat="48.72585" lon="1.73515">
        <ele>127.59999847412</ele>
        <time>2015-07-21T07:18:37.000Z</time>
      </trkpt>
      <trkpt lat="48.72592" lon="1.73519">
        <ele>127.59999847412</ele>
        <time>2015-07-21T07:18:42.000Z</time>
      </trkpt>
      <trkpt lat="48.72596" lon="1.73524">
        <ele>127.59999847412</ele>
        <time>2015-07-21T07:18:46.000Z</time>
      </trkpt>
      <trkpt lat="48.72601" lon="1.73531">
        <ele>127.59999847412</ele>
        <time>2015-07-21T07:18:51.000Z</time>
      </trkpt>
      <trkpt lat="48.72604" lon="1.73535">
        <ele>127.59999847412</ele>
        <time>2015-07-21T07:18:53.000Z</time>
      </trkpt>
      <trkpt lat="48.72608" lon="1.7354">
        <ele>127.59999847412</ele>
        <time>2015-07-21T07:18:56.000Z</time>
      </trkpt>
      <trkpt lat="48.72611" lon="1.73543">
        <ele>127.59999847412</ele>
        <time>2015-07-21T07:18:58.000Z</time>
      </trkpt>
      <trkpt lat="48.72618" lon="1.73552">
        <ele>127.80000305176</ele>
        <time>2015-07-21T07:19:04.000Z</time>
      </trkpt>
      <trkpt lat="48.72626" lon="1.73559">
        <ele>127.80000305176</ele>
        <time>2015-07-21T07:19:09.000Z</time>
      </trkpt>
      <trkpt lat="48.72631" lon="1.73563">
        <ele>128</ele>
        <time>2015-07-21T07:19:12.000Z</time>
      </trkpt>
      <trkpt lat="48.72633" lon="1.73563">
        <ele>128</ele>
        <time>2015-07-21T07:19:14.000Z</time>
      </trkpt>
      <trkpt lat="48.72639" lon="1.73568">
        <ele>128</ele>
        <time>2015-07-21T07:19:18.000Z</time>
      </trkpt>
      <trkpt lat="48.72644" lon="1.73572">
        <ele>128</ele>
        <time>2015-07-21T07:19:21.000Z</time>
      </trkpt>
      <trkpt lat="48.72647" lon="1.73575">
        <ele>128</ele>
        <time>2015-07-21T07:19:23.000Z</time>
      </trkpt>
      <trkpt lat="48.72655" lon="1.73582">
        <ele>128.19999694824</ele>
        <time>2015-07-21T07:19:29.000Z</time>
      </trkpt>
      <trkpt lat="48.72656" lon="1.73584">
        <ele>128.39999389648</ele>
        <time>2015-07-21T07:19:30.000Z</time>
      </trkpt>
      <trkpt lat="48.72659" lon="1.73589">
        <ele>128.39999389648</ele>
        <time>2015-07-21T07:19:33.000Z</time>
      </trkpt>
      <trkpt lat="48.72669" lon="1.73596">
        <ele>128.60000610352</ele>
        <time>2015-07-21T07:19:39.000Z</time>
      </trkpt>
      <trkpt lat="48.7267" lon="1.73598">
        <ele>128.60000610352</ele>
        <time>2015-07-21T07:19:40.000Z</time>
      </trkpt>
      <trkpt lat="48.72673" lon="1.73602">
        <ele>128.80000305176</ele>
        <time>2015-07-21T07:19:43.000Z</time>
      </trkpt>
      <trkpt lat="48.72676" lon="1.73603">
        <ele>128.80000305176</ele>
        <time>2015-07-21T07:19:48.000Z</time>
      </trkpt>
      <trkpt lat="48.72676" lon="1.73603">
        <ele>128.80000305176</ele>
        <time>2015-07-21T07:19:49.000Z</time>
      </trkpt>
      <trkpt lat="48.72688" lon="1.7361">
        <ele>129</ele>
        <time>2015-07-21T07:20:09.000Z</time>
      </trkpt>
      <trkpt lat="48.72692" lon="1.73611">
        <ele>129</ele>
        <time>2015-07-21T07:20:12.000Z</time>
      </trkpt>
      <trkpt lat="48.72697" lon="1.73613">
        <ele>129.19999694824</ele>
        <time>2015-07-21T07:20:16.000Z</time>
      </trkpt>
      <trkpt lat="48.727" lon="1.73616">
        <ele>129.19999694824</ele>
        <time>2015-07-21T07:20:18.000Z</time>
      </trkpt>
      <trkpt lat="48.72705" lon="1.7362">
        <ele>129.39999389648</ele>
        <time>2015-07-21T07:20:22.000Z</time>
      </trkpt>
      <trkpt lat="48.72709" lon="1.73624">
        <ele>129.60000610352</ele>
        <time>2015-07-21T07:20:27.000Z</time>
      </trkpt>
      <trkpt lat="48.7271" lon="1.73624">
        <ele>129.60000610352</ele>
        <time>2015-07-21T07:20:28.000Z</time>
      </trkpt>
      <trkpt lat="48.72715" lon="1.73633">
        <ele>129.80000305176</ele>
        <time>2015-07-21T07:20:34.000Z</time>
      </trkpt>
      <trkpt lat="48.72724" lon="1.73642">
        <ele>130.19999694824</ele>
        <time>2015-07-21T07:20:41.000Z</time>
      </trkpt>
      <trkpt lat="48.72731" lon="1.73651">
        <ele>130.39999389648</ele>
        <time>2015-07-21T07:20:48.000Z</time>
      </trkpt>
      <trkpt lat="48.72738" lon="1.73662">
        <ele>130.80000305176</ele>
        <time>2015-07-21T07:20:54.000Z</time>
      </trkpt>
      <trkpt lat="48.72746" lon="1.73669">
        <ele>130.80000305176</ele>
        <time>2015-07-21T07:21:00.000Z</time>
      </trkpt>
      <trkpt lat="48.72758" lon="1.73679">
        <ele>131.19999694824</ele>
        <time>2015-07-21T07:21:09.000Z</time>
      </trkpt>
      <trkpt lat="48.72758" lon="1.7368">
        <ele>131.19999694824</ele>
        <time>2015-07-21T07:21:10.000Z</time>
      </trkpt>
      <trkpt lat="48.72762" lon="1.73686">
        <ele>131.19999694824</ele>
        <time>2015-07-21T07:21:14.000Z</time>
      </trkpt>
      <trkpt lat="48.72767" lon="1.7369">
        <ele>131.39999389648</ele>
        <time>2015-07-21T07:21:18.000Z</time>
      </trkpt>
      <trkpt lat="48.72767" lon="1.73691">
        <ele>131.39999389648</ele>
        <time>2015-07-21T07:21:19.000Z</time>
      </trkpt>
      <trkpt lat="48.72769" lon="1.73694">
        <ele>131.39999389648</ele>
        <time>2015-07-21T07:21:21.000Z</time>
      </trkpt>
      <trkpt lat="48.72775" lon="1.73699">
        <ele>131.60000610352</ele>
        <time>2015-07-21T07:21:25.000Z</time>
      </trkpt>
      <trkpt lat="48.72782" lon="1.73705">
        <ele>131.80000305176</ele>
        <time>2015-07-21T07:21:31.000Z</time>
      </trkpt>
      <trkpt lat="48.72783" lon="1.73711">
        <ele>131.80000305176</ele>
        <time>2015-07-21T07:21:36.000Z</time>
      </trkpt>
      <trkpt lat="48.72785" lon="1.73714">
        <ele>131.80000305176</ele>
        <time>2015-07-21T07:21:39.000Z</time>
      </trkpt>
      <trkpt lat="48.72788" lon="1.73719">
        <ele>132</ele>
        <time>2015-07-21T07:21:42.000Z</time>
      </trkpt>
      <trkpt lat="48.72794" lon="1.73727">
        <ele>132.19999694824</ele>
        <time>2015-07-21T07:21:48.000Z</time>
      </trkpt>
      <trkpt lat="48.72795" lon="1.7373">
        <ele>132.19999694824</ele>
        <time>2015-07-21T07:21:50.000Z</time>
      </trkpt>
      <trkpt lat="48.72796" lon="1.73731">
        <ele>132.19999694824</ele>
        <time>2015-07-21T07:21:51.000Z</time>
      </trkpt>
      <trkpt lat="48.72799" lon="1.73735">
        <ele>132.39999389648</ele>
        <time>2015-07-21T07:21:54.000Z</time>
      </trkpt>
      <trkpt lat="48.72801" lon="1.73742">
        <ele>132.39999389648</ele>
        <time>2015-07-21T07:21:58.000Z</time>
      </trkpt>
      <trkpt lat="48.72806" lon="1.73749">
        <ele>132.80000305176</ele>
        <time>2015-07-21T07:22:03.000Z</time>
      </trkpt>
      <trkpt lat="48.72808" lon="1.7375">
        <ele>132.80000305176</ele>
        <time>2015-07-21T07:22:04.000Z</time>
      </trkpt>
      <trkpt lat="48.72812" lon="1.73754">
        <ele>132.80000305176</ele>
        <time>2015-07-21T07:22:07.000Z</time>
      </trkpt>
      <trkpt lat="48.72817" lon="1.73759">
        <ele>133</ele>
        <time>2015-07-21T07:22:12.000Z</time>
      </trkpt>
      <trkpt lat="48.72827" lon="1.73765">
        <ele>133.39999389648</ele>
        <time>2015-07-21T07:22:18.000Z</time>
      </trkpt>
      <trkpt lat="48.72833" lon="1.73767">
        <ele>133.39999389648</ele>
        <time>2015-07-21T07:22:21.000Z</time>
      </trkpt>
      <trkpt lat="48.72837" lon="1.73769">
        <ele>133.60000610352</ele>
        <time>2015-07-21T07:22:23.000Z</time>
      </trkpt>
      <trkpt lat="48.72842" lon="1.73775">
        <ele>133.80000305176</ele>
        <time>2015-07-21T07:22:27.000Z</time>
      </trkpt>
      <trkpt lat="48.72846" lon="1.73778">
        <ele>133.80000305176</ele>
        <time>2015-07-21T07:22:30.000Z</time>
      </trkpt>
      <trkpt lat="48.72854" lon="1.73785">
        <ele>134.19999694824</ele>
        <time>2015-07-21T07:22:36.000Z</time>
      </trkpt>
      <trkpt lat="48.72854" lon="1.73787">
        <ele>134.19999694824</ele>
        <time>2015-07-21T07:22:37.000Z</time>
      </trkpt>
      <trkpt lat="48.72857" lon="1.73792">
        <ele>134.39999389648</ele>
        <time>2015-07-21T07:22:41.000Z</time>
      </trkpt>
      <trkpt lat="48.72864" lon="1.73798">
        <ele>134.39999389648</ele>
        <time>2015-07-21T07:22:45.000Z</time>
      </trkpt>
      <trkpt lat="48.72866" lon="1.73799">
        <ele>134.39999389648</ele>
        <time>2015-07-21T07:22:46.000Z</time>
      </trkpt>
      <trkpt lat="48.72873" lon="1.73806">
        <ele>134.60000610352</ele>
        <time>2015-07-21T07:22:51.000Z</time>
      </trkpt>
      <trkpt lat="48.72876" lon="1.7381">
        <ele>134.80000305176</ele>
        <time>2015-07-21T07:22:54.000Z</time>
      </trkpt>
      <trkpt lat="48.72878" lon="1.73811">
        <ele>134.80000305176</ele>
        <time>2015-07-21T07:22:55.000Z</time>
      </trkpt>
      <trkpt lat="48.72881" lon="1.73814">
        <ele>134.80000305176</ele>
        <time>2015-07-21T07:22:58.000Z</time>
      </trkpt>
      <trkpt lat="48.72882" lon="1.73815">
        <ele>134.80000305176</ele>
        <time>2015-07-21T07:22:59.000Z</time>
      </trkpt>
      <trkpt lat="48.72884" lon="1.73816">
        <ele>134.80000305176</ele>
        <time>2015-07-21T07:23:00.000Z</time>
      </trkpt>
      <trkpt lat="48.72887" lon="1.73818">
        <ele>135</ele>
        <time>2015-07-21T07:23:03.000Z</time>
      </trkpt>
      <trkpt lat="48.72894" lon="1.73823">
        <ele>135</ele>
        <time>2015-07-21T07:23:08.000Z</time>
      </trkpt>
      <trkpt lat="48.72901" lon="1.73829">
        <ele>135.19999694824</ele>
        <time>2015-07-21T07:23:13.000Z</time>
      </trkpt>
      <trkpt lat="48.72907" lon="1.73836">
        <ele>135.39999389648</ele>
        <time>2015-07-21T07:23:18.000Z</time>
      </trkpt>
      <trkpt lat="48.72909" lon="1.73838">
        <ele>135.39999389648</ele>
        <time>2015-07-21T07:23:21.000Z</time>
      </trkpt>
      <trkpt lat="48.7291" lon="1.7384">
        <ele>135.39999389648</ele>
        <time>2015-07-21T07:23:22.000Z</time>
      </trkpt>
      <trkpt lat="48.72917" lon="1.73848">
        <ele>135.60000610352</ele>
        <time>2015-07-21T07:23:27.000Z</time>
      </trkpt>
      <trkpt lat="48.72922" lon="1.73854">
        <ele>135.80000305176</ele>
        <time>2015-07-21T07:23:31.000Z</time>
      </trkpt>
      <trkpt lat="48.72925" lon="1.73858">
        <ele>136</ele>
        <time>2015-07-21T07:23:34.000Z</time>
      </trkpt>
      <trkpt lat="48.7293" lon="1.73864">
        <ele>136</ele>
        <time>2015-07-21T07:23:38.000Z</time>
      </trkpt>
      <trkpt lat="48.72933" lon="1.73867">
        <ele>136.19999694824</ele>
        <time>2015-07-21T07:23:40.000Z</time>
      </trkpt>
      <trkpt lat="48.72934" lon="1.73868">
        <ele>136.19999694824</ele>
        <time>2015-07-21T07:23:41.000Z</time>
      </trkpt>
      <trkpt lat="48.72941" lon="1.73874">
        <ele>136.39999389648</ele>
        <time>2015-07-21T07:23:46.000Z</time>
      </trkpt>
      <trkpt lat="48.72948" lon="1.7388">
        <ele>136.60000610352</ele>
        <time>2015-07-21T07:23:51.000Z</time>
      </trkpt>
      <trkpt lat="48.72953" lon="1.73885">
        <ele>136.80000305176</ele>
        <time>2015-07-21T07:23:55.000Z</time>
      </trkpt>
      <trkpt lat="48.72958" lon="1.73889">
        <ele>136.80000305176</ele>
        <time>2015-07-21T07:23:59.000Z</time>
      </trkpt>
      <trkpt lat="48.72961" lon="1.73891">
        <ele>137</ele>
        <time>2015-07-21T07:24:01.000Z</time>
      </trkpt>
      <trkpt lat="48.72963" lon="1.73891">
        <ele>137</ele>
        <time>2015-07-21T07:24:02.000Z</time>
      </trkpt>
      <trkpt lat="48.72965" lon="1.73893">
        <ele>137</ele>
        <time>2015-07-21T07:24:04.000Z</time>
      </trkpt>
      <trkpt lat="48.72971" lon="1.73899">
        <ele>137.19999694824</ele>
        <time>2015-07-21T07:24:09.000Z</time>
      </trkpt>
      <trkpt lat="48.72981" lon="1.73907">
        <ele>137.60000610352</ele>
        <time>2015-07-21T07:24:15.000Z</time>
      </trkpt>
      <trkpt lat="48.72987" lon="1.73914">
        <ele>137.60000610352</ele>
        <time>2015-07-21T07:24:21.000Z</time>
      </trkpt>
      <trkpt lat="48.7299" lon="1.73917">
        <ele>137.60000610352</ele>
        <time>2015-07-21T07:24:23.000Z</time>
      </trkpt>
      <trkpt lat="48.72995" lon="1.73923">
        <ele>137.60000610352</ele>
        <time>2015-07-21T07:24:27.000Z</time>
      </trkpt>
      <trkpt lat="48.72996" lon="1.73927">
        <ele>137.80000305176</ele>
        <time>2015-07-21T07:24:29.000Z</time>
      </trkpt>
      <trkpt lat="48.72998" lon="1.73935">
        <ele>137.80000305176</ele>
        <time>2015-07-21T07:24:33.000Z</time>
      </trkpt>
      <trkpt lat="48.72999" lon="1.7395">
        <ele>137.80000305176</ele>
        <time>2015-07-21T07:24:39.000Z</time>
      </trkpt>
      <trkpt lat="48.73002" lon="1.73962">
        <ele>137.80000305176</ele>
        <time>2015-07-21T07:24:45.000Z</time>
      </trkpt>
      <trkpt lat="48.73" lon="1.73972">
        <ele>137.80000305176</ele>
        <time>2015-07-21T07:24:49.000Z</time>
      </trkpt>
      <trkpt lat="48.73001" lon="1.73974">
        <ele>137.80000305176</ele>
        <time>2015-07-21T07:24:50.000Z</time>
      </trkpt>
      <trkpt lat="48.73001" lon="1.73977">
        <ele>137.80000305176</ele>
        <time>2015-07-21T07:24:52.000Z</time>
      </trkpt>
      <trkpt lat="48.73001" lon="1.73978">
        <ele>137.80000305176</ele>
        <time>2015-07-21T07:24:53.000Z</time>
      </trkpt>
      <trkpt lat="48.73002" lon="1.73992">
        <ele>137.80000305176</ele>
        <time>2015-07-21T07:24:58.000Z</time>
      </trkpt>
      <trkpt lat="48.73002" lon="1.73994">
        <ele>137.80000305176</ele>
        <time>2015-07-21T07:24:59.000Z</time>
      </trkpt>
      <trkpt lat="48.73004" lon="1.74006">
        <ele>138</ele>
        <time>2015-07-21T07:25:04.000Z</time>
      </trkpt>
      <trkpt lat="48.73004" lon="1.7401">
        <ele>138</ele>
        <time>2015-07-21T07:25:06.000Z</time>
      </trkpt>
      <trkpt lat="48.73003" lon="1.74021">
        <ele>138.19999694824</ele>
        <time>2015-07-21T07:25:10.000Z</time>
      </trkpt>
      <trkpt lat="48.73003" lon="1.74034">
        <ele>138.39999389648</ele>
        <time>2015-07-21T07:25:15.000Z</time>
      </trkpt>
      <trkpt lat="48.73002" lon="1.74053">
        <ele>138.60000610352</ele>
        <time>2015-07-21T07:25:23.000Z</time>
      </trkpt>
      <trkpt lat="48.73004" lon="1.74062">
        <ele>138.60000610352</ele>
        <time>2015-07-21T07:25:27.000Z</time>
      </trkpt>
      <trkpt lat="48.73005" lon="1.74074">
        <ele>138.80000305176</ele>
        <time>2015-07-21T07:25:33.000Z</time>
      </trkpt>
      <trkpt lat="48.73005" lon="1.74077">
        <ele>139</ele>
        <time>2015-07-21T07:25:34.000Z</time>
      </trkpt>
      <trkpt lat="48.73005" lon="1.7409">
        <ele>139.19999694824</ele>
        <time>2015-07-21T07:25:40.000Z</time>
      </trkpt>
      <trkpt lat="48.73005" lon="1.74092">
        <ele>139.39999389648</ele>
        <time>2015-07-21T07:25:41.000Z</time>
      </trkpt>
      <trkpt lat="48.73006" lon="1.74102">
        <ele>139.60000610352</ele>
        <time>2015-07-21T07:25:45.000Z</time>
      </trkpt>
      <trkpt lat="48.73005" lon="1.74114">
        <ele>139.80000305176</ele>
        <time>2015-07-21T07:25:50.000Z</time>
      </trkpt>
      <trkpt lat="48.73007" lon="1.74126">
        <ele>140.19999694824</ele>
        <time>2015-07-21T07:25:56.000Z</time>
      </trkpt>
      <trkpt lat="48.73007" lon="1.74131">
        <ele>140.19999694824</ele>
        <time>2015-07-21T07:25:59.000Z</time>
      </trkpt>
      <trkpt lat="48.73007" lon="1.74134">
        <ele>140.39999389648</ele>
        <time>2015-07-21T07:26:01.000Z</time>
      </trkpt>
      <trkpt lat="48.73007" lon="1.74146">
        <ele>140.60000610352</ele>
        <time>2015-07-21T07:26:06.000Z</time>
      </trkpt>
      <trkpt lat="48.73008" lon="1.74151">
        <ele>140.80000305176</ele>
        <time>2015-07-21T07:26:09.000Z</time>
      </trkpt>
      <trkpt lat="48.73008" lon="1.74154">
        <ele>140.80000305176</ele>
        <time>2015-07-21T07:26:10.000Z</time>
      </trkpt>
      <trkpt lat="48.73008" lon="1.74156">
        <ele>140.80000305176</ele>
        <time>2015-07-21T07:26:11.000Z</time>
      </trkpt>
      <trkpt lat="48.7301" lon="1.74163">
        <ele>141</ele>
        <time>2015-07-21T07:26:15.000Z</time>
      </trkpt>
      <trkpt lat="48.73011" lon="1.74174">
        <ele>141.19999694824</ele>
        <time>2015-07-21T07:26:20.000Z</time>
      </trkpt>
      <trkpt lat="48.73011" lon="1.74174">
        <ele>141.19999694824</ele>
        <time>2015-07-21T07:26:21.000Z</time>
      </trkpt>
      <trkpt lat="48.73012" lon="1.74176">
        <ele>141.19999694824</ele>
        <time>2015-07-21T07:26:24.000Z</time>
      </trkpt>
      <trkpt lat="48.73013" lon="1.74186">
        <ele>141.19999694824</ele>
        <time>2015-07-21T07:26:30.000Z</time>
      </trkpt>
      <trkpt lat="48.73014" lon="1.74195">
        <ele>141.39999389648</ele>
        <time>2015-07-21T07:26:34.000Z</time>
      </trkpt>
      <trkpt lat="48.73016" lon="1.74212">
        <ele>141.60000610352</ele>
        <time>2015-07-21T07:26:41.000Z</time>
      </trkpt>
      <trkpt lat="48.73018" lon="1.74223">
        <ele>141.80000305176</ele>
        <time>2015-07-21T07:26:47.000Z</time>
      </trkpt>
      <trkpt lat="48.7302" lon="1.74236">
        <ele>142</ele>
        <time>2015-07-21T07:26:53.000Z</time>
      </trkpt>
      <trkpt lat="48.7302" lon="1.74242">
        <ele>142</ele>
        <time>2015-07-21T07:26:56.000Z</time>
      </trkpt>
      <trkpt lat="48.73019" lon="1.74249">
        <ele>142</ele>
        <time>2015-07-21T07:26:59.000Z</time>
      </trkpt>
      <trkpt lat="48.73019" lon="1.74251">
        <ele>142</ele>
        <time>2015-07-21T07:27:00.000Z</time>
      </trkpt>
      <trkpt lat="48.73021" lon="1.74261">
        <ele>142</ele>
        <time>2015-07-21T07:27:05.000Z</time>
      </trkpt>
      <trkpt lat="48.73023" lon="1.74266">
        <ele>142</ele>
        <time>2015-07-21T07:27:08.000Z</time>
      </trkpt>
      <trkpt lat="48.73025" lon="1.74271">
        <ele>142</ele>
        <time>2015-07-21T07:27:11.000Z</time>
      </trkpt>
      <trkpt lat="48.73025" lon="1.74273">
        <ele>141.80000305176</ele>
        <time>2015-07-21T07:27:12.000Z</time>
      </trkpt>
      <trkpt lat="48.73026" lon="1.74277">
        <ele>141.80000305176</ele>
        <time>2015-07-21T07:27:14.000Z</time>
      </trkpt>
      <trkpt lat="48.73029" lon="1.74281">
        <ele>141.80000305176</ele>
        <time>2015-07-21T07:27:16.000Z</time>
      </trkpt>
      <trkpt lat="48.7303" lon="1.74288">
        <ele>141.80000305176</ele>
        <time>2015-07-21T07:27:20.000Z</time>
      </trkpt>
      <trkpt lat="48.73031" lon="1.74292">
        <ele>141.80000305176</ele>
        <time>2015-07-21T07:27:22.000Z</time>
      </trkpt>
      <trkpt lat="48.73031" lon="1.74296">
        <ele>141.80000305176</ele>
        <time>2015-07-21T07:27:24.000Z</time>
      </trkpt>
      <trkpt lat="48.73032" lon="1.743">
        <ele>141.80000305176</ele>
        <time>2015-07-21T07:27:26.000Z</time>
      </trkpt>
      <trkpt lat="48.73035" lon="1.74308">
        <ele>141.60000610352</ele>
        <time>2015-07-21T07:27:30.000Z</time>
      </trkpt>
      <trkpt lat="48.73036" lon="1.74313">
        <ele>141.60000610352</ele>
        <time>2015-07-21T07:27:32.000Z</time>
      </trkpt>
      <trkpt lat="48.73036" lon="1.74323">
        <ele>141.60000610352</ele>
        <time>2015-07-21T07:27:36.000Z</time>
      </trkpt>
      <trkpt lat="48.73036" lon="1.74329">
        <ele>141.60000610352</ele>
        <time>2015-07-21T07:27:39.000Z</time>
      </trkpt>
      <trkpt lat="48.73037" lon="1.74335">
        <ele>141.60000610352</ele>
        <time>2015-07-21T07:27:42.000Z</time>
      </trkpt>
      <trkpt lat="48.73037" lon="1.74342">
        <ele>141.60000610352</ele>
        <time>2015-07-21T07:27:45.000Z</time>
      </trkpt>
      <trkpt lat="48.73037" lon="1.74349">
        <ele>141.39999389648</ele>
        <time>2015-07-21T07:27:48.000Z</time>
      </trkpt>
      <trkpt lat="48.73037" lon="1.74361">
        <ele>141.39999389648</ele>
        <time>2015-07-21T07:27:53.000Z</time>
      </trkpt>
      <trkpt lat="48.73038" lon="1.74372">
        <ele>141.19999694824</ele>
        <time>2015-07-21T07:27:58.000Z</time>
      </trkpt>
      <trkpt lat="48.73038" lon="1.74374">
        <ele>141.19999694824</ele>
        <time>2015-07-21T07:27:59.000Z</time>
      </trkpt>
      <trkpt lat="48.73039" lon="1.74386">
        <ele>141</ele>
        <time>2015-07-21T07:28:04.000Z</time>
      </trkpt>
      <trkpt lat="48.73039" lon="1.74399">
        <ele>140.80000305176</ele>
        <time>2015-07-21T07:28:10.000Z</time>
      </trkpt>
      <trkpt lat="48.73041" lon="1.74409">
        <ele>140.80000305176</ele>
        <time>2015-07-21T07:28:15.000Z</time>
      </trkpt>
      <trkpt lat="48.73042" lon="1.74412">
        <ele>140.80000305176</ele>
        <time>2015-07-21T07:28:16.000Z</time>
      </trkpt>
      <trkpt lat="48.73044" lon="1.74421">
        <ele>140.80000305176</ele>
        <time>2015-07-21T07:28:20.000Z</time>
      </trkpt>
      <trkpt lat="48.73046" lon="1.74429">
        <ele>140.60000610352</ele>
        <time>2015-07-21T07:28:24.000Z</time>
      </trkpt>
      <trkpt lat="48.73047" lon="1.74437">
        <ele>140.80000305176</ele>
        <time>2015-07-21T07:28:28.000Z</time>
      </trkpt>
      <trkpt lat="48.73048" lon="1.74441">
        <ele>140.80000305176</ele>
        <time>2015-07-21T07:28:31.000Z</time>
      </trkpt>
      <trkpt lat="48.73049" lon="1.74444">
        <ele>140.80000305176</ele>
        <time>2015-07-21T07:28:33.000Z</time>
      </trkpt>
      <trkpt lat="48.7305" lon="1.74445">
        <ele>140.80000305176</ele>
        <time>2015-07-21T07:28:34.000Z</time>
      </trkpt>
      <trkpt lat="48.73051" lon="1.74445">
        <ele>140.80000305176</ele>
        <time>2015-07-21T07:28:35.000Z</time>
      </trkpt>
      <trkpt lat="48.73056" lon="1.74445">
        <ele>140.60000610352</ele>
        <time>2015-07-21T07:28:39.000Z</time>
      </trkpt>
      <trkpt lat="48.73061" lon="1.74444">
        <ele>140.60000610352</ele>
        <time>2015-07-21T07:28:42.000Z</time>
      </trkpt>
      <trkpt lat="48.73064" lon="1.74443">
        <ele>140.39999389648</ele>
        <time>2015-07-21T07:28:45.000Z</time>
      </trkpt>
      <trkpt lat="48.73069" lon="1.7444">
        <ele>140.39999389648</ele>
        <time>2015-07-21T07:28:50.000Z</time>
      </trkpt>
      <trkpt lat="48.73073" lon="1.74439">
        <ele>140.39999389648</ele>
        <time>2015-07-21T07:28:55.000Z</time>
      </trkpt>
      <trkpt lat="48.73075" lon="1.74439">
        <ele>140.39999389648</ele>
        <time>2015-07-21T07:28:56.000Z</time>
      </trkpt>
      <trkpt lat="48.73077" lon="1.74437">
        <ele>140.39999389648</ele>
        <time>2015-07-21T07:28:59.000Z</time>
      </trkpt>
      <trkpt lat="48.73081" lon="1.74434">
        <ele>140.19999694824</ele>
        <time>2015-07-21T07:29:02.000Z</time>
      </trkpt>
      <trkpt lat="48.73085" lon="1.7443">
        <ele>140.19999694824</ele>
        <time>2015-07-21T07:29:06.000Z</time>
      </trkpt>
      <trkpt lat="48.73087" lon="1.7443">
        <ele>140.19999694824</ele>
        <time>2015-07-21T07:29:07.000Z</time>
      </trkpt>
      <trkpt lat="48.73089" lon="1.7443">
        <ele>140.19999694824</ele>
        <time>2015-07-21T07:29:09.000Z</time>
      </trkpt>
      <trkpt lat="48.73093" lon="1.74428">
        <ele>140.19999694824</ele>
        <time>2015-07-21T07:29:12.000Z</time>
      </trkpt>
      <trkpt lat="48.73094" lon="1.74429">
        <ele>140.19999694824</ele>
        <time>2015-07-21T07:29:13.000Z</time>
      </trkpt>
      <trkpt lat="48.73098" lon="1.74426">
        <ele>140</ele>
        <time>2015-07-21T07:29:17.000Z</time>
      </trkpt>
      <trkpt lat="48.73104" lon="1.74423">
        <ele>140</ele>
        <time>2015-07-21T07:29:23.000Z</time>
      </trkpt>
      <trkpt lat="48.73108" lon="1.74421">
        <ele>140</ele>
        <time>2015-07-21T07:29:26.000Z</time>
      </trkpt>
      <trkpt lat="48.73108" lon="1.74419">
        <ele>140.19999694824</ele>
        <time>2015-07-21T07:29:27.000Z</time>
      </trkpt>
      <trkpt lat="48.73113" lon="1.74416">
        <ele>140.19999694824</ele>
        <time>2015-07-21T07:29:31.000Z</time>
      </trkpt>
      <trkpt lat="48.73115" lon="1.74415">
        <ele>140.19999694824</ele>
        <time>2015-07-21T07:29:32.000Z</time>
      </trkpt>
      <trkpt lat="48.73116" lon="1.74416">
        <ele>140.19999694824</ele>
        <time>2015-07-21T07:29:33.000Z</time>
      </trkpt>
      <trkpt lat="48.73121" lon="1.74414">
        <ele>140.39999389648</ele>
        <time>2015-07-21T07:29:37.000Z</time>
      </trkpt>
      <trkpt lat="48.73122" lon="1.74412">
        <ele>140.60000610352</ele>
        <time>2015-07-21T07:29:38.000Z</time>
      </trkpt>
      <trkpt lat="48.73128" lon="1.74409">
        <ele>140.80000305176</ele>
        <time>2015-07-21T07:29:42.000Z</time>
      </trkpt>
      <trkpt lat="48.73136" lon="1.74404">
        <ele>141.19999694824</ele>
        <time>2015-07-21T07:29:49.000Z</time>
      </trkpt>
      <trkpt lat="48.73138" lon="1.74403">
        <ele>141.19999694824</ele>
        <time>2015-07-21T07:29:50.000Z</time>
      </trkpt>
      <trkpt lat="48.73147" lon="1.74398">
        <ele>141.60000610352</ele>
        <time>2015-07-21T07:29:57.000Z</time>
      </trkpt>
      <trkpt lat="48.73149" lon="1.74397">
        <ele>141.60000610352</ele>
        <time>2015-07-21T07:29:58.000Z</time>
      </trkpt>
      <trkpt lat="48.73157" lon="1.7439">
        <ele>141.80000305176</ele>
        <time>2015-07-21T07:30:04.000Z</time>
      </trkpt>
      <trkpt lat="48.73164" lon="1.74385">
        <ele>142.19999694824</ele>
        <time>2015-07-21T07:30:10.000Z</time>
      </trkpt>
      <trkpt lat="48.73166" lon="1.74385">
        <ele>142.19999694824</ele>
        <time>2015-07-21T07:30:11.000Z</time>
      </trkpt>
      <trkpt lat="48.73171" lon="1.74384">
        <ele>142.39999389648</ele>
        <time>2015-07-21T07:30:15.000Z</time>
      </trkpt>
      <trkpt lat="48.73173" lon="1.74382">
        <ele>142.39999389648</ele>
        <time>2015-07-21T07:30:16.000Z</time>
      </trkpt>
      <trkpt lat="48.73177" lon="1.7438">
        <ele>142.60000610352</ele>
        <time>2015-07-21T07:30:19.000Z</time>
      </trkpt>
      <trkpt lat="48.73179" lon="1.74378">
        <ele>142.80000305176</ele>
        <time>2015-07-21T07:30:21.000Z</time>
      </trkpt>
      <trkpt lat="48.73184" lon="1.74376">
        <ele>142.80000305176</ele>
        <time>2015-07-21T07:30:27.000Z</time>
      </trkpt>
      <trkpt lat="48.73186" lon="1.74375">
        <ele>143</ele>
        <time>2015-07-21T07:30:29.000Z</time>
      </trkpt>
      <trkpt lat="48.73195" lon="1.74369">
        <ele>143</ele>
        <time>2015-07-21T07:30:36.000Z</time>
      </trkpt>
      <trkpt lat="48.73203" lon="1.74365">
        <ele>142.80000305176</ele>
        <time>2015-07-21T07:30:42.000Z</time>
      </trkpt>
      <trkpt lat="48.73212" lon="1.7436">
        <ele>142.80000305176</ele>
        <time>2015-07-21T07:30:49.000Z</time>
      </trkpt>
      <trkpt lat="48.73219" lon="1.74357">
        <ele>142.60000610352</ele>
        <time>2015-07-21T07:30:54.000Z</time>
      </trkpt>
      <trkpt lat="48.73222" lon="1.74356">
        <ele>142.60000610352</ele>
        <time>2015-07-21T07:30:58.000Z</time>
      </trkpt>
      <trkpt lat="48.73223" lon="1.74356">
        <ele>142.60000610352</ele>
        <time>2015-07-21T07:30:59.000Z</time>
      </trkpt>
      <trkpt lat="48.73233" lon="1.74351">
        <ele>142.19999694824</ele>
        <time>2015-07-21T07:31:05.000Z</time>
      </trkpt>
      <trkpt lat="48.73243" lon="1.74346">
        <ele>142</ele>
        <time>2015-07-21T07:31:12.000Z</time>
      </trkpt>
      <trkpt lat="48.7325" lon="1.7434">
        <ele>141.80000305176</ele>
        <time>2015-07-21T07:31:18.000Z</time>
      </trkpt>
      <trkpt lat="48.73251" lon="1.74339">
        <ele>141.60000610352</ele>
        <time>2015-07-21T07:31:19.000Z</time>
      </trkpt>
      <trkpt lat="48.73253" lon="1.74338">
        <ele>141.60000610352</ele>
        <time>2015-07-21T07:31:20.000Z</time>
      </trkpt>
      <trkpt lat="48.73261" lon="1.74334">
        <ele>141.39999389648</ele>
        <time>2015-07-21T07:31:25.000Z</time>
      </trkpt>
      <trkpt lat="48.7327" lon="1.74321">
        <ele>141</ele>
        <time>2015-07-21T07:31:33.000Z</time>
      </trkpt>
      <trkpt lat="48.73278" lon="1.74307">
        <ele>141</ele>
        <time>2015-07-21T07:31:41.000Z</time>
      </trkpt>
      <trkpt lat="48.73281" lon="1.74293">
        <ele>141</ele>
        <time>2015-07-21T07:31:46.000Z</time>
      </trkpt>
      <trkpt lat="48.73286" lon="1.7428">
        <ele>141</ele>
        <time>2015-07-21T07:31:52.000Z</time>
      </trkpt>
      <trkpt lat="48.73289" lon="1.74275">
        <ele>141</ele>
        <time>2015-07-21T07:31:56.000Z</time>
      </trkpt>
      <trkpt lat="48.7329" lon="1.74272">
        <ele>141</ele>
        <time>2015-07-21T07:31:58.000Z</time>
      </trkpt>
      <trkpt lat="48.73292" lon="1.74267">
        <ele>141</ele>
        <time>2015-07-21T07:32:01.000Z</time>
      </trkpt>
      <trkpt lat="48.73295" lon="1.74263">
        <ele>141</ele>
        <time>2015-07-21T07:32:04.000Z</time>
      </trkpt>
      <trkpt lat="48.733" lon="1.74258">
        <ele>140.80000305176</ele>
        <time>2015-07-21T07:32:10.000Z</time>
      </trkpt>
      <trkpt lat="48.73302" lon="1.74259">
        <ele>140.80000305176</ele>
        <time>2015-07-21T07:32:12.000Z</time>
      </trkpt>
      <trkpt lat="48.73307" lon="1.74262">
        <ele>140.80000305176</ele>
        <time>2015-07-21T07:32:14.000Z</time>
      </trkpt>
      <trkpt lat="48.73315" lon="1.74269">
        <ele>140.80000305176</ele>
        <time>2015-07-21T07:32:18.000Z</time>
      </trkpt>
      <trkpt lat="48.73317" lon="1.74272">
        <ele>140.80000305176</ele>
        <time>2015-07-21T07:32:20.000Z</time>
      </trkpt>
      <trkpt lat="48.7332" lon="1.74275">
        <ele>140.80000305176</ele>
        <time>2015-07-21T07:32:22.000Z</time>
      </trkpt>
      <trkpt lat="48.73321" lon="1.74276">
        <ele>140.80000305176</ele>
        <time>2015-07-21T07:32:23.000Z</time>
      </trkpt>
      <trkpt lat="48.73327" lon="1.74285">
        <ele>141</ele>
        <time>2015-07-21T07:32:29.000Z</time>
      </trkpt>
      <trkpt lat="48.73328" lon="1.74287">
        <ele>141</ele>
        <time>2015-07-21T07:32:30.000Z</time>
      </trkpt>
      <trkpt lat="48.73334" lon="1.74293">
        <ele>141</ele>
        <time>2015-07-21T07:32:35.000Z</time>
      </trkpt>
      <trkpt lat="48.73341" lon="1.74302">
        <ele>141</ele>
        <time>2015-07-21T07:32:42.000Z</time>
      </trkpt>
      <trkpt lat="48.73343" lon="1.74305">
        <ele>141</ele>
        <time>2015-07-21T07:32:44.000Z</time>
      </trkpt>
      <trkpt lat="48.73348" lon="1.74309">
        <ele>141</ele>
        <time>2015-07-21T07:32:48.000Z</time>
      </trkpt>
      <trkpt lat="48.73351" lon="1.74312">
        <ele>141</ele>
        <time>2015-07-21T07:32:51.000Z</time>
      </trkpt>
      <trkpt lat="48.73355" lon="1.74316">
        <ele>141</ele>
        <time>2015-07-21T07:32:54.000Z</time>
      </trkpt>
      <trkpt lat="48.73365" lon="1.74325">
        <ele>141</ele>
        <time>2015-07-21T07:33:01.000Z</time>
      </trkpt>
      <trkpt lat="48.73366" lon="1.74326">
        <ele>141</ele>
        <time>2015-07-21T07:33:02.000Z</time>
      </trkpt>
      <trkpt lat="48.73378" lon="1.74335">
        <ele>140.80000305176</ele>
        <time>2015-07-21T07:33:10.000Z</time>
      </trkpt>
      <trkpt lat="48.73387" lon="1.74341">
        <ele>140.80000305176</ele>
        <time>2015-07-21T07:33:16.000Z</time>
      </trkpt>
      <trkpt lat="48.73388" lon="1.74343">
        <ele>140.80000305176</ele>
        <time>2015-07-21T07:33:17.000Z</time>
      </trkpt>
      <trkpt lat="48.73391" lon="1.74346">
        <ele>140.80000305176</ele>
        <time>2015-07-21T07:33:20.000Z</time>
      </trkpt>
      <trkpt lat="48.73391" lon="1.74346">
        <ele>140.80000305176</ele>
        <time>2015-07-21T07:33:21.000Z</time>
      </trkpt>
      <trkpt lat="48.7341" lon="1.74359">
        <ele>140.80000305176</ele>
        <time>2015-07-21T07:34:03.000Z</time>
      </trkpt>
      <trkpt lat="48.73411" lon="1.7436">
        <ele>140.80000305176</ele>
        <time>2015-07-21T07:34:05.000Z</time>
      </trkpt>
      <trkpt lat="48.7342" lon="1.74367">
        <ele>140.80000305176</ele>
        <time>2015-07-21T07:34:12.000Z</time>
      </trkpt>
      <trkpt lat="48.73425" lon="1.74371">
        <ele>140.80000305176</ele>
        <time>2015-07-21T07:34:16.000Z</time>
      </trkpt>
      <trkpt lat="48.73428" lon="1.74374">
        <ele>140.80000305176</ele>
        <time>2015-07-21T07:34:18.000Z</time>
      </trkpt>
      <trkpt lat="48.7343" lon="1.74377">
        <ele>140.80000305176</ele>
        <time>2015-07-21T07:34:21.000Z</time>
      </trkpt>
      <trkpt lat="48.73436" lon="1.74383">
        <ele>140.80000305176</ele>
        <time>2015-07-21T07:34:26.000Z</time>
      </trkpt>
      <trkpt lat="48.73438" lon="1.74386">
        <ele>140.80000305176</ele>
        <time>2015-07-21T07:34:28.000Z</time>
      </trkpt>
      <trkpt lat="48.73442" lon="1.74392">
        <ele>140.80000305176</ele>
        <time>2015-07-21T07:34:33.000Z</time>
      </trkpt>
      <trkpt lat="48.73447" lon="1.744">
        <ele>140.80000305176</ele>
        <time>2015-07-21T07:34:39.000Z</time>
      </trkpt>
      <trkpt lat="48.73448" lon="1.74402">
        <ele>140.80000305176</ele>
        <time>2015-07-21T07:34:40.000Z</time>
      </trkpt>
      <trkpt lat="48.73453" lon="1.74407">
        <ele>140.80000305176</ele>
        <time>2015-07-21T07:34:44.000Z</time>
      </trkpt>
      <trkpt lat="48.73457" lon="1.74412">
        <ele>140.80000305176</ele>
        <time>2015-07-21T07:34:48.000Z</time>
      </trkpt>
      <trkpt lat="48.7346" lon="1.74414">
        <ele>140.80000305176</ele>
        <time>2015-07-21T07:34:50.000Z</time>
      </trkpt>
      <trkpt lat="48.73462" lon="1.74417">
        <ele>140.80000305176</ele>
        <time>2015-07-21T07:34:53.000Z</time>
      </trkpt>
      <trkpt lat="48.73463" lon="1.74419">
        <ele>140.80000305176</ele>
        <time>2015-07-21T07:34:54.000Z</time>
      </trkpt>
      <trkpt lat="48.73464" lon="1.7442">
        <ele>141</ele>
        <time>2015-07-21T07:34:55.000Z</time>
      </trkpt>
      <trkpt lat="48.73471" lon="1.74427">
        <ele>141</ele>
        <time>2015-07-21T07:35:01.000Z</time>
      </trkpt>
      <trkpt lat="48.73479" lon="1.74434">
        <ele>141</ele>
        <time>2015-07-21T07:35:08.000Z</time>
      </trkpt>
      <trkpt lat="48.7348" lon="1.74435">
        <ele>141</ele>
        <time>2015-07-21T07:35:09.000Z</time>
      </trkpt>
      <trkpt lat="48.73481" lon="1.74438">
        <ele>141.19999694824</ele>
        <time>2015-07-21T07:35:11.000Z</time>
      </trkpt>
      <trkpt lat="48.73484" lon="1.74442">
        <ele>141.19999694824</ele>
        <time>2015-07-21T07:35:14.000Z</time>
      </trkpt>
      <trkpt lat="48.73485" lon="1.74443">
        <ele>141.19999694824</ele>
        <time>2015-07-21T07:35:15.000Z</time>
      </trkpt>
      <trkpt lat="48.73485" lon="1.74445">
        <ele>141.39999389648</ele>
        <time>2015-07-21T07:35:16.000Z</time>
      </trkpt>
      <trkpt lat="48.7349" lon="1.7445">
        <ele>141.39999389648</ele>
        <time>2015-07-21T07:35:20.000Z</time>
      </trkpt>
      <trkpt lat="48.73494" lon="1.74456">
        <ele>141.60000610352</ele>
        <time>2015-07-21T07:35:24.000Z</time>
      </trkpt>
      <trkpt lat="48.73501" lon="1.74463">
        <ele>141.60000610352</ele>
        <time>2015-07-21T07:35:28.000Z</time>
      </trkpt>
      <trkpt lat="48.73502" lon="1.74463">
        <ele>141.60000610352</ele>
        <time>2015-07-21T07:35:29.000Z</time>
      </trkpt>
      <trkpt lat="48.73511" lon="1.7447">
        <ele>141.60000610352</ele>
        <time>2015-07-21T07:35:35.000Z</time>
      </trkpt>
      <trkpt lat="48.73521" lon="1.74482">
        <ele>141.80000305176</ele>
        <time>2015-07-21T07:35:44.000Z</time>
      </trkpt>
      <trkpt lat="48.7353" lon="1.74495">
        <ele>142.39999389648</ele>
        <time>2015-07-21T07:35:53.000Z</time>
      </trkpt>
      <trkpt lat="48.73538" lon="1.74502">
        <ele>142.80000305176</ele>
        <time>2015-07-21T07:35:59.000Z</time>
      </trkpt>
      <trkpt lat="48.73539" lon="1.74504">
        <ele>142.80000305176</ele>
        <time>2015-07-21T07:36:00.000Z</time>
      </trkpt>
      <trkpt lat="48.73546" lon="1.74511">
        <ele>143.19999694824</ele>
        <time>2015-07-21T07:36:06.000Z</time>
      </trkpt>
      <trkpt lat="48.73553" lon="1.74518">
        <ele>143.60000610352</ele>
        <time>2015-07-21T07:36:13.000Z</time>
      </trkpt>
      <trkpt lat="48.73563" lon="1.74529">
        <ele>144</ele>
        <time>2015-07-21T07:36:22.000Z</time>
      </trkpt>
      <trkpt lat="48.73573" lon="1.74538">
        <ele>144.39999389648</ele>
        <time>2015-07-21T07:36:30.000Z</time>
      </trkpt>
      <trkpt lat="48.73582" lon="1.74545">
        <ele>144.80000305176</ele>
        <time>2015-07-21T07:36:37.000Z</time>
      </trkpt>
      <trkpt lat="48.73593" lon="1.74554">
        <ele>145.39999389648</ele>
        <time>2015-07-21T07:36:45.000Z</time>
      </trkpt>
      <trkpt lat="48.73604" lon="1.74565">
        <ele>145.80000305176</ele>
        <time>2015-07-21T07:36:54.000Z</time>
      </trkpt>
      <trkpt lat="48.73605" lon="1.74565">
        <ele>146</ele>
        <time>2015-07-21T07:36:55.000Z</time>
      </trkpt>
      <trkpt lat="48.73609" lon="1.74569">
        <ele>146.19999694824</ele>
        <time>2015-07-21T07:36:59.000Z</time>
      </trkpt>
      <trkpt lat="48.73621" lon="1.7458">
        <ele>147</ele>
        <time>2015-07-21T07:37:08.000Z</time>
      </trkpt>
      <trkpt lat="48.7363" lon="1.74587">
        <ele>147.60000610352</ele>
        <time>2015-07-21T07:37:15.000Z</time>
      </trkpt>
      <trkpt lat="48.73636" lon="1.74593">
        <ele>148</ele>
        <time>2015-07-21T07:37:20.000Z</time>
      </trkpt>
      <trkpt lat="48.73642" lon="1.74599">
        <ele>148.39999389648</ele>
        <time>2015-07-21T07:37:25.000Z</time>
      </trkpt>
      <trkpt lat="48.7365" lon="1.74608">
        <ele>148.80000305176</ele>
        <time>2015-07-21T07:37:32.000Z</time>
      </trkpt>
      <trkpt lat="48.73657" lon="1.74616">
        <ele>149.19999694824</ele>
        <time>2015-07-21T07:37:40.000Z</time>
      </trkpt>
      <trkpt lat="48.73661" lon="1.7462">
        <ele>149.39999389648</ele>
        <time>2015-07-21T07:37:43.000Z</time>
      </trkpt>
      <trkpt lat="48.73662" lon="1.74622">
        <ele>149.39999389648</ele>
        <time>2015-07-21T07:37:45.000Z</time>
      </trkpt>
      <trkpt lat="48.73664" lon="1.74625">
        <ele>149.60000610352</ele>
        <time>2015-07-21T07:37:47.000Z</time>
      </trkpt>
      <trkpt lat="48.73669" lon="1.74631">
        <ele>149.80000305176</ele>
        <time>2015-07-21T07:37:52.000Z</time>
      </trkpt>
      <trkpt lat="48.73673" lon="1.74635">
        <ele>150.19999694824</ele>
        <time>2015-07-21T07:37:56.000Z</time>
      </trkpt>
      <trkpt lat="48.73674" lon="1.74636">
        <ele>150.19999694824</ele>
        <time>2015-07-21T07:37:57.000Z</time>
      </trkpt>
      <trkpt lat="48.73681" lon="1.74643">
        <ele>150.60000610352</ele>
        <time>2015-07-21T07:38:03.000Z</time>
      </trkpt>
      <trkpt lat="48.73681" lon="1.74644">
        <ele>150.60000610352</ele>
        <time>2015-07-21T07:38:04.000Z</time>
      </trkpt>
      <trkpt lat="48.73684" lon="1.74649">
        <ele>150.80000305176</ele>
        <time>2015-07-21T07:38:08.000Z</time>
      </trkpt>
      <trkpt lat="48.73685" lon="1.7465">
        <ele>150.80000305176</ele>
        <time>2015-07-21T07:38:09.000Z</time>
      </trkpt>
      <trkpt lat="48.73689" lon="1.74655">
        <ele>151.19999694824</ele>
        <time>2015-07-21T07:38:13.000Z</time>
      </trkpt>
      <trkpt lat="48.73691" lon="1.74659">
        <ele>151.19999694824</ele>
        <time>2015-07-21T07:38:16.000Z</time>
      </trkpt>
      <trkpt lat="48.73696" lon="1.74663">
        <ele>151.60000610352</ele>
        <time>2015-07-21T07:38:20.000Z</time>
      </trkpt>
      <trkpt lat="48.73698" lon="1.74666">
        <ele>151.60000610352</ele>
        <time>2015-07-21T07:38:23.000Z</time>
      </trkpt>
      <trkpt lat="48.737" lon="1.74667">
        <ele>151.80000305176</ele>
        <time>2015-07-21T07:38:24.000Z</time>
      </trkpt>
      <trkpt lat="48.73701" lon="1.7467">
        <ele>151.80000305176</ele>
        <time>2015-07-21T07:38:26.000Z</time>
      </trkpt>
      <trkpt lat="48.73704" lon="1.74675">
        <ele>152</ele>
        <time>2015-07-21T07:38:30.000Z</time>
      </trkpt>
      <trkpt lat="48.73708" lon="1.7468">
        <ele>152.39999389648</ele>
        <time>2015-07-21T07:38:34.000Z</time>
      </trkpt>
      <trkpt lat="48.73717" lon="1.74685">
        <ele>152.80000305176</ele>
        <time>2015-07-21T07:38:40.000Z</time>
      </trkpt>
      <trkpt lat="48.73722" lon="1.74688">
        <ele>153</ele>
        <time>2015-07-21T07:38:44.000Z</time>
      </trkpt>
      <trkpt lat="48.73728" lon="1.74694">
        <ele>153.39999389648</ele>
        <time>2015-07-21T07:38:50.000Z</time>
      </trkpt>
      <trkpt lat="48.73731" lon="1.74697">
        <ele>153.60000610352</ele>
        <time>2015-07-21T07:38:52.000Z</time>
      </trkpt>
      <trkpt lat="48.73735" lon="1.74702">
        <ele>153.80000305176</ele>
        <time>2015-07-21T07:38:56.000Z</time>
      </trkpt>
      <trkpt lat="48.73743" lon="1.74711">
        <ele>154.39999389648</ele>
        <time>2015-07-21T07:39:03.000Z</time>
      </trkpt>
      <trkpt lat="48.73748" lon="1.74714">
        <ele>154.60000610352</ele>
        <time>2015-07-21T07:39:07.000Z</time>
      </trkpt>
      <trkpt lat="48.7375" lon="1.74716">
        <ele>154.80000305176</ele>
        <time>2015-07-21T07:39:08.000Z</time>
      </trkpt>
      <trkpt lat="48.73755" lon="1.74722">
        <ele>155</ele>
        <time>2015-07-21T07:39:12.000Z</time>
      </trkpt>
      <trkpt lat="48.73758" lon="1.74726">
        <ele>155.19999694824</ele>
        <time>2015-07-21T07:39:15.000Z</time>
      </trkpt>
      <trkpt lat="48.73759" lon="1.74728">
        <ele>155.39999389648</ele>
        <time>2015-07-21T07:39:17.000Z</time>
      </trkpt>
      <trkpt lat="48.73764" lon="1.74734">
        <ele>155.60000610352</ele>
        <time>2015-07-21T07:39:21.000Z</time>
      </trkpt>
      <trkpt lat="48.73766" lon="1.74737">
        <ele>155.80000305176</ele>
        <time>2015-07-21T07:39:23.000Z</time>
      </trkpt>
      <trkpt lat="48.73776" lon="1.74746">
        <ele>156.60000610352</ele>
        <time>2015-07-21T07:39:30.000Z</time>
      </trkpt>
      <trkpt lat="48.73782" lon="1.74752">
        <ele>157</ele>
        <time>2015-07-21T07:39:35.000Z</time>
      </trkpt>
      <trkpt lat="48.73788" lon="1.7476">
        <ele>157.60000610352</ele>
        <time>2015-07-21T07:39:41.000Z</time>
      </trkpt>
      <trkpt lat="48.73795" lon="1.74769">
        <ele>158.19999694824</ele>
        <time>2015-07-21T07:39:47.000Z</time>
      </trkpt>
      <trkpt lat="48.738" lon="1.74774">
        <ele>158.60000610352</ele>
        <time>2015-07-21T07:39:51.000Z</time>
      </trkpt>
      <trkpt lat="48.73804" lon="1.74775">
        <ele>158.60000610352</ele>
        <time>2015-07-21T07:39:53.000Z</time>
      </trkpt>
      <trkpt lat="48.73806" lon="1.74778">
        <ele>158.80000305176</ele>
        <time>2015-07-21T07:39:55.000Z</time>
      </trkpt>
      <trkpt lat="48.7381" lon="1.74782">
        <ele>159.19999694824</ele>
        <time>2015-07-21T07:39:58.000Z</time>
      </trkpt>
      <trkpt lat="48.7382" lon="1.74792">
        <ele>159.80000305176</ele>
        <time>2015-07-21T07:40:06.000Z</time>
      </trkpt>
      <trkpt lat="48.73829" lon="1.748">
        <ele>160.39999389648</ele>
        <time>2015-07-21T07:40:13.000Z</time>
      </trkpt>
      <trkpt lat="48.73833" lon="1.74803">
        <ele>160.80000305176</ele>
        <time>2015-07-21T07:40:16.000Z</time>
      </trkpt>
      <trkpt lat="48.73837" lon="1.74808">
        <ele>161</ele>
        <time>2015-07-21T07:40:19.000Z</time>
      </trkpt>
      <trkpt lat="48.73842" lon="1.74814">
        <ele>161.39999389648</ele>
        <time>2015-07-21T07:40:24.000Z</time>
      </trkpt>
      <trkpt lat="48.73845" lon="1.74821">
        <ele>162</ele>
        <time>2015-07-21T07:40:29.000Z</time>
      </trkpt>
      <trkpt lat="48.73847" lon="1.74824">
        <ele>162.39999389648</ele>
        <time>2015-07-21T07:40:31.000Z</time>
      </trkpt>
      <trkpt lat="48.73854" lon="1.74829">
        <ele>163</ele>
        <time>2015-07-21T07:40:36.000Z</time>
      </trkpt>
      <trkpt lat="48.73855" lon="1.7483">
        <ele>163.19999694824</ele>
        <time>2015-07-21T07:40:37.000Z</time>
      </trkpt>
      <trkpt lat="48.73859" lon="1.74833">
        <ele>163.60000610352</ele>
        <time>2015-07-21T07:40:41.000Z</time>
      </trkpt>
      <trkpt lat="48.73863" lon="1.74837">
        <ele>164</ele>
        <time>2015-07-21T07:40:44.000Z</time>
      </trkpt>
      <trkpt lat="48.73868" lon="1.74841">
        <ele>164.60000610352</ele>
        <time>2015-07-21T07:40:47.000Z</time>
      </trkpt>
      <trkpt lat="48.73876" lon="1.74852">
        <ele>166</ele>
        <time>2015-07-21T07:40:55.000Z</time>
      </trkpt>
      <trkpt lat="48.73881" lon="1.74857">
        <ele>166.80000305176</ele>
        <time>2015-07-21T07:40:59.000Z</time>
      </trkpt>
      <trkpt lat="48.73883" lon="1.74858">
        <ele>166.80000305176</ele>
        <time>2015-07-21T07:41:00.000Z</time>
      </trkpt>
      <trkpt lat="48.73888" lon="1.74864">
        <ele>167.60000610352</ele>
        <time>2015-07-21T07:41:05.000Z</time>
      </trkpt>
      <trkpt lat="48.7389" lon="1.74865">
        <ele>167.80000305176</ele>
        <time>2015-07-21T07:41:06.000Z</time>
      </trkpt>
      <trkpt lat="48.73899" lon="1.74871">
        <ele>168.60000610352</ele>
        <time>2015-07-21T07:41:12.000Z</time>
      </trkpt>
      <trkpt lat="48.73902" lon="1.74874">
        <ele>169</ele>
        <time>2015-07-21T07:41:14.000Z</time>
      </trkpt>
      <trkpt lat="48.73905" lon="1.74878">
        <ele>169.39999389648</ele>
        <time>2015-07-21T07:41:17.000Z</time>
      </trkpt>
      <trkpt lat="48.73909" lon="1.74883">
        <ele>170.19999694824</ele>
        <time>2015-07-21T07:41:20.000Z</time>
      </trkpt>
      <trkpt lat="48.73912" lon="1.74887">
        <ele>170.60000610352</ele>
        <time>2015-07-21T07:41:23.000Z</time>
      </trkpt>
      <trkpt lat="48.73915" lon="1.74891">
        <ele>171.19999694824</ele>
        <time>2015-07-21T07:41:26.000Z</time>
      </trkpt>
      <trkpt lat="48.73919" lon="1.74893">
        <ele>171.39999389648</ele>
        <time>2015-07-21T07:41:28.000Z</time>
      </trkpt>
      <trkpt lat="48.73926" lon="1.74901">
        <ele>172.39999389648</ele>
        <time>2015-07-21T07:41:33.000Z</time>
      </trkpt>
      <trkpt lat="48.73929" lon="1.74906">
        <ele>173</ele>
        <time>2015-07-21T07:41:35.000Z</time>
      </trkpt>
      <trkpt lat="48.73939" lon="1.74915">
        <ele>174</ele>
        <time>2015-07-21T07:41:40.000Z</time>
      </trkpt>
      <trkpt lat="48.73939" lon="1.74916">
        <ele>174.19999694824</ele>
        <time>2015-07-21T07:41:41.000Z</time>
      </trkpt>
      <trkpt lat="48.73944" lon="1.74921">
        <ele>174.80000305176</ele>
        <time>2015-07-21T07:41:45.000Z</time>
      </trkpt>
      <trkpt lat="48.73945" lon="1.74922">
        <ele>175</ele>
        <time>2015-07-21T07:41:46.000Z</time>
      </trkpt>
      <trkpt lat="48.73946" lon="1.74926">
        <ele>175.39999389648</ele>
        <time>2015-07-21T07:41:48.000Z</time>
      </trkpt>
      <trkpt lat="48.73948" lon="1.74929">
        <ele>175.80000305176</ele>
        <time>2015-07-21T07:41:51.000Z</time>
      </trkpt>
      <trkpt lat="48.73955" lon="1.74935">
        <ele>176.60000610352</ele>
        <time>2015-07-21T07:41:56.000Z</time>
      </trkpt>
      <trkpt lat="48.73957" lon="1.74935">
        <ele>176.80000305176</ele>
        <time>2015-07-21T07:41:57.000Z</time>
      </trkpt>
      <trkpt lat="48.73959" lon="1.74937">
        <ele>177</ele>
        <time>2015-07-21T07:41:59.000Z</time>
      </trkpt>
      <trkpt lat="48.7396" lon="1.74939">
        <ele>177.19999694824</ele>
        <time>2015-07-21T07:42:01.000Z</time>
      </trkpt>
      <trkpt lat="48.73969" lon="1.74946">
        <ele>178.39999389648</ele>
        <time>2015-07-21T07:42:07.000Z</time>
      </trkpt>
      <trkpt lat="48.73972" lon="1.74948">
        <ele>178.80000305176</ele>
        <time>2015-07-21T07:42:09.000Z</time>
      </trkpt>
      <trkpt lat="48.73977" lon="1.74955">
        <ele>179.60000610352</ele>
        <time>2015-07-21T07:42:13.000Z</time>
      </trkpt>
      <trkpt lat="48.7398" lon="1.74961">
        <ele>180.39999389648</ele>
        <time>2015-07-21T07:42:19.000Z</time>
      </trkpt>
      <trkpt lat="48.73986" lon="1.74965">
        <ele>181</ele>
        <time>2015-07-21T07:42:24.000Z</time>
      </trkpt>
      <trkpt lat="48.73994" lon="1.74968">
        <ele>181.80000305176</ele>
        <time>2015-07-21T07:42:30.000Z</time>
      </trkpt>
      <trkpt lat="48.73999" lon="1.74972">
        <ele>182.39999389648</ele>
        <time>2015-07-21T07:42:34.000Z</time>
      </trkpt>
      <trkpt lat="48.74" lon="1.74973">
        <ele>182.60000610352</ele>
        <time>2015-07-21T07:42:35.000Z</time>
      </trkpt>
      <trkpt lat="48.74008" lon="1.74979">
        <ele>183.60000610352</ele>
        <time>2015-07-21T07:42:42.000Z</time>
      </trkpt>
      <trkpt lat="48.7401" lon="1.74983">
        <ele>184</ele>
        <time>2015-07-21T07:42:44.000Z</time>
      </trkpt>
      <trkpt lat="48.74013" lon="1.74989">
        <ele>184.60000610352</ele>
        <time>2015-07-21T07:42:48.000Z</time>
      </trkpt>
      <trkpt lat="48.74014" lon="1.74991">
        <ele>184.60000610352</ele>
        <time>2015-07-21T07:42:49.000Z</time>
      </trkpt>
      <trkpt lat="48.74017" lon="1.74997">
        <ele>185</ele>
        <time>2015-07-21T07:42:53.000Z</time>
      </trkpt>
      <trkpt lat="48.74019" lon="1.74998">
        <ele>185.19999694824</ele>
        <time>2015-07-21T07:42:55.000Z</time>
      </trkpt>
      <trkpt lat="48.74025" lon="1.75">
        <ele>185.39999389648</ele>
        <time>2015-07-21T07:42:59.000Z</time>
      </trkpt>
      <trkpt lat="48.74027" lon="1.75003">
        <ele>185.39999389648</ele>
        <time>2015-07-21T07:43:01.000Z</time>
      </trkpt>
      <trkpt lat="48.74036" lon="1.75013">
        <ele>185.60000610352</ele>
        <time>2015-07-21T07:43:08.000Z</time>
      </trkpt>
      <trkpt lat="48.74043" lon="1.7502">
        <ele>185.80000305176</ele>
        <time>2015-07-21T07:43:15.000Z</time>
      </trkpt>
      <trkpt lat="48.74049" lon="1.75031">
        <ele>186</ele>
        <time>2015-07-21T07:43:22.000Z</time>
      </trkpt>
      <trkpt lat="48.74059" lon="1.75044">
        <ele>186.39999389648</ele>
        <time>2015-07-21T07:43:31.000Z</time>
      </trkpt>
      <trkpt lat="48.74062" lon="1.75047">
        <ele>186.39999389648</ele>
        <time>2015-07-21T07:43:34.000Z</time>
      </trkpt>
      <trkpt lat="48.74064" lon="1.75049">
        <ele>186.39999389648</ele>
        <time>2015-07-21T07:43:36.000Z</time>
      </trkpt>
      <trkpt lat="48.74067" lon="1.75054">
        <ele>186.60000610352</ele>
        <time>2015-07-21T07:43:39.000Z</time>
      </trkpt>
      <trkpt lat="48.74068" lon="1.75055">
        <ele>186.60000610352</ele>
        <time>2015-07-21T07:43:40.000Z</time>
      </trkpt>
      <trkpt lat="48.74071" lon="1.7506">
        <ele>186.80000305176</ele>
        <time>2015-07-21T07:43:43.000Z</time>
      </trkpt>
      <trkpt lat="48.74073" lon="1.75061">
        <ele>186.80000305176</ele>
        <time>2015-07-21T07:43:45.000Z</time>
      </trkpt>
      <trkpt lat="48.74076" lon="1.75067">
        <ele>187</ele>
        <time>2015-07-21T07:43:48.000Z</time>
      </trkpt>
      <trkpt lat="48.74078" lon="1.75071">
        <ele>187</ele>
        <time>2015-07-21T07:43:50.000Z</time>
      </trkpt>
      <trkpt lat="48.74083" lon="1.75077">
        <ele>186.80000305176</ele>
        <time>2015-07-21T07:43:55.000Z</time>
      </trkpt>
      <trkpt lat="48.74091" lon="1.75088">
        <ele>186.39999389648</ele>
        <time>2015-07-21T07:44:02.000Z</time>
      </trkpt>
      <trkpt lat="48.74097" lon="1.75095">
        <ele>186.19999694824</ele>
        <time>2015-07-21T07:44:07.000Z</time>
      </trkpt>
      <trkpt lat="48.74098" lon="1.75096">
        <ele>186.19999694824</ele>
        <time>2015-07-21T07:44:08.000Z</time>
      </trkpt>
      <trkpt lat="48.74108" lon="1.75104">
        <ele>185.60000610352</ele>
        <time>2015-07-21T07:44:16.000Z</time>
      </trkpt>
      <trkpt lat="48.74114" lon="1.75112">
        <ele>185.19999694824</ele>
        <time>2015-07-21T07:44:21.000Z</time>
      </trkpt>
      <trkpt lat="48.74115" lon="1.75114">
        <ele>185</ele>
        <time>2015-07-21T07:44:22.000Z</time>
      </trkpt>
      <trkpt lat="48.74119" lon="1.75122">
        <ele>184.60000610352</ele>
        <time>2015-07-21T07:44:27.000Z</time>
      </trkpt>
      <trkpt lat="48.74123" lon="1.75123">
        <ele>184.39999389648</ele>
        <time>2015-07-21T07:44:30.000Z</time>
      </trkpt>
      <trkpt lat="48.74124" lon="1.75122">
        <ele>184.39999389648</ele>
        <time>2015-07-21T07:44:31.000Z</time>
      </trkpt>
      <trkpt lat="48.74126" lon="1.75123">
        <ele>184.39999389648</ele>
        <time>2015-07-21T07:44:32.000Z</time>
      </trkpt>
      <trkpt lat="48.74133" lon="1.75126">
        <ele>184</ele>
        <time>2015-07-21T07:44:38.000Z</time>
      </trkpt>
      <trkpt lat="48.74135" lon="1.75127">
        <ele>183.80000305176</ele>
        <time>2015-07-21T07:44:39.000Z</time>
      </trkpt>
      <trkpt lat="48.74138" lon="1.75127">
        <ele>183.80000305176</ele>
        <time>2015-07-21T07:44:42.000Z</time>
      </trkpt>
      <trkpt lat="48.74141" lon="1.75127">
        <ele>183.60000610352</ele>
        <time>2015-07-21T07:44:44.000Z</time>
      </trkpt>
      <trkpt lat="48.74142" lon="1.75126">
        <ele>183.60000610352</ele>
        <time>2015-07-21T07:44:45.000Z</time>
      </trkpt>
      <trkpt lat="48.74147" lon="1.75126">
        <ele>183.39999389648</ele>
        <time>2015-07-21T07:44:48.000Z</time>
      </trkpt>
      <trkpt lat="48.7415" lon="1.75126">
        <ele>183.39999389648</ele>
        <time>2015-07-21T07:44:51.000Z</time>
      </trkpt>
      <trkpt lat="48.74153" lon="1.75126">
        <ele>183.19999694824</ele>
        <time>2015-07-21T07:44:53.000Z</time>
      </trkpt>
      <trkpt lat="48.74163" lon="1.75126">
        <ele>183</ele>
        <time>2015-07-21T07:45:00.000Z</time>
      </trkpt>
      <trkpt lat="48.74171" lon="1.75126">
        <ele>182.60000610352</ele>
        <time>2015-07-21T07:45:06.000Z</time>
      </trkpt>
      <trkpt lat="48.74181" lon="1.75125">
        <ele>182.19999694824</ele>
        <time>2015-07-21T07:45:14.000Z</time>
      </trkpt>
      <trkpt lat="48.74183" lon="1.75125">
        <ele>182.19999694824</ele>
        <time>2015-07-21T07:45:15.000Z</time>
      </trkpt>
      <trkpt lat="48.7419" lon="1.75124">
        <ele>182</ele>
        <time>2015-07-21T07:45:21.000Z</time>
      </trkpt>
      <trkpt lat="48.74201" lon="1.75123">
        <ele>181.60000610352</ele>
        <time>2015-07-21T07:45:29.000Z</time>
      </trkpt>
      <trkpt lat="48.74211" lon="1.75125">
        <ele>181.19999694824</ele>
        <time>2015-07-21T07:45:36.000Z</time>
      </trkpt>
      <trkpt lat="48.74221" lon="1.75123">
        <ele>181</ele>
        <time>2015-07-21T07:45:43.000Z</time>
      </trkpt>
      <trkpt lat="48.7423" lon="1.75124">
        <ele>180.60000610352</ele>
        <time>2015-07-21T07:45:50.000Z</time>
      </trkpt>
      <trkpt lat="48.74239" lon="1.75123">
        <ele>180.19999694824</ele>
        <time>2015-07-21T07:45:56.000Z</time>
      </trkpt>
      <trkpt lat="48.7425" lon="1.75122">
        <ele>179.80000305176</ele>
        <time>2015-07-21T07:46:03.000Z</time>
      </trkpt>
      <trkpt lat="48.7426" lon="1.75121">
        <ele>179.19999694824</ele>
        <time>2015-07-21T07:46:11.000Z</time>
      </trkpt>
      <trkpt lat="48.74273" lon="1.7512">
        <ele>178.80000305176</ele>
        <time>2015-07-21T07:46:20.000Z</time>
      </trkpt>
      <trkpt lat="48.74286" lon="1.75117">
        <ele>178.80000305176</ele>
        <time>2015-07-21T07:46:29.000Z</time>
      </trkpt>
      <trkpt lat="48.74298" lon="1.75115">
        <ele>179</ele>
        <time>2015-07-21T07:46:37.000Z</time>
      </trkpt>
      <trkpt lat="48.74309" lon="1.75115">
        <ele>179</ele>
        <time>2015-07-21T07:46:45.000Z</time>
      </trkpt>
      <trkpt lat="48.74319" lon="1.75114">
        <ele>178.80000305176</ele>
        <time>2015-07-21T07:46:52.000Z</time>
      </trkpt>
      <trkpt lat="48.74329" lon="1.75116">
        <ele>178.60000610352</ele>
        <time>2015-07-21T07:46:59.000Z</time>
      </trkpt>
      <trkpt lat="48.74337" lon="1.75114">
        <ele>178.39999389648</ele>
        <time>2015-07-21T07:47:06.000Z</time>
      </trkpt>
      <trkpt lat="48.74341" lon="1.75114">
        <ele>178.39999389648</ele>
        <time>2015-07-21T07:47:09.000Z</time>
      </trkpt>
      <trkpt lat="48.74345" lon="1.75114">
        <ele>178.19999694824</ele>
        <time>2015-07-21T07:47:12.000Z</time>
      </trkpt>
      <trkpt lat="48.7435" lon="1.75113">
        <ele>178</ele>
        <time>2015-07-21T07:47:16.000Z</time>
      </trkpt>
      <trkpt lat="48.74354" lon="1.75113">
        <ele>178</ele>
        <time>2015-07-21T07:47:18.000Z</time>
      </trkpt>
      <trkpt lat="48.74358" lon="1.75113">
        <ele>177.80000305176</ele>
        <time>2015-07-21T07:47:21.000Z</time>
      </trkpt>
      <trkpt lat="48.74362" lon="1.75114">
        <ele>177.80000305176</ele>
        <time>2015-07-21T07:47:25.000Z</time>
      </trkpt>
      <trkpt lat="48.74363" lon="1.75115">
        <ele>177.60000610352</ele>
        <time>2015-07-21T07:47:26.000Z</time>
      </trkpt>
      <trkpt lat="48.74367" lon="1.75117">
        <ele>177.60000610352</ele>
        <time>2015-07-21T07:47:30.000Z</time>
      </trkpt>
      <trkpt lat="48.74375" lon="1.75116">
        <ele>177.19999694824</ele>
        <time>2015-07-21T07:47:36.000Z</time>
      </trkpt>
      <trkpt lat="48.74384" lon="1.75116">
        <ele>177</ele>
        <time>2015-07-21T07:47:42.000Z</time>
      </trkpt>
      <trkpt lat="48.74387" lon="1.75115">
        <ele>176.80000305176</ele>
        <time>2015-07-21T07:47:44.000Z</time>
      </trkpt>
      <trkpt lat="48.7439" lon="1.75114">
        <ele>176.80000305176</ele>
        <time>2015-07-21T07:47:47.000Z</time>
      </trkpt>
      <trkpt lat="48.74397" lon="1.75111">
        <ele>176.60000610352</ele>
        <time>2015-07-21T07:47:51.000Z</time>
      </trkpt>
      <trkpt lat="48.74398" lon="1.75111">
        <ele>176.60000610352</ele>
        <time>2015-07-21T07:47:52.000Z</time>
      </trkpt>
      <trkpt lat="48.74406" lon="1.75107">
        <ele>177.19999694824</ele>
        <time>2015-07-21T07:47:57.000Z</time>
      </trkpt>
      <trkpt lat="48.7441" lon="1.75106">
        <ele>177.19999694824</ele>
        <time>2015-07-21T07:48:00.000Z</time>
      </trkpt>
      <trkpt lat="48.74415" lon="1.75106">
        <ele>177.39999389648</ele>
        <time>2015-07-21T07:48:03.000Z</time>
      </trkpt>
      <trkpt lat="48.74417" lon="1.75106">
        <ele>177.39999389648</ele>
        <time>2015-07-21T07:48:04.000Z</time>
      </trkpt>
      <trkpt lat="48.74425" lon="1.75108">
        <ele>177.39999389648</ele>
        <time>2015-07-21T07:48:09.000Z</time>
      </trkpt>
      <trkpt lat="48.74427" lon="1.75109">
        <ele>177.39999389648</ele>
        <time>2015-07-21T07:48:10.000Z</time>
      </trkpt>
      <trkpt lat="48.74435" lon="1.75111">
        <ele>177.60000610352</ele>
        <time>2015-07-21T07:48:15.000Z</time>
      </trkpt>
      <trkpt lat="48.74436" lon="1.75112">
        <ele>177.39999389648</ele>
        <time>2015-07-21T07:48:16.000Z</time>
      </trkpt>
      <trkpt lat="48.74438" lon="1.75122">
        <ele>177</ele>
        <time>2015-07-21T07:48:20.000Z</time>
      </trkpt>
      <trkpt lat="48.74448" lon="1.75132">
        <ele>176.39999389648</ele>
        <time>2015-07-21T07:48:27.000Z</time>
      </trkpt>
      <trkpt lat="48.74464" lon="1.75133">
        <ele>176.19999694824</ele>
        <time>2015-07-21T07:48:34.000Z</time>
      </trkpt>
      <trkpt lat="48.74475" lon="1.75134">
        <ele>176.19999694824</ele>
        <time>2015-07-21T07:48:39.000Z</time>
      </trkpt>
      <trkpt lat="48.74478" lon="1.75136">
        <ele>176</ele>
        <time>2015-07-21T07:48:41.000Z</time>
      </trkpt>
      <trkpt lat="48.74484" lon="1.75144">
        <ele>175.60000610352</ele>
        <time>2015-07-21T07:48:45.000Z</time>
      </trkpt>
      <trkpt lat="48.74487" lon="1.75145">
        <ele>175.60000610352</ele>
        <time>2015-07-21T07:48:46.000Z</time>
      </trkpt>
      <trkpt lat="48.74488" lon="1.75148">
        <ele>175.39999389648</ele>
        <time>2015-07-21T07:48:48.000Z</time>
      </trkpt>
      <trkpt lat="48.74489" lon="1.75149">
        <ele>175.39999389648</ele>
        <time>2015-07-21T07:48:49.000Z</time>
      </trkpt>
      <trkpt lat="48.7449" lon="1.75153">
        <ele>175</ele>
        <time>2015-07-21T07:48:51.000Z</time>
      </trkpt>
      <trkpt lat="48.74493" lon="1.75156">
        <ele>174.80000305176</ele>
        <time>2015-07-21T07:48:54.000Z</time>
      </trkpt>
      <trkpt lat="48.74493" lon="1.7516">
        <ele>174.60000610352</ele>
        <time>2015-07-21T07:48:56.000Z</time>
      </trkpt>
      <trkpt lat="48.74494" lon="1.75168">
        <ele>174</ele>
        <time>2015-07-21T07:48:59.000Z</time>
      </trkpt>
      <trkpt lat="48.74503" lon="1.7518">
        <ele>173.19999694824</ele>
        <time>2015-07-21T07:49:06.000Z</time>
      </trkpt>
      <trkpt lat="48.74511" lon="1.75182">
        <ele>173</ele>
        <time>2015-07-21T07:49:10.000Z</time>
      </trkpt>
      <trkpt lat="48.74515" lon="1.75188">
        <ele>172.60000610352</ele>
        <time>2015-07-21T07:49:14.000Z</time>
      </trkpt>
      <trkpt lat="48.74517" lon="1.75192">
        <ele>172.39999389648</ele>
        <time>2015-07-21T07:49:16.000Z</time>
      </trkpt>
      <trkpt lat="48.74518" lon="1.75192">
        <ele>172.19999694824</ele>
        <time>2015-07-21T07:49:17.000Z</time>
      </trkpt>
      <trkpt lat="48.74524" lon="1.75197">
        <ele>171.60000610352</ele>
        <time>2015-07-21T07:49:21.000Z</time>
      </trkpt>
      <trkpt lat="48.74535" lon="1.75204">
        <ele>170.19999694824</ele>
        <time>2015-07-21T07:49:27.000Z</time>
      </trkpt>
      <trkpt lat="48.74538" lon="1.75204">
        <ele>170</ele>
        <time>2015-07-21T07:49:31.000Z</time>
      </trkpt>
      <trkpt lat="48.74535" lon="1.75201">
        <ele>170.39999389648</ele>
        <time>2015-07-21T07:49:37.000Z</time>
      </trkpt>
      <trkpt lat="48.74534" lon="1.75202">
        <ele>170.39999389648</ele>
        <time>2015-07-21T07:49:39.000Z</time>
      </trkpt>
      <trkpt lat="48.7454" lon="1.75218">
        <ele>168.80000305176</ele>
        <time>2015-07-21T07:50:07.000Z</time>
      </trkpt>
      <trkpt lat="48.74543" lon="1.7522">
        <ele>168.39999389648</ele>
        <time>2015-07-21T07:50:09.000Z</time>
      </trkpt>
      <trkpt lat="48.7455" lon="1.75222">
        <ele>167.60000610352</ele>
        <time>2015-07-21T07:50:14.000Z</time>
      </trkpt>
      <trkpt lat="48.74553" lon="1.75224">
        <ele>167.39999389648</ele>
        <time>2015-07-21T07:50:16.000Z</time>
      </trkpt>
      <trkpt lat="48.74558" lon="1.75226">
        <ele>166.60000610352</ele>
        <time>2015-07-21T07:50:19.000Z</time>
      </trkpt>
      <trkpt lat="48.74561" lon="1.75226">
        <ele>166.39999389648</ele>
        <time>2015-07-21T07:50:21.000Z</time>
      </trkpt>
      <trkpt lat="48.74567" lon="1.7523">
        <ele>165.60000610352</ele>
        <time>2015-07-21T07:50:27.000Z</time>
      </trkpt>
      <trkpt lat="48.74573" lon="1.75236">
        <ele>164.80000305176</ele>
        <time>2015-07-21T07:50:32.000Z</time>
      </trkpt>
      <trkpt lat="48.74574" lon="1.75236">
        <ele>164.60000610352</ele>
        <time>2015-07-21T07:50:33.000Z</time>
      </trkpt>
      <trkpt lat="48.74575" lon="1.75238">
        <ele>164.39999389648</ele>
        <time>2015-07-21T07:50:34.000Z</time>
      </trkpt>
      <trkpt lat="48.74579" lon="1.75242">
        <ele>163.80000305176</ele>
        <time>2015-07-21T07:50:38.000Z</time>
      </trkpt>
      <trkpt lat="48.7458" lon="1.75243">
        <ele>163.80000305176</ele>
        <time>2015-07-21T07:50:39.000Z</time>
      </trkpt>
      <trkpt lat="48.74586" lon="1.75248">
        <ele>163</ele>
        <time>2015-07-21T07:50:45.000Z</time>
      </trkpt>
      <trkpt lat="48.74592" lon="1.7525">
        <ele>162.39999389648</ele>
        <time>2015-07-21T07:50:50.000Z</time>
      </trkpt>
      <trkpt lat="48.74595" lon="1.75251">
        <ele>162</ele>
        <time>2015-07-21T07:50:52.000Z</time>
      </trkpt>
      <trkpt lat="48.74604" lon="1.75255">
        <ele>161.19999694824</ele>
        <time>2015-07-21T07:50:58.000Z</time>
      </trkpt>
      <trkpt lat="48.74612" lon="1.75261">
        <ele>160.60000610352</ele>
        <time>2015-07-21T07:51:04.000Z</time>
      </trkpt>
      <trkpt lat="48.74617" lon="1.75264">
        <ele>160.19999694824</ele>
        <time>2015-07-21T07:51:08.000Z</time>
      </trkpt>
      <trkpt lat="48.74618" lon="1.75264">
        <ele>160.19999694824</ele>
        <time>2015-07-21T07:51:09.000Z</time>
      </trkpt>
      <trkpt lat="48.74629" lon="1.75274">
        <ele>159.39999389648</ele>
        <time>2015-07-21T07:51:16.000Z</time>
      </trkpt>
      <trkpt lat="48.74636" lon="1.7528">
        <ele>158.80000305176</ele>
        <time>2015-07-21T07:51:21.000Z</time>
      </trkpt>
      <trkpt lat="48.74644" lon="1.75286">
        <ele>158.19999694824</ele>
        <time>2015-07-21T07:51:27.000Z</time>
      </trkpt>
      <trkpt lat="48.74652" lon="1.75292">
        <ele>157.60000610352</ele>
        <time>2015-07-21T07:51:33.000Z</time>
      </trkpt>
      <trkpt lat="48.7466" lon="1.753">
        <ele>157</ele>
        <time>2015-07-21T07:51:40.000Z</time>
      </trkpt>
      <trkpt lat="48.74668" lon="1.75309">
        <ele>156.19999694824</ele>
        <time>2015-07-21T07:51:47.000Z</time>
      </trkpt>
      <trkpt lat="48.74676" lon="1.75317">
        <ele>155.60000610352</ele>
        <time>2015-07-21T07:51:53.000Z</time>
      </trkpt>
      <trkpt lat="48.7468" lon="1.75321">
        <ele>155.19999694824</ele>
        <time>2015-07-21T07:51:56.000Z</time>
      </trkpt>
      <trkpt lat="48.74684" lon="1.75322">
        <ele>155.19999694824</ele>
        <time>2015-07-21T07:51:58.000Z</time>
      </trkpt>
      <trkpt lat="48.74691" lon="1.75323">
        <ele>155</ele>
        <time>2015-07-21T07:52:02.000Z</time>
      </trkpt>
      <trkpt lat="48.747" lon="1.75331">
        <ele>154.60000610352</ele>
        <time>2015-07-21T07:52:08.000Z</time>
      </trkpt>
      <trkpt lat="48.74708" lon="1.75335">
        <ele>154.60000610352</ele>
        <time>2015-07-21T07:52:13.000Z</time>
      </trkpt>
      <trkpt lat="48.7471" lon="1.75336">
        <ele>154.39999389648</ele>
        <time>2015-07-21T07:52:14.000Z</time>
      </trkpt>
      <trkpt lat="48.74716" lon="1.75341">
        <ele>154.39999389648</ele>
        <time>2015-07-21T07:52:18.000Z</time>
      </trkpt>
      <trkpt lat="48.74724" lon="1.75351">
        <ele>154.19999694824</ele>
        <time>2015-07-21T07:52:25.000Z</time>
      </trkpt>
      <trkpt lat="48.74731" lon="1.7536">
        <ele>154</ele>
        <time>2015-07-21T07:52:32.000Z</time>
      </trkpt>
      <trkpt lat="48.74732" lon="1.75362">
        <ele>154</ele>
        <time>2015-07-21T07:52:33.000Z</time>
      </trkpt>
      <trkpt lat="48.74736" lon="1.75368">
        <ele>153.80000305176</ele>
        <time>2015-07-21T07:52:37.000Z</time>
      </trkpt>
      <trkpt lat="48.74742" lon="1.75379">
        <ele>153.60000610352</ele>
        <time>2015-07-21T07:52:44.000Z</time>
      </trkpt>
      <trkpt lat="48.74743" lon="1.75381">
        <ele>153.60000610352</ele>
        <time>2015-07-21T07:52:45.000Z</time>
      </trkpt>
      <trkpt lat="48.74751" lon="1.75386">
        <ele>153.39999389648</ele>
        <time>2015-07-21T07:52:50.000Z</time>
      </trkpt>
      <trkpt lat="48.74761" lon="1.75395">
        <ele>153.19999694824</ele>
        <time>2015-07-21T07:52:58.000Z</time>
      </trkpt>
      <trkpt lat="48.74763" lon="1.75396">
        <ele>153.19999694824</ele>
        <time>2015-07-21T07:52:59.000Z</time>
      </trkpt>
      <trkpt lat="48.74772" lon="1.75403">
        <ele>153</ele>
        <time>2015-07-21T07:53:04.000Z</time>
      </trkpt>
      <trkpt lat="48.74781" lon="1.75411">
        <ele>153.39999389648</ele>
        <time>2015-07-21T07:53:09.000Z</time>
      </trkpt>
      <trkpt lat="48.7479" lon="1.75424">
        <ele>153.80000305176</ele>
        <time>2015-07-21T07:53:16.000Z</time>
      </trkpt>
      <trkpt lat="48.74796" lon="1.75436">
        <ele>154</ele>
        <time>2015-07-21T07:53:23.000Z</time>
      </trkpt>
      <trkpt lat="48.74804" lon="1.75443">
        <ele>154.39999389648</ele>
        <time>2015-07-21T07:53:29.000Z</time>
      </trkpt>
      <trkpt lat="48.74808" lon="1.75455">
        <ele>154.39999389648</ele>
        <time>2015-07-21T07:53:34.000Z</time>
      </trkpt>
      <trkpt lat="48.74814" lon="1.75468">
        <ele>154.60000610352</ele>
        <time>2015-07-21T07:53:40.000Z</time>
      </trkpt>
      <trkpt lat="48.74818" lon="1.75475">
        <ele>154.60000610352</ele>
        <time>2015-07-21T07:53:45.000Z</time>
      </trkpt>
      <trkpt lat="48.74819" lon="1.75475">
        <ele>154.80000305176</ele>
        <time>2015-07-21T07:53:46.000Z</time>
      </trkpt>
      <trkpt lat="48.74822" lon="1.75473">
        <ele>155</ele>
        <time>2015-07-21T07:53:52.000Z</time>
      </trkpt>
      <trkpt lat="48.74823" lon="1.75464">
        <ele>155.19999694824</ele>
        <time>2015-07-21T07:53:57.000Z</time>
      </trkpt>
      <trkpt lat="48.74823" lon="1.75462">
        <ele>155.39999389648</ele>
        <time>2015-07-21T07:53:58.000Z</time>
      </trkpt>
      <trkpt lat="48.74822" lon="1.75456">
        <ele>155.39999389648</ele>
        <time>2015-07-21T07:54:01.000Z</time>
      </trkpt>
      <trkpt lat="48.74821" lon="1.7545">
        <ele>155.39999389648</ele>
        <time>2015-07-21T07:54:04.000Z</time>
      </trkpt>
      <trkpt lat="48.7482" lon="1.75436">
        <ele>155</ele>
        <time>2015-07-21T07:54:11.000Z</time>
      </trkpt>
      <trkpt lat="48.74819" lon="1.75432">
        <ele>154.80000305176</ele>
        <time>2015-07-21T07:54:13.000Z</time>
      </trkpt>
      <trkpt lat="48.74819" lon="1.75425">
        <ele>154.60000610352</ele>
        <time>2015-07-21T07:54:16.000Z</time>
      </trkpt>
      <trkpt lat="48.7482" lon="1.75411">
        <ele>154.39999389648</ele>
        <time>2015-07-21T07:54:23.000Z</time>
      </trkpt>
      <trkpt lat="48.7482" lon="1.75406">
        <ele>154.19999694824</ele>
        <time>2015-07-21T07:54:25.000Z</time>
      </trkpt>
      <trkpt lat="48.7482" lon="1.75396">
        <ele>154.19999694824</ele>
        <time>2015-07-21T07:54:30.000Z</time>
      </trkpt>
      <trkpt lat="48.74818" lon="1.75385">
        <ele>154.19999694824</ele>
        <time>2015-07-21T07:54:35.000Z</time>
      </trkpt>
      <trkpt lat="48.74817" lon="1.75376">
        <ele>154.19999694824</ele>
        <time>2015-07-21T07:54:40.000Z</time>
      </trkpt>
      <trkpt lat="48.74817" lon="1.75373">
        <ele>154.19999694824</ele>
        <time>2015-07-21T07:54:42.000Z</time>
      </trkpt>
      <trkpt lat="48.74814" lon="1.75364">
        <ele>154</ele>
        <time>2015-07-21T07:54:46.000Z</time>
      </trkpt>
      <trkpt lat="48.74813" lon="1.7536">
        <ele>153.80000305176</ele>
        <time>2015-07-21T07:54:48.000Z</time>
      </trkpt>
      <trkpt lat="48.74812" lon="1.75353">
        <ele>153.60000610352</ele>
        <time>2015-07-21T07:54:52.000Z</time>
      </trkpt>
      <trkpt lat="48.74811" lon="1.75352">
        <ele>153.60000610352</ele>
        <time>2015-07-21T07:54:53.000Z</time>
      </trkpt>
      <trkpt lat="48.74809" lon="1.75339">
        <ele>153</ele>
        <time>2015-07-21T07:54:59.000Z</time>
      </trkpt>
      <trkpt lat="48.74807" lon="1.75321">
        <ele>152.19999694824</ele>
        <time>2015-07-21T07:55:07.000Z</time>
      </trkpt>
      <trkpt lat="48.74805" lon="1.75313">
        <ele>152</ele>
        <time>2015-07-21T07:55:12.000Z</time>
      </trkpt>
      <trkpt lat="48.74802" lon="1.75304">
        <ele>152</ele>
        <time>2015-07-21T07:55:16.000Z</time>
      </trkpt>
      <trkpt lat="48.74802" lon="1.75303">
        <ele>152</ele>
        <time>2015-07-21T07:55:17.000Z</time>
      </trkpt>
      <trkpt lat="48.74796" lon="1.75289">
        <ele>152</ele>
        <time>2015-07-21T07:55:23.000Z</time>
      </trkpt>
      <trkpt lat="48.7479" lon="1.75276">
        <ele>152</ele>
        <time>2015-07-21T07:55:30.000Z</time>
      </trkpt>
      <trkpt lat="48.74787" lon="1.75267">
        <ele>152</ele>
        <time>2015-07-21T07:55:35.000Z</time>
      </trkpt>
      <trkpt lat="48.74785" lon="1.75258">
        <ele>151.80000305176</ele>
        <time>2015-07-21T07:55:40.000Z</time>
      </trkpt>
      <trkpt lat="48.74782" lon="1.75248">
        <ele>151.80000305176</ele>
        <time>2015-07-21T07:55:46.000Z</time>
      </trkpt>
      <trkpt lat="48.74779" lon="1.7524">
        <ele>152</ele>
        <time>2015-07-21T07:55:51.000Z</time>
      </trkpt>
      <trkpt lat="48.74778" lon="1.75238">
        <ele>152</ele>
        <time>2015-07-21T07:55:53.000Z</time>
      </trkpt>
      <trkpt lat="48.74777" lon="1.75235">
        <ele>152</ele>
        <time>2015-07-21T07:55:55.000Z</time>
      </trkpt>
      <trkpt lat="48.74776" lon="1.75234">
        <ele>152</ele>
        <time>2015-07-21T07:55:56.000Z</time>
      </trkpt>
      <trkpt lat="48.74773" lon="1.75224">
        <ele>152</ele>
        <time>2015-07-21T07:56:01.000Z</time>
      </trkpt>
      <trkpt lat="48.74772" lon="1.75223">
        <ele>152</ele>
        <time>2015-07-21T07:56:02.000Z</time>
      </trkpt>
      <trkpt lat="48.74768" lon="1.7521">
        <ele>152.19999694824</ele>
        <time>2015-07-21T07:56:08.000Z</time>
      </trkpt>
      <trkpt lat="48.74762" lon="1.75196">
        <ele>152.39999389648</ele>
        <time>2015-07-21T07:56:15.000Z</time>
      </trkpt>
      <trkpt lat="48.74756" lon="1.7518">
        <ele>152.60000610352</ele>
        <time>2015-07-21T07:56:23.000Z</time>
      </trkpt>
      <trkpt lat="48.74753" lon="1.7517">
        <ele>152.80000305176</ele>
        <time>2015-07-21T07:56:27.000Z</time>
      </trkpt>
      <trkpt lat="48.74752" lon="1.75168">
        <ele>153</ele>
        <time>2015-07-21T07:56:29.000Z</time>
      </trkpt>
      <trkpt lat="48.74748" lon="1.75156">
        <ele>153</ele>
        <time>2015-07-21T07:56:34.000Z</time>
      </trkpt>
      <trkpt lat="48.74745" lon="1.75143">
        <ele>153.39999389648</ele>
        <time>2015-07-21T07:56:39.000Z</time>
      </trkpt>
      <trkpt lat="48.74741" lon="1.75127">
        <ele>153.80000305176</ele>
        <time>2015-07-21T07:56:46.000Z</time>
      </trkpt>
      <trkpt lat="48.74739" lon="1.75118">
        <ele>153.80000305176</ele>
        <time>2015-07-21T07:56:50.000Z</time>
      </trkpt>
      <trkpt lat="48.7474" lon="1.75112">
        <ele>153.60000610352</ele>
        <time>2015-07-21T07:56:53.000Z</time>
      </trkpt>
      <trkpt lat="48.7474" lon="1.75109">
        <ele>153.60000610352</ele>
        <time>2015-07-21T07:56:54.000Z</time>
      </trkpt>
      <trkpt lat="48.7474" lon="1.75097">
        <ele>153.19999694824</ele>
        <time>2015-07-21T07:56:58.000Z</time>
      </trkpt>
      <trkpt lat="48.74741" lon="1.75095">
        <ele>153.19999694824</ele>
        <time>2015-07-21T07:56:59.000Z</time>
      </trkpt>
      <trkpt lat="48.74741" lon="1.7509">
        <ele>153</ele>
        <time>2015-07-21T07:57:01.000Z</time>
      </trkpt>
      <trkpt lat="48.74742" lon="1.75081">
        <ele>152.60000610352</ele>
        <time>2015-07-21T07:57:05.000Z</time>
      </trkpt>
      <trkpt lat="48.74745" lon="1.75072">
        <ele>152.19999694824</ele>
        <time>2015-07-21T07:57:09.000Z</time>
      </trkpt>
      <trkpt lat="48.74746" lon="1.75069">
        <ele>152.19999694824</ele>
        <time>2015-07-21T07:57:10.000Z</time>
      </trkpt>
      <trkpt lat="48.7475" lon="1.75056">
        <ele>152.80000305176</ele>
        <time>2015-07-21T07:57:17.000Z</time>
      </trkpt>
      <trkpt lat="48.74749" lon="1.75055">
        <ele>153</ele>
        <time>2015-07-21T07:57:19.000Z</time>
      </trkpt>
      <trkpt lat="48.7476" lon="1.7503">
        <ele>151.19999694824</ele>
        <time>2015-07-21T07:58:25.000Z</time>
      </trkpt>
      <trkpt lat="48.74762" lon="1.75024">
        <ele>151</ele>
        <time>2015-07-21T07:58:28.000Z</time>
      </trkpt>
      <trkpt lat="48.74764" lon="1.75021">
        <ele>150.60000610352</ele>
        <time>2015-07-21T07:58:30.000Z</time>
      </trkpt>
      <trkpt lat="48.74766" lon="1.75014">
        <ele>150.19999694824</ele>
        <time>2015-07-21T07:58:34.000Z</time>
      </trkpt>
      <trkpt lat="48.74766" lon="1.75012">
        <ele>150</ele>
        <time>2015-07-21T07:58:35.000Z</time>
      </trkpt>
      <trkpt lat="48.7477" lon="1.75003">
        <ele>149.39999389648</ele>
        <time>2015-07-21T07:58:40.000Z</time>
      </trkpt>
      <trkpt lat="48.74775" lon="1.74993">
        <ele>149.60000610352</ele>
        <time>2015-07-21T07:58:46.000Z</time>
      </trkpt>
      <trkpt lat="48.74778" lon="1.74986">
        <ele>150</ele>
        <time>2015-07-21T07:58:51.000Z</time>
      </trkpt>
      <trkpt lat="48.74779" lon="1.74985">
        <ele>150.19999694824</ele>
        <time>2015-07-21T07:58:53.000Z</time>
      </trkpt>
      <trkpt lat="48.74779" lon="1.74986">
        <ele>150.19999694824</ele>
        <time>2015-07-21T07:58:54.000Z</time>
      </trkpt>
      <trkpt lat="48.74795" lon="1.74952">
        <ele>154.60000610352</ele>
        <time>2015-07-21T08:02:43.000Z</time>
      </trkpt>
      <trkpt lat="48.74796" lon="1.74949">
        <ele>155.19999694824</ele>
        <time>2015-07-21T08:02:45.000Z</time>
      </trkpt>
      <trkpt lat="48.748" lon="1.74941">
        <ele>156.19999694824</ele>
        <time>2015-07-21T08:02:50.000Z</time>
      </trkpt>
      <trkpt lat="48.74801" lon="1.74941">
        <ele>156.39999389648</ele>
        <time>2015-07-21T08:02:51.000Z</time>
      </trkpt>
      <trkpt lat="48.74804" lon="1.74935">
        <ele>156.80000305176</ele>
        <time>2015-07-21T08:02:55.000Z</time>
      </trkpt>
      <trkpt lat="48.74806" lon="1.74929">
        <ele>156.19999694824</ele>
        <time>2015-07-21T08:02:58.000Z</time>
      </trkpt>
      <trkpt lat="48.74813" lon="1.74917">
        <ele>154.60000610352</ele>
        <time>2015-07-21T08:03:07.000Z</time>
      </trkpt>
      <trkpt lat="48.74819" lon="1.74906">
        <ele>153.39999389648</ele>
        <time>2015-07-21T08:03:14.000Z</time>
      </trkpt>
      <trkpt lat="48.74822" lon="1.74898">
        <ele>153.39999389648</ele>
        <time>2015-07-21T08:03:19.000Z</time>
      </trkpt>
      <trkpt lat="48.74827" lon="1.74887">
        <ele>153.80000305176</ele>
        <time>2015-07-21T08:03:25.000Z</time>
      </trkpt>
      <trkpt lat="48.74831" lon="1.74875">
        <ele>153.60000610352</ele>
        <time>2015-07-21T08:03:33.000Z</time>
      </trkpt>
      <trkpt lat="48.74833" lon="1.74871">
        <ele>153.39999389648</ele>
        <time>2015-07-21T08:03:36.000Z</time>
      </trkpt>
      <trkpt lat="48.74835" lon="1.74867">
        <ele>153</ele>
        <time>2015-07-21T08:03:38.000Z</time>
      </trkpt>
      <trkpt lat="48.74838" lon="1.74857">
        <ele>152.19999694824</ele>
        <time>2015-07-21T08:03:44.000Z</time>
      </trkpt>
      <trkpt lat="48.7484" lon="1.74851">
        <ele>151.80000305176</ele>
        <time>2015-07-21T08:03:48.000Z</time>
      </trkpt>
      <trkpt lat="48.74842" lon="1.74845">
        <ele>151.39999389648</ele>
        <time>2015-07-21T08:03:51.000Z</time>
      </trkpt>
      <trkpt lat="48.74845" lon="1.74832">
        <ele>150.60000610352</ele>
        <time>2015-07-21T08:03:58.000Z</time>
      </trkpt>
      <trkpt lat="48.74849" lon="1.74819">
        <ele>149.80000305176</ele>
        <time>2015-07-21T08:04:04.000Z</time>
      </trkpt>
      <trkpt lat="48.74854" lon="1.74806">
        <ele>149</ele>
        <time>2015-07-21T08:04:11.000Z</time>
      </trkpt>
      <trkpt lat="48.74856" lon="1.74799">
        <ele>149.39999389648</ele>
        <time>2015-07-21T08:04:15.000Z</time>
      </trkpt>
      <trkpt lat="48.74857" lon="1.74798">
        <ele>149.39999389648</ele>
        <time>2015-07-21T08:04:16.000Z</time>
      </trkpt>
      <trkpt lat="48.74861" lon="1.74785">
        <ele>150.19999694824</ele>
        <time>2015-07-21T08:04:23.000Z</time>
      </trkpt>
      <trkpt lat="48.74864" lon="1.74767">
        <ele>150.80000305176</ele>
        <time>2015-07-21T08:04:31.000Z</time>
      </trkpt>
      <trkpt lat="48.74866" lon="1.74758">
        <ele>151.19999694824</ele>
        <time>2015-07-21T08:04:35.000Z</time>
      </trkpt>
      <trkpt lat="48.74868" lon="1.74752">
        <ele>151.60000610352</ele>
        <time>2015-07-21T08:04:38.000Z</time>
      </trkpt>
      <trkpt lat="48.74871" lon="1.74742">
        <ele>151</ele>
        <time>2015-07-21T08:04:43.000Z</time>
      </trkpt>
      <trkpt lat="48.74871" lon="1.7474">
        <ele>150.80000305176</ele>
        <time>2015-07-21T08:04:44.000Z</time>
      </trkpt>
      <trkpt lat="48.74873" lon="1.74733">
        <ele>150.80000305176</ele>
        <time>2015-07-21T08:04:47.000Z</time>
      </trkpt>
      <trkpt lat="48.74874" lon="1.74728">
        <ele>151</ele>
        <time>2015-07-21T08:04:49.000Z</time>
      </trkpt>
      <trkpt lat="48.74876" lon="1.74718">
        <ele>151.60000610352</ele>
        <time>2015-07-21T08:04:54.000Z</time>
      </trkpt>
      <trkpt lat="48.74877" lon="1.74715">
        <ele>151.80000305176</ele>
        <time>2015-07-21T08:04:56.000Z</time>
      </trkpt>
      <trkpt lat="48.74878" lon="1.7471">
        <ele>152</ele>
        <time>2015-07-21T08:04:59.000Z</time>
      </trkpt>
      <trkpt lat="48.74881" lon="1.74706">
        <ele>152.39999389648</ele>
        <time>2015-07-21T08:05:02.000Z</time>
      </trkpt>
      <trkpt lat="48.74883" lon="1.74702">
        <ele>152.60000610352</ele>
        <time>2015-07-21T08:05:04.000Z</time>
      </trkpt>
      <trkpt lat="48.74887" lon="1.74697">
        <ele>153.19999694824</ele>
        <time>2015-07-21T08:05:08.000Z</time>
      </trkpt>
      <trkpt lat="48.7489" lon="1.74688">
        <ele>153.39999389648</ele>
        <time>2015-07-21T08:05:13.000Z</time>
      </trkpt>
      <trkpt lat="48.74891" lon="1.74686">
        <ele>153.39999389648</ele>
        <time>2015-07-21T08:05:14.000Z</time>
      </trkpt>
      <trkpt lat="48.74898" lon="1.74678">
        <ele>152.80000305176</ele>
        <time>2015-07-21T08:05:19.000Z</time>
      </trkpt>
      <trkpt lat="48.74902" lon="1.74669">
        <ele>152</ele>
        <time>2015-07-21T08:05:24.000Z</time>
      </trkpt>
      <trkpt lat="48.74904" lon="1.74665">
        <ele>151.80000305176</ele>
        <time>2015-07-21T08:05:26.000Z</time>
      </trkpt>
      <trkpt lat="48.74906" lon="1.74659">
        <ele>151.39999389648</ele>
        <time>2015-07-21T08:05:30.000Z</time>
      </trkpt>
      <trkpt lat="48.74907" lon="1.74655">
        <ele>151</ele>
        <time>2015-07-21T08:05:32.000Z</time>
      </trkpt>
      <trkpt lat="48.74911" lon="1.74646">
        <ele>151.19999694824</ele>
        <time>2015-07-21T08:05:36.000Z</time>
      </trkpt>
      <trkpt lat="48.74912" lon="1.74644">
        <ele>151.39999389648</ele>
        <time>2015-07-21T08:05:37.000Z</time>
      </trkpt>
      <trkpt lat="48.74912" lon="1.74643">
        <ele>151.39999389648</ele>
        <time>2015-07-21T08:05:38.000Z</time>
      </trkpt>
      <trkpt lat="48.74915" lon="1.74639">
        <ele>151.60000610352</ele>
        <time>2015-07-21T08:05:41.000Z</time>
      </trkpt>
      <trkpt lat="48.74916" lon="1.74637">
        <ele>151.60000610352</ele>
        <time>2015-07-21T08:05:42.000Z</time>
      </trkpt>
      <trkpt lat="48.74916" lon="1.74635">
        <ele>151.60000610352</ele>
        <time>2015-07-21T08:05:43.000Z</time>
      </trkpt>
      <trkpt lat="48.74919" lon="1.74626">
        <ele>151.60000610352</ele>
        <time>2015-07-21T08:05:47.000Z</time>
      </trkpt>
      <trkpt lat="48.74923" lon="1.74615">
        <ele>151.19999694824</ele>
        <time>2015-07-21T08:05:53.000Z</time>
      </trkpt>
      <trkpt lat="48.74924" lon="1.74613">
        <ele>151.19999694824</ele>
        <time>2015-07-21T08:05:55.000Z</time>
      </trkpt>
      <trkpt lat="48.74925" lon="1.7461">
        <ele>151</ele>
        <time>2015-07-21T08:05:59.000Z</time>
      </trkpt>
      <trkpt lat="48.74927" lon="1.74606">
        <ele>151</ele>
        <time>2015-07-21T08:06:02.000Z</time>
      </trkpt>
      <trkpt lat="48.74928" lon="1.746">
        <ele>150.80000305176</ele>
        <time>2015-07-21T08:06:05.000Z</time>
      </trkpt>
      <trkpt lat="48.74931" lon="1.74589">
        <ele>150.60000610352</ele>
        <time>2015-07-21T08:06:13.000Z</time>
      </trkpt>
      <trkpt lat="48.74931" lon="1.74585">
        <ele>150.39999389648</ele>
        <time>2015-07-21T08:06:15.000Z</time>
      </trkpt>
      <trkpt lat="48.74935" lon="1.7458">
        <ele>150.19999694824</ele>
        <time>2015-07-21T08:06:19.000Z</time>
      </trkpt>
      <trkpt lat="48.74938" lon="1.74572">
        <ele>150</ele>
        <time>2015-07-21T08:06:23.000Z</time>
      </trkpt>
      <trkpt lat="48.74943" lon="1.74562">
        <ele>150.60000610352</ele>
        <time>2015-07-21T08:06:29.000Z</time>
      </trkpt>
      <trkpt lat="48.74947" lon="1.74555">
        <ele>151.19999694824</ele>
        <time>2015-07-21T08:06:33.000Z</time>
      </trkpt>
      <trkpt lat="48.7495" lon="1.74551">
        <ele>151.39999389648</ele>
        <time>2015-07-21T08:06:35.000Z</time>
      </trkpt>
      <trkpt lat="48.74956" lon="1.74539">
        <ele>152.19999694824</ele>
        <time>2015-07-21T08:06:41.000Z</time>
      </trkpt>
      <trkpt lat="48.74957" lon="1.74537">
        <ele>152.19999694824</ele>
        <time>2015-07-21T08:06:42.000Z</time>
      </trkpt>
      <trkpt lat="48.74958" lon="1.74528">
        <ele>152.19999694824</ele>
        <time>2015-07-21T08:06:46.000Z</time>
      </trkpt>
      <trkpt lat="48.74961" lon="1.7452">
        <ele>152.39999389648</ele>
        <time>2015-07-21T08:06:50.000Z</time>
      </trkpt>
      <trkpt lat="48.74961" lon="1.74516">
        <ele>152.39999389648</ele>
        <time>2015-07-21T08:06:52.000Z</time>
      </trkpt>
      <trkpt lat="48.74966" lon="1.74503">
        <ele>152.60000610352</ele>
        <time>2015-07-21T08:06:58.000Z</time>
      </trkpt>
      <trkpt lat="48.74967" lon="1.74499">
        <ele>152.39999389648</ele>
        <time>2015-07-21T08:07:00.000Z</time>
      </trkpt>
      <trkpt lat="48.74968" lon="1.74496">
        <ele>152.39999389648</ele>
        <time>2015-07-21T08:07:02.000Z</time>
      </trkpt>
      <trkpt lat="48.74971" lon="1.74485">
        <ele>152.19999694824</ele>
        <time>2015-07-21T08:07:06.000Z</time>
      </trkpt>
      <trkpt lat="48.74973" lon="1.74477">
        <ele>152.80000305176</ele>
        <time>2015-07-21T08:07:10.000Z</time>
      </trkpt>
      <trkpt lat="48.74974" lon="1.74475">
        <ele>152.80000305176</ele>
        <time>2015-07-21T08:07:11.000Z</time>
      </trkpt>
      <trkpt lat="48.74975" lon="1.74468">
        <ele>153.19999694824</ele>
        <time>2015-07-21T08:07:14.000Z</time>
      </trkpt>
      <trkpt lat="48.74976" lon="1.74463">
        <ele>153.60000610352</ele>
        <time>2015-07-21T08:07:16.000Z</time>
      </trkpt>
      <trkpt lat="48.7498" lon="1.74447">
        <ele>154.60000610352</ele>
        <time>2015-07-21T08:07:23.000Z</time>
      </trkpt>
      <trkpt lat="48.74982" lon="1.74442">
        <ele>154.19999694824</ele>
        <time>2015-07-21T08:07:25.000Z</time>
      </trkpt>
      <trkpt lat="48.74983" lon="1.74437">
        <ele>153.80000305176</ele>
        <time>2015-07-21T08:07:28.000Z</time>
      </trkpt>
      <trkpt lat="48.74987" lon="1.74424">
        <ele>152.80000305176</ele>
        <time>2015-07-21T08:07:34.000Z</time>
      </trkpt>
      <trkpt lat="48.74988" lon="1.74414">
        <ele>152.19999694824</ele>
        <time>2015-07-21T08:07:38.000Z</time>
      </trkpt>
      <trkpt lat="48.74989" lon="1.7441">
        <ele>151.80000305176</ele>
        <time>2015-07-21T08:07:40.000Z</time>
      </trkpt>
      <trkpt lat="48.74991" lon="1.74396">
        <ele>151.60000610352</ele>
        <time>2015-07-21T08:07:46.000Z</time>
      </trkpt>
      <trkpt lat="48.74992" lon="1.74394">
        <ele>151.80000305176</ele>
        <time>2015-07-21T08:07:47.000Z</time>
      </trkpt>
      <trkpt lat="48.74994" lon="1.74381">
        <ele>152.19999694824</ele>
        <time>2015-07-21T08:07:54.000Z</time>
      </trkpt>
      <trkpt lat="48.74997" lon="1.74373">
        <ele>151.80000305176</ele>
        <time>2015-07-21T08:07:58.000Z</time>
      </trkpt>
      <trkpt lat="48.74998" lon="1.7437">
        <ele>151.60000610352</ele>
        <time>2015-07-21T08:07:59.000Z</time>
      </trkpt>
      <trkpt lat="48.74999" lon="1.74361">
        <ele>151</ele>
        <time>2015-07-21T08:08:03.000Z</time>
      </trkpt>
      <trkpt lat="48.75" lon="1.7436">
        <ele>150.80000305176</ele>
        <time>2015-07-21T08:08:04.000Z</time>
      </trkpt>
      <trkpt lat="48.75002" lon="1.74354">
        <ele>150.39999389648</ele>
        <time>2015-07-21T08:08:07.000Z</time>
      </trkpt>
      <trkpt lat="48.75004" lon="1.7435">
        <ele>150</ele>
        <time>2015-07-21T08:08:09.000Z</time>
      </trkpt>
      <trkpt lat="48.75005" lon="1.74349">
        <ele>149.80000305176</ele>
        <time>2015-07-21T08:08:10.000Z</time>
      </trkpt>
      <trkpt lat="48.75009" lon="1.74338">
        <ele>149</ele>
        <time>2015-07-21T08:08:16.000Z</time>
      </trkpt>
      <trkpt lat="48.75015" lon="1.74319">
        <ele>147.60000610352</ele>
        <time>2015-07-21T08:08:24.000Z</time>
      </trkpt>
      <trkpt lat="48.75015" lon="1.74316">
        <ele>147.60000610352</ele>
        <time>2015-07-21T08:08:25.000Z</time>
      </trkpt>
      <trkpt lat="48.75017" lon="1.74309">
        <ele>147.39999389648</ele>
        <time>2015-07-21T08:08:29.000Z</time>
      </trkpt>
      <trkpt lat="48.75019" lon="1.74305">
        <ele>147.39999389648</ele>
        <time>2015-07-21T08:08:32.000Z</time>
      </trkpt>
      <trkpt lat="48.75021" lon="1.74301">
        <ele>147.19999694824</ele>
        <time>2015-07-21T08:08:35.000Z</time>
      </trkpt>
      <trkpt lat="48.75026" lon="1.74291">
        <ele>148</ele>
        <time>2015-07-21T08:08:41.000Z</time>
      </trkpt>
      <trkpt lat="48.75028" lon="1.74289">
        <ele>148.19999694824</ele>
        <time>2015-07-21T08:08:43.000Z</time>
      </trkpt>
      <trkpt lat="48.75028" lon="1.74285">
        <ele>148.19999694824</ele>
        <time>2015-07-21T08:08:45.000Z</time>
      </trkpt>
      <trkpt lat="48.75031" lon="1.74274">
        <ele>148.80000305176</ele>
        <time>2015-07-21T08:08:51.000Z</time>
      </trkpt>
      <trkpt lat="48.75032" lon="1.74266">
        <ele>149</ele>
        <time>2015-07-21T08:08:55.000Z</time>
      </trkpt>
      <trkpt lat="48.75033" lon="1.74261">
        <ele>149.19999694824</ele>
        <time>2015-07-21T08:08:57.000Z</time>
      </trkpt>
      <trkpt lat="48.75035" lon="1.74254">
        <ele>149.39999389648</ele>
        <time>2015-07-21T08:09:00.000Z</time>
      </trkpt>
      <trkpt lat="48.75038" lon="1.74243">
        <ele>149.39999389648</ele>
        <time>2015-07-21T08:09:05.000Z</time>
      </trkpt>
      <trkpt lat="48.75043" lon="1.74228">
        <ele>149.19999694824</ele>
        <time>2015-07-21T08:09:12.000Z</time>
      </trkpt>
      <trkpt lat="48.75048" lon="1.74218">
        <ele>149.39999389648</ele>
        <time>2015-07-21T08:09:19.000Z</time>
      </trkpt>
      <trkpt lat="48.75053" lon="1.7421">
        <ele>149.60000610352</ele>
        <time>2015-07-21T08:09:25.000Z</time>
      </trkpt>
      <trkpt lat="48.75058" lon="1.74203">
        <ele>149.80000305176</ele>
        <time>2015-07-21T08:09:29.000Z</time>
      </trkpt>
      <trkpt lat="48.75059" lon="1.74202">
        <ele>149.80000305176</ele>
        <time>2015-07-21T08:09:30.000Z</time>
      </trkpt>
      <trkpt lat="48.75063" lon="1.74198">
        <ele>150</ele>
        <time>2015-07-21T08:09:34.000Z</time>
      </trkpt>
      <trkpt lat="48.75065" lon="1.74194">
        <ele>150</ele>
        <time>2015-07-21T08:09:37.000Z</time>
      </trkpt>
      <trkpt lat="48.75067" lon="1.74183">
        <ele>149.60000610352</ele>
        <time>2015-07-21T08:09:43.000Z</time>
      </trkpt>
      <trkpt lat="48.75068" lon="1.74181">
        <ele>149.60000610352</ele>
        <time>2015-07-21T08:09:44.000Z</time>
      </trkpt>
      <trkpt lat="48.7507" lon="1.74174">
        <ele>149.39999389648</ele>
        <time>2015-07-21T08:09:47.000Z</time>
      </trkpt>
      <trkpt lat="48.75072" lon="1.74169">
        <ele>149.39999389648</ele>
        <time>2015-07-21T08:09:50.000Z</time>
      </trkpt>
      <trkpt lat="48.75073" lon="1.74165">
        <ele>149.19999694824</ele>
        <time>2015-07-21T08:09:52.000Z</time>
      </trkpt>
      <trkpt lat="48.75076" lon="1.74158">
        <ele>149.19999694824</ele>
        <time>2015-07-21T08:09:56.000Z</time>
      </trkpt>
      <trkpt lat="48.75078" lon="1.74155">
        <ele>149</ele>
        <time>2015-07-21T08:09:59.000Z</time>
      </trkpt>
      <trkpt lat="48.75081" lon="1.74149">
        <ele>149</ele>
        <time>2015-07-21T08:10:02.000Z</time>
      </trkpt>
      <trkpt lat="48.75084" lon="1.74134">
        <ele>148.60000610352</ele>
        <time>2015-07-21T08:10:09.000Z</time>
      </trkpt>
      <trkpt lat="48.75084" lon="1.74132">
        <ele>148.60000610352</ele>
        <time>2015-07-21T08:10:10.000Z</time>
      </trkpt>
      <trkpt lat="48.75087" lon="1.74118">
        <ele>148.39999389648</ele>
        <time>2015-07-21T08:10:16.000Z</time>
      </trkpt>
      <trkpt lat="48.75088" lon="1.74106">
        <ele>148</ele>
        <time>2015-07-21T08:10:19.000Z</time>
      </trkpt>
      <trkpt lat="48.75088" lon="1.74105">
        <ele>148</ele>
        <time>2015-07-21T08:10:22.000Z</time>
      </trkpt>
      <trkpt lat="48.75088" lon="1.7407">
        <ele>147.19999694824</ele>
        <time>2015-07-21T08:11:00.000Z</time>
      </trkpt>
      <trkpt lat="48.75087" lon="1.74062">
        <ele>147.19999694824</ele>
        <time>2015-07-21T08:11:05.000Z</time>
      </trkpt>
      <trkpt lat="48.75087" lon="1.74061">
        <ele>147.19999694824</ele>
        <time>2015-07-21T08:11:06.000Z</time>
      </trkpt>
      <trkpt lat="48.75087" lon="1.74054">
        <ele>147.19999694824</ele>
        <time>2015-07-21T08:11:10.000Z</time>
      </trkpt>
      <trkpt lat="48.75087" lon="1.74053">
        <ele>147.19999694824</ele>
        <time>2015-07-21T08:11:11.000Z</time>
      </trkpt>
      <trkpt lat="48.75088" lon="1.74048">
        <ele>147</ele>
        <time>2015-07-21T08:11:14.000Z</time>
      </trkpt>
      <trkpt lat="48.7509" lon="1.7404">
        <ele>147</ele>
        <time>2015-07-21T08:11:18.000Z</time>
      </trkpt>
      <trkpt lat="48.75091" lon="1.74038">
        <ele>146.80000305176</ele>
        <time>2015-07-21T08:11:19.000Z</time>
      </trkpt>
      <trkpt lat="48.75095" lon="1.74028">
        <ele>146.80000305176</ele>
        <time>2015-07-21T08:11:25.000Z</time>
      </trkpt>
      <trkpt lat="48.75095" lon="1.74026">
        <ele>146.80000305176</ele>
        <time>2015-07-21T08:11:26.000Z</time>
      </trkpt>
      <trkpt lat="48.75098" lon="1.74018">
        <ele>146.60000610352</ele>
        <time>2015-07-21T08:11:31.000Z</time>
      </trkpt>
      <trkpt lat="48.75099" lon="1.74014">
        <ele>146.60000610352</ele>
        <time>2015-07-21T08:11:33.000Z</time>
      </trkpt>
      <trkpt lat="48.75102" lon="1.74007">
        <ele>146.39999389648</ele>
        <time>2015-07-21T08:11:38.000Z</time>
      </trkpt>
      <trkpt lat="48.75104" lon="1.74005">
        <ele>146.39999389648</ele>
        <time>2015-07-21T08:11:39.000Z</time>
      </trkpt>
      <trkpt lat="48.75108" lon="1.74">
        <ele>146.80000305176</ele>
        <time>2015-07-21T08:11:43.000Z</time>
      </trkpt>
      <trkpt lat="48.75112" lon="1.73992">
        <ele>147.39999389648</ele>
        <time>2015-07-21T08:11:49.000Z</time>
      </trkpt>
      <trkpt lat="48.75113" lon="1.73989">
        <ele>147.19999694824</ele>
        <time>2015-07-21T08:11:52.000Z</time>
      </trkpt>
      <trkpt lat="48.75115" lon="1.73986">
        <ele>147.19999694824</ele>
        <time>2015-07-21T08:11:54.000Z</time>
      </trkpt>
      <trkpt lat="48.75118" lon="1.73983">
        <ele>147.60000610352</ele>
        <time>2015-07-21T08:11:57.000Z</time>
      </trkpt>
      <trkpt lat="48.7512" lon="1.73981">
        <ele>147.80000305176</ele>
        <time>2015-07-21T08:11:59.000Z</time>
      </trkpt>
      <trkpt lat="48.75122" lon="1.73979">
        <ele>147.80000305176</ele>
        <time>2015-07-21T08:12:01.000Z</time>
      </trkpt>
      <trkpt lat="48.75125" lon="1.73977">
        <ele>148.19999694824</ele>
        <time>2015-07-21T08:12:03.000Z</time>
      </trkpt>
      <trkpt lat="48.75129" lon="1.73971">
        <ele>148.39999389648</ele>
        <time>2015-07-21T08:12:07.000Z</time>
      </trkpt>
      <trkpt lat="48.75131" lon="1.73968">
        <ele>148.60000610352</ele>
        <time>2015-07-21T08:12:09.000Z</time>
      </trkpt>
      <trkpt lat="48.75137" lon="1.73961">
        <ele>149</ele>
        <time>2015-07-21T08:12:14.000Z</time>
      </trkpt>
      <trkpt lat="48.75145" lon="1.73951">
        <ele>149.60000610352</ele>
        <time>2015-07-21T08:12:21.000Z</time>
      </trkpt>
      <trkpt lat="48.75151" lon="1.73945">
        <ele>149.80000305176</ele>
        <time>2015-07-21T08:12:26.000Z</time>
      </trkpt>
      <trkpt lat="48.75153" lon="1.73943">
        <ele>149.60000610352</ele>
        <time>2015-07-21T08:12:27.000Z</time>
      </trkpt>
      <trkpt lat="48.75161" lon="1.73935">
        <ele>149.39999389648</ele>
        <time>2015-07-21T08:12:33.000Z</time>
      </trkpt>
      <trkpt lat="48.75172" lon="1.73926">
        <ele>149.19999694824</ele>
        <time>2015-07-21T08:12:41.000Z</time>
      </trkpt>
      <trkpt lat="48.75173" lon="1.73924">
        <ele>149</ele>
        <time>2015-07-21T08:12:42.000Z</time>
      </trkpt>
      <trkpt lat="48.75177" lon="1.73919">
        <ele>148.80000305176</ele>
        <time>2015-07-21T08:12:46.000Z</time>
      </trkpt>
      <trkpt lat="48.75179" lon="1.73919">
        <ele>149</ele>
        <time>2015-07-21T08:12:47.000Z</time>
      </trkpt>
      <trkpt lat="48.75184" lon="1.73915">
        <ele>148.80000305176</ele>
        <time>2015-07-21T08:12:51.000Z</time>
      </trkpt>
      <trkpt lat="48.75186" lon="1.73914">
        <ele>149</ele>
        <time>2015-07-21T08:12:53.000Z</time>
      </trkpt>
      <trkpt lat="48.7519" lon="1.73912">
        <ele>149</ele>
        <time>2015-07-21T08:12:56.000Z</time>
      </trkpt>
      <trkpt lat="48.75198" lon="1.73908">
        <ele>149</ele>
        <time>2015-07-21T08:13:02.000Z</time>
      </trkpt>
      <trkpt lat="48.75203" lon="1.73906">
        <ele>149</ele>
        <time>2015-07-21T08:13:06.000Z</time>
      </trkpt>
      <trkpt lat="48.75204" lon="1.73905">
        <ele>149</ele>
        <time>2015-07-21T08:13:07.000Z</time>
      </trkpt>
      <trkpt lat="48.75209" lon="1.73902">
        <ele>149</ele>
        <time>2015-07-21T08:13:11.000Z</time>
      </trkpt>
      <trkpt lat="48.7521" lon="1.73901">
        <ele>149</ele>
        <time>2015-07-21T08:13:13.000Z</time>
      </trkpt>
      <trkpt lat="48.75212" lon="1.73901">
        <ele>149</ele>
        <time>2015-07-21T08:13:16.000Z</time>
      </trkpt>
      <trkpt lat="48.75233" lon="1.73886">
        <ele>149.39999389648</ele>
        <time>2015-07-21T08:14:19.000Z</time>
      </trkpt>
      <trkpt lat="48.75237" lon="1.73884">
        <ele>149.39999389648</ele>
        <time>2015-07-21T08:14:22.000Z</time>
      </trkpt>
      <trkpt lat="48.75245" lon="1.7388">
        <ele>149.60000610352</ele>
        <time>2015-07-21T08:14:30.000Z</time>
      </trkpt>
      <trkpt lat="48.75246" lon="1.7388">
        <ele>149.60000610352</ele>
        <time>2015-07-21T08:14:31.000Z</time>
      </trkpt>
      <trkpt lat="48.75247" lon="1.73879">
        <ele>149.60000610352</ele>
        <time>2015-07-21T08:14:32.000Z</time>
      </trkpt>
      <trkpt lat="48.7525" lon="1.73876">
        <ele>149.19999694824</ele>
        <time>2015-07-21T08:14:35.000Z</time>
      </trkpt>
      <trkpt lat="48.75251" lon="1.73876">
        <ele>149.19999694824</ele>
        <time>2015-07-21T08:14:36.000Z</time>
      </trkpt>
      <trkpt lat="48.75254" lon="1.73875">
        <ele>149.19999694824</ele>
        <time>2015-07-21T08:14:38.000Z</time>
      </trkpt>
      <trkpt lat="48.75258" lon="1.73876">
        <ele>149.19999694824</ele>
        <time>2015-07-21T08:14:41.000Z</time>
      </trkpt>
      <trkpt lat="48.7526" lon="1.73874">
        <ele>148.80000305176</ele>
        <time>2015-07-21T08:14:43.000Z</time>
      </trkpt>
      <trkpt lat="48.75262" lon="1.73873">
        <ele>148.80000305176</ele>
        <time>2015-07-21T08:14:44.000Z</time>
      </trkpt>
      <trkpt lat="48.75265" lon="1.73873">
        <ele>148.80000305176</ele>
        <time>2015-07-21T08:14:46.000Z</time>
      </trkpt>
      <trkpt lat="48.75271" lon="1.73872">
        <ele>148.39999389648</ele>
        <time>2015-07-21T08:14:50.000Z</time>
      </trkpt>
      <trkpt lat="48.75273" lon="1.73872">
        <ele>148.19999694824</ele>
        <time>2015-07-21T08:14:52.000Z</time>
      </trkpt>
      <trkpt lat="48.75282" lon="1.73868">
        <ele>147</ele>
        <time>2015-07-21T08:14:58.000Z</time>
      </trkpt>
      <trkpt lat="48.75283" lon="1.73867">
        <ele>146.80000305176</ele>
        <time>2015-07-21T08:14:59.000Z</time>
      </trkpt>
      <trkpt lat="48.75283" lon="1.7386">
        <ele>146</ele>
        <time>2015-07-21T08:15:02.000Z</time>
      </trkpt>
      <trkpt lat="48.75283" lon="1.73856">
        <ele>145.60000610352</ele>
        <time>2015-07-21T08:15:04.000Z</time>
      </trkpt>
      <trkpt lat="48.7528" lon="1.73851">
        <ele>145.39999389648</ele>
        <time>2015-07-21T08:15:08.000Z</time>
      </trkpt>
      <trkpt lat="48.75278" lon="1.7385">
        <ele>145.39999389648</ele>
        <time>2015-07-21T08:15:10.000Z</time>
      </trkpt>
      <trkpt lat="48.75277" lon="1.73848">
        <ele>145.39999389648</ele>
        <time>2015-07-21T08:15:11.000Z</time>
      </trkpt>
      <trkpt lat="48.75272" lon="1.73846">
        <ele>145.60000610352</ele>
        <time>2015-07-21T08:15:15.000Z</time>
      </trkpt>
      <trkpt lat="48.75272" lon="1.73843">
        <ele>145.39999389648</ele>
        <time>2015-07-21T08:15:16.000Z</time>
      </trkpt>
      <trkpt lat="48.75273" lon="1.7384">
        <ele>145</ele>
        <time>2015-07-21T08:15:19.000Z</time>
      </trkpt>
      <trkpt lat="48.75277" lon="1.73835">
        <ele>143.80000305176</ele>
        <time>2015-07-21T08:15:25.000Z</time>
      </trkpt>
      <trkpt lat="48.75277" lon="1.73834">
        <ele>143.80000305176</ele>
        <time>2015-07-21T08:15:26.000Z</time>
      </trkpt>
      <trkpt lat="48.75278" lon="1.73832">
        <ele>143.39999389648</ele>
        <time>2015-07-21T08:15:28.000Z</time>
      </trkpt>
      <trkpt lat="48.75277" lon="1.73828">
        <ele>143.19999694824</ele>
        <time>2015-07-21T08:15:30.000Z</time>
      </trkpt>
      <trkpt lat="48.75276" lon="1.73819">
        <ele>142.60000610352</ele>
        <time>2015-07-21T08:15:36.000Z</time>
      </trkpt>
      <trkpt lat="48.75276" lon="1.73819">
        <ele>142.60000610352</ele>
        <time>2015-07-21T08:15:37.000Z</time>
      </trkpt>
      <trkpt lat="48.75276" lon="1.73819">
        <ele>142.60000610352</ele>
        <time>2015-07-21T08:15:38.000Z</time>
      </trkpt>
      <trkpt lat="48.75265" lon="1.73806">
        <ele>142.60000610352</ele>
        <time>2015-07-21T08:17:12.000Z</time>
      </trkpt>
      <trkpt lat="48.75263" lon="1.73807">
        <ele>142.80000305176</ele>
        <time>2015-07-21T08:17:14.000Z</time>
      </trkpt>
      <trkpt lat="48.75259" lon="1.73807">
        <ele>143</ele>
        <time>2015-07-21T08:17:17.000Z</time>
      </trkpt>
      <trkpt lat="48.75254" lon="1.73803">
        <ele>143.19999694824</ele>
        <time>2015-07-21T08:17:22.000Z</time>
      </trkpt>
      <trkpt lat="48.75247" lon="1.73793">
        <ele>143</ele>
        <time>2015-07-21T08:17:29.000Z</time>
      </trkpt>
      <trkpt lat="48.75245" lon="1.73788">
        <ele>143</ele>
        <time>2015-07-21T08:17:32.000Z</time>
      </trkpt>
      <trkpt lat="48.75241" lon="1.73777">
        <ele>142.80000305176</ele>
        <time>2015-07-21T08:17:38.000Z</time>
      </trkpt>
      <trkpt lat="48.75232" lon="1.73762">
        <ele>142.39999389648</ele>
        <time>2015-07-21T08:17:47.000Z</time>
      </trkpt>
      <trkpt lat="48.75225" lon="1.73746">
        <ele>142.19999694824</ele>
        <time>2015-07-21T08:17:55.000Z</time>
      </trkpt>
      <trkpt lat="48.75218" lon="1.73728">
        <ele>142.19999694824</ele>
        <time>2015-07-21T08:18:04.000Z</time>
      </trkpt>
      <trkpt lat="48.75213" lon="1.73718">
        <ele>142.39999389648</ele>
        <time>2015-07-21T08:18:09.000Z</time>
      </trkpt>
      <trkpt lat="48.7521" lon="1.73701">
        <ele>142.60000610352</ele>
        <time>2015-07-21T08:18:17.000Z</time>
      </trkpt>
      <trkpt lat="48.75212" lon="1.73694">
        <ele>142.60000610352</ele>
        <time>2015-07-21T08:18:21.000Z</time>
      </trkpt>
      <trkpt lat="48.75214" lon="1.73694">
        <ele>142.39999389648</ele>
        <time>2015-07-21T08:18:23.000Z</time>
      </trkpt>
      <trkpt lat="48.7522" lon="1.7369">
        <ele>142</ele>
        <time>2015-07-21T08:18:28.000Z</time>
      </trkpt>
      <trkpt lat="48.75222" lon="1.73688">
        <ele>142</ele>
        <time>2015-07-21T08:18:30.000Z</time>
      </trkpt>
      <trkpt lat="48.75228" lon="1.73686">
        <ele>142</ele>
        <time>2015-07-21T08:18:36.000Z</time>
      </trkpt>
      <trkpt lat="48.75237" lon="1.73681">
        <ele>142.19999694824</ele>
        <time>2015-07-21T08:18:43.000Z</time>
      </trkpt>
      <trkpt lat="48.75245" lon="1.73678">
        <ele>142.19999694824</ele>
        <time>2015-07-21T08:18:49.000Z</time>
      </trkpt>
      <trkpt lat="48.75255" lon="1.73677">
        <ele>142.19999694824</ele>
        <time>2015-07-21T08:18:56.000Z</time>
      </trkpt>
      <trkpt lat="48.75258" lon="1.73677">
        <ele>142</ele>
        <time>2015-07-21T08:18:59.000Z</time>
      </trkpt>
      <trkpt lat="48.75264" lon="1.73676">
        <ele>142</ele>
        <time>2015-07-21T08:19:02.000Z</time>
      </trkpt>
      <trkpt lat="48.75263" lon="1.73675">
        <ele>142</ele>
        <time>2015-07-21T08:19:03.000Z</time>
      </trkpt>
      <trkpt lat="48.75268" lon="1.73673">
        <ele>142.19999694824</ele>
        <time>2015-07-21T08:19:06.000Z</time>
      </trkpt>
      <trkpt lat="48.75283" lon="1.73665">
        <ele>141.80000305176</ele>
        <time>2015-07-21T08:19:15.000Z</time>
      </trkpt>
      <trkpt lat="48.75295" lon="1.73658">
        <ele>141.39999389648</ele>
        <time>2015-07-21T08:19:24.000Z</time>
      </trkpt>
      <trkpt lat="48.75302" lon="1.73654">
        <ele>141.19999694824</ele>
        <time>2015-07-21T08:19:30.000Z</time>
      </trkpt>
      <trkpt lat="48.75306" lon="1.73652">
        <ele>141</ele>
        <time>2015-07-21T08:19:33.000Z</time>
      </trkpt>
      <trkpt lat="48.75311" lon="1.73651">
        <ele>140.80000305176</ele>
        <time>2015-07-21T08:19:36.000Z</time>
      </trkpt>
      <trkpt lat="48.75312" lon="1.73649">
        <ele>140.80000305176</ele>
        <time>2015-07-21T08:19:37.000Z</time>
      </trkpt>
      <trkpt lat="48.75314" lon="1.73648">
        <ele>140.60000610352</ele>
        <time>2015-07-21T08:19:39.000Z</time>
      </trkpt>
      <trkpt lat="48.75315" lon="1.73648">
        <ele>140.60000610352</ele>
        <time>2015-07-21T08:19:40.000Z</time>
      </trkpt>
      <trkpt lat="48.75329" lon="1.73641">
        <ele>140</ele>
        <time>2015-07-21T08:19:49.000Z</time>
      </trkpt>
      <trkpt lat="48.75337" lon="1.73635">
        <ele>139.80000305176</ele>
        <time>2015-07-21T08:19:56.000Z</time>
      </trkpt>
      <trkpt lat="48.75344" lon="1.73631">
        <ele>139.39999389648</ele>
        <time>2015-07-21T08:20:01.000Z</time>
      </trkpt>
      <trkpt lat="48.75345" lon="1.73629">
        <ele>139.39999389648</ele>
        <time>2015-07-21T08:20:03.000Z</time>
      </trkpt>
      <trkpt lat="48.75352" lon="1.73625">
        <ele>139.19999694824</ele>
        <time>2015-07-21T08:20:07.000Z</time>
      </trkpt>
      <trkpt lat="48.75365" lon="1.73618">
        <ele>138.80000305176</ele>
        <time>2015-07-21T08:20:17.000Z</time>
      </trkpt>
      <trkpt lat="48.75376" lon="1.73611">
        <ele>138.60000610352</ele>
        <time>2015-07-21T08:20:25.000Z</time>
      </trkpt>
      <trkpt lat="48.75388" lon="1.736">
        <ele>138.19999694824</ele>
        <time>2015-07-21T08:20:34.000Z</time>
      </trkpt>
      <trkpt lat="48.75394" lon="1.73589">
        <ele>138.39999389648</ele>
        <time>2015-07-21T08:20:40.000Z</time>
      </trkpt>
      <trkpt lat="48.75405" lon="1.7357">
        <ele>138.60000610352</ele>
        <time>2015-07-21T08:20:51.000Z</time>
      </trkpt>
      <trkpt lat="48.75407" lon="1.73566">
        <ele>138.39999389648</ele>
        <time>2015-07-21T08:20:54.000Z</time>
      </trkpt>
      <trkpt lat="48.75409" lon="1.73562">
        <ele>138.39999389648</ele>
        <time>2015-07-21T08:20:56.000Z</time>
      </trkpt>
      <trkpt lat="48.75411" lon="1.73559">
        <ele>138.19999694824</ele>
        <time>2015-07-21T08:20:58.000Z</time>
      </trkpt>
      <trkpt lat="48.75413" lon="1.73554">
        <ele>138.19999694824</ele>
        <time>2015-07-21T08:21:01.000Z</time>
      </trkpt>
      <trkpt lat="48.75414" lon="1.7355">
        <ele>138.19999694824</ele>
        <time>2015-07-21T08:21:03.000Z</time>
      </trkpt>
      <trkpt lat="48.75419" lon="1.73534">
        <ele>138.39999389648</ele>
        <time>2015-07-21T08:21:12.000Z</time>
      </trkpt>
      <trkpt lat="48.7542" lon="1.73532">
        <ele>138.39999389648</ele>
        <time>2015-07-21T08:21:14.000Z</time>
      </trkpt>
      <trkpt lat="48.75426" lon="1.73523">
        <ele>138.39999389648</ele>
        <time>2015-07-21T08:21:20.000Z</time>
      </trkpt>
      <trkpt lat="48.75434" lon="1.73508">
        <ele>138.60000610352</ele>
        <time>2015-07-21T08:21:29.000Z</time>
      </trkpt>
      <trkpt lat="48.75442" lon="1.73492">
        <ele>138.80000305176</ele>
        <time>2015-07-21T08:21:38.000Z</time>
      </trkpt>
      <trkpt lat="48.75447" lon="1.73481">
        <ele>138.80000305176</ele>
        <time>2015-07-21T08:21:44.000Z</time>
      </trkpt>
      <trkpt lat="48.75448" lon="1.73479">
        <ele>138.80000305176</ele>
        <time>2015-07-21T08:21:45.000Z</time>
      </trkpt>
      <trkpt lat="48.75453" lon="1.73467">
        <ele>139</ele>
        <time>2015-07-21T08:21:52.000Z</time>
      </trkpt>
      <trkpt lat="48.75458" lon="1.73459">
        <ele>139</ele>
        <time>2015-07-21T08:21:57.000Z</time>
      </trkpt>
      <trkpt lat="48.75458" lon="1.73455">
        <ele>139.19999694824</ele>
        <time>2015-07-21T08:21:59.000Z</time>
      </trkpt>
      <trkpt lat="48.75462" lon="1.73443">
        <ele>139.39999389648</ele>
        <time>2015-07-21T08:22:05.000Z</time>
      </trkpt>
      <trkpt lat="48.75467" lon="1.73431">
        <ele>139.60000610352</ele>
        <time>2015-07-21T08:22:12.000Z</time>
      </trkpt>
      <trkpt lat="48.75468" lon="1.73429">
        <ele>139.60000610352</ele>
        <time>2015-07-21T08:22:13.000Z</time>
      </trkpt>
      <trkpt lat="48.75473" lon="1.73413">
        <ele>139.39999389648</ele>
        <time>2015-07-21T08:22:22.000Z</time>
      </trkpt>
      <trkpt lat="48.75476" lon="1.73406">
        <ele>139.19999694824</ele>
        <time>2015-07-21T08:22:27.000Z</time>
      </trkpt>
      <trkpt lat="48.75478" lon="1.73402">
        <ele>139</ele>
        <time>2015-07-21T08:22:29.000Z</time>
      </trkpt>
      <trkpt lat="48.7548" lon="1.73399">
        <ele>139</ele>
        <time>2015-07-21T08:22:31.000Z</time>
      </trkpt>
      <trkpt lat="48.75482" lon="1.73393">
        <ele>138.80000305176</ele>
        <time>2015-07-21T08:22:34.000Z</time>
      </trkpt>
      <trkpt lat="48.75489" lon="1.73379">
        <ele>138.19999694824</ele>
        <time>2015-07-21T08:22:40.000Z</time>
      </trkpt>
      <trkpt lat="48.75491" lon="1.73377">
        <ele>138.19999694824</ele>
        <time>2015-07-21T08:22:41.000Z</time>
      </trkpt>
      <trkpt lat="48.75494" lon="1.7337">
        <ele>138</ele>
        <time>2015-07-21T08:22:45.000Z</time>
      </trkpt>
      <trkpt lat="48.75503" lon="1.73352">
        <ele>137.60000610352</ele>
        <time>2015-07-21T08:22:55.000Z</time>
      </trkpt>
      <trkpt lat="48.75509" lon="1.73341">
        <ele>137.39999389648</ele>
        <time>2015-07-21T08:23:01.000Z</time>
      </trkpt>
      <trkpt lat="48.75511" lon="1.73338">
        <ele>137.39999389648</ele>
        <time>2015-07-21T08:23:03.000Z</time>
      </trkpt>
      <trkpt lat="48.75514" lon="1.7333">
        <ele>137.39999389648</ele>
        <time>2015-07-21T08:23:07.000Z</time>
      </trkpt>
      <trkpt lat="48.75518" lon="1.73325">
        <ele>137.19999694824</ele>
        <time>2015-07-21T08:23:10.000Z</time>
      </trkpt>
      <trkpt lat="48.75524" lon="1.73313">
        <ele>137</ele>
        <time>2015-07-21T08:23:19.000Z</time>
      </trkpt>
      <trkpt lat="48.7553" lon="1.733">
        <ele>136.80000305176</ele>
        <time>2015-07-21T08:23:32.000Z</time>
      </trkpt>
      <trkpt lat="48.75533" lon="1.73295">
        <ele>136.80000305176</ele>
        <time>2015-07-21T08:23:35.000Z</time>
      </trkpt>
      <trkpt lat="48.75541" lon="1.73284">
        <ele>136.60000610352</ele>
        <time>2015-07-21T08:23:43.000Z</time>
      </trkpt>
      <trkpt lat="48.75545" lon="1.73277">
        <ele>136.39999389648</ele>
        <time>2015-07-21T08:23:47.000Z</time>
      </trkpt>
      <trkpt lat="48.75546" lon="1.73273">
        <ele>136.39999389648</ele>
        <time>2015-07-21T08:23:49.000Z</time>
      </trkpt>
      <trkpt lat="48.75552" lon="1.73261">
        <ele>136.19999694824</ele>
        <time>2015-07-21T08:23:56.000Z</time>
      </trkpt>
      <trkpt lat="48.75553" lon="1.73258">
        <ele>136.19999694824</ele>
        <time>2015-07-21T08:23:58.000Z</time>
      </trkpt>
      <trkpt lat="48.75561" lon="1.73242">
        <ele>136</ele>
        <time>2015-07-21T08:24:06.000Z</time>
      </trkpt>
      <trkpt lat="48.75564" lon="1.73237">
        <ele>136</ele>
        <time>2015-07-21T08:24:09.000Z</time>
      </trkpt>
      <trkpt lat="48.75567" lon="1.73228">
        <ele>136.19999694824</ele>
        <time>2015-07-21T08:24:14.000Z</time>
      </trkpt>
      <trkpt lat="48.75568" lon="1.73225">
        <ele>136.39999389648</ele>
        <time>2015-07-21T08:24:17.000Z</time>
      </trkpt>
      <trkpt lat="48.75572" lon="1.7322">
        <ele>136.39999389648</ele>
        <time>2015-07-21T08:24:21.000Z</time>
      </trkpt>
      <trkpt lat="48.75572" lon="1.73219">
        <ele>136.39999389648</ele>
        <time>2015-07-21T08:24:22.000Z</time>
      </trkpt>
      <trkpt lat="48.75573" lon="1.73216">
        <ele>136.60000610352</ele>
        <time>2015-07-21T08:24:24.000Z</time>
      </trkpt>
      <trkpt lat="48.75574" lon="1.73214">
        <ele>136.60000610352</ele>
        <time>2015-07-21T08:24:25.000Z</time>
      </trkpt>
      <trkpt lat="48.75576" lon="1.73207">
        <ele>136.80000305176</ele>
        <time>2015-07-21T08:24:29.000Z</time>
      </trkpt>
      <trkpt lat="48.75579" lon="1.73201">
        <ele>136.60000610352</ele>
        <time>2015-07-21T08:24:33.000Z</time>
      </trkpt>
      <trkpt lat="48.75579" lon="1.73199">
        <ele>136.60000610352</ele>
        <time>2015-07-21T08:24:34.000Z</time>
      </trkpt>
      <trkpt lat="48.75581" lon="1.73196">
        <ele>136.60000610352</ele>
        <time>2015-07-21T08:24:36.000Z</time>
      </trkpt>
      <trkpt lat="48.75583" lon="1.73193">
        <ele>136.60000610352</ele>
        <time>2015-07-21T08:24:38.000Z</time>
      </trkpt>
      <trkpt lat="48.75591" lon="1.73179">
        <ele>136.39999389648</ele>
        <time>2015-07-21T08:24:48.000Z</time>
      </trkpt>
      <trkpt lat="48.75591" lon="1.73177">
        <ele>136.39999389648</ele>
        <time>2015-07-21T08:24:49.000Z</time>
      </trkpt>
      <trkpt lat="48.75591" lon="1.73173">
        <ele>136.39999389648</ele>
        <time>2015-07-21T08:24:52.000Z</time>
      </trkpt>
      <trkpt lat="48.75592" lon="1.73171">
        <ele>136.39999389648</ele>
        <time>2015-07-21T08:24:53.000Z</time>
      </trkpt>
      <trkpt lat="48.75593" lon="1.7317">
        <ele>136.39999389648</ele>
        <time>2015-07-21T08:24:56.000Z</time>
      </trkpt>
      <trkpt lat="48.75602" lon="1.73161">
        <ele>136</ele>
        <time>2015-07-21T08:25:12.000Z</time>
      </trkpt>
      <trkpt lat="48.75603" lon="1.73158">
        <ele>136</ele>
        <time>2015-07-21T08:25:13.000Z</time>
      </trkpt>
      <trkpt lat="48.75613" lon="1.73144">
        <ele>135.60000610352</ele>
        <time>2015-07-21T08:25:20.000Z</time>
      </trkpt>
      <trkpt lat="48.7562" lon="1.7313">
        <ele>135.39999389648</ele>
        <time>2015-07-21T08:25:27.000Z</time>
      </trkpt>
      <trkpt lat="48.75631" lon="1.73114">
        <ele>135</ele>
        <time>2015-07-21T08:25:36.000Z</time>
      </trkpt>
      <trkpt lat="48.75639" lon="1.731">
        <ele>134.80000305176</ele>
        <time>2015-07-21T08:25:44.000Z</time>
      </trkpt>
      <trkpt lat="48.75644" lon="1.73092">
        <ele>134.39999389648</ele>
        <time>2015-07-21T08:25:49.000Z</time>
      </trkpt>
      <trkpt lat="48.75645" lon="1.73088">
        <ele>134.39999389648</ele>
        <time>2015-07-21T08:25:51.000Z</time>
      </trkpt>
      <trkpt lat="48.75651" lon="1.73077">
        <ele>134</ele>
        <time>2015-07-21T08:25:57.000Z</time>
      </trkpt>
      <trkpt lat="48.75656" lon="1.73069">
        <ele>133.60000610352</ele>
        <time>2015-07-21T08:26:02.000Z</time>
      </trkpt>
      <trkpt lat="48.75656" lon="1.73067">
        <ele>133.60000610352</ele>
        <time>2015-07-21T08:26:03.000Z</time>
      </trkpt>
      <trkpt lat="48.75659" lon="1.73059">
        <ele>133.39999389648</ele>
        <time>2015-07-21T08:26:07.000Z</time>
      </trkpt>
      <trkpt lat="48.75661" lon="1.73057">
        <ele>133.19999694824</ele>
        <time>2015-07-21T08:26:08.000Z</time>
      </trkpt>
      <trkpt lat="48.75662" lon="1.73055">
        <ele>133.19999694824</ele>
        <time>2015-07-21T08:26:09.000Z</time>
      </trkpt>
      <trkpt lat="48.75665" lon="1.73049">
        <ele>132.80000305176</ele>
        <time>2015-07-21T08:26:13.000Z</time>
      </trkpt>
      <trkpt lat="48.7567" lon="1.73041">
        <ele>132.80000305176</ele>
        <time>2015-07-21T08:26:18.000Z</time>
      </trkpt>
      <trkpt lat="48.75672" lon="1.73038">
        <ele>132.80000305176</ele>
        <time>2015-07-21T08:26:20.000Z</time>
      </trkpt>
      <trkpt lat="48.75679" lon="1.73028">
        <ele>132.60000610352</ele>
        <time>2015-07-21T08:26:27.000Z</time>
      </trkpt>
      <trkpt lat="48.75686" lon="1.73014">
        <ele>132.39999389648</ele>
        <time>2015-07-21T08:26:35.000Z</time>
      </trkpt>
      <trkpt lat="48.75687" lon="1.73012">
        <ele>132.39999389648</ele>
        <time>2015-07-21T08:26:36.000Z</time>
      </trkpt>
      <trkpt lat="48.7569" lon="1.73008">
        <ele>132.39999389648</ele>
        <time>2015-07-21T08:26:39.000Z</time>
      </trkpt>
      <trkpt lat="48.75696" lon="1.72997">
        <ele>132.39999389648</ele>
        <time>2015-07-21T08:26:45.000Z</time>
      </trkpt>
      <trkpt lat="48.75704" lon="1.72984">
        <ele>132.39999389648</ele>
        <time>2015-07-21T08:26:53.000Z</time>
      </trkpt>
      <trkpt lat="48.75713" lon="1.72969">
        <ele>132.39999389648</ele>
        <time>2015-07-21T08:27:02.000Z</time>
      </trkpt>
      <trkpt lat="48.75715" lon="1.72966">
        <ele>132.39999389648</ele>
        <time>2015-07-21T08:27:04.000Z</time>
      </trkpt>
      <trkpt lat="48.75718" lon="1.72962">
        <ele>132.39999389648</ele>
        <time>2015-07-21T08:27:07.000Z</time>
      </trkpt>
      <trkpt lat="48.75719" lon="1.7296">
        <ele>132.39999389648</ele>
        <time>2015-07-21T08:27:08.000Z</time>
      </trkpt>
      <trkpt lat="48.75728" lon="1.72944">
        <ele>132.60000610352</ele>
        <time>2015-07-21T08:27:17.000Z</time>
      </trkpt>
      <trkpt lat="48.75736" lon="1.72931">
        <ele>132.39999389648</ele>
        <time>2015-07-21T08:27:25.000Z</time>
      </trkpt>
      <trkpt lat="48.75741" lon="1.72922">
        <ele>132.39999389648</ele>
        <time>2015-07-21T08:27:30.000Z</time>
      </trkpt>
      <trkpt lat="48.7575" lon="1.72904">
        <ele>132.19999694824</ele>
        <time>2015-07-21T08:27:40.000Z</time>
      </trkpt>
      <trkpt lat="48.75755" lon="1.72897">
        <ele>132.19999694824</ele>
        <time>2015-07-21T08:27:44.000Z</time>
      </trkpt>
      <trkpt lat="48.75759" lon="1.72889">
        <ele>132</ele>
        <time>2015-07-21T08:27:49.000Z</time>
      </trkpt>
      <trkpt lat="48.7576" lon="1.72887">
        <ele>132</ele>
        <time>2015-07-21T08:27:50.000Z</time>
      </trkpt>
      <trkpt lat="48.7577" lon="1.7287">
        <ele>131.60000610352</ele>
        <time>2015-07-21T08:28:00.000Z</time>
      </trkpt>
      <trkpt lat="48.75776" lon="1.72862">
        <ele>131.39999389648</ele>
        <time>2015-07-21T08:28:06.000Z</time>
      </trkpt>
      <trkpt lat="48.75776" lon="1.7286">
        <ele>131.39999389648</ele>
        <time>2015-07-21T08:28:07.000Z</time>
      </trkpt>
      <trkpt lat="48.75778" lon="1.72855">
        <ele>131.39999389648</ele>
        <time>2015-07-21T08:28:09.000Z</time>
      </trkpt>
      <trkpt lat="48.75782" lon="1.7285">
        <ele>131.39999389648</ele>
        <time>2015-07-21T08:28:13.000Z</time>
      </trkpt>
      <trkpt lat="48.75783" lon="1.72849">
        <ele>131.39999389648</ele>
        <time>2015-07-21T08:28:14.000Z</time>
      </trkpt>
      <trkpt lat="48.75791" lon="1.72839">
        <ele>131.39999389648</ele>
        <time>2015-07-21T08:28:21.000Z</time>
      </trkpt>
      <trkpt lat="48.75799" lon="1.72827">
        <ele>131.80000305176</ele>
        <time>2015-07-21T08:28:29.000Z</time>
      </trkpt>
      <trkpt lat="48.75805" lon="1.72824">
        <ele>131.80000305176</ele>
        <time>2015-07-21T08:28:34.000Z</time>
      </trkpt>
      <trkpt lat="48.75814" lon="1.72815">
        <ele>132.39999389648</ele>
        <time>2015-07-21T08:28:41.000Z</time>
      </trkpt>
      <trkpt lat="48.75822" lon="1.7281">
        <ele>132.60000610352</ele>
        <time>2015-07-21T08:28:47.000Z</time>
      </trkpt>
      <trkpt lat="48.75823" lon="1.72809">
        <ele>132.60000610352</ele>
        <time>2015-07-21T08:28:48.000Z</time>
      </trkpt>
      <trkpt lat="48.75826" lon="1.72805">
        <ele>133</ele>
        <time>2015-07-21T08:28:52.000Z</time>
      </trkpt>
      <trkpt lat="48.75833" lon="1.72799">
        <ele>133.19999694824</ele>
        <time>2015-07-21T08:28:57.000Z</time>
      </trkpt>
      <trkpt lat="48.75834" lon="1.72798">
        <ele>133.39999389648</ele>
        <time>2015-07-21T08:28:58.000Z</time>
      </trkpt>
      <trkpt lat="48.75839" lon="1.72789">
        <ele>133.39999389648</ele>
        <time>2015-07-21T08:29:04.000Z</time>
      </trkpt>
      <trkpt lat="48.75849" lon="1.72779">
        <ele>133.60000610352</ele>
        <time>2015-07-21T08:29:12.000Z</time>
      </trkpt>
      <trkpt lat="48.75849" lon="1.72777">
        <ele>133.60000610352</ele>
        <time>2015-07-21T08:29:13.000Z</time>
      </trkpt>
      <trkpt lat="48.75854" lon="1.72773">
        <ele>133.80000305176</ele>
        <time>2015-07-21T08:29:17.000Z</time>
      </trkpt>
      <trkpt lat="48.75857" lon="1.7277">
        <ele>133.80000305176</ele>
        <time>2015-07-21T08:29:20.000Z</time>
      </trkpt>
      <trkpt lat="48.7586" lon="1.72767">
        <ele>133.80000305176</ele>
        <time>2015-07-21T08:29:23.000Z</time>
      </trkpt>
      <trkpt lat="48.75868" lon="1.72759">
        <ele>134</ele>
        <time>2015-07-21T08:29:30.000Z</time>
      </trkpt>
      <trkpt lat="48.7587" lon="1.72756">
        <ele>134</ele>
        <time>2015-07-21T08:29:33.000Z</time>
      </trkpt>
      <trkpt lat="48.75872" lon="1.72753">
        <ele>134</ele>
        <time>2015-07-21T08:29:37.000Z</time>
      </trkpt>
      <trkpt lat="48.75873" lon="1.72752">
        <ele>134</ele>
        <time>2015-07-21T08:29:39.000Z</time>
      </trkpt>
      <trkpt lat="48.75873" lon="1.72752">
        <ele>134</ele>
        <time>2015-07-21T08:29:40.000Z</time>
      </trkpt>
      <trkpt lat="48.75883" lon="1.72737">
        <ele>134</ele>
        <time>2015-07-21T08:30:21.000Z</time>
      </trkpt>
      <trkpt lat="48.75885" lon="1.72736">
        <ele>134</ele>
        <time>2015-07-21T08:30:22.000Z</time>
      </trkpt>
      <trkpt lat="48.75892" lon="1.72732">
        <ele>133.60000610352</ele>
        <time>2015-07-21T08:30:27.000Z</time>
      </trkpt>
      <trkpt lat="48.759" lon="1.72728">
        <ele>133.39999389648</ele>
        <time>2015-07-21T08:30:34.000Z</time>
      </trkpt>
      <trkpt lat="48.75901" lon="1.72727">
        <ele>133.39999389648</ele>
        <time>2015-07-21T08:30:35.000Z</time>
      </trkpt>
      <trkpt lat="48.75909" lon="1.72722">
        <ele>133</ele>
        <time>2015-07-21T08:30:42.000Z</time>
      </trkpt>
      <trkpt lat="48.75914" lon="1.72718">
        <ele>132.80000305176</ele>
        <time>2015-07-21T08:30:46.000Z</time>
      </trkpt>
      <trkpt lat="48.7592" lon="1.72715">
        <ele>132.60000610352</ele>
        <time>2015-07-21T08:30:51.000Z</time>
      </trkpt>
      <trkpt lat="48.75926" lon="1.72708">
        <ele>132.19999694824</ele>
        <time>2015-07-21T08:30:57.000Z</time>
      </trkpt>
      <trkpt lat="48.75934" lon="1.72702">
        <ele>131.80000305176</ele>
        <time>2015-07-21T08:31:03.000Z</time>
      </trkpt>
      <trkpt lat="48.75937" lon="1.72699">
        <ele>131.60000610352</ele>
        <time>2015-07-21T08:31:06.000Z</time>
      </trkpt>
      <trkpt lat="48.75941" lon="1.72696">
        <ele>131.39999389648</ele>
        <time>2015-07-21T08:31:09.000Z</time>
      </trkpt>
      <trkpt lat="48.75942" lon="1.72695">
        <ele>131.39999389648</ele>
        <time>2015-07-21T08:31:10.000Z</time>
      </trkpt>
      <trkpt lat="48.75949" lon="1.72688">
        <ele>131.19999694824</ele>
        <time>2015-07-21T08:31:16.000Z</time>
      </trkpt>
      <trkpt lat="48.75952" lon="1.72685">
        <ele>131.19999694824</ele>
        <time>2015-07-21T08:31:21.000Z</time>
      </trkpt>
      <trkpt lat="48.7596" lon="1.72678">
        <ele>131</ele>
        <time>2015-07-21T08:31:27.000Z</time>
      </trkpt>
      <trkpt lat="48.75967" lon="1.72672">
        <ele>131.19999694824</ele>
        <time>2015-07-21T08:31:32.000Z</time>
      </trkpt>
      <trkpt lat="48.75975" lon="1.72663">
        <ele>131.39999389648</ele>
        <time>2015-07-21T08:31:38.000Z</time>
      </trkpt>
      <trkpt lat="48.75983" lon="1.72653">
        <ele>131.60000610352</ele>
        <time>2015-07-21T08:31:44.000Z</time>
      </trkpt>
      <trkpt lat="48.75994" lon="1.72644">
        <ele>131.80000305176</ele>
        <time>2015-07-21T08:31:50.000Z</time>
      </trkpt>
      <trkpt lat="48.75997" lon="1.72641">
        <ele>131.80000305176</ele>
        <time>2015-07-21T08:31:52.000Z</time>
      </trkpt>
      <trkpt lat="48.76002" lon="1.72636">
        <ele>132</ele>
        <time>2015-07-21T08:31:55.000Z</time>
      </trkpt>
      <trkpt lat="48.76005" lon="1.72632">
        <ele>132</ele>
        <time>2015-07-21T08:31:57.000Z</time>
      </trkpt>
      <trkpt lat="48.76015" lon="1.72624">
        <ele>131.80000305176</ele>
        <time>2015-07-21T08:32:01.000Z</time>
      </trkpt>
      <trkpt lat="48.76027" lon="1.7261">
        <ele>131.39999389648</ele>
        <time>2015-07-21T08:32:06.000Z</time>
      </trkpt>
      <trkpt lat="48.76028" lon="1.72608">
        <ele>131.19999694824</ele>
        <time>2015-07-21T08:32:07.000Z</time>
      </trkpt>
      <trkpt lat="48.76033" lon="1.72601">
        <ele>131</ele>
        <time>2015-07-21T08:32:09.000Z</time>
      </trkpt>
      <trkpt lat="48.76043" lon="1.72592">
        <ele>130.80000305176</ele>
        <time>2015-07-21T08:32:12.000Z</time>
      </trkpt>
      <trkpt lat="48.76054" lon="1.72581">
        <ele>130.39999389648</ele>
        <time>2015-07-21T08:32:15.000Z</time>
      </trkpt>
      <trkpt lat="48.76068" lon="1.72567">
        <ele>129.80000305176</ele>
        <time>2015-07-21T08:32:19.000Z</time>
      </trkpt>
      <trkpt lat="48.76087" lon="1.72546">
        <ele>128.80000305176</ele>
        <time>2015-07-21T08:32:25.000Z</time>
      </trkpt>
      <trkpt lat="48.761" lon="1.7253">
        <ele>128.19999694824</ele>
        <time>2015-07-21T08:32:30.000Z</time>
      </trkpt>
      <trkpt lat="48.7611" lon="1.72518">
        <ele>127.59999847412</ele>
        <time>2015-07-21T08:32:34.000Z</time>
      </trkpt>
      <trkpt lat="48.76127" lon="1.72491">
        <ele>127</ele>
        <time>2015-07-21T08:32:41.000Z</time>
      </trkpt>
      <trkpt lat="48.76137" lon="1.72475">
        <ele>126.80000305176</ele>
        <time>2015-07-21T08:32:45.000Z</time>
      </trkpt>
      <trkpt lat="48.7615" lon="1.72456">
        <ele>126.59999847412</ele>
        <time>2015-07-21T08:32:50.000Z</time>
      </trkpt>
      <trkpt lat="48.76161" lon="1.72433">
        <ele>126.40000152588</ele>
        <time>2015-07-21T08:32:55.000Z</time>
      </trkpt>
      <trkpt lat="48.76173" lon="1.72414">
        <ele>126.19999694824</ele>
        <time>2015-07-21T08:33:00.000Z</time>
      </trkpt>
      <trkpt lat="48.76188" lon="1.72387">
        <ele>126.19999694824</ele>
        <time>2015-07-21T08:33:06.000Z</time>
      </trkpt>
      <trkpt lat="48.76203" lon="1.72363">
        <ele>126.80000305176</ele>
        <time>2015-07-21T08:33:12.000Z</time>
      </trkpt>
      <trkpt lat="48.76212" lon="1.72348">
        <ele>127.19999694824</ele>
        <time>2015-07-21T08:33:16.000Z</time>
      </trkpt>
      <trkpt lat="48.7623" lon="1.72318">
        <ele>128.39999389648</ele>
        <time>2015-07-21T08:33:23.000Z</time>
      </trkpt>
      <trkpt lat="48.76234" lon="1.72309">
        <ele>128.60000610352</ele>
        <time>2015-07-21T08:33:25.000Z</time>
      </trkpt>
      <trkpt lat="48.76236" lon="1.72302">
        <ele>128.60000610352</ele>
        <time>2015-07-21T08:33:27.000Z</time>
      </trkpt>
      <trkpt lat="48.76237" lon="1.723">
        <ele>128.60000610352</ele>
        <time>2015-07-21T08:33:28.000Z</time>
      </trkpt>
      <trkpt lat="48.76239" lon="1.72297">
        <ele>128.60000610352</ele>
        <time>2015-07-21T08:33:29.000Z</time>
      </trkpt>
      <trkpt lat="48.76241" lon="1.7229">
        <ele>128.60000610352</ele>
        <time>2015-07-21T08:33:32.000Z</time>
      </trkpt>
      <trkpt lat="48.76243" lon="1.72281">
        <ele>128.60000610352</ele>
        <time>2015-07-21T08:33:36.000Z</time>
      </trkpt>
      <trkpt lat="48.76244" lon="1.72277">
        <ele>128.80000305176</ele>
        <time>2015-07-21T08:33:38.000Z</time>
      </trkpt>
      <trkpt lat="48.76246" lon="1.72264">
        <ele>128.80000305176</ele>
        <time>2015-07-21T08:33:44.000Z</time>
      </trkpt>
      <trkpt lat="48.76246" lon="1.72258">
        <ele>128.80000305176</ele>
        <time>2015-07-21T08:33:47.000Z</time>
      </trkpt>
      <trkpt lat="48.76245" lon="1.72254">
        <ele>128.80000305176</ele>
        <time>2015-07-21T08:33:49.000Z</time>
      </trkpt>
      <trkpt lat="48.76242" lon="1.72247">
        <ele>128.60000610352</ele>
        <time>2015-07-21T08:33:54.000Z</time>
      </trkpt>
      <trkpt lat="48.76241" lon="1.72244">
        <ele>128.60000610352</ele>
        <time>2015-07-21T08:33:57.000Z</time>
      </trkpt>
      <trkpt lat="48.76241" lon="1.72241">
        <ele>128.60000610352</ele>
        <time>2015-07-21T08:33:59.000Z</time>
      </trkpt>
      <trkpt lat="48.76242" lon="1.72237">
        <ele>128.60000610352</ele>
        <time>2015-07-21T08:34:01.000Z</time>
      </trkpt>
      <trkpt lat="48.76243" lon="1.7223">
        <ele>128.60000610352</ele>
        <time>2015-07-21T08:34:04.000Z</time>
      </trkpt>
      <trkpt lat="48.76244" lon="1.72213">
        <ele>128.19999694824</ele>
        <time>2015-07-21T08:34:11.000Z</time>
      </trkpt>
      <trkpt lat="48.76243" lon="1.72204">
        <ele>127.80000305176</ele>
        <time>2015-07-21T08:34:15.000Z</time>
      </trkpt>
      <trkpt lat="48.76243" lon="1.72199">
        <ele>127.80000305176</ele>
        <time>2015-07-21T08:34:17.000Z</time>
      </trkpt>
      <trkpt lat="48.76242" lon="1.72189">
        <ele>127.40000152588</ele>
        <time>2015-07-21T08:34:21.000Z</time>
      </trkpt>
      <trkpt lat="48.76243" lon="1.72187">
        <ele>127.40000152588</ele>
        <time>2015-07-21T08:34:22.000Z</time>
      </trkpt>
      <trkpt lat="48.76244" lon="1.72167">
        <ele>127</ele>
        <time>2015-07-21T08:34:29.000Z</time>
      </trkpt>
      <trkpt lat="48.76245" lon="1.72153">
        <ele>126.80000305176</ele>
        <time>2015-07-21T08:34:33.000Z</time>
      </trkpt>
      <trkpt lat="48.76244" lon="1.72135">
        <ele>126.19999694824</ele>
        <time>2015-07-21T08:34:37.000Z</time>
      </trkpt>
      <trkpt lat="48.76242" lon="1.72105">
        <ele>125.40000152588</ele>
        <time>2015-07-21T08:34:43.000Z</time>
      </trkpt>
      <trkpt lat="48.76243" lon="1.72079">
        <ele>124.80000305176</ele>
        <time>2015-07-21T08:34:48.000Z</time>
      </trkpt>
      <trkpt lat="48.76248" lon="1.72059">
        <ele>125</ele>
        <time>2015-07-21T08:34:52.000Z</time>
      </trkpt>
      <trkpt lat="48.76253" lon="1.72029">
        <ele>125.40000152588</ele>
        <time>2015-07-21T08:34:57.000Z</time>
      </trkpt>
      <trkpt lat="48.76261" lon="1.71993">
        <ele>125.59999847412</ele>
        <time>2015-07-21T08:35:03.000Z</time>
      </trkpt>
      <trkpt lat="48.76262" lon="1.71987">
        <ele>125.59999847412</ele>
        <time>2015-07-21T08:35:04.000Z</time>
      </trkpt>
      <trkpt lat="48.76267" lon="1.71958">
        <ele>126.19999694824</ele>
        <time>2015-07-21T08:35:08.000Z</time>
      </trkpt>
      <trkpt lat="48.76274" lon="1.71922">
        <ele>126.80000305176</ele>
        <time>2015-07-21T08:35:12.000Z</time>
      </trkpt>
      <trkpt lat="48.76277" lon="1.71906">
        <ele>127</ele>
        <time>2015-07-21T08:35:14.000Z</time>
      </trkpt>
      <trkpt lat="48.76282" lon="1.71884">
        <ele>127</ele>
        <time>2015-07-21T08:35:17.000Z</time>
      </trkpt>
      <trkpt lat="48.76284" lon="1.71869">
        <ele>127.19999694824</ele>
        <time>2015-07-21T08:35:19.000Z</time>
      </trkpt>
      <trkpt lat="48.76287" lon="1.71854">
        <ele>127.19999694824</ele>
        <time>2015-07-21T08:35:21.000Z</time>
      </trkpt>
      <trkpt lat="48.76293" lon="1.71838">
        <ele>127.40000152588</ele>
        <time>2015-07-21T08:35:24.000Z</time>
      </trkpt>
      <trkpt lat="48.76295" lon="1.71831">
        <ele>127.59999847412</ele>
        <time>2015-07-21T08:35:25.000Z</time>
      </trkpt>
      <trkpt lat="48.76297" lon="1.71812">
        <ele>128.19999694824</ele>
        <time>2015-07-21T08:35:28.000Z</time>
      </trkpt>
      <trkpt lat="48.76302" lon="1.71787">
        <ele>129.19999694824</ele>
        <time>2015-07-21T08:35:32.000Z</time>
      </trkpt>
      <trkpt lat="48.76307" lon="1.71764">
        <ele>130</ele>
        <time>2015-07-21T08:35:35.000Z</time>
      </trkpt>
      <trkpt lat="48.76308" lon="1.71758">
        <ele>130</ele>
        <time>2015-07-21T08:35:36.000Z</time>
      </trkpt>
      <trkpt lat="48.7631" lon="1.71749">
        <ele>130.19999694824</ele>
        <time>2015-07-21T08:35:37.000Z</time>
      </trkpt>
      <trkpt lat="48.76313" lon="1.71734">
        <ele>130.39999389648</ele>
        <time>2015-07-21T08:35:39.000Z</time>
      </trkpt>
      <trkpt lat="48.76317" lon="1.7171">
        <ele>129.80000305176</ele>
        <time>2015-07-21T08:35:42.000Z</time>
      </trkpt>
      <trkpt lat="48.76319" lon="1.71694">
        <ele>129.60000610352</ele>
        <time>2015-07-21T08:35:44.000Z</time>
      </trkpt>
      <trkpt lat="48.76322" lon="1.71681">
        <ele>129.60000610352</ele>
        <time>2015-07-21T08:35:46.000Z</time>
      </trkpt>
      <trkpt lat="48.76323" lon="1.71674">
        <ele>129.60000610352</ele>
        <time>2015-07-21T08:35:47.000Z</time>
      </trkpt>
      <trkpt lat="48.76325" lon="1.71661">
        <ele>129.60000610352</ele>
        <time>2015-07-21T08:35:49.000Z</time>
      </trkpt>
      <trkpt lat="48.76327" lon="1.71649">
        <ele>129.60000610352</ele>
        <time>2015-07-21T08:35:51.000Z</time>
      </trkpt>
      <trkpt lat="48.76332" lon="1.71623">
        <ele>129.19999694824</ele>
        <time>2015-07-21T08:35:55.000Z</time>
      </trkpt>
      <trkpt lat="48.76333" lon="1.71618">
        <ele>129.19999694824</ele>
        <time>2015-07-21T08:35:56.000Z</time>
      </trkpt>
      <trkpt lat="48.76343" lon="1.71575">
        <ele>128.19999694824</ele>
        <time>2015-07-21T08:36:02.000Z</time>
      </trkpt>
      <trkpt lat="48.76348" lon="1.71555">
        <ele>127.80000305176</ele>
        <time>2015-07-21T08:36:05.000Z</time>
      </trkpt>
      <trkpt lat="48.7635" lon="1.71542">
        <ele>127.59999847412</ele>
        <time>2015-07-21T08:36:07.000Z</time>
      </trkpt>
      <trkpt lat="48.76351" lon="1.71536">
        <ele>127.59999847412</ele>
        <time>2015-07-21T08:36:08.000Z</time>
      </trkpt>
      <trkpt lat="48.76352" lon="1.71522">
        <ele>127.40000152588</ele>
        <time>2015-07-21T08:36:10.000Z</time>
      </trkpt>
      <trkpt lat="48.76356" lon="1.71505">
        <ele>127.19999694824</ele>
        <time>2015-07-21T08:36:13.000Z</time>
      </trkpt>
      <trkpt lat="48.76366" lon="1.71485">
        <ele>127</ele>
        <time>2015-07-21T08:36:17.000Z</time>
      </trkpt>
      <trkpt lat="48.76375" lon="1.71468">
        <ele>127</ele>
        <time>2015-07-21T08:36:21.000Z</time>
      </trkpt>
      <trkpt lat="48.76377" lon="1.71464">
        <ele>127</ele>
        <time>2015-07-21T08:36:22.000Z</time>
      </trkpt>
      <trkpt lat="48.76387" lon="1.71445">
        <ele>127</ele>
        <time>2015-07-21T08:36:26.000Z</time>
      </trkpt>
      <trkpt lat="48.76399" lon="1.7142">
        <ele>127</ele>
        <time>2015-07-21T08:36:31.000Z</time>
      </trkpt>
      <trkpt lat="48.76402" lon="1.71405">
        <ele>127</ele>
        <time>2015-07-21T08:36:34.000Z</time>
      </trkpt>
      <trkpt lat="48.76404" lon="1.714">
        <ele>127</ele>
        <time>2015-07-21T08:36:35.000Z</time>
      </trkpt>
      <trkpt lat="48.76409" lon="1.71378">
        <ele>127.40000152588</ele>
        <time>2015-07-21T08:36:41.000Z</time>
      </trkpt>
      <trkpt lat="48.76411" lon="1.71373">
        <ele>127.40000152588</ele>
        <time>2015-07-21T08:36:43.000Z</time>
      </trkpt>
      <trkpt lat="48.76412" lon="1.71368">
        <ele>127.40000152588</ele>
        <time>2015-07-21T08:36:45.000Z</time>
      </trkpt>
      <trkpt lat="48.76412" lon="1.71366">
        <ele>127.40000152588</ele>
        <time>2015-07-21T08:36:46.000Z</time>
      </trkpt>
      <trkpt lat="48.76414" lon="1.71356">
        <ele>127.19999694824</ele>
        <time>2015-07-21T08:36:50.000Z</time>
      </trkpt>
      <trkpt lat="48.76415" lon="1.71354">
        <ele>127.19999694824</ele>
        <time>2015-07-21T08:36:51.000Z</time>
      </trkpt>
      <trkpt lat="48.76416" lon="1.71346">
        <ele>127.19999694824</ele>
        <time>2015-07-21T08:36:54.000Z</time>
      </trkpt>
      <trkpt lat="48.76421" lon="1.71335">
        <ele>127.19999694824</ele>
        <time>2015-07-21T08:37:00.000Z</time>
      </trkpt>
      <trkpt lat="48.76426" lon="1.71325">
        <ele>127.19999694824</ele>
        <time>2015-07-21T08:37:05.000Z</time>
      </trkpt>
      <trkpt lat="48.76429" lon="1.71321">
        <ele>127.19999694824</ele>
        <time>2015-07-21T08:37:08.000Z</time>
      </trkpt>
      <trkpt lat="48.76431" lon="1.71317">
        <ele>127.19999694824</ele>
        <time>2015-07-21T08:37:10.000Z</time>
      </trkpt>
      <trkpt lat="48.76436" lon="1.71313">
        <ele>127.40000152588</ele>
        <time>2015-07-21T08:37:14.000Z</time>
      </trkpt>
      <trkpt lat="48.76439" lon="1.7131">
        <ele>127.40000152588</ele>
        <time>2015-07-21T08:37:16.000Z</time>
      </trkpt>
      <trkpt lat="48.76445" lon="1.71301">
        <ele>127.80000305176</ele>
        <time>2015-07-21T08:37:21.000Z</time>
      </trkpt>
      <trkpt lat="48.76449" lon="1.71296">
        <ele>128</ele>
        <time>2015-07-21T08:37:25.000Z</time>
      </trkpt>
      <trkpt lat="48.76456" lon="1.71286">
        <ele>128.39999389648</ele>
        <time>2015-07-21T08:37:31.000Z</time>
      </trkpt>
      <trkpt lat="48.7646" lon="1.71281">
        <ele>128.60000610352</ele>
        <time>2015-07-21T08:37:34.000Z</time>
      </trkpt>
      <trkpt lat="48.76461" lon="1.71277">
        <ele>128.80000305176</ele>
        <time>2015-07-21T08:37:36.000Z</time>
      </trkpt>
      <trkpt lat="48.76462" lon="1.71273">
        <ele>129</ele>
        <time>2015-07-21T08:37:38.000Z</time>
      </trkpt>
      <trkpt lat="48.76465" lon="1.71266">
        <ele>129.19999694824</ele>
        <time>2015-07-21T08:37:43.000Z</time>
      </trkpt>
      <trkpt lat="48.7647" lon="1.71262">
        <ele>129.19999694824</ele>
        <time>2015-07-21T08:37:47.000Z</time>
      </trkpt>
      <trkpt lat="48.76471" lon="1.71261">
        <ele>129.19999694824</ele>
        <time>2015-07-21T08:37:48.000Z</time>
      </trkpt>
      <trkpt lat="48.76475" lon="1.71258">
        <ele>129</ele>
        <time>2015-07-21T08:37:50.000Z</time>
      </trkpt>
      <trkpt lat="48.76478" lon="1.71252">
        <ele>128.80000305176</ele>
        <time>2015-07-21T08:37:53.000Z</time>
      </trkpt>
      <trkpt lat="48.76485" lon="1.71242">
        <ele>128.60000610352</ele>
        <time>2015-07-21T08:37:59.000Z</time>
      </trkpt>
      <trkpt lat="48.76489" lon="1.7123">
        <ele>128.60000610352</ele>
        <time>2015-07-21T08:38:05.000Z</time>
      </trkpt>
      <trkpt lat="48.76489" lon="1.71229">
        <ele>128.60000610352</ele>
        <time>2015-07-21T08:38:06.000Z</time>
      </trkpt>
      <trkpt lat="48.76493" lon="1.71223">
        <ele>128.39999389648</ele>
        <time>2015-07-21T08:38:09.000Z</time>
      </trkpt>
      <trkpt lat="48.76499" lon="1.71213">
        <ele>128</ele>
        <time>2015-07-21T08:38:15.000Z</time>
      </trkpt>
      <trkpt lat="48.765" lon="1.71212">
        <ele>128</ele>
        <time>2015-07-21T08:38:16.000Z</time>
      </trkpt>
      <trkpt lat="48.76503" lon="1.71205">
        <ele>127.80000305176</ele>
        <time>2015-07-21T08:38:20.000Z</time>
      </trkpt>
      <trkpt lat="48.76506" lon="1.71196">
        <ele>127.80000305176</ele>
        <time>2015-07-21T08:38:25.000Z</time>
      </trkpt>
      <trkpt lat="48.76507" lon="1.71195">
        <ele>127.59999847412</ele>
        <time>2015-07-21T08:38:26.000Z</time>
      </trkpt>
      <trkpt lat="48.76508" lon="1.71191">
        <ele>127.59999847412</ele>
        <time>2015-07-21T08:38:31.000Z</time>
      </trkpt>
      <trkpt lat="48.76509" lon="1.71189">
        <ele>127.59999847412</ele>
        <time>2015-07-21T08:38:32.000Z</time>
      </trkpt>
      <trkpt lat="48.76513" lon="1.7118">
        <ele>127.40000152588</ele>
        <time>2015-07-21T08:38:36.000Z</time>
      </trkpt>
      <trkpt lat="48.76514" lon="1.71178">
        <ele>127.40000152588</ele>
        <time>2015-07-21T08:38:37.000Z</time>
      </trkpt>
      <trkpt lat="48.76516" lon="1.71174">
        <ele>127.19999694824</ele>
        <time>2015-07-21T08:38:40.000Z</time>
      </trkpt>
      <trkpt lat="48.76518" lon="1.7117">
        <ele>127.19999694824</ele>
        <time>2015-07-21T08:38:42.000Z</time>
      </trkpt>
      <trkpt lat="48.76521" lon="1.71168">
        <ele>127</ele>
        <time>2015-07-21T08:38:44.000Z</time>
      </trkpt>
      <trkpt lat="48.76525" lon="1.71164">
        <ele>127</ele>
        <time>2015-07-21T08:38:47.000Z</time>
      </trkpt>
      <trkpt lat="48.76528" lon="1.71159">
        <ele>126.80000305176</ele>
        <time>2015-07-21T08:38:50.000Z</time>
      </trkpt>
      <trkpt lat="48.76531" lon="1.71154">
        <ele>126.80000305176</ele>
        <time>2015-07-21T08:38:53.000Z</time>
      </trkpt>
      <trkpt lat="48.76537" lon="1.71146">
        <ele>126.59999847412</ele>
        <time>2015-07-21T08:38:58.000Z</time>
      </trkpt>
      <trkpt lat="48.76538" lon="1.71144">
        <ele>126.59999847412</ele>
        <time>2015-07-21T08:38:59.000Z</time>
      </trkpt>
      <trkpt lat="48.76545" lon="1.71136">
        <ele>126.40000152588</ele>
        <time>2015-07-21T08:39:05.000Z</time>
      </trkpt>
      <trkpt lat="48.76545" lon="1.71134">
        <ele>126.40000152588</ele>
        <time>2015-07-21T08:39:07.000Z</time>
      </trkpt>
      <trkpt lat="48.76548" lon="1.71131">
        <ele>126.40000152588</ele>
        <time>2015-07-21T08:39:09.000Z</time>
      </trkpt>
      <trkpt lat="48.76549" lon="1.71128">
        <ele>126.40000152588</ele>
        <time>2015-07-21T08:39:12.000Z</time>
      </trkpt>
      <trkpt lat="48.76553" lon="1.71123">
        <ele>126.19999694824</ele>
        <time>2015-07-21T08:39:17.000Z</time>
      </trkpt>
      <trkpt lat="48.76555" lon="1.71122">
        <ele>126.19999694824</ele>
        <time>2015-07-21T08:39:18.000Z</time>
      </trkpt>
      <trkpt lat="48.76556" lon="1.7112">
        <ele>126.19999694824</ele>
        <time>2015-07-21T08:39:21.000Z</time>
      </trkpt>
      <trkpt lat="48.7657" lon="1.71109">
        <ele>125.80000305176</ele>
        <time>2015-07-21T08:39:34.000Z</time>
      </trkpt>
      <trkpt lat="48.76576" lon="1.71104">
        <ele>125.40000152588</ele>
        <time>2015-07-21T08:39:38.000Z</time>
      </trkpt>
      <trkpt lat="48.76578" lon="1.71102">
        <ele>125.40000152588</ele>
        <time>2015-07-21T08:39:39.000Z</time>
      </trkpt>
      <trkpt lat="48.76586" lon="1.71096">
        <ele>125</ele>
        <time>2015-07-21T08:39:45.000Z</time>
      </trkpt>
      <trkpt lat="48.76588" lon="1.71093">
        <ele>124.80000305176</ele>
        <time>2015-07-21T08:39:47.000Z</time>
      </trkpt>
      <trkpt lat="48.7659" lon="1.7109">
        <ele>124.80000305176</ele>
        <time>2015-07-21T08:39:49.000Z</time>
      </trkpt>
      <trkpt lat="48.76593" lon="1.71085">
        <ele>124.59999847412</ele>
        <time>2015-07-21T08:39:53.000Z</time>
      </trkpt>
      <trkpt lat="48.76597" lon="1.71079">
        <ele>124.40000152588</ele>
        <time>2015-07-21T08:39:56.000Z</time>
      </trkpt>
      <trkpt lat="48.76605" lon="1.71069">
        <ele>124</ele>
        <time>2015-07-21T08:40:02.000Z</time>
      </trkpt>
      <trkpt lat="48.76608" lon="1.71064">
        <ele>124.19999694824</ele>
        <time>2015-07-21T08:40:05.000Z</time>
      </trkpt>
      <trkpt lat="48.7661" lon="1.71061">
        <ele>124.19999694824</ele>
        <time>2015-07-21T08:40:07.000Z</time>
      </trkpt>
      <trkpt lat="48.76617" lon="1.71055">
        <ele>124.40000152588</ele>
        <time>2015-07-21T08:40:12.000Z</time>
      </trkpt>
      <trkpt lat="48.76622" lon="1.71049">
        <ele>124.40000152588</ele>
        <time>2015-07-21T08:40:16.000Z</time>
      </trkpt>
      <trkpt lat="48.76623" lon="1.71048">
        <ele>124.40000152588</ele>
        <time>2015-07-21T08:40:17.000Z</time>
      </trkpt>
      <trkpt lat="48.76632" lon="1.71039">
        <ele>124.59999847412</ele>
        <time>2015-07-21T08:40:23.000Z</time>
      </trkpt>
      <trkpt lat="48.76641" lon="1.71027">
        <ele>125</ele>
        <time>2015-07-21T08:40:30.000Z</time>
      </trkpt>
      <trkpt lat="48.76652" lon="1.71013">
        <ele>124</ele>
        <time>2015-07-21T08:40:38.000Z</time>
      </trkpt>
      <trkpt lat="48.76661" lon="1.70999">
        <ele>122.80000305176</ele>
        <time>2015-07-21T08:40:46.000Z</time>
      </trkpt>
      <trkpt lat="48.76671" lon="1.70985">
        <ele>121.80000305176</ele>
        <time>2015-07-21T08:40:55.000Z</time>
      </trkpt>
      <trkpt lat="48.76676" lon="1.70979">
        <ele>121.59999847412</ele>
        <time>2015-07-21T08:40:58.000Z</time>
      </trkpt>
      <trkpt lat="48.76678" lon="1.70975">
        <ele>121.40000152588</ele>
        <time>2015-07-21T08:41:00.000Z</time>
      </trkpt>
      <trkpt lat="48.76686" lon="1.70964">
        <ele>121</ele>
        <time>2015-07-21T08:41:07.000Z</time>
      </trkpt>
      <trkpt lat="48.76692" lon="1.70953">
        <ele>121</ele>
        <time>2015-07-21T08:41:13.000Z</time>
      </trkpt>
      <trkpt lat="48.76701" lon="1.70939">
        <ele>121.19999694824</ele>
        <time>2015-07-21T08:41:21.000Z</time>
      </trkpt>
      <trkpt lat="48.76709" lon="1.70927">
        <ele>121.19999694824</ele>
        <time>2015-07-21T08:41:29.000Z</time>
      </trkpt>
      <trkpt lat="48.76717" lon="1.70917">
        <ele>121.19999694824</ele>
        <time>2015-07-21T08:41:36.000Z</time>
      </trkpt>
      <trkpt lat="48.76724" lon="1.70906">
        <ele>121</ele>
        <time>2015-07-21T08:41:42.000Z</time>
      </trkpt>
      <trkpt lat="48.76726" lon="1.70902">
        <ele>121</ele>
        <time>2015-07-21T08:41:45.000Z</time>
      </trkpt>
      <trkpt lat="48.76729" lon="1.70899">
        <ele>121.19999694824</ele>
        <time>2015-07-21T08:41:47.000Z</time>
      </trkpt>
      <trkpt lat="48.76735" lon="1.70892">
        <ele>121.19999694824</ele>
        <time>2015-07-21T08:41:52.000Z</time>
      </trkpt>
      <trkpt lat="48.76743" lon="1.70878">
        <ele>121.59999847412</ele>
        <time>2015-07-21T08:41:58.000Z</time>
      </trkpt>
      <trkpt lat="48.76754" lon="1.70859">
        <ele>120.80000305176</ele>
        <time>2015-07-21T08:42:05.000Z</time>
      </trkpt>
      <trkpt lat="48.76762" lon="1.70845">
        <ele>120</ele>
        <time>2015-07-21T08:42:13.000Z</time>
      </trkpt>
      <trkpt lat="48.76771" lon="1.70833">
        <ele>119.40000152588</ele>
        <time>2015-07-21T08:42:21.000Z</time>
      </trkpt>
      <trkpt lat="48.76778" lon="1.70822">
        <ele>119.19999694824</ele>
        <time>2015-07-21T08:42:28.000Z</time>
      </trkpt>
      <trkpt lat="48.76782" lon="1.70816">
        <ele>119.40000152588</ele>
        <time>2015-07-21T08:42:31.000Z</time>
      </trkpt>
      <trkpt lat="48.76784" lon="1.70813">
        <ele>119.59999847412</ele>
        <time>2015-07-21T08:42:33.000Z</time>
      </trkpt>
      <trkpt lat="48.76793" lon="1.70802">
        <ele>120.19999694824</ele>
        <time>2015-07-21T08:42:41.000Z</time>
      </trkpt>
      <trkpt lat="48.768" lon="1.70792">
        <ele>120.80000305176</ele>
        <time>2015-07-21T08:42:48.000Z</time>
      </trkpt>
      <trkpt lat="48.76804" lon="1.70786">
        <ele>121</ele>
        <time>2015-07-21T08:42:52.000Z</time>
      </trkpt>
      <trkpt lat="48.76805" lon="1.70784">
        <ele>121</ele>
        <time>2015-07-21T08:42:53.000Z</time>
      </trkpt>
      <trkpt lat="48.76811" lon="1.70778">
        <ele>121.40000152588</ele>
        <time>2015-07-21T08:42:58.000Z</time>
      </trkpt>
      <trkpt lat="48.76818" lon="1.70773">
        <ele>121.59999847412</ele>
        <time>2015-07-21T08:43:04.000Z</time>
      </trkpt>
      <trkpt lat="48.76821" lon="1.70778">
        <ele>121.59999847412</ele>
        <time>2015-07-21T08:43:08.000Z</time>
      </trkpt>
      <trkpt lat="48.76822" lon="1.70779">
        <ele>121.40000152588</ele>
        <time>2015-07-21T08:43:09.000Z</time>
      </trkpt>
      <trkpt lat="48.76826" lon="1.70782">
        <ele>121.40000152588</ele>
        <time>2015-07-21T08:43:13.000Z</time>
      </trkpt>
      <trkpt lat="48.76831" lon="1.70788">
        <ele>121.40000152588</ele>
        <time>2015-07-21T08:43:17.000Z</time>
      </trkpt>
      <trkpt lat="48.76836" lon="1.70792">
        <ele>121.40000152588</ele>
        <time>2015-07-21T08:43:22.000Z</time>
      </trkpt>
      <trkpt lat="48.76839" lon="1.70798">
        <ele>121.19999694824</ele>
        <time>2015-07-21T08:43:27.000Z</time>
      </trkpt>
      <trkpt lat="48.76843" lon="1.70802">
        <ele>121.19999694824</ele>
        <time>2015-07-21T08:43:32.000Z</time>
      </trkpt>
      <trkpt lat="48.76845" lon="1.70804">
        <ele>121.19999694824</ele>
        <time>2015-07-21T08:43:35.000Z</time>
      </trkpt>
      <trkpt lat="48.76847" lon="1.70805">
        <ele>121.19999694824</ele>
        <time>2015-07-21T08:43:40.000Z</time>
      </trkpt>
      <trkpt lat="48.76843" lon="1.70818">
        <ele>120.80000305176</ele>
        <time>2015-07-21T08:54:58.000Z</time>
      </trkpt>
      <trkpt lat="48.76848" lon="1.70818">
        <ele>121</ele>
        <time>2015-07-21T08:55:03.000Z</time>
      </trkpt>
      <trkpt lat="48.7685" lon="1.70818">
        <ele>121</ele>
        <time>2015-07-21T08:55:07.000Z</time>
      </trkpt>
      <trkpt lat="48.76828" lon="1.70766">
        <ele>121.59999847412</ele>
        <time>2015-07-21T09:11:06.000Z</time>
      </trkpt>
      <trkpt lat="48.76833" lon="1.70754">
        <ele>121.80000305176</ele>
        <time>2015-07-21T09:11:13.000Z</time>
      </trkpt>
      <trkpt lat="48.76835" lon="1.70752">
        <ele>121.80000305176</ele>
        <time>2015-07-21T09:11:15.000Z</time>
      </trkpt>
      <trkpt lat="48.76838" lon="1.70747">
        <ele>121.80000305176</ele>
        <time>2015-07-21T09:11:19.000Z</time>
      </trkpt>
      <trkpt lat="48.76839" lon="1.70745">
        <ele>121.80000305176</ele>
        <time>2015-07-21T09:11:20.000Z</time>
      </trkpt>
      <trkpt lat="48.76841" lon="1.7074">
        <ele>122</ele>
        <time>2015-07-21T09:11:25.000Z</time>
      </trkpt>
      <trkpt lat="48.76842" lon="1.70738">
        <ele>122</ele>
        <time>2015-07-21T09:11:26.000Z</time>
      </trkpt>
      <trkpt lat="48.76846" lon="1.70731">
        <ele>122.19999694824</ele>
        <time>2015-07-21T09:11:31.000Z</time>
      </trkpt>
      <trkpt lat="48.76847" lon="1.7073">
        <ele>122.40000152588</ele>
        <time>2015-07-21T09:11:32.000Z</time>
      </trkpt>
      <trkpt lat="48.76851" lon="1.70719">
        <ele>122.59999847412</ele>
        <time>2015-07-21T09:11:39.000Z</time>
      </trkpt>
      <trkpt lat="48.76854" lon="1.7071">
        <ele>122.59999847412</ele>
        <time>2015-07-21T09:11:46.000Z</time>
      </trkpt>
      <trkpt lat="48.76854" lon="1.70709">
        <ele>122.59999847412</ele>
        <time>2015-07-21T09:11:48.000Z</time>
      </trkpt>
      <trkpt lat="48.76868" lon="1.70689">
        <ele>123.59999847412</ele>
        <time>2015-07-21T09:12:07.000Z</time>
      </trkpt>
      <trkpt lat="48.76871" lon="1.70685">
        <ele>123.80000305176</ele>
        <time>2015-07-21T09:12:10.000Z</time>
      </trkpt>
      <trkpt lat="48.76878" lon="1.7068">
        <ele>124.19999694824</ele>
        <time>2015-07-21T09:12:15.000Z</time>
      </trkpt>
      <trkpt lat="48.76882" lon="1.70671">
        <ele>124.40000152588</ele>
        <time>2015-07-21T09:12:21.000Z</time>
      </trkpt>
      <trkpt lat="48.76883" lon="1.70668">
        <ele>124.40000152588</ele>
        <time>2015-07-21T09:12:23.000Z</time>
      </trkpt>
      <trkpt lat="48.76888" lon="1.70665">
        <ele>124.59999847412</ele>
        <time>2015-07-21T09:12:26.000Z</time>
      </trkpt>
      <trkpt lat="48.7689" lon="1.70662">
        <ele>124.80000305176</ele>
        <time>2015-07-21T09:12:28.000Z</time>
      </trkpt>
      <trkpt lat="48.7689" lon="1.70661">
        <ele>124.80000305176</ele>
        <time>2015-07-21T09:12:29.000Z</time>
      </trkpt>
      <trkpt lat="48.76893" lon="1.70658">
        <ele>124.80000305176</ele>
        <time>2015-07-21T09:12:31.000Z</time>
      </trkpt>
      <trkpt lat="48.76897" lon="1.70653">
        <ele>125</ele>
        <time>2015-07-21T09:12:36.000Z</time>
      </trkpt>
      <trkpt lat="48.769" lon="1.70648">
        <ele>125</ele>
        <time>2015-07-21T09:12:40.000Z</time>
      </trkpt>
      <trkpt lat="48.769" lon="1.70646">
        <ele>125</ele>
        <time>2015-07-21T09:12:41.000Z</time>
      </trkpt>
      <trkpt lat="48.76903" lon="1.70643">
        <ele>125.19999694824</ele>
        <time>2015-07-21T09:12:44.000Z</time>
      </trkpt>
      <trkpt lat="48.76906" lon="1.70638">
        <ele>125.19999694824</ele>
        <time>2015-07-21T09:12:47.000Z</time>
      </trkpt>
      <trkpt lat="48.76908" lon="1.70634">
        <ele>125.19999694824</ele>
        <time>2015-07-21T09:12:51.000Z</time>
      </trkpt>
      <trkpt lat="48.76908" lon="1.70633">
        <ele>125.19999694824</ele>
        <time>2015-07-21T09:12:52.000Z</time>
      </trkpt>
      <trkpt lat="48.76909" lon="1.70629">
        <ele>125.40000152588</ele>
        <time>2015-07-21T09:12:55.000Z</time>
      </trkpt>
      <trkpt lat="48.76911" lon="1.70626">
        <ele>125.40000152588</ele>
        <time>2015-07-21T09:12:57.000Z</time>
      </trkpt>
      <trkpt lat="48.76917" lon="1.70618">
        <ele>124.80000305176</ele>
        <time>2015-07-21T09:13:03.000Z</time>
      </trkpt>
      <trkpt lat="48.76923" lon="1.7061">
        <ele>124.19999694824</ele>
        <time>2015-07-21T09:13:08.000Z</time>
      </trkpt>
      <trkpt lat="48.76928" lon="1.70605">
        <ele>124</ele>
        <time>2015-07-21T09:13:13.000Z</time>
      </trkpt>
      <trkpt lat="48.7693" lon="1.70598">
        <ele>123.59999847412</ele>
        <time>2015-07-21T09:13:17.000Z</time>
      </trkpt>
      <trkpt lat="48.76933" lon="1.70591">
        <ele>123.19999694824</ele>
        <time>2015-07-21T09:13:21.000Z</time>
      </trkpt>
      <trkpt lat="48.76936" lon="1.70588">
        <ele>123</ele>
        <time>2015-07-21T09:13:24.000Z</time>
      </trkpt>
      <trkpt lat="48.76941" lon="1.7058">
        <ele>122.40000152588</ele>
        <time>2015-07-21T09:13:29.000Z</time>
      </trkpt>
      <trkpt lat="48.76942" lon="1.70576">
        <ele>122.19999694824</ele>
        <time>2015-07-21T09:13:31.000Z</time>
      </trkpt>
      <trkpt lat="48.76947" lon="1.70569">
        <ele>122</ele>
        <time>2015-07-21T09:13:36.000Z</time>
      </trkpt>
      <trkpt lat="48.76947" lon="1.70568">
        <ele>122</ele>
        <time>2015-07-21T09:13:37.000Z</time>
      </trkpt>
      <trkpt lat="48.7695" lon="1.70564">
        <ele>122</ele>
        <time>2015-07-21T09:13:41.000Z</time>
      </trkpt>
      <trkpt lat="48.76955" lon="1.70554">
        <ele>121.80000305176</ele>
        <time>2015-07-21T09:13:47.000Z</time>
      </trkpt>
      <trkpt lat="48.76959" lon="1.70542">
        <ele>121.59999847412</ele>
        <time>2015-07-21T09:13:54.000Z</time>
      </trkpt>
      <trkpt lat="48.76964" lon="1.70532">
        <ele>121.59999847412</ele>
        <time>2015-07-21T09:14:01.000Z</time>
      </trkpt>
      <trkpt lat="48.76969" lon="1.70525">
        <ele>121.40000152588</ele>
        <time>2015-07-21T09:14:06.000Z</time>
      </trkpt>
      <trkpt lat="48.76971" lon="1.70523">
        <ele>121.40000152588</ele>
        <time>2015-07-21T09:14:07.000Z</time>
      </trkpt>
      <trkpt lat="48.76973" lon="1.7052">
        <ele>121.40000152588</ele>
        <time>2015-07-21T09:14:09.000Z</time>
      </trkpt>
      <trkpt lat="48.76977" lon="1.70516">
        <ele>121.40000152588</ele>
        <time>2015-07-21T09:14:12.000Z</time>
      </trkpt>
      <trkpt lat="48.76982" lon="1.70509">
        <ele>121.59999847412</ele>
        <time>2015-07-21T09:14:18.000Z</time>
      </trkpt>
      <trkpt lat="48.76988" lon="1.70504">
        <ele>121.59999847412</ele>
        <time>2015-07-21T09:14:23.000Z</time>
      </trkpt>
      <trkpt lat="48.7699" lon="1.70501">
        <ele>121.59999847412</ele>
        <time>2015-07-21T09:14:25.000Z</time>
      </trkpt>
      <trkpt lat="48.76994" lon="1.70497">
        <ele>121.59999847412</ele>
        <time>2015-07-21T09:14:29.000Z</time>
      </trkpt>
      <trkpt lat="48.76998" lon="1.70491">
        <ele>121.80000305176</ele>
        <time>2015-07-21T09:14:34.000Z</time>
      </trkpt>
      <trkpt lat="48.77002" lon="1.70489">
        <ele>121.80000305176</ele>
        <time>2015-07-21T09:14:37.000Z</time>
      </trkpt>
      <trkpt lat="48.77007" lon="1.70485">
        <ele>121.80000305176</ele>
        <time>2015-07-21T09:14:41.000Z</time>
      </trkpt>
      <trkpt lat="48.77015" lon="1.70475">
        <ele>122.19999694824</ele>
        <time>2015-07-21T09:14:49.000Z</time>
      </trkpt>
      <trkpt lat="48.77015" lon="1.70473">
        <ele>122.40000152588</ele>
        <time>2015-07-21T09:14:50.000Z</time>
      </trkpt>
      <trkpt lat="48.77018" lon="1.70468">
        <ele>122.40000152588</ele>
        <time>2015-07-21T09:14:54.000Z</time>
      </trkpt>
      <trkpt lat="48.77019" lon="1.70466">
        <ele>122.40000152588</ele>
        <time>2015-07-21T09:14:56.000Z</time>
      </trkpt>
      <trkpt lat="48.7702" lon="1.70466">
        <ele>122.40000152588</ele>
        <time>2015-07-21T09:14:57.000Z</time>
      </trkpt>
      <trkpt lat="48.77022" lon="1.70464">
        <ele>122.59999847412</ele>
        <time>2015-07-21T09:14:59.000Z</time>
      </trkpt>
      <trkpt lat="48.77024" lon="1.70461">
        <ele>122.59999847412</ele>
        <time>2015-07-21T09:15:01.000Z</time>
      </trkpt>
      <trkpt lat="48.77026" lon="1.70461">
        <ele>122.59999847412</ele>
        <time>2015-07-21T09:15:03.000Z</time>
      </trkpt>
      <trkpt lat="48.77027" lon="1.7046">
        <ele>122.59999847412</ele>
        <time>2015-07-21T09:15:05.000Z</time>
      </trkpt>
      <trkpt lat="48.7703" lon="1.70461">
        <ele>122.59999847412</ele>
        <time>2015-07-21T09:15:09.000Z</time>
      </trkpt>
      <trkpt lat="48.77031" lon="1.7046">
        <ele>122.59999847412</ele>
        <time>2015-07-21T09:15:12.000Z</time>
      </trkpt>
      <trkpt lat="48.77032" lon="1.70459">
        <ele>122.59999847412</ele>
        <time>2015-07-21T09:15:14.000Z</time>
      </trkpt>
      <trkpt lat="48.7708" lon="1.70468">
        <ele>122.40000152588</ele>
        <time>2015-07-21T09:16:25.000Z</time>
      </trkpt>
      <trkpt lat="48.77084" lon="1.70469">
        <ele>122.40000152588</ele>
        <time>2015-07-21T09:16:27.000Z</time>
      </trkpt>
      <trkpt lat="48.77087" lon="1.7047">
        <ele>122.40000152588</ele>
        <time>2015-07-21T09:16:29.000Z</time>
      </trkpt>
      <trkpt lat="48.77094" lon="1.7047">
        <ele>122.19999694824</ele>
        <time>2015-07-21T09:16:34.000Z</time>
      </trkpt>
      <trkpt lat="48.77097" lon="1.70471">
        <ele>122.19999694824</ele>
        <time>2015-07-21T09:16:36.000Z</time>
      </trkpt>
      <trkpt lat="48.77099" lon="1.70471">
        <ele>122.19999694824</ele>
        <time>2015-07-21T09:16:38.000Z</time>
      </trkpt>
      <trkpt lat="48.7711" lon="1.70469">
        <ele>122</ele>
        <time>2015-07-21T09:16:45.000Z</time>
      </trkpt>
      <trkpt lat="48.77113" lon="1.70468">
        <ele>122</ele>
        <time>2015-07-21T09:16:47.000Z</time>
      </trkpt>
      <trkpt lat="48.77119" lon="1.70468">
        <ele>121.80000305176</ele>
        <time>2015-07-21T09:16:51.000Z</time>
      </trkpt>
      <trkpt lat="48.77125" lon="1.70469">
        <ele>121.80000305176</ele>
        <time>2015-07-21T09:16:57.000Z</time>
      </trkpt>
      <trkpt lat="48.77134" lon="1.70468">
        <ele>121.59999847412</ele>
        <time>2015-07-21T09:17:03.000Z</time>
      </trkpt>
      <trkpt lat="48.7714" lon="1.70468">
        <ele>121.59999847412</ele>
        <time>2015-07-21T09:17:08.000Z</time>
      </trkpt>
      <trkpt lat="48.7714" lon="1.70468">
        <ele>121.59999847412</ele>
        <time>2015-07-21T09:17:09.000Z</time>
      </trkpt>
      <trkpt lat="48.77143" lon="1.70468">
        <ele>121.59999847412</ele>
        <time>2015-07-21T09:17:12.000Z</time>
      </trkpt>
      <trkpt lat="48.77149" lon="1.7047">
        <ele>121.40000152588</ele>
        <time>2015-07-21T09:17:16.000Z</time>
      </trkpt>
      <trkpt lat="48.77155" lon="1.70469">
        <ele>121.40000152588</ele>
        <time>2015-07-21T09:17:22.000Z</time>
      </trkpt>
      <trkpt lat="48.77156" lon="1.70469">
        <ele>121.40000152588</ele>
        <time>2015-07-21T09:17:23.000Z</time>
      </trkpt>
      <trkpt lat="48.7716" lon="1.70469">
        <ele>121.40000152588</ele>
        <time>2015-07-21T09:17:26.000Z</time>
      </trkpt>
      <trkpt lat="48.77164" lon="1.7047">
        <ele>121.19999694824</ele>
        <time>2015-07-21T09:17:28.000Z</time>
      </trkpt>
      <trkpt lat="48.77166" lon="1.70469">
        <ele>121.19999694824</ele>
        <time>2015-07-21T09:17:29.000Z</time>
      </trkpt>
      <trkpt lat="48.77167" lon="1.70469">
        <ele>121.19999694824</ele>
        <time>2015-07-21T09:17:30.000Z</time>
      </trkpt>
      <trkpt lat="48.7717" lon="1.7047">
        <ele>121.19999694824</ele>
        <time>2015-07-21T09:17:33.000Z</time>
      </trkpt>
      <trkpt lat="48.77171" lon="1.70469">
        <ele>121.19999694824</ele>
        <time>2015-07-21T09:17:35.000Z</time>
      </trkpt>
      <trkpt lat="48.77176" lon="1.70471">
        <ele>121.19999694824</ele>
        <time>2015-07-21T09:17:38.000Z</time>
      </trkpt>
      <trkpt lat="48.77177" lon="1.70472">
        <ele>121.19999694824</ele>
        <time>2015-07-21T09:17:39.000Z</time>
      </trkpt>
      <trkpt lat="48.77184" lon="1.70471">
        <ele>121.40000152588</ele>
        <time>2015-07-21T09:17:43.000Z</time>
      </trkpt>
      <trkpt lat="48.77185" lon="1.70471">
        <ele>121.59999847412</ele>
        <time>2015-07-21T09:17:44.000Z</time>
      </trkpt>
      <trkpt lat="48.77185" lon="1.70471">
        <ele>121.40000152588</ele>
        <time>2015-07-21T09:17:45.000Z</time>
      </trkpt>
      <trkpt lat="48.77185" lon="1.70472">
        <ele>121.40000152588</ele>
        <time>2015-07-21T09:17:46.000Z</time>
      </trkpt>
      <trkpt lat="48.77205" lon="1.70472">
        <ele>121.59999847412</ele>
        <time>2015-07-21T09:18:24.000Z</time>
      </trkpt>
      <trkpt lat="48.7721" lon="1.70474">
        <ele>121.40000152588</ele>
        <time>2015-07-21T09:18:28.000Z</time>
      </trkpt>
      <trkpt lat="48.77212" lon="1.70474">
        <ele>121.40000152588</ele>
        <time>2015-07-21T09:18:29.000Z</time>
      </trkpt>
      <trkpt lat="48.77218" lon="1.70475">
        <ele>121.40000152588</ele>
        <time>2015-07-21T09:18:35.000Z</time>
      </trkpt>
      <trkpt lat="48.77224" lon="1.70476">
        <ele>121.40000152588</ele>
        <time>2015-07-21T09:18:40.000Z</time>
      </trkpt>
      <trkpt lat="48.77232" lon="1.70476">
        <ele>121.40000152588</ele>
        <time>2015-07-21T09:18:46.000Z</time>
      </trkpt>
      <trkpt lat="48.77234" lon="1.70475">
        <ele>121.40000152588</ele>
        <time>2015-07-21T09:18:49.000Z</time>
      </trkpt>
      <trkpt lat="48.77236" lon="1.70476">
        <ele>121.40000152588</ele>
        <time>2015-07-21T09:18:51.000Z</time>
      </trkpt>
      <trkpt lat="48.77244" lon="1.70475">
        <ele>121.40000152588</ele>
        <time>2015-07-21T09:18:56.000Z</time>
      </trkpt>
      <trkpt lat="48.77248" lon="1.70474">
        <ele>121.40000152588</ele>
        <time>2015-07-21T09:18:59.000Z</time>
      </trkpt>
      <trkpt lat="48.77251" lon="1.70476">
        <ele>121.40000152588</ele>
        <time>2015-07-21T09:19:02.000Z</time>
      </trkpt>
      <trkpt lat="48.77258" lon="1.70476">
        <ele>121.40000152588</ele>
        <time>2015-07-21T09:19:06.000Z</time>
      </trkpt>
      <trkpt lat="48.77266" lon="1.70475">
        <ele>121.19999694824</ele>
        <time>2015-07-21T09:19:12.000Z</time>
      </trkpt>
      <trkpt lat="48.7727" lon="1.70476">
        <ele>121.19999694824</ele>
        <time>2015-07-21T09:19:16.000Z</time>
      </trkpt>
      <trkpt lat="48.77271" lon="1.70476">
        <ele>121.19999694824</ele>
        <time>2015-07-21T09:19:18.000Z</time>
      </trkpt>
      <trkpt lat="48.77278" lon="1.70477">
        <ele>121.19999694824</ele>
        <time>2015-07-21T09:19:23.000Z</time>
      </trkpt>
      <trkpt lat="48.77284" lon="1.70477">
        <ele>121.19999694824</ele>
        <time>2015-07-21T09:19:27.000Z</time>
      </trkpt>
      <trkpt lat="48.77291" lon="1.7048">
        <ele>121.40000152588</ele>
        <time>2015-07-21T09:19:32.000Z</time>
      </trkpt>
      <trkpt lat="48.77292" lon="1.70481">
        <ele>121.40000152588</ele>
        <time>2015-07-21T09:19:34.000Z</time>
      </trkpt>
      <trkpt lat="48.77295" lon="1.70481">
        <ele>121.40000152588</ele>
        <time>2015-07-21T09:19:37.000Z</time>
      </trkpt>
      <trkpt lat="48.77299" lon="1.7048">
        <ele>121.40000152588</ele>
        <time>2015-07-21T09:19:40.000Z</time>
      </trkpt>
      <trkpt lat="48.77304" lon="1.7048">
        <ele>121.40000152588</ele>
        <time>2015-07-21T09:19:45.000Z</time>
      </trkpt>
      <trkpt lat="48.77306" lon="1.7048">
        <ele>121.40000152588</ele>
        <time>2015-07-21T09:19:47.000Z</time>
      </trkpt>
      <trkpt lat="48.77309" lon="1.70481">
        <ele>121.59999847412</ele>
        <time>2015-07-21T09:19:51.000Z</time>
      </trkpt>
      <trkpt lat="48.77317" lon="1.70481">
        <ele>121.59999847412</ele>
        <time>2015-07-21T09:19:56.000Z</time>
      </trkpt>
      <trkpt lat="48.77321" lon="1.7048">
        <ele>121.59999847412</ele>
        <time>2015-07-21T09:20:00.000Z</time>
      </trkpt>
      <trkpt lat="48.77327" lon="1.70479">
        <ele>121.80000305176</ele>
        <time>2015-07-21T09:20:05.000Z</time>
      </trkpt>
      <trkpt lat="48.77336" lon="1.70478">
        <ele>121.80000305176</ele>
        <time>2015-07-21T09:20:10.000Z</time>
      </trkpt>
      <trkpt lat="48.77346" lon="1.70477">
        <ele>122</ele>
        <time>2015-07-21T09:20:15.000Z</time>
      </trkpt>
      <trkpt lat="48.77351" lon="1.70478">
        <ele>122</ele>
        <time>2015-07-21T09:20:19.000Z</time>
      </trkpt>
      <trkpt lat="48.77353" lon="1.70478">
        <ele>122</ele>
        <time>2015-07-21T09:20:20.000Z</time>
      </trkpt>
      <trkpt lat="48.77355" lon="1.70478">
        <ele>122</ele>
        <time>2015-07-21T09:20:22.000Z</time>
      </trkpt>
      <trkpt lat="48.77359" lon="1.70481">
        <ele>122.19999694824</ele>
        <time>2015-07-21T09:20:25.000Z</time>
      </trkpt>
      <trkpt lat="48.77361" lon="1.70481">
        <ele>122.40000152588</ele>
        <time>2015-07-21T09:20:27.000Z</time>
      </trkpt>
      <trkpt lat="48.77364" lon="1.70481">
        <ele>122.59999847412</ele>
        <time>2015-07-21T09:20:31.000Z</time>
      </trkpt>
      <trkpt lat="48.77365" lon="1.70482">
        <ele>122.59999847412</ele>
        <time>2015-07-21T09:20:32.000Z</time>
      </trkpt>
      <trkpt lat="48.7737" lon="1.70483">
        <ele>123</ele>
        <time>2015-07-21T09:20:35.000Z</time>
      </trkpt>
      <trkpt lat="48.77371" lon="1.70483">
        <ele>123.19999694824</ele>
        <time>2015-07-21T09:20:36.000Z</time>
      </trkpt>
      <trkpt lat="48.77373" lon="1.70485">
        <ele>123.40000152588</ele>
        <time>2015-07-21T09:20:39.000Z</time>
      </trkpt>
      <trkpt lat="48.77381" lon="1.70489">
        <ele>123.80000305176</ele>
        <time>2015-07-21T09:20:44.000Z</time>
      </trkpt>
      <trkpt lat="48.77382" lon="1.70489">
        <ele>124</ele>
        <time>2015-07-21T09:20:45.000Z</time>
      </trkpt>
      <trkpt lat="48.77388" lon="1.70492">
        <ele>124.40000152588</ele>
        <time>2015-07-21T09:20:49.000Z</time>
      </trkpt>
      <trkpt lat="48.77391" lon="1.70493">
        <ele>124.59999847412</ele>
        <time>2015-07-21T09:20:51.000Z</time>
      </trkpt>
      <trkpt lat="48.77401" lon="1.70497">
        <ele>125.40000152588</ele>
        <time>2015-07-21T09:20:57.000Z</time>
      </trkpt>
      <trkpt lat="48.77409" lon="1.70499">
        <ele>125.80000305176</ele>
        <time>2015-07-21T09:21:02.000Z</time>
      </trkpt>
      <trkpt lat="48.77415" lon="1.70505">
        <ele>126.40000152588</ele>
        <time>2015-07-21T09:21:07.000Z</time>
      </trkpt>
      <trkpt lat="48.77417" lon="1.70507">
        <ele>126.40000152588</ele>
        <time>2015-07-21T09:21:08.000Z</time>
      </trkpt>
      <trkpt lat="48.77421" lon="1.70511">
        <ele>126.80000305176</ele>
        <time>2015-07-21T09:21:11.000Z</time>
      </trkpt>
      <trkpt lat="48.77426" lon="1.70514">
        <ele>127.19999694824</ele>
        <time>2015-07-21T09:21:14.000Z</time>
      </trkpt>
      <trkpt lat="48.77428" lon="1.70516">
        <ele>127.40000152588</ele>
        <time>2015-07-21T09:21:16.000Z</time>
      </trkpt>
      <trkpt lat="48.77436" lon="1.70521">
        <ele>127.80000305176</ele>
        <time>2015-07-21T09:21:21.000Z</time>
      </trkpt>
      <trkpt lat="48.77437" lon="1.70522">
        <ele>128</ele>
        <time>2015-07-21T09:21:23.000Z</time>
      </trkpt>
      <trkpt lat="48.77439" lon="1.70526">
        <ele>128</ele>
        <time>2015-07-21T09:21:26.000Z</time>
      </trkpt>
      <trkpt lat="48.77444" lon="1.70535">
        <ele>128.19999694824</ele>
        <time>2015-07-21T09:21:33.000Z</time>
      </trkpt>
      <trkpt lat="48.77449" lon="1.7054">
        <ele>128.19999694824</ele>
        <time>2015-07-21T09:21:39.000Z</time>
      </trkpt>
      <trkpt lat="48.77456" lon="1.70544">
        <ele>128.39999389648</ele>
        <time>2015-07-21T09:21:45.000Z</time>
      </trkpt>
      <trkpt lat="48.77464" lon="1.70545">
        <ele>128.60000610352</ele>
        <time>2015-07-21T09:21:51.000Z</time>
      </trkpt>
      <trkpt lat="48.77465" lon="1.70545">
        <ele>128.60000610352</ele>
        <time>2015-07-21T09:21:52.000Z</time>
      </trkpt>
      <trkpt lat="48.77466" lon="1.70544">
        <ele>128.60000610352</ele>
        <time>2015-07-21T09:21:53.000Z</time>
      </trkpt>
      <trkpt lat="48.77471" lon="1.70537">
        <ele>128.80000305176</ele>
        <time>2015-07-21T09:21:58.000Z</time>
      </trkpt>
      <trkpt lat="48.77474" lon="1.70528">
        <ele>128.80000305176</ele>
        <time>2015-07-21T09:22:04.000Z</time>
      </trkpt>
      <trkpt lat="48.77477" lon="1.70523">
        <ele>129</ele>
        <time>2015-07-21T09:22:08.000Z</time>
      </trkpt>
      <trkpt lat="48.7748" lon="1.70517">
        <ele>129.19999694824</ele>
        <time>2015-07-21T09:22:12.000Z</time>
      </trkpt>
      <trkpt lat="48.77483" lon="1.70508">
        <ele>129.39999389648</ele>
        <time>2015-07-21T09:22:18.000Z</time>
      </trkpt>
      <trkpt lat="48.77484" lon="1.705">
        <ele>129.39999389648</ele>
        <time>2015-07-21T09:22:23.000Z</time>
      </trkpt>
      <trkpt lat="48.77484" lon="1.70498">
        <ele>129.60000610352</ele>
        <time>2015-07-21T09:22:24.000Z</time>
      </trkpt>
      <trkpt lat="48.77487" lon="1.70492">
        <ele>129.60000610352</ele>
        <time>2015-07-21T09:22:28.000Z</time>
      </trkpt>
      <trkpt lat="48.77487" lon="1.7049">
        <ele>129.80000305176</ele>
        <time>2015-07-21T09:22:29.000Z</time>
      </trkpt>
      <trkpt lat="48.77492" lon="1.70479">
        <ele>129.80000305176</ele>
        <time>2015-07-21T09:22:35.000Z</time>
      </trkpt>
      <trkpt lat="48.77496" lon="1.70474">
        <ele>129.80000305176</ele>
        <time>2015-07-21T09:22:39.000Z</time>
      </trkpt>
      <trkpt lat="48.77501" lon="1.70465">
        <ele>129.80000305176</ele>
        <time>2015-07-21T09:22:44.000Z</time>
      </trkpt>
      <trkpt lat="48.77504" lon="1.70458">
        <ele>129.80000305176</ele>
        <time>2015-07-21T09:22:48.000Z</time>
      </trkpt>
      <trkpt lat="48.77506" lon="1.70457">
        <ele>129.80000305176</ele>
        <time>2015-07-21T09:22:49.000Z</time>
      </trkpt>
      <trkpt lat="48.77506" lon="1.70455">
        <ele>130</ele>
        <time>2015-07-21T09:22:50.000Z</time>
      </trkpt>
      <trkpt lat="48.77508" lon="1.7045">
        <ele>130</ele>
        <time>2015-07-21T09:22:54.000Z</time>
      </trkpt>
      <trkpt lat="48.77512" lon="1.70442">
        <ele>130</ele>
        <time>2015-07-21T09:22:59.000Z</time>
      </trkpt>
      <trkpt lat="48.77517" lon="1.70433">
        <ele>130.19999694824</ele>
        <time>2015-07-21T09:23:04.000Z</time>
      </trkpt>
      <trkpt lat="48.77519" lon="1.70429">
        <ele>130.19999694824</ele>
        <time>2015-07-21T09:23:06.000Z</time>
      </trkpt>
      <trkpt lat="48.77524" lon="1.7042">
        <ele>130.19999694824</ele>
        <time>2015-07-21T09:23:11.000Z</time>
      </trkpt>
      <trkpt lat="48.77525" lon="1.70415">
        <ele>130.19999694824</ele>
        <time>2015-07-21T09:23:13.000Z</time>
      </trkpt>
      <trkpt lat="48.77527" lon="1.70409">
        <ele>130.19999694824</ele>
        <time>2015-07-21T09:23:16.000Z</time>
      </trkpt>
      <trkpt lat="48.77528" lon="1.704">
        <ele>130.19999694824</ele>
        <time>2015-07-21T09:23:21.000Z</time>
      </trkpt>
      <trkpt lat="48.77533" lon="1.70394">
        <ele>130.19999694824</ele>
        <time>2015-07-21T09:23:27.000Z</time>
      </trkpt>
      <trkpt lat="48.77536" lon="1.70388">
        <ele>130.19999694824</ele>
        <time>2015-07-21T09:23:31.000Z</time>
      </trkpt>
      <trkpt lat="48.77542" lon="1.70381">
        <ele>130.19999694824</ele>
        <time>2015-07-21T09:23:37.000Z</time>
      </trkpt>
      <trkpt lat="48.77546" lon="1.70375">
        <ele>130.19999694824</ele>
        <time>2015-07-21T09:23:42.000Z</time>
      </trkpt>
      <trkpt lat="48.77548" lon="1.70371">
        <ele>130.19999694824</ele>
        <time>2015-07-21T09:23:45.000Z</time>
      </trkpt>
      <trkpt lat="48.77553" lon="1.70361">
        <ele>130</ele>
        <time>2015-07-21T09:23:51.000Z</time>
      </trkpt>
      <trkpt lat="48.77556" lon="1.70352">
        <ele>130</ele>
        <time>2015-07-21T09:23:56.000Z</time>
      </trkpt>
      <trkpt lat="48.77563" lon="1.70345">
        <ele>130.60000610352</ele>
        <time>2015-07-21T09:24:01.000Z</time>
      </trkpt>
      <trkpt lat="48.77566" lon="1.70334">
        <ele>130.80000305176</ele>
        <time>2015-07-21T09:24:06.000Z</time>
      </trkpt>
      <trkpt lat="48.77568" lon="1.70323">
        <ele>131</ele>
        <time>2015-07-21T09:24:12.000Z</time>
      </trkpt>
      <trkpt lat="48.77572" lon="1.70313">
        <ele>131</ele>
        <time>2015-07-21T09:24:18.000Z</time>
      </trkpt>
      <trkpt lat="48.77575" lon="1.70304">
        <ele>131.19999694824</ele>
        <time>2015-07-21T09:24:22.000Z</time>
      </trkpt>
      <trkpt lat="48.77575" lon="1.70302">
        <ele>131</ele>
        <time>2015-07-21T09:24:24.000Z</time>
      </trkpt>
      <trkpt lat="48.77579" lon="1.70295">
        <ele>131.19999694824</ele>
        <time>2015-07-21T09:24:28.000Z</time>
      </trkpt>
      <trkpt lat="48.77582" lon="1.70291">
        <ele>131.39999389648</ele>
        <time>2015-07-21T09:24:31.000Z</time>
      </trkpt>
      <trkpt lat="48.77584" lon="1.70287">
        <ele>131.39999389648</ele>
        <time>2015-07-21T09:24:33.000Z</time>
      </trkpt>
      <trkpt lat="48.77587" lon="1.70281">
        <ele>131.39999389648</ele>
        <time>2015-07-21T09:24:37.000Z</time>
      </trkpt>
      <trkpt lat="48.77588" lon="1.70279">
        <ele>131.19999694824</ele>
        <time>2015-07-21T09:24:38.000Z</time>
      </trkpt>
      <trkpt lat="48.7759" lon="1.70274">
        <ele>131.19999694824</ele>
        <time>2015-07-21T09:24:41.000Z</time>
      </trkpt>
      <trkpt lat="48.7759" lon="1.70272">
        <ele>131.19999694824</ele>
        <time>2015-07-21T09:24:42.000Z</time>
      </trkpt>
      <trkpt lat="48.77591" lon="1.70269">
        <ele>131.19999694824</ele>
        <time>2015-07-21T09:24:44.000Z</time>
      </trkpt>
      <trkpt lat="48.77596" lon="1.70262">
        <ele>131.19999694824</ele>
        <time>2015-07-21T09:24:49.000Z</time>
      </trkpt>
      <trkpt lat="48.77597" lon="1.70257">
        <ele>131.19999694824</ele>
        <time>2015-07-21T09:24:52.000Z</time>
      </trkpt>
      <trkpt lat="48.77602" lon="1.70249">
        <ele>131.19999694824</ele>
        <time>2015-07-21T09:24:57.000Z</time>
      </trkpt>
      <trkpt lat="48.77605" lon="1.70242">
        <ele>131.19999694824</ele>
        <time>2015-07-21T09:25:02.000Z</time>
      </trkpt>
      <trkpt lat="48.77612" lon="1.70232">
        <ele>131</ele>
        <time>2015-07-21T09:25:09.000Z</time>
      </trkpt>
      <trkpt lat="48.77613" lon="1.70228">
        <ele>131</ele>
        <time>2015-07-21T09:25:11.000Z</time>
      </trkpt>
      <trkpt lat="48.77613" lon="1.70226">
        <ele>131.19999694824</ele>
        <time>2015-07-21T09:25:14.000Z</time>
      </trkpt>
      <trkpt lat="48.77629" lon="1.70221">
        <ele>131.19999694824</ele>
        <time>2015-07-21T09:25:28.000Z</time>
      </trkpt>
      <trkpt lat="48.77635" lon="1.70216">
        <ele>131.39999389648</ele>
        <time>2015-07-21T09:25:31.000Z</time>
      </trkpt>
      <trkpt lat="48.77636" lon="1.70215">
        <ele>131.39999389648</ele>
        <time>2015-07-21T09:25:32.000Z</time>
      </trkpt>
      <trkpt lat="48.77639" lon="1.70212">
        <ele>131.39999389648</ele>
        <time>2015-07-21T09:25:36.000Z</time>
      </trkpt>
      <trkpt lat="48.7764" lon="1.70211">
        <ele>131.39999389648</ele>
        <time>2015-07-21T09:25:37.000Z</time>
      </trkpt>
      <trkpt lat="48.7764" lon="1.70206">
        <ele>131.39999389648</ele>
        <time>2015-07-21T09:25:41.000Z</time>
      </trkpt>
      <trkpt lat="48.77641" lon="1.70204">
        <ele>131.39999389648</ele>
        <time>2015-07-21T09:25:42.000Z</time>
      </trkpt>
      <trkpt lat="48.77638" lon="1.70193">
        <ele>131.39999389648</ele>
        <time>2015-07-21T09:25:49.000Z</time>
      </trkpt>
      <trkpt lat="48.77637" lon="1.70184">
        <ele>131.39999389648</ele>
        <time>2015-07-21T09:25:55.000Z</time>
      </trkpt>
      <trkpt lat="48.77636" lon="1.70172">
        <ele>130.80000305176</ele>
        <time>2015-07-21T09:26:01.000Z</time>
      </trkpt>
      <trkpt lat="48.77633" lon="1.7016">
        <ele>130.39999389648</ele>
        <time>2015-07-21T09:26:07.000Z</time>
      </trkpt>
      <trkpt lat="48.77631" lon="1.70153">
        <ele>130</ele>
        <time>2015-07-21T09:26:11.000Z</time>
      </trkpt>
      <trkpt lat="48.7763" lon="1.70141">
        <ele>129.19999694824</ele>
        <time>2015-07-21T09:26:16.000Z</time>
      </trkpt>
      <trkpt lat="48.77626" lon="1.70127">
        <ele>128.39999389648</ele>
        <time>2015-07-21T09:26:23.000Z</time>
      </trkpt>
      <trkpt lat="48.77624" lon="1.70121">
        <ele>128</ele>
        <time>2015-07-21T09:26:26.000Z</time>
      </trkpt>
      <trkpt lat="48.77623" lon="1.70116">
        <ele>127.59999847412</ele>
        <time>2015-07-21T09:26:29.000Z</time>
      </trkpt>
      <trkpt lat="48.77622" lon="1.70113">
        <ele>127.40000152588</ele>
        <time>2015-07-21T09:26:31.000Z</time>
      </trkpt>
      <trkpt lat="48.77621" lon="1.70109">
        <ele>127.19999694824</ele>
        <time>2015-07-21T09:26:34.000Z</time>
      </trkpt>
      <trkpt lat="48.7762" lon="1.70101">
        <ele>126.59999847412</ele>
        <time>2015-07-21T09:26:39.000Z</time>
      </trkpt>
      <trkpt lat="48.77618" lon="1.70094">
        <ele>126.19999694824</ele>
        <time>2015-07-21T09:26:42.000Z</time>
      </trkpt>
      <trkpt lat="48.77618" lon="1.70088">
        <ele>125.80000305176</ele>
        <time>2015-07-21T09:26:45.000Z</time>
      </trkpt>
      <trkpt lat="48.77617" lon="1.70076">
        <ele>124.80000305176</ele>
        <time>2015-07-21T09:26:50.000Z</time>
      </trkpt>
      <trkpt lat="48.77616" lon="1.70074">
        <ele>124.59999847412</ele>
        <time>2015-07-21T09:26:51.000Z</time>
      </trkpt>
      <trkpt lat="48.77617" lon="1.70067">
        <ele>124</ele>
        <time>2015-07-21T09:26:55.000Z</time>
      </trkpt>
      <trkpt lat="48.77619" lon="1.70056">
        <ele>123.19999694824</ele>
        <time>2015-07-21T09:27:01.000Z</time>
      </trkpt>
      <trkpt lat="48.77623" lon="1.70051">
        <ele>122.80000305176</ele>
        <time>2015-07-21T09:27:05.000Z</time>
      </trkpt>
      <trkpt lat="48.77624" lon="1.70047">
        <ele>122.40000152588</ele>
        <time>2015-07-21T09:27:07.000Z</time>
      </trkpt>
      <trkpt lat="48.77628" lon="1.7004">
        <ele>121.80000305176</ele>
        <time>2015-07-21T09:27:11.000Z</time>
      </trkpt>
      <trkpt lat="48.77629" lon="1.70038">
        <ele>121.80000305176</ele>
        <time>2015-07-21T09:27:12.000Z</time>
      </trkpt>
      <trkpt lat="48.7763" lon="1.70033">
        <ele>121.40000152588</ele>
        <time>2015-07-21T09:27:16.000Z</time>
      </trkpt>
      <trkpt lat="48.77634" lon="1.70023">
        <ele>120.59999847412</ele>
        <time>2015-07-21T09:27:23.000Z</time>
      </trkpt>
      <trkpt lat="48.77639" lon="1.70015">
        <ele>120</ele>
        <time>2015-07-21T09:27:28.000Z</time>
      </trkpt>
      <trkpt lat="48.7764" lon="1.70011">
        <ele>119.80000305176</ele>
        <time>2015-07-21T09:27:31.000Z</time>
      </trkpt>
      <trkpt lat="48.77641" lon="1.7001">
        <ele>119.80000305176</ele>
        <time>2015-07-21T09:27:32.000Z</time>
      </trkpt>
      <trkpt lat="48.77642" lon="1.70008">
        <ele>119.80000305176</ele>
        <time>2015-07-21T09:27:34.000Z</time>
      </trkpt>
      <trkpt lat="48.77645" lon="1.70005">
        <ele>119.40000152588</ele>
        <time>2015-07-21T09:27:36.000Z</time>
      </trkpt>
      <trkpt lat="48.77647" lon="1.70003">
        <ele>119.40000152588</ele>
        <time>2015-07-21T09:27:38.000Z</time>
      </trkpt>
      <trkpt lat="48.77654" lon="1.69994">
        <ele>118.80000305176</ele>
        <time>2015-07-21T09:27:44.000Z</time>
      </trkpt>
      <trkpt lat="48.77658" lon="1.69987">
        <ele>118.40000152588</ele>
        <time>2015-07-21T09:27:48.000Z</time>
      </trkpt>
      <trkpt lat="48.77658" lon="1.69984">
        <ele>118.40000152588</ele>
        <time>2015-07-21T09:27:50.000Z</time>
      </trkpt>
      <trkpt lat="48.77661" lon="1.69978">
        <ele>118</ele>
        <time>2015-07-21T09:27:54.000Z</time>
      </trkpt>
      <trkpt lat="48.77665" lon="1.6997">
        <ele>117.40000152588</ele>
        <time>2015-07-21T09:27:59.000Z</time>
      </trkpt>
      <trkpt lat="48.77666" lon="1.69969">
        <ele>117.40000152588</ele>
        <time>2015-07-21T09:28:00.000Z</time>
      </trkpt>
      <trkpt lat="48.77669" lon="1.69963">
        <ele>117.19999694824</ele>
        <time>2015-07-21T09:28:04.000Z</time>
      </trkpt>
      <trkpt lat="48.7767" lon="1.6996">
        <ele>117.19999694824</ele>
        <time>2015-07-21T09:28:06.000Z</time>
      </trkpt>
      <trkpt lat="48.77672" lon="1.69955">
        <ele>117</ele>
        <time>2015-07-21T09:28:10.000Z</time>
      </trkpt>
      <trkpt lat="48.77673" lon="1.69955">
        <ele>117</ele>
        <time>2015-07-21T09:28:11.000Z</time>
      </trkpt>
      <trkpt lat="48.77675" lon="1.69954">
        <ele>117</ele>
        <time>2015-07-21T09:28:12.000Z</time>
      </trkpt>
      <trkpt lat="48.77678" lon="1.69949">
        <ele>116.80000305176</ele>
        <time>2015-07-21T09:28:15.000Z</time>
      </trkpt>
      <trkpt lat="48.7768" lon="1.69948">
        <ele>116.80000305176</ele>
        <time>2015-07-21T09:28:19.000Z</time>
      </trkpt>
      <trkpt lat="48.77694" lon="1.69925">
        <ele>115.80000305176</ele>
        <time>2015-07-21T09:28:37.000Z</time>
      </trkpt>
      <trkpt lat="48.77695" lon="1.69924">
        <ele>115.59999847412</ele>
        <time>2015-07-21T09:28:38.000Z</time>
      </trkpt>
      <trkpt lat="48.77699" lon="1.69917">
        <ele>115</ele>
        <time>2015-07-21T09:28:42.000Z</time>
      </trkpt>
      <trkpt lat="48.77705" lon="1.69907">
        <ele>114.59999847412</ele>
        <time>2015-07-21T09:28:48.000Z</time>
      </trkpt>
      <trkpt lat="48.77708" lon="1.69903">
        <ele>114.59999847412</ele>
        <time>2015-07-21T09:28:51.000Z</time>
      </trkpt>
      <trkpt lat="48.77709" lon="1.69901">
        <ele>114.59999847412</ele>
        <time>2015-07-21T09:28:52.000Z</time>
      </trkpt>
      <trkpt lat="48.7771" lon="1.69897">
        <ele>114.59999847412</ele>
        <time>2015-07-21T09:28:55.000Z</time>
      </trkpt>
      <trkpt lat="48.77709" lon="1.69895">
        <ele>114.59999847412</ele>
        <time>2015-07-21T09:28:57.000Z</time>
      </trkpt>
      <trkpt lat="48.7771" lon="1.69895">
        <ele>114.40000152588</ele>
        <time>2015-07-21T09:28:58.000Z</time>
      </trkpt>
      <trkpt lat="48.77712" lon="1.69894">
        <ele>114.40000152588</ele>
        <time>2015-07-21T09:28:59.000Z</time>
      </trkpt>
      <trkpt lat="48.77718" lon="1.69885">
        <ele>114</ele>
        <time>2015-07-21T09:29:04.000Z</time>
      </trkpt>
      <trkpt lat="48.77721" lon="1.69881">
        <ele>113.80000305176</ele>
        <time>2015-07-21T09:29:07.000Z</time>
      </trkpt>
      <trkpt lat="48.77722" lon="1.69878">
        <ele>113.80000305176</ele>
        <time>2015-07-21T09:29:09.000Z</time>
      </trkpt>
      <trkpt lat="48.77723" lon="1.69876">
        <ele>113.80000305176</ele>
        <time>2015-07-21T09:29:10.000Z</time>
      </trkpt>
      <trkpt lat="48.77725" lon="1.69873">
        <ele>113.80000305176</ele>
        <time>2015-07-21T09:29:12.000Z</time>
      </trkpt>
      <trkpt lat="48.77728" lon="1.6987">
        <ele>113.59999847412</ele>
        <time>2015-07-21T09:29:15.000Z</time>
      </trkpt>
      <trkpt lat="48.77728" lon="1.69868">
        <ele>113.59999847412</ele>
        <time>2015-07-21T09:29:16.000Z</time>
      </trkpt>
      <trkpt lat="48.77734" lon="1.6986">
        <ele>113.40000152588</ele>
        <time>2015-07-21T09:29:21.000Z</time>
      </trkpt>
      <trkpt lat="48.77735" lon="1.69859">
        <ele>113.40000152588</ele>
        <time>2015-07-21T09:29:22.000Z</time>
      </trkpt>
      <trkpt lat="48.77738" lon="1.69856">
        <ele>113.40000152588</ele>
        <time>2015-07-21T09:29:24.000Z</time>
      </trkpt>
      <trkpt lat="48.77742" lon="1.69849">
        <ele>113.40000152588</ele>
        <time>2015-07-21T09:29:28.000Z</time>
      </trkpt>
      <trkpt lat="48.77748" lon="1.6984">
        <ele>113.40000152588</ele>
        <time>2015-07-21T09:29:33.000Z</time>
      </trkpt>
      <trkpt lat="48.77752" lon="1.69833">
        <ele>113.40000152588</ele>
        <time>2015-07-21T09:29:37.000Z</time>
      </trkpt>
      <trkpt lat="48.77759" lon="1.69828">
        <ele>113.40000152588</ele>
        <time>2015-07-21T09:29:42.000Z</time>
      </trkpt>
      <trkpt lat="48.77765" lon="1.69819">
        <ele>113.40000152588</ele>
        <time>2015-07-21T09:29:48.000Z</time>
      </trkpt>
      <trkpt lat="48.77772" lon="1.6981">
        <ele>113.40000152588</ele>
        <time>2015-07-21T09:29:54.000Z</time>
      </trkpt>
      <trkpt lat="48.77776" lon="1.69804">
        <ele>113.40000152588</ele>
        <time>2015-07-21T09:29:58.000Z</time>
      </trkpt>
      <trkpt lat="48.77776" lon="1.69802">
        <ele>113.59999847412</ele>
        <time>2015-07-21T09:29:59.000Z</time>
      </trkpt>
      <trkpt lat="48.77778" lon="1.69798">
        <ele>113.59999847412</ele>
        <time>2015-07-21T09:30:01.000Z</time>
      </trkpt>
      <trkpt lat="48.77781" lon="1.69789">
        <ele>113.80000305176</ele>
        <time>2015-07-21T09:30:05.000Z</time>
      </trkpt>
      <trkpt lat="48.77784" lon="1.69783">
        <ele>114</ele>
        <time>2015-07-21T09:30:08.000Z</time>
      </trkpt>
      <trkpt lat="48.77788" lon="1.69772">
        <ele>114.40000152588</ele>
        <time>2015-07-21T09:30:13.000Z</time>
      </trkpt>
      <trkpt lat="48.77796" lon="1.69757">
        <ele>114.59999847412</ele>
        <time>2015-07-21T09:30:21.000Z</time>
      </trkpt>
      <trkpt lat="48.77803" lon="1.69745">
        <ele>115</ele>
        <time>2015-07-21T09:30:28.000Z</time>
      </trkpt>
      <trkpt lat="48.77803" lon="1.69743">
        <ele>115</ele>
        <time>2015-07-21T09:30:29.000Z</time>
      </trkpt>
      <trkpt lat="48.77806" lon="1.69736">
        <ele>115.19999694824</ele>
        <time>2015-07-21T09:30:33.000Z</time>
      </trkpt>
      <trkpt lat="48.77807" lon="1.69734">
        <ele>115.19999694824</ele>
        <time>2015-07-21T09:30:34.000Z</time>
      </trkpt>
      <trkpt lat="48.77812" lon="1.6972">
        <ele>114.80000305176</ele>
        <time>2015-07-21T09:30:42.000Z</time>
      </trkpt>
      <trkpt lat="48.7782" lon="1.69698">
        <ele>114.59999847412</ele>
        <time>2015-07-21T09:30:54.000Z</time>
      </trkpt>
      <trkpt lat="48.77829" lon="1.69675">
        <ele>115.19999694824</ele>
        <time>2015-07-21T09:31:07.000Z</time>
      </trkpt>
      <trkpt lat="48.77835" lon="1.69661">
        <ele>115.59999847412</ele>
        <time>2015-07-21T09:31:15.000Z</time>
      </trkpt>
      <trkpt lat="48.7784" lon="1.6965">
        <ele>115.80000305176</ele>
        <time>2015-07-21T09:31:21.000Z</time>
      </trkpt>
      <trkpt lat="48.7785" lon="1.69635">
        <ele>115.80000305176</ele>
        <time>2015-07-21T09:31:30.000Z</time>
      </trkpt>
      <trkpt lat="48.7785" lon="1.69634">
        <ele>115.80000305176</ele>
        <time>2015-07-21T09:31:31.000Z</time>
      </trkpt>
      <trkpt lat="48.77854" lon="1.69626">
        <ele>116</ele>
        <time>2015-07-21T09:31:35.000Z</time>
      </trkpt>
      <trkpt lat="48.77855" lon="1.69624">
        <ele>116</ele>
        <time>2015-07-21T09:31:37.000Z</time>
      </trkpt>
      <trkpt lat="48.77857" lon="1.6962">
        <ele>116</ele>
        <time>2015-07-21T09:31:39.000Z</time>
      </trkpt>
      <trkpt lat="48.77859" lon="1.69618">
        <ele>116</ele>
        <time>2015-07-21T09:31:42.000Z</time>
      </trkpt>
      <trkpt lat="48.77859" lon="1.69618">
        <ele>116</ele>
        <time>2015-07-21T09:31:43.000Z</time>
      </trkpt>
      <trkpt lat="48.77864" lon="1.69609">
        <ele>115.80000305176</ele>
        <time>2015-07-21T09:31:58.000Z</time>
      </trkpt>
      <trkpt lat="48.7787" lon="1.69598">
        <ele>115.80000305176</ele>
        <time>2015-07-21T09:32:05.000Z</time>
      </trkpt>
      <trkpt lat="48.77877" lon="1.69589">
        <ele>115.80000305176</ele>
        <time>2015-07-21T09:32:12.000Z</time>
      </trkpt>
      <trkpt lat="48.77882" lon="1.69582">
        <ele>115.80000305176</ele>
        <time>2015-07-21T09:32:17.000Z</time>
      </trkpt>
      <trkpt lat="48.77884" lon="1.69576">
        <ele>116</ele>
        <time>2015-07-21T09:32:21.000Z</time>
      </trkpt>
      <trkpt lat="48.7789" lon="1.69559">
        <ele>116</ele>
        <time>2015-07-21T09:32:31.000Z</time>
      </trkpt>
      <trkpt lat="48.77895" lon="1.69552">
        <ele>116</ele>
        <time>2015-07-21T09:32:36.000Z</time>
      </trkpt>
      <trkpt lat="48.77897" lon="1.69551">
        <ele>116</ele>
        <time>2015-07-21T09:32:38.000Z</time>
      </trkpt>
      <trkpt lat="48.77898" lon="1.69549">
        <ele>116</ele>
        <time>2015-07-21T09:32:39.000Z</time>
      </trkpt>
      <trkpt lat="48.77901" lon="1.69544">
        <ele>116</ele>
        <time>2015-07-21T09:32:42.000Z</time>
      </trkpt>
      <trkpt lat="48.77906" lon="1.69536">
        <ele>116</ele>
        <time>2015-07-21T09:32:47.000Z</time>
      </trkpt>
      <trkpt lat="48.77912" lon="1.69528">
        <ele>116.40000152588</ele>
        <time>2015-07-21T09:32:54.000Z</time>
      </trkpt>
      <trkpt lat="48.77914" lon="1.69525">
        <ele>116.40000152588</ele>
        <time>2015-07-21T09:32:57.000Z</time>
      </trkpt>
      <trkpt lat="48.77916" lon="1.69522">
        <ele>116.59999847412</ele>
        <time>2015-07-21T09:33:00.000Z</time>
      </trkpt>
      <trkpt lat="48.77921" lon="1.69514">
        <ele>117</ele>
        <time>2015-07-21T09:33:05.000Z</time>
      </trkpt>
      <trkpt lat="48.77928" lon="1.69504">
        <ele>117.40000152588</ele>
        <time>2015-07-21T09:33:11.000Z</time>
      </trkpt>
      <trkpt lat="48.77931" lon="1.69499">
        <ele>117.59999847412</ele>
        <time>2015-07-21T09:33:14.000Z</time>
      </trkpt>
      <trkpt lat="48.77935" lon="1.69493">
        <ele>117.80000305176</ele>
        <time>2015-07-21T09:33:18.000Z</time>
      </trkpt>
      <trkpt lat="48.77939" lon="1.69485">
        <ele>118</ele>
        <time>2015-07-21T09:33:24.000Z</time>
      </trkpt>
      <trkpt lat="48.77943" lon="1.69476">
        <ele>118.19999694824</ele>
        <time>2015-07-21T09:33:31.000Z</time>
      </trkpt>
      <trkpt lat="48.77947" lon="1.69467">
        <ele>118.40000152588</ele>
        <time>2015-07-21T09:33:37.000Z</time>
      </trkpt>
      <trkpt lat="48.77951" lon="1.69458">
        <ele>118.40000152588</ele>
        <time>2015-07-21T09:33:43.000Z</time>
      </trkpt>
      <trkpt lat="48.77957" lon="1.69446">
        <ele>118.80000305176</ele>
        <time>2015-07-21T09:33:50.000Z</time>
      </trkpt>
      <trkpt lat="48.77964" lon="1.69435">
        <ele>119</ele>
        <time>2015-07-21T09:33:58.000Z</time>
      </trkpt>
      <trkpt lat="48.77966" lon="1.69429">
        <ele>119</ele>
        <time>2015-07-21T09:34:01.000Z</time>
      </trkpt>
      <trkpt lat="48.77969" lon="1.69424">
        <ele>119.19999694824</ele>
        <time>2015-07-21T09:34:04.000Z</time>
      </trkpt>
      <trkpt lat="48.7797" lon="1.69418">
        <ele>119.40000152588</ele>
        <time>2015-07-21T09:34:07.000Z</time>
      </trkpt>
      <trkpt lat="48.77973" lon="1.69411">
        <ele>119.59999847412</ele>
        <time>2015-07-21T09:34:11.000Z</time>
      </trkpt>
      <trkpt lat="48.77976" lon="1.69402">
        <ele>120</ele>
        <time>2015-07-21T09:34:16.000Z</time>
      </trkpt>
      <trkpt lat="48.77976" lon="1.69399">
        <ele>120</ele>
        <time>2015-07-21T09:34:17.000Z</time>
      </trkpt>
      <trkpt lat="48.77977" lon="1.69394">
        <ele>120</ele>
        <time>2015-07-21T09:34:20.000Z</time>
      </trkpt>
      <trkpt lat="48.77978" lon="1.69393">
        <ele>120</ele>
        <time>2015-07-21T09:34:21.000Z</time>
      </trkpt>
      <trkpt lat="48.7798" lon="1.69389">
        <ele>120.19999694824</ele>
        <time>2015-07-21T09:34:23.000Z</time>
      </trkpt>
      <trkpt lat="48.77984" lon="1.69374">
        <ele>120.40000152588</ele>
        <time>2015-07-21T09:34:30.000Z</time>
      </trkpt>
      <trkpt lat="48.77988" lon="1.69363">
        <ele>120.80000305176</ele>
        <time>2015-07-21T09:34:36.000Z</time>
      </trkpt>
      <trkpt lat="48.77988" lon="1.6936">
        <ele>120.80000305176</ele>
        <time>2015-07-21T09:34:38.000Z</time>
      </trkpt>
      <trkpt lat="48.77989" lon="1.69359">
        <ele>121</ele>
        <time>2015-07-21T09:34:39.000Z</time>
      </trkpt>
      <trkpt lat="48.77991" lon="1.69357">
        <ele>121</ele>
        <time>2015-07-21T09:34:41.000Z</time>
      </trkpt>
      <trkpt lat="48.77992" lon="1.69351">
        <ele>121.19999694824</ele>
        <time>2015-07-21T09:34:44.000Z</time>
      </trkpt>
      <trkpt lat="48.77992" lon="1.69349">
        <ele>121.19999694824</ele>
        <time>2015-07-21T09:34:45.000Z</time>
      </trkpt>
      <trkpt lat="48.77992" lon="1.69348">
        <ele>121.19999694824</ele>
        <time>2015-07-21T09:34:46.000Z</time>
      </trkpt>
      <trkpt lat="48.77993" lon="1.69341">
        <ele>121.40000152588</ele>
        <time>2015-07-21T09:34:49.000Z</time>
      </trkpt>
      <trkpt lat="48.77994" lon="1.69337">
        <ele>121.59999847412</ele>
        <time>2015-07-21T09:34:51.000Z</time>
      </trkpt>
      <trkpt lat="48.77994" lon="1.69335">
        <ele>121.59999847412</ele>
        <time>2015-07-21T09:34:52.000Z</time>
      </trkpt>
      <trkpt lat="48.77995" lon="1.69325">
        <ele>122</ele>
        <time>2015-07-21T09:34:58.000Z</time>
      </trkpt>
      <trkpt lat="48.77996" lon="1.69323">
        <ele>122</ele>
        <time>2015-07-21T09:34:59.000Z</time>
      </trkpt>
      <trkpt lat="48.77996" lon="1.69318">
        <ele>122.19999694824</ele>
        <time>2015-07-21T09:35:02.000Z</time>
      </trkpt>
      <trkpt lat="48.77998" lon="1.69315">
        <ele>122.19999694824</ele>
        <time>2015-07-21T09:35:04.000Z</time>
      </trkpt>
      <trkpt lat="48.77999" lon="1.69309">
        <ele>122.40000152588</ele>
        <time>2015-07-21T09:35:07.000Z</time>
      </trkpt>
      <trkpt lat="48.78" lon="1.69305">
        <ele>122.40000152588</ele>
        <time>2015-07-21T09:35:09.000Z</time>
      </trkpt>
      <trkpt lat="48.78" lon="1.69303">
        <ele>122.40000152588</ele>
        <time>2015-07-21T09:35:10.000Z</time>
      </trkpt>
      <trkpt lat="48.78002" lon="1.69294">
        <ele>122.59999847412</ele>
        <time>2015-07-21T09:35:15.000Z</time>
      </trkpt>
      <trkpt lat="48.78005" lon="1.69286">
        <ele>122.80000305176</ele>
        <time>2015-07-21T09:35:19.000Z</time>
      </trkpt>
      <trkpt lat="48.78006" lon="1.69284">
        <ele>122.80000305176</ele>
        <time>2015-07-21T09:35:21.000Z</time>
      </trkpt>
      <trkpt lat="48.78009" lon="1.69273">
        <ele>123.19999694824</ele>
        <time>2015-07-21T09:35:27.000Z</time>
      </trkpt>
      <trkpt lat="48.78013" lon="1.69264">
        <ele>123.40000152588</ele>
        <time>2015-07-21T09:35:32.000Z</time>
      </trkpt>
      <trkpt lat="48.78014" lon="1.6926">
        <ele>123.40000152588</ele>
        <time>2015-07-21T09:35:34.000Z</time>
      </trkpt>
      <trkpt lat="48.78015" lon="1.69255">
        <ele>123.59999847412</ele>
        <time>2015-07-21T09:35:37.000Z</time>
      </trkpt>
      <trkpt lat="48.78016" lon="1.69249">
        <ele>123.59999847412</ele>
        <time>2015-07-21T09:35:40.000Z</time>
      </trkpt>
      <trkpt lat="48.78019" lon="1.69245">
        <ele>123.80000305176</ele>
        <time>2015-07-21T09:35:43.000Z</time>
      </trkpt>
      <trkpt lat="48.78021" lon="1.69238">
        <ele>124</ele>
        <time>2015-07-21T09:35:47.000Z</time>
      </trkpt>
      <trkpt lat="48.78023" lon="1.69234">
        <ele>124.19999694824</ele>
        <time>2015-07-21T09:35:50.000Z</time>
      </trkpt>
      <trkpt lat="48.78025" lon="1.69228">
        <ele>124.59999847412</ele>
        <time>2015-07-21T09:35:53.000Z</time>
      </trkpt>
      <trkpt lat="48.78029" lon="1.69216">
        <ele>125.40000152588</ele>
        <time>2015-07-21T09:36:00.000Z</time>
      </trkpt>
      <trkpt lat="48.7803" lon="1.69209">
        <ele>125.80000305176</ele>
        <time>2015-07-21T09:36:04.000Z</time>
      </trkpt>
      <trkpt lat="48.78032" lon="1.69204">
        <ele>126</ele>
        <time>2015-07-21T09:36:07.000Z</time>
      </trkpt>
      <trkpt lat="48.78034" lon="1.69198">
        <ele>126.40000152588</ele>
        <time>2015-07-21T09:36:11.000Z</time>
      </trkpt>
      <trkpt lat="48.78034" lon="1.69197">
        <ele>126.40000152588</ele>
        <time>2015-07-21T09:36:12.000Z</time>
      </trkpt>
      <trkpt lat="48.78036" lon="1.69193">
        <ele>126.80000305176</ele>
        <time>2015-07-21T09:36:15.000Z</time>
      </trkpt>
      <trkpt lat="48.78037" lon="1.69187">
        <ele>127.19999694824</ele>
        <time>2015-07-21T09:36:19.000Z</time>
      </trkpt>
      <trkpt lat="48.78043" lon="1.69182">
        <ele>127.59999847412</ele>
        <time>2015-07-21T09:36:24.000Z</time>
      </trkpt>
      <trkpt lat="48.78044" lon="1.69178">
        <ele>127.80000305176</ele>
        <time>2015-07-21T09:36:26.000Z</time>
      </trkpt>
      <trkpt lat="48.78046" lon="1.69176">
        <ele>128</ele>
        <time>2015-07-21T09:36:28.000Z</time>
      </trkpt>
      <trkpt lat="48.78053" lon="1.69167">
        <ele>128</ele>
        <time>2015-07-21T09:36:34.000Z</time>
      </trkpt>
      <trkpt lat="48.78061" lon="1.69153">
        <ele>128</ele>
        <time>2015-07-21T09:36:43.000Z</time>
      </trkpt>
      <trkpt lat="48.78066" lon="1.69144">
        <ele>128</ele>
        <time>2015-07-21T09:36:49.000Z</time>
      </trkpt>
      <trkpt lat="48.78074" lon="1.69132">
        <ele>128</ele>
        <time>2015-07-21T09:36:57.000Z</time>
      </trkpt>
      <trkpt lat="48.78077" lon="1.6912">
        <ele>128</ele>
        <time>2015-07-21T09:37:05.000Z</time>
      </trkpt>
      <trkpt lat="48.78079" lon="1.69114">
        <ele>128</ele>
        <time>2015-07-21T09:37:09.000Z</time>
      </trkpt>
      <trkpt lat="48.78083" lon="1.69111">
        <ele>128</ele>
        <time>2015-07-21T09:37:12.000Z</time>
      </trkpt>
      <trkpt lat="48.78089" lon="1.69104">
        <ele>128</ele>
        <time>2015-07-21T09:37:18.000Z</time>
      </trkpt>
      <trkpt lat="48.78097" lon="1.69098">
        <ele>128</ele>
        <time>2015-07-21T09:37:24.000Z</time>
      </trkpt>
      <trkpt lat="48.78104" lon="1.69089">
        <ele>128</ele>
        <time>2015-07-21T09:37:30.000Z</time>
      </trkpt>
      <trkpt lat="48.78105" lon="1.69088">
        <ele>128</ele>
        <time>2015-07-21T09:37:32.000Z</time>
      </trkpt>
      <trkpt lat="48.78109" lon="1.69084">
        <ele>128.19999694824</ele>
        <time>2015-07-21T09:37:35.000Z</time>
      </trkpt>
      <trkpt lat="48.78111" lon="1.69082">
        <ele>128.19999694824</ele>
        <time>2015-07-21T09:37:37.000Z</time>
      </trkpt>
      <trkpt lat="48.78112" lon="1.69081">
        <ele>128.19999694824</ele>
        <time>2015-07-21T09:37:39.000Z</time>
      </trkpt>
      <trkpt lat="48.78119" lon="1.69076">
        <ele>128.39999389648</ele>
        <time>2015-07-21T09:37:44.000Z</time>
      </trkpt>
      <trkpt lat="48.78125" lon="1.69073">
        <ele>128.60000610352</ele>
        <time>2015-07-21T09:37:49.000Z</time>
      </trkpt>
      <trkpt lat="48.78132" lon="1.69066">
        <ele>128.60000610352</ele>
        <time>2015-07-21T09:37:56.000Z</time>
      </trkpt>
      <trkpt lat="48.78134" lon="1.69065">
        <ele>128.60000610352</ele>
        <time>2015-07-21T09:37:57.000Z</time>
      </trkpt>
      <trkpt lat="48.78136" lon="1.69062">
        <ele>128.60000610352</ele>
        <time>2015-07-21T09:38:00.000Z</time>
      </trkpt>
      <trkpt lat="48.7814" lon="1.69058">
        <ele>128.60000610352</ele>
        <time>2015-07-21T09:38:04.000Z</time>
      </trkpt>
      <trkpt lat="48.78141" lon="1.69057">
        <ele>128.60000610352</ele>
        <time>2015-07-21T09:38:05.000Z</time>
      </trkpt>
      <trkpt lat="48.78147" lon="1.69054">
        <ele>128.60000610352</ele>
        <time>2015-07-21T09:38:10.000Z</time>
      </trkpt>
      <trkpt lat="48.7815" lon="1.6905">
        <ele>128.60000610352</ele>
        <time>2015-07-21T09:38:15.000Z</time>
      </trkpt>
      <trkpt lat="48.7815" lon="1.69049">
        <ele>128.60000610352</ele>
        <time>2015-07-21T09:38:16.000Z</time>
      </trkpt>
      <trkpt lat="48.78158" lon="1.69045">
        <ele>128.60000610352</ele>
        <time>2015-07-21T09:38:22.000Z</time>
      </trkpt>
      <trkpt lat="48.78164" lon="1.69042">
        <ele>129</ele>
        <time>2015-07-21T09:38:28.000Z</time>
      </trkpt>
      <trkpt lat="48.78172" lon="1.69039">
        <ele>129.39999389648</ele>
        <time>2015-07-21T09:38:33.000Z</time>
      </trkpt>
      <trkpt lat="48.78175" lon="1.69036">
        <ele>129.60000610352</ele>
        <time>2015-07-21T09:38:37.000Z</time>
      </trkpt>
      <trkpt lat="48.78177" lon="1.69035">
        <ele>129.80000305176</ele>
        <time>2015-07-21T09:38:39.000Z</time>
      </trkpt>
      <trkpt lat="48.78179" lon="1.69034">
        <ele>129.80000305176</ele>
        <time>2015-07-21T09:38:40.000Z</time>
      </trkpt>
      <trkpt lat="48.78182" lon="1.69032">
        <ele>130</ele>
        <time>2015-07-21T09:38:43.000Z</time>
      </trkpt>
      <trkpt lat="48.78183" lon="1.69032">
        <ele>130.19999694824</ele>
        <time>2015-07-21T09:38:44.000Z</time>
      </trkpt>
      <trkpt lat="48.78189" lon="1.69031">
        <ele>130.39999389648</ele>
        <time>2015-07-21T09:38:48.000Z</time>
      </trkpt>
      <trkpt lat="48.78199" lon="1.69028">
        <ele>130.80000305176</ele>
        <time>2015-07-21T09:38:54.000Z</time>
      </trkpt>
      <trkpt lat="48.7821" lon="1.6903">
        <ele>131</ele>
        <time>2015-07-21T09:39:01.000Z</time>
      </trkpt>
      <trkpt lat="48.78211" lon="1.69029">
        <ele>131</ele>
        <time>2015-07-21T09:39:02.000Z</time>
      </trkpt>
      <trkpt lat="48.78215" lon="1.69027">
        <ele>131.19999694824</ele>
        <time>2015-07-21T09:39:06.000Z</time>
      </trkpt>
      <trkpt lat="48.78221" lon="1.69022">
        <ele>131.39999389648</ele>
        <time>2015-07-21T09:39:11.000Z</time>
      </trkpt>
      <trkpt lat="48.78224" lon="1.69021">
        <ele>131.60000610352</ele>
        <time>2015-07-21T09:39:14.000Z</time>
      </trkpt>
      <trkpt lat="48.78226" lon="1.69018">
        <ele>131.60000610352</ele>
        <time>2015-07-21T09:39:16.000Z</time>
      </trkpt>
      <trkpt lat="48.78228" lon="1.69017">
        <ele>131.80000305176</ele>
        <time>2015-07-21T09:39:18.000Z</time>
      </trkpt>
      <trkpt lat="48.78232" lon="1.69014">
        <ele>132.19999694824</ele>
        <time>2015-07-21T09:39:20.000Z</time>
      </trkpt>
      <trkpt lat="48.78235" lon="1.6901">
        <ele>132.39999389648</ele>
        <time>2015-07-21T09:39:22.000Z</time>
      </trkpt>
      <trkpt lat="48.78238" lon="1.69007">
        <ele>132.60000610352</ele>
        <time>2015-07-21T09:39:24.000Z</time>
      </trkpt>
      <trkpt lat="48.78245" lon="1.68999">
        <ele>133.39999389648</ele>
        <time>2015-07-21T09:39:30.000Z</time>
      </trkpt>
      <trkpt lat="48.78247" lon="1.68996">
        <ele>133.39999389648</ele>
        <time>2015-07-21T09:39:32.000Z</time>
      </trkpt>
      <trkpt lat="48.7825" lon="1.68992">
        <ele>133.80000305176</ele>
        <time>2015-07-21T09:39:35.000Z</time>
      </trkpt>
      <trkpt lat="48.78252" lon="1.68987">
        <ele>134</ele>
        <time>2015-07-21T09:39:38.000Z</time>
      </trkpt>
      <trkpt lat="48.78252" lon="1.68985">
        <ele>134.19999694824</ele>
        <time>2015-07-21T09:39:40.000Z</time>
      </trkpt>
      <trkpt lat="48.78256" lon="1.6898">
        <ele>134.39999389648</ele>
        <time>2015-07-21T09:39:43.000Z</time>
      </trkpt>
      <trkpt lat="48.78258" lon="1.68978">
        <ele>134.60000610352</ele>
        <time>2015-07-21T09:39:44.000Z</time>
      </trkpt>
      <trkpt lat="48.7826" lon="1.68972">
        <ele>134.80000305176</ele>
        <time>2015-07-21T09:39:47.000Z</time>
      </trkpt>
      <trkpt lat="48.78263" lon="1.68969">
        <ele>135.19999694824</ele>
        <time>2015-07-21T09:39:49.000Z</time>
      </trkpt>
      <trkpt lat="48.78268" lon="1.68962">
        <ele>136</ele>
        <time>2015-07-21T09:39:54.000Z</time>
      </trkpt>
      <trkpt lat="48.78273" lon="1.68954">
        <ele>136.60000610352</ele>
        <time>2015-07-21T09:40:00.000Z</time>
      </trkpt>
      <trkpt lat="48.78278" lon="1.68947">
        <ele>137.19999694824</ele>
        <time>2015-07-21T09:40:05.000Z</time>
      </trkpt>
      <trkpt lat="48.78281" lon="1.68942">
        <ele>137.60000610352</ele>
        <time>2015-07-21T09:40:08.000Z</time>
      </trkpt>
      <trkpt lat="48.78283" lon="1.6894">
        <ele>137.80000305176</ele>
        <time>2015-07-21T09:40:10.000Z</time>
      </trkpt>
      <trkpt lat="48.7829" lon="1.68933">
        <ele>138.39999389648</ele>
        <time>2015-07-21T09:40:16.000Z</time>
      </trkpt>
      <trkpt lat="48.78293" lon="1.68929">
        <ele>138.80000305176</ele>
        <time>2015-07-21T09:40:19.000Z</time>
      </trkpt>
      <trkpt lat="48.78294" lon="1.68927">
        <ele>139</ele>
        <time>2015-07-21T09:40:21.000Z</time>
      </trkpt>
      <trkpt lat="48.78298" lon="1.6892">
        <ele>139.39999389648</ele>
        <time>2015-07-21T09:40:27.000Z</time>
      </trkpt>
      <trkpt lat="48.78299" lon="1.68919">
        <ele>139.39999389648</ele>
        <time>2015-07-21T09:40:28.000Z</time>
      </trkpt>
      <trkpt lat="48.78301" lon="1.68915">
        <ele>139.60000610352</ele>
        <time>2015-07-21T09:40:31.000Z</time>
      </trkpt>
      <trkpt lat="48.78302" lon="1.68914">
        <ele>139.80000305176</ele>
        <time>2015-07-21T09:40:32.000Z</time>
      </trkpt>
      <trkpt lat="48.78308" lon="1.68909">
        <ele>140</ele>
        <time>2015-07-21T09:40:36.000Z</time>
      </trkpt>
      <trkpt lat="48.78309" lon="1.68909">
        <ele>140.19999694824</ele>
        <time>2015-07-21T09:40:37.000Z</time>
      </trkpt>
      <trkpt lat="48.78314" lon="1.68905">
        <ele>140.39999389648</ele>
        <time>2015-07-21T09:40:40.000Z</time>
      </trkpt>
      <trkpt lat="48.78321" lon="1.689">
        <ele>140.80000305176</ele>
        <time>2015-07-21T09:40:46.000Z</time>
      </trkpt>
      <trkpt lat="48.78328" lon="1.68898">
        <ele>141</ele>
        <time>2015-07-21T09:40:51.000Z</time>
      </trkpt>
      <trkpt lat="48.7833" lon="1.68897">
        <ele>141.19999694824</ele>
        <time>2015-07-21T09:40:53.000Z</time>
      </trkpt>
      <trkpt lat="48.78331" lon="1.68896">
        <ele>141.19999694824</ele>
        <time>2015-07-21T09:40:54.000Z</time>
      </trkpt>
      <trkpt lat="48.78336" lon="1.68894">
        <ele>141.39999389648</ele>
        <time>2015-07-21T09:40:58.000Z</time>
      </trkpt>
      <trkpt lat="48.78341" lon="1.6889">
        <ele>141.60000610352</ele>
        <time>2015-07-21T09:41:03.000Z</time>
      </trkpt>
      <trkpt lat="48.7835" lon="1.68884">
        <ele>142</ele>
        <time>2015-07-21T09:41:09.000Z</time>
      </trkpt>
      <trkpt lat="48.78354" lon="1.68882">
        <ele>142.19999694824</ele>
        <time>2015-07-21T09:41:13.000Z</time>
      </trkpt>
      <trkpt lat="48.78355" lon="1.68881">
        <ele>142.19999694824</ele>
        <time>2015-07-21T09:41:14.000Z</time>
      </trkpt>
      <trkpt lat="48.78361" lon="1.68878">
        <ele>142.39999389648</ele>
        <time>2015-07-21T09:41:19.000Z</time>
      </trkpt>
      <trkpt lat="48.78369" lon="1.68877">
        <ele>142.39999389648</ele>
        <time>2015-07-21T09:41:25.000Z</time>
      </trkpt>
      <trkpt lat="48.78378" lon="1.68874">
        <ele>142.39999389648</ele>
        <time>2015-07-21T09:41:31.000Z</time>
      </trkpt>
      <trkpt lat="48.78397" lon="1.68871">
        <ele>142.39999389648</ele>
        <time>2015-07-21T09:41:43.000Z</time>
      </trkpt>
      <trkpt lat="48.78399" lon="1.68868">
        <ele>142.39999389648</ele>
        <time>2015-07-21T09:41:46.000Z</time>
      </trkpt>
      <trkpt lat="48.78404" lon="1.68867">
        <ele>142.39999389648</ele>
        <time>2015-07-21T09:41:48.000Z</time>
      </trkpt>
      <trkpt lat="48.78409" lon="1.68864">
        <ele>142.60000610352</ele>
        <time>2015-07-21T09:41:53.000Z</time>
      </trkpt>
      <trkpt lat="48.7841" lon="1.68864">
        <ele>142.60000610352</ele>
        <time>2015-07-21T09:41:54.000Z</time>
      </trkpt>
      <trkpt lat="48.78417" lon="1.68862">
        <ele>142.80000305176</ele>
        <time>2015-07-21T09:41:59.000Z</time>
      </trkpt>
      <trkpt lat="48.78424" lon="1.68859">
        <ele>142.80000305176</ele>
        <time>2015-07-21T09:42:04.000Z</time>
      </trkpt>
      <trkpt lat="48.78425" lon="1.68858">
        <ele>143</ele>
        <time>2015-07-21T09:42:05.000Z</time>
      </trkpt>
      <trkpt lat="48.78432" lon="1.68855">
        <ele>143</ele>
        <time>2015-07-21T09:42:12.000Z</time>
      </trkpt>
      <trkpt lat="48.78435" lon="1.68852">
        <ele>143.19999694824</ele>
        <time>2015-07-21T09:42:15.000Z</time>
      </trkpt>
      <trkpt lat="48.78438" lon="1.68851">
        <ele>143.19999694824</ele>
        <time>2015-07-21T09:42:17.000Z</time>
      </trkpt>
      <trkpt lat="48.78445" lon="1.68847">
        <ele>143.19999694824</ele>
        <time>2015-07-21T09:42:23.000Z</time>
      </trkpt>
      <trkpt lat="48.78448" lon="1.68846">
        <ele>143.19999694824</ele>
        <time>2015-07-21T09:42:27.000Z</time>
      </trkpt>
      <trkpt lat="48.78451" lon="1.68845">
        <ele>143.19999694824</ele>
        <time>2015-07-21T09:42:28.000Z</time>
      </trkpt>
      <trkpt lat="48.78452" lon="1.68844">
        <ele>143.19999694824</ele>
        <time>2015-07-21T09:42:29.000Z</time>
      </trkpt>
      <trkpt lat="48.78457" lon="1.68841">
        <ele>143.19999694824</ele>
        <time>2015-07-21T09:42:33.000Z</time>
      </trkpt>
      <trkpt lat="48.78461" lon="1.68839">
        <ele>143.19999694824</ele>
        <time>2015-07-21T09:42:36.000Z</time>
      </trkpt>
      <trkpt lat="48.78465" lon="1.68837">
        <ele>143</ele>
        <time>2015-07-21T09:42:39.000Z</time>
      </trkpt>
      <trkpt lat="48.78471" lon="1.68834">
        <ele>142.80000305176</ele>
        <time>2015-07-21T09:42:43.000Z</time>
      </trkpt>
      <trkpt lat="48.78474" lon="1.68832">
        <ele>142.80000305176</ele>
        <time>2015-07-21T09:42:45.000Z</time>
      </trkpt>
      <trkpt lat="48.78485" lon="1.68826">
        <ele>142.39999389648</ele>
        <time>2015-07-21T09:42:54.000Z</time>
      </trkpt>
      <trkpt lat="48.78493" lon="1.68822">
        <ele>142</ele>
        <time>2015-07-21T09:43:01.000Z</time>
      </trkpt>
      <trkpt lat="48.78503" lon="1.68817">
        <ele>141.80000305176</ele>
        <time>2015-07-21T09:43:08.000Z</time>
      </trkpt>
      <trkpt lat="48.78511" lon="1.68814">
        <ele>141.39999389648</ele>
        <time>2015-07-21T09:43:14.000Z</time>
      </trkpt>
      <trkpt lat="48.78515" lon="1.68813">
        <ele>141.19999694824</ele>
        <time>2015-07-21T09:43:18.000Z</time>
      </trkpt>
      <trkpt lat="48.78518" lon="1.68813">
        <ele>141.19999694824</ele>
        <time>2015-07-21T09:43:20.000Z</time>
      </trkpt>
      <trkpt lat="48.78519" lon="1.68811">
        <ele>141</ele>
        <time>2015-07-21T09:43:21.000Z</time>
      </trkpt>
      <trkpt lat="48.78522" lon="1.68806">
        <ele>140.80000305176</ele>
        <time>2015-07-21T09:43:24.000Z</time>
      </trkpt>
      <trkpt lat="48.78526" lon="1.688">
        <ele>140.39999389648</ele>
        <time>2015-07-21T09:43:29.000Z</time>
      </trkpt>
      <trkpt lat="48.78527" lon="1.68797">
        <ele>140.19999694824</ele>
        <time>2015-07-21T09:43:31.000Z</time>
      </trkpt>
      <trkpt lat="48.7853" lon="1.68794">
        <ele>139.80000305176</ele>
        <time>2015-07-21T09:43:34.000Z</time>
      </trkpt>
      <trkpt lat="48.78532" lon="1.68793">
        <ele>139.60000610352</ele>
        <time>2015-07-21T09:43:35.000Z</time>
      </trkpt>
      <trkpt lat="48.78541" lon="1.6879">
        <ele>138.80000305176</ele>
        <time>2015-07-21T09:43:41.000Z</time>
      </trkpt>
      <trkpt lat="48.78554" lon="1.6879">
        <ele>137.60000610352</ele>
        <time>2015-07-21T09:43:49.000Z</time>
      </trkpt>
      <trkpt lat="48.78561" lon="1.68784">
        <ele>136.80000305176</ele>
        <time>2015-07-21T09:43:55.000Z</time>
      </trkpt>
      <trkpt lat="48.78569" lon="1.68782">
        <ele>136</ele>
        <time>2015-07-21T09:44:01.000Z</time>
      </trkpt>
      <trkpt lat="48.78577" lon="1.6878">
        <ele>135.39999389648</ele>
        <time>2015-07-21T09:44:07.000Z</time>
      </trkpt>
      <trkpt lat="48.78587" lon="1.68775">
        <ele>134.39999389648</ele>
        <time>2015-07-21T09:44:14.000Z</time>
      </trkpt>
      <trkpt lat="48.78596" lon="1.6877">
        <ele>133.80000305176</ele>
        <time>2015-07-21T09:44:20.000Z</time>
      </trkpt>
      <trkpt lat="48.78604" lon="1.68768">
        <ele>133</ele>
        <time>2015-07-21T09:44:27.000Z</time>
      </trkpt>
      <trkpt lat="48.78607" lon="1.68765">
        <ele>132.80000305176</ele>
        <time>2015-07-21T09:44:29.000Z</time>
      </trkpt>
      <trkpt lat="48.78611" lon="1.68763">
        <ele>132.60000610352</ele>
        <time>2015-07-21T09:44:32.000Z</time>
      </trkpt>
      <trkpt lat="48.78615" lon="1.68761">
        <ele>132.39999389648</ele>
        <time>2015-07-21T09:44:35.000Z</time>
      </trkpt>
      <trkpt lat="48.78621" lon="1.68759">
        <ele>132</ele>
        <time>2015-07-21T09:44:39.000Z</time>
      </trkpt>
      <trkpt lat="48.78622" lon="1.68757">
        <ele>132</ele>
        <time>2015-07-21T09:44:40.000Z</time>
      </trkpt>
      <trkpt lat="48.78627" lon="1.68756">
        <ele>131.60000610352</ele>
        <time>2015-07-21T09:44:43.000Z</time>
      </trkpt>
      <trkpt lat="48.78634" lon="1.68755">
        <ele>131</ele>
        <time>2015-07-21T09:44:48.000Z</time>
      </trkpt>
      <trkpt lat="48.78636" lon="1.68754">
        <ele>130.80000305176</ele>
        <time>2015-07-21T09:44:50.000Z</time>
      </trkpt>
      <trkpt lat="48.78638" lon="1.68753">
        <ele>130.60000610352</ele>
        <time>2015-07-21T09:44:53.000Z</time>
      </trkpt>
      <trkpt lat="48.78638" lon="1.68753">
        <ele>130.60000610352</ele>
        <time>2015-07-21T09:44:54.000Z</time>
      </trkpt>
      <trkpt lat="48.78639" lon="1.68752">
        <ele>130.39999389648</ele>
        <time>2015-07-21T09:44:55.000Z</time>
      </trkpt>
      <trkpt lat="48.78639" lon="1.68752">
        <ele>130.39999389648</ele>
        <time>2015-07-21T09:44:57.000Z</time>
      </trkpt>
      <trkpt lat="48.78655" lon="1.68741">
        <ele>129</ele>
        <time>2015-07-21T09:45:14.000Z</time>
      </trkpt>
      <trkpt lat="48.78661" lon="1.6874">
        <ele>128.39999389648</ele>
        <time>2015-07-21T09:45:19.000Z</time>
      </trkpt>
      <trkpt lat="48.78671" lon="1.68735">
        <ele>127.40000152588</ele>
        <time>2015-07-21T09:45:27.000Z</time>
      </trkpt>
      <trkpt lat="48.78675" lon="1.68735">
        <ele>127</ele>
        <time>2015-07-21T09:45:30.000Z</time>
      </trkpt>
      <trkpt lat="48.78678" lon="1.68732">
        <ele>126.59999847412</ele>
        <time>2015-07-21T09:45:33.000Z</time>
      </trkpt>
      <trkpt lat="48.78681" lon="1.68731">
        <ele>126.40000152588</ele>
        <time>2015-07-21T09:45:35.000Z</time>
      </trkpt>
      <trkpt lat="48.78687" lon="1.68729">
        <ele>125.80000305176</ele>
        <time>2015-07-21T09:45:41.000Z</time>
      </trkpt>
      <trkpt lat="48.78696" lon="1.68725">
        <ele>125.40000152588</ele>
        <time>2015-07-21T09:45:47.000Z</time>
      </trkpt>
      <trkpt lat="48.78702" lon="1.68725">
        <ele>125.19999694824</ele>
        <time>2015-07-21T09:45:51.000Z</time>
      </trkpt>
      <trkpt lat="48.78707" lon="1.68723">
        <ele>125.19999694824</ele>
        <time>2015-07-21T09:45:54.000Z</time>
      </trkpt>
      <trkpt lat="48.78713" lon="1.68722">
        <ele>125</ele>
        <time>2015-07-21T09:45:59.000Z</time>
      </trkpt>
      <trkpt lat="48.78716" lon="1.6872">
        <ele>124.80000305176</ele>
        <time>2015-07-21T09:46:01.000Z</time>
      </trkpt>
      <trkpt lat="48.78718" lon="1.68719">
        <ele>124.80000305176</ele>
        <time>2015-07-21T09:46:03.000Z</time>
      </trkpt>
      <trkpt lat="48.78722" lon="1.68716">
        <ele>124.59999847412</ele>
        <time>2015-07-21T09:46:06.000Z</time>
      </trkpt>
      <trkpt lat="48.78727" lon="1.68714">
        <ele>124.40000152588</ele>
        <time>2015-07-21T09:46:10.000Z</time>
      </trkpt>
      <trkpt lat="48.78732" lon="1.68713">
        <ele>124.40000152588</ele>
        <time>2015-07-21T09:46:14.000Z</time>
      </trkpt>
      <trkpt lat="48.78745" lon="1.68706">
        <ele>124</ele>
        <time>2015-07-21T09:46:23.000Z</time>
      </trkpt>
      <trkpt lat="48.78753" lon="1.68702">
        <ele>124</ele>
        <time>2015-07-21T09:46:29.000Z</time>
      </trkpt>
      <trkpt lat="48.78754" lon="1.68701">
        <ele>124</ele>
        <time>2015-07-21T09:46:30.000Z</time>
      </trkpt>
      <trkpt lat="48.78759" lon="1.687">
        <ele>124</ele>
        <time>2015-07-21T09:46:34.000Z</time>
      </trkpt>
      <trkpt lat="48.7876" lon="1.68699">
        <ele>124</ele>
        <time>2015-07-21T09:46:35.000Z</time>
      </trkpt>
      <trkpt lat="48.78767" lon="1.68695">
        <ele>124</ele>
        <time>2015-07-21T09:46:42.000Z</time>
      </trkpt>
      <trkpt lat="48.78775" lon="1.68691">
        <ele>123.59999847412</ele>
        <time>2015-07-21T09:46:48.000Z</time>
      </trkpt>
      <trkpt lat="48.78776" lon="1.6869">
        <ele>123.59999847412</ele>
        <time>2015-07-21T09:46:49.000Z</time>
      </trkpt>
      <trkpt lat="48.7878" lon="1.68687">
        <ele>123.40000152588</ele>
        <time>2015-07-21T09:46:53.000Z</time>
      </trkpt>
      <trkpt lat="48.78782" lon="1.68686">
        <ele>123.19999694824</ele>
        <time>2015-07-21T09:46:54.000Z</time>
      </trkpt>
      <trkpt lat="48.78787" lon="1.68682">
        <ele>122.80000305176</ele>
        <time>2015-07-21T09:46:59.000Z</time>
      </trkpt>
      <trkpt lat="48.78797" lon="1.68677">
        <ele>122</ele>
        <time>2015-07-21T09:47:06.000Z</time>
      </trkpt>
      <trkpt lat="48.78806" lon="1.68672">
        <ele>121.80000305176</ele>
        <time>2015-07-21T09:47:13.000Z</time>
      </trkpt>
      <trkpt lat="48.78817" lon="1.68669">
        <ele>121.40000152588</ele>
        <time>2015-07-21T09:47:21.000Z</time>
      </trkpt>
      <trkpt lat="48.78825" lon="1.68665">
        <ele>121</ele>
        <time>2015-07-21T09:47:27.000Z</time>
      </trkpt>
      <trkpt lat="48.78835" lon="1.68659">
        <ele>120.80000305176</ele>
        <time>2015-07-21T09:47:35.000Z</time>
      </trkpt>
      <trkpt lat="48.78844" lon="1.68656">
        <ele>120.40000152588</ele>
        <time>2015-07-21T09:47:42.000Z</time>
      </trkpt>
      <trkpt lat="48.78851" lon="1.68653">
        <ele>120.19999694824</ele>
        <time>2015-07-21T09:47:48.000Z</time>
      </trkpt>
      <trkpt lat="48.78857" lon="1.68649">
        <ele>119.80000305176</ele>
        <time>2015-07-21T09:47:54.000Z</time>
      </trkpt>
      <trkpt lat="48.78863" lon="1.68645">
        <ele>119.80000305176</ele>
        <time>2015-07-21T09:48:00.000Z</time>
      </trkpt>
      <trkpt lat="48.78871" lon="1.68642">
        <ele>119.40000152588</ele>
        <time>2015-07-21T09:48:06.000Z</time>
      </trkpt>
      <trkpt lat="48.78878" lon="1.68638">
        <ele>119.19999694824</ele>
        <time>2015-07-21T09:48:11.000Z</time>
      </trkpt>
      <trkpt lat="48.78885" lon="1.68636">
        <ele>119</ele>
        <time>2015-07-21T09:48:16.000Z</time>
      </trkpt>
      <trkpt lat="48.78895" lon="1.68631">
        <ele>118.80000305176</ele>
        <time>2015-07-21T09:48:23.000Z</time>
      </trkpt>
      <trkpt lat="48.78898" lon="1.6863">
        <ele>118.59999847412</ele>
        <time>2015-07-21T09:48:26.000Z</time>
      </trkpt>
      <trkpt lat="48.78902" lon="1.68628">
        <ele>118.59999847412</ele>
        <time>2015-07-21T09:48:29.000Z</time>
      </trkpt>
      <trkpt lat="48.78912" lon="1.68623">
        <ele>118.19999694824</ele>
        <time>2015-07-21T09:48:36.000Z</time>
      </trkpt>
      <trkpt lat="48.78915" lon="1.6862">
        <ele>118.19999694824</ele>
        <time>2015-07-21T09:48:41.000Z</time>
      </trkpt>
      <trkpt lat="48.78918" lon="1.6862">
        <ele>118</ele>
        <time>2015-07-21T09:48:44.000Z</time>
      </trkpt>
      <trkpt lat="48.78918" lon="1.6862">
        <ele>118</ele>
        <time>2015-07-21T09:48:46.000Z</time>
      </trkpt>
      <trkpt lat="48.78919" lon="1.68619">
        <ele>118</ele>
        <time>2015-07-21T09:48:48.000Z</time>
      </trkpt>
      <trkpt lat="48.78935" lon="1.68612">
        <ele>117.59999847412</ele>
        <time>2015-07-21T09:49:05.000Z</time>
      </trkpt>
      <trkpt lat="48.78939" lon="1.68611">
        <ele>117.59999847412</ele>
        <time>2015-07-21T09:49:08.000Z</time>
      </trkpt>
      <trkpt lat="48.78947" lon="1.68608">
        <ele>117.80000305176</ele>
        <time>2015-07-21T09:49:14.000Z</time>
      </trkpt>
      <trkpt lat="48.78952" lon="1.68606">
        <ele>118</ele>
        <time>2015-07-21T09:49:18.000Z</time>
      </trkpt>
      <trkpt lat="48.78953" lon="1.68605">
        <ele>118</ele>
        <time>2015-07-21T09:49:19.000Z</time>
      </trkpt>
      <trkpt lat="48.78956" lon="1.68602">
        <ele>118</ele>
        <time>2015-07-21T09:49:22.000Z</time>
      </trkpt>
      <trkpt lat="48.78957" lon="1.68602">
        <ele>118</ele>
        <time>2015-07-21T09:49:23.000Z</time>
      </trkpt>
      <trkpt lat="48.7896" lon="1.686">
        <ele>118.19999694824</ele>
        <time>2015-07-21T09:49:26.000Z</time>
      </trkpt>
      <trkpt lat="48.78966" lon="1.68599">
        <ele>118.40000152588</ele>
        <time>2015-07-21T09:49:31.000Z</time>
      </trkpt>
      <trkpt lat="48.78967" lon="1.68599">
        <ele>118.40000152588</ele>
        <time>2015-07-21T09:49:32.000Z</time>
      </trkpt>
      <trkpt lat="48.78974" lon="1.68595">
        <ele>118.80000305176</ele>
        <time>2015-07-21T09:49:38.000Z</time>
      </trkpt>
      <trkpt lat="48.78984" lon="1.6859">
        <ele>119.59999847412</ele>
        <time>2015-07-21T09:49:45.000Z</time>
      </trkpt>
      <trkpt lat="48.78992" lon="1.68586">
        <ele>120</ele>
        <time>2015-07-21T09:49:52.000Z</time>
      </trkpt>
      <trkpt lat="48.79001" lon="1.6858">
        <ele>120.59999847412</ele>
        <time>2015-07-21T09:50:00.000Z</time>
      </trkpt>
      <trkpt lat="48.7901" lon="1.68575">
        <ele>121.19999694824</ele>
        <time>2015-07-21T09:50:08.000Z</time>
      </trkpt>
      <trkpt lat="48.79022" lon="1.68569">
        <ele>122</ele>
        <time>2015-07-21T09:50:16.000Z</time>
      </trkpt>
      <trkpt lat="48.79036" lon="1.68563">
        <ele>123</ele>
        <time>2015-07-21T09:50:26.000Z</time>
      </trkpt>
      <trkpt lat="48.79053" lon="1.68556">
        <ele>124</ele>
        <time>2015-07-21T09:50:38.000Z</time>
      </trkpt>
      <trkpt lat="48.79067" lon="1.6855">
        <ele>125</ele>
        <time>2015-07-21T09:50:50.000Z</time>
      </trkpt>
      <trkpt lat="48.79075" lon="1.68544">
        <ele>125.19999694824</ele>
        <time>2015-07-21T09:50:58.000Z</time>
      </trkpt>
      <trkpt lat="48.79085" lon="1.6854">
        <ele>126</ele>
        <time>2015-07-21T09:51:07.000Z</time>
      </trkpt>
      <trkpt lat="48.79095" lon="1.68537">
        <ele>126.80000305176</ele>
        <time>2015-07-21T09:51:15.000Z</time>
      </trkpt>
      <trkpt lat="48.79105" lon="1.68532">
        <ele>127.59999847412</ele>
        <time>2015-07-21T09:51:23.000Z</time>
      </trkpt>
      <trkpt lat="48.79116" lon="1.68527">
        <ele>127.80000305176</ele>
        <time>2015-07-21T09:51:31.000Z</time>
      </trkpt>
      <trkpt lat="48.79129" lon="1.68521">
        <ele>128</ele>
        <time>2015-07-21T09:51:42.000Z</time>
      </trkpt>
      <trkpt lat="48.79139" lon="1.68517">
        <ele>128.39999389648</ele>
        <time>2015-07-21T09:51:49.000Z</time>
      </trkpt>
      <trkpt lat="48.79148" lon="1.68512">
        <ele>128.39999389648</ele>
        <time>2015-07-21T09:51:58.000Z</time>
      </trkpt>
      <trkpt lat="48.7916" lon="1.68508">
        <ele>128.80000305176</ele>
        <time>2015-07-21T09:52:05.000Z</time>
      </trkpt>
      <trkpt lat="48.79167" lon="1.68508">
        <ele>129</ele>
        <time>2015-07-21T09:52:10.000Z</time>
      </trkpt>
      <trkpt lat="48.79177" lon="1.68511">
        <ele>129.39999389648</ele>
        <time>2015-07-21T09:52:18.000Z</time>
      </trkpt>
      <trkpt lat="48.79186" lon="1.68517">
        <ele>130</ele>
        <time>2015-07-21T09:52:25.000Z</time>
      </trkpt>
      <trkpt lat="48.79199" lon="1.68521">
        <ele>129.80000305176</ele>
        <time>2015-07-21T09:52:34.000Z</time>
      </trkpt>
      <trkpt lat="48.79209" lon="1.68519">
        <ele>129.39999389648</ele>
        <time>2015-07-21T09:52:42.000Z</time>
      </trkpt>
      <trkpt lat="48.79222" lon="1.68516">
        <ele>129</ele>
        <time>2015-07-21T09:52:52.000Z</time>
      </trkpt>
      <trkpt lat="48.7923" lon="1.68513">
        <ele>128.80000305176</ele>
        <time>2015-07-21T09:52:58.000Z</time>
      </trkpt>
      <trkpt lat="48.79235" lon="1.68509">
        <ele>128.80000305176</ele>
        <time>2015-07-21T09:53:02.000Z</time>
      </trkpt>
      <trkpt lat="48.79242" lon="1.68507">
        <ele>128.60000610352</ele>
        <time>2015-07-21T09:53:07.000Z</time>
      </trkpt>
      <trkpt lat="48.79248" lon="1.68504">
        <ele>128.39999389648</ele>
        <time>2015-07-21T09:53:12.000Z</time>
      </trkpt>
      <trkpt lat="48.79251" lon="1.68501">
        <ele>128.39999389648</ele>
        <time>2015-07-21T09:53:16.000Z</time>
      </trkpt>
      <trkpt lat="48.79255" lon="1.685">
        <ele>128.39999389648</ele>
        <time>2015-07-21T09:53:20.000Z</time>
      </trkpt>
      <trkpt lat="48.79257" lon="1.685">
        <ele>128.39999389648</ele>
        <time>2015-07-21T09:53:22.000Z</time>
      </trkpt>
      <trkpt lat="48.79267" lon="1.68495">
        <ele>128.19999694824</ele>
        <time>2015-07-21T09:53:29.000Z</time>
      </trkpt>
      <trkpt lat="48.79276" lon="1.68499">
        <ele>128.39999389648</ele>
        <time>2015-07-21T09:53:36.000Z</time>
      </trkpt>
      <trkpt lat="48.79279" lon="1.68503">
        <ele>128.60000610352</ele>
        <time>2015-07-21T09:53:39.000Z</time>
      </trkpt>
      <trkpt lat="48.79281" lon="1.68509">
        <ele>128.80000305176</ele>
        <time>2015-07-21T09:53:43.000Z</time>
      </trkpt>
      <trkpt lat="48.79283" lon="1.68511">
        <ele>128.80000305176</ele>
        <time>2015-07-21T09:53:44.000Z</time>
      </trkpt>
      <trkpt lat="48.79286" lon="1.68518">
        <ele>129</ele>
        <time>2015-07-21T09:53:48.000Z</time>
      </trkpt>
      <trkpt lat="48.79291" lon="1.68529">
        <ele>129.39999389648</ele>
        <time>2015-07-21T09:53:54.000Z</time>
      </trkpt>
      <trkpt lat="48.79293" lon="1.68532">
        <ele>129.60000610352</ele>
        <time>2015-07-21T09:53:56.000Z</time>
      </trkpt>
      <trkpt lat="48.79303" lon="1.68556">
        <ele>130.39999389648</ele>
        <time>2015-07-21T09:54:09.000Z</time>
      </trkpt>
      <trkpt lat="48.79308" lon="1.68565">
        <ele>130.60000610352</ele>
        <time>2015-07-21T09:54:15.000Z</time>
      </trkpt>
      <trkpt lat="48.79314" lon="1.68581">
        <ele>131</ele>
        <time>2015-07-21T09:54:23.000Z</time>
      </trkpt>
      <trkpt lat="48.79321" lon="1.68586">
        <ele>131.39999389648</ele>
        <time>2015-07-21T09:54:30.000Z</time>
      </trkpt>
      <trkpt lat="48.79323" lon="1.68585">
        <ele>131.39999389648</ele>
        <time>2015-07-21T09:54:32.000Z</time>
      </trkpt>
      <trkpt lat="48.79329" lon="1.68579">
        <ele>131.80000305176</ele>
        <time>2015-07-21T09:54:37.000Z</time>
      </trkpt>
      <trkpt lat="48.79339" lon="1.68563">
        <ele>132.19999694824</ele>
        <time>2015-07-21T09:54:47.000Z</time>
      </trkpt>
      <trkpt lat="48.79347" lon="1.68553">
        <ele>132.39999389648</ele>
        <time>2015-07-21T09:54:54.000Z</time>
      </trkpt>
      <trkpt lat="48.79356" lon="1.6854">
        <ele>132.39999389648</ele>
        <time>2015-07-21T09:55:03.000Z</time>
      </trkpt>
      <trkpt lat="48.79357" lon="1.68539">
        <ele>132.39999389648</ele>
        <time>2015-07-21T09:55:04.000Z</time>
      </trkpt>
      <trkpt lat="48.79361" lon="1.68536">
        <ele>132.39999389648</ele>
        <time>2015-07-21T09:55:08.000Z</time>
      </trkpt>
      <trkpt lat="48.79361" lon="1.68536">
        <ele>132.39999389648</ele>
        <time>2015-07-21T09:55:09.000Z</time>
      </trkpt>
      <trkpt lat="48.79362" lon="1.68529">
        <ele>132.19999694824</ele>
        <time>2015-07-21T09:55:24.000Z</time>
      </trkpt>
      <trkpt lat="48.79363" lon="1.68527">
        <ele>132.19999694824</ele>
        <time>2015-07-21T09:55:25.000Z</time>
      </trkpt>
      <trkpt lat="48.79369" lon="1.68519">
        <ele>132.19999694824</ele>
        <time>2015-07-21T09:55:31.000Z</time>
      </trkpt>
      <trkpt lat="48.79376" lon="1.68509">
        <ele>132.39999389648</ele>
        <time>2015-07-21T09:55:38.000Z</time>
      </trkpt>
      <trkpt lat="48.79377" lon="1.68508">
        <ele>132.39999389648</ele>
        <time>2015-07-21T09:55:39.000Z</time>
      </trkpt>
      <trkpt lat="48.79382" lon="1.68502">
        <ele>132.39999389648</ele>
        <time>2015-07-21T09:55:44.000Z</time>
      </trkpt>
      <trkpt lat="48.7939" lon="1.6849">
        <ele>132.39999389648</ele>
        <time>2015-07-21T09:55:52.000Z</time>
      </trkpt>
      <trkpt lat="48.79392" lon="1.68487">
        <ele>132.39999389648</ele>
        <time>2015-07-21T09:55:56.000Z</time>
      </trkpt>
      <trkpt lat="48.79406" lon="1.68468">
        <ele>132.19999694824</ele>
        <time>2015-07-21T09:56:36.000Z</time>
      </trkpt>
      <trkpt lat="48.79414" lon="1.68457">
        <ele>132</ele>
        <time>2015-07-21T09:56:44.000Z</time>
      </trkpt>
      <trkpt lat="48.79418" lon="1.68454">
        <ele>132</ele>
        <time>2015-07-21T09:56:47.000Z</time>
      </trkpt>
      <trkpt lat="48.7942" lon="1.6845">
        <ele>132</ele>
        <time>2015-07-21T09:56:50.000Z</time>
      </trkpt>
      <trkpt lat="48.79426" lon="1.68443">
        <ele>132</ele>
        <time>2015-07-21T09:56:56.000Z</time>
      </trkpt>
      <trkpt lat="48.7943" lon="1.68438">
        <ele>132</ele>
        <time>2015-07-21T09:56:59.000Z</time>
      </trkpt>
      <trkpt lat="48.79432" lon="1.68435">
        <ele>132</ele>
        <time>2015-07-21T09:57:01.000Z</time>
      </trkpt>
      <trkpt lat="48.79438" lon="1.68426">
        <ele>131.80000305176</ele>
        <time>2015-07-21T09:57:07.000Z</time>
      </trkpt>
      <trkpt lat="48.79442" lon="1.68419">
        <ele>131.60000610352</ele>
        <time>2015-07-21T09:57:11.000Z</time>
      </trkpt>
      <trkpt lat="48.79444" lon="1.68416">
        <ele>131.60000610352</ele>
        <time>2015-07-21T09:57:13.000Z</time>
      </trkpt>
      <trkpt lat="48.79453" lon="1.68404">
        <ele>131.60000610352</ele>
        <time>2015-07-21T09:57:21.000Z</time>
      </trkpt>
      <trkpt lat="48.79462" lon="1.68391">
        <ele>132</ele>
        <time>2015-07-21T09:57:30.000Z</time>
      </trkpt>
      <trkpt lat="48.79472" lon="1.68373">
        <ele>132.19999694824</ele>
        <time>2015-07-21T09:57:41.000Z</time>
      </trkpt>
      <trkpt lat="48.79479" lon="1.68356">
        <ele>132.19999694824</ele>
        <time>2015-07-21T09:57:50.000Z</time>
      </trkpt>
      <trkpt lat="48.79484" lon="1.68346">
        <ele>132</ele>
        <time>2015-07-21T09:57:56.000Z</time>
      </trkpt>
      <trkpt lat="48.79485" lon="1.68342">
        <ele>132</ele>
        <time>2015-07-21T09:57:58.000Z</time>
      </trkpt>
      <trkpt lat="48.7949" lon="1.68329">
        <ele>131.60000610352</ele>
        <time>2015-07-21T09:58:05.000Z</time>
      </trkpt>
      <trkpt lat="48.795" lon="1.68308">
        <ele>131.39999389648</ele>
        <time>2015-07-21T09:58:17.000Z</time>
      </trkpt>
      <trkpt lat="48.7951" lon="1.68289">
        <ele>131.80000305176</ele>
        <time>2015-07-21T09:58:28.000Z</time>
      </trkpt>
      <trkpt lat="48.79517" lon="1.68275">
        <ele>132.39999389648</ele>
        <time>2015-07-21T09:58:36.000Z</time>
      </trkpt>
      <trkpt lat="48.79524" lon="1.68264">
        <ele>132.80000305176</ele>
        <time>2015-07-21T09:58:43.000Z</time>
      </trkpt>
      <trkpt lat="48.7953" lon="1.68257">
        <ele>133.39999389648</ele>
        <time>2015-07-21T09:58:48.000Z</time>
      </trkpt>
      <trkpt lat="48.79531" lon="1.68256">
        <ele>133.39999389648</ele>
        <time>2015-07-21T09:58:49.000Z</time>
      </trkpt>
      <trkpt lat="48.7954" lon="1.68243">
        <ele>134.19999694824</ele>
        <time>2015-07-21T09:58:58.000Z</time>
      </trkpt>
      <trkpt lat="48.79547" lon="1.68233">
        <ele>134.80000305176</ele>
        <time>2015-07-21T09:59:05.000Z</time>
      </trkpt>
      <trkpt lat="48.79551" lon="1.68229">
        <ele>135</ele>
        <time>2015-07-21T09:59:09.000Z</time>
      </trkpt>
      <trkpt lat="48.79555" lon="1.6823">
        <ele>135.19999694824</ele>
        <time>2015-07-21T09:59:12.000Z</time>
      </trkpt>
      <trkpt lat="48.79557" lon="1.68232">
        <ele>135.39999389648</ele>
        <time>2015-07-21T09:59:14.000Z</time>
      </trkpt>
      <trkpt lat="48.79558" lon="1.68234">
        <ele>135.60000610352</ele>
        <time>2015-07-21T09:59:15.000Z</time>
      </trkpt>
      <trkpt lat="48.79561" lon="1.68239">
        <ele>135.80000305176</ele>
        <time>2015-07-21T09:59:18.000Z</time>
      </trkpt>
      <trkpt lat="48.79568" lon="1.6825">
        <ele>136.19999694824</ele>
        <time>2015-07-21T09:59:25.000Z</time>
      </trkpt>
      <trkpt lat="48.79574" lon="1.68259">
        <ele>136.39999389648</ele>
        <time>2015-07-21T09:59:32.000Z</time>
      </trkpt>
      <trkpt lat="48.79578" lon="1.68265">
        <ele>136.80000305176</ele>
        <time>2015-07-21T09:59:36.000Z</time>
      </trkpt>
      <trkpt lat="48.7958" lon="1.68268">
        <ele>136.80000305176</ele>
        <time>2015-07-21T09:59:38.000Z</time>
      </trkpt>
      <trkpt lat="48.79587" lon="1.68277">
        <ele>137.19999694824</ele>
        <time>2015-07-21T09:59:44.000Z</time>
      </trkpt>
      <trkpt lat="48.79588" lon="1.68279">
        <ele>137.19999694824</ele>
        <time>2015-07-21T09:59:45.000Z</time>
      </trkpt>
      <trkpt lat="48.79593" lon="1.68289">
        <ele>137.60000610352</ele>
        <time>2015-07-21T09:59:51.000Z</time>
      </trkpt>
      <trkpt lat="48.79598" lon="1.68299">
        <ele>137.80000305176</ele>
        <time>2015-07-21T09:59:58.000Z</time>
      </trkpt>
      <trkpt lat="48.79605" lon="1.68309">
        <ele>138.19999694824</ele>
        <time>2015-07-21T10:00:05.000Z</time>
      </trkpt>
      <trkpt lat="48.79606" lon="1.68309">
        <ele>138.19999694824</ele>
        <time>2015-07-21T10:00:06.000Z</time>
      </trkpt>
      <trkpt lat="48.79613" lon="1.68318">
        <ele>138.39999389648</ele>
        <time>2015-07-21T10:00:13.000Z</time>
      </trkpt>
      <trkpt lat="48.79614" lon="1.68321">
        <ele>138.60000610352</ele>
        <time>2015-07-21T10:00:15.000Z</time>
      </trkpt>
      <trkpt lat="48.79616" lon="1.68326">
        <ele>138.80000305176</ele>
        <time>2015-07-21T10:00:18.000Z</time>
      </trkpt>
      <trkpt lat="48.79617" lon="1.68328">
        <ele>138.80000305176</ele>
        <time>2015-07-21T10:00:19.000Z</time>
      </trkpt>
      <trkpt lat="48.79623" lon="1.68341">
        <ele>139.39999389648</ele>
        <time>2015-07-21T10:00:27.000Z</time>
      </trkpt>
      <trkpt lat="48.79628" lon="1.6835">
        <ele>139.60000610352</ele>
        <time>2015-07-21T10:00:34.000Z</time>
      </trkpt>
      <trkpt lat="48.7963" lon="1.68353">
        <ele>139.80000305176</ele>
        <time>2015-07-21T10:00:37.000Z</time>
      </trkpt>
      <trkpt lat="48.79631" lon="1.68357">
        <ele>139.80000305176</ele>
        <time>2015-07-21T10:00:39.000Z</time>
      </trkpt>
      <trkpt lat="48.79632" lon="1.68359">
        <ele>140</ele>
        <time>2015-07-21T10:00:40.000Z</time>
      </trkpt>
      <trkpt lat="48.79639" lon="1.68364">
        <ele>140.39999389648</ele>
        <time>2015-07-21T10:00:46.000Z</time>
      </trkpt>
      <trkpt lat="48.79643" lon="1.68369">
        <ele>140.80000305176</ele>
        <time>2015-07-21T10:00:49.000Z</time>
      </trkpt>
      <trkpt lat="48.79645" lon="1.68373">
        <ele>140.80000305176</ele>
        <time>2015-07-21T10:00:51.000Z</time>
      </trkpt>
      <trkpt lat="48.79646" lon="1.68374">
        <ele>141</ele>
        <time>2015-07-21T10:00:52.000Z</time>
      </trkpt>
      <trkpt lat="48.79648" lon="1.68381">
        <ele>141.19999694824</ele>
        <time>2015-07-21T10:00:55.000Z</time>
      </trkpt>
      <trkpt lat="48.7965" lon="1.68384">
        <ele>141.19999694824</ele>
        <time>2015-07-21T10:00:57.000Z</time>
      </trkpt>
      <trkpt lat="48.79651" lon="1.68386">
        <ele>141.19999694824</ele>
        <time>2015-07-21T10:00:58.000Z</time>
      </trkpt>
      <trkpt lat="48.79652" lon="1.68394">
        <ele>141.39999389648</ele>
        <time>2015-07-21T10:01:02.000Z</time>
      </trkpt>
      <trkpt lat="48.79654" lon="1.68397">
        <ele>141.60000610352</ele>
        <time>2015-07-21T10:01:04.000Z</time>
      </trkpt>
      <trkpt lat="48.79654" lon="1.68399">
        <ele>141.60000610352</ele>
        <time>2015-07-21T10:01:05.000Z</time>
      </trkpt>
      <trkpt lat="48.79658" lon="1.68412">
        <ele>142</ele>
        <time>2015-07-21T10:01:12.000Z</time>
      </trkpt>
      <trkpt lat="48.79661" lon="1.68423">
        <ele>142.39999389648</ele>
        <time>2015-07-21T10:01:18.000Z</time>
      </trkpt>
      <trkpt lat="48.79662" lon="1.68428">
        <ele>142.39999389648</ele>
        <time>2015-07-21T10:01:21.000Z</time>
      </trkpt>
      <trkpt lat="48.79664" lon="1.68436">
        <ele>142.60000610352</ele>
        <time>2015-07-21T10:01:25.000Z</time>
      </trkpt>
      <trkpt lat="48.79665" lon="1.68443">
        <ele>142.80000305176</ele>
        <time>2015-07-21T10:01:29.000Z</time>
      </trkpt>
      <trkpt lat="48.79665" lon="1.68449">
        <ele>142.80000305176</ele>
        <time>2015-07-21T10:01:32.000Z</time>
      </trkpt>
      <trkpt lat="48.79664" lon="1.68467">
        <ele>143</ele>
        <time>2015-07-21T10:01:41.000Z</time>
      </trkpt>
      <trkpt lat="48.79664" lon="1.68483">
        <ele>143</ele>
        <time>2015-07-21T10:01:49.000Z</time>
      </trkpt>
      <trkpt lat="48.79663" lon="1.68489">
        <ele>143</ele>
        <time>2015-07-21T10:01:52.000Z</time>
      </trkpt>
      <trkpt lat="48.79661" lon="1.68499">
        <ele>142.80000305176</ele>
        <time>2015-07-21T10:01:57.000Z</time>
      </trkpt>
      <trkpt lat="48.79662" lon="1.68512">
        <ele>143</ele>
        <time>2015-07-21T10:02:04.000Z</time>
      </trkpt>
      <trkpt lat="48.79661" lon="1.68517">
        <ele>143</ele>
        <time>2015-07-21T10:02:06.000Z</time>
      </trkpt>
      <trkpt lat="48.79661" lon="1.68525">
        <ele>143.19999694824</ele>
        <time>2015-07-21T10:02:10.000Z</time>
      </trkpt>
      <trkpt lat="48.79661" lon="1.68529">
        <ele>143.19999694824</ele>
        <time>2015-07-21T10:02:12.000Z</time>
      </trkpt>
      <trkpt lat="48.79662" lon="1.68534">
        <ele>143.39999389648</ele>
        <time>2015-07-21T10:02:15.000Z</time>
      </trkpt>
      <trkpt lat="48.79663" lon="1.68535">
        <ele>143.39999389648</ele>
        <time>2015-07-21T10:02:16.000Z</time>
      </trkpt>
      <trkpt lat="48.79664" lon="1.68535">
        <ele>143.60000610352</ele>
        <time>2015-07-21T10:02:19.000Z</time>
      </trkpt>
      <trkpt lat="48.79677" lon="1.68525">
        <ele>144.60000610352</ele>
        <time>2015-07-21T10:07:03.000Z</time>
      </trkpt>
      <trkpt lat="48.7968" lon="1.68524">
        <ele>144.80000305176</ele>
        <time>2015-07-21T10:07:05.000Z</time>
      </trkpt>
      <trkpt lat="48.79687" lon="1.68523">
        <ele>145.39999389648</ele>
        <time>2015-07-21T10:07:13.000Z</time>
      </trkpt>
      <trkpt lat="48.79683" lon="1.68524">
        <ele>145</ele>
        <time>2015-07-21T10:07:18.000Z</time>
      </trkpt>
      <trkpt lat="48.79682" lon="1.68524">
        <ele>145</ele>
        <time>2015-07-21T10:07:19.000Z</time>
      </trkpt>
      <trkpt lat="48.79677" lon="1.68525">
        <ele>144.39999389648</ele>
        <time>2015-07-21T10:07:23.000Z</time>
      </trkpt>
      <trkpt lat="48.79671" lon="1.68532">
        <ele>144</ele>
        <time>2015-07-21T10:07:29.000Z</time>
      </trkpt>
      <trkpt lat="48.79667" lon="1.68539">
        <ele>143.80000305176</ele>
        <time>2015-07-21T10:07:34.000Z</time>
      </trkpt>
      <trkpt lat="48.79665" lon="1.6854">
        <ele>143.60000610352</ele>
        <time>2015-07-21T10:07:35.000Z</time>
      </trkpt>
      <trkpt lat="48.79664" lon="1.68539">
        <ele>143.60000610352</ele>
        <time>2015-07-21T10:07:38.000Z</time>
      </trkpt>
      <trkpt lat="48.79779" lon="1.68579">
        <ele>154.39999389648</ele>
        <time>2015-07-21T10:19:09.000Z</time>
      </trkpt>
      <trkpt lat="48.79782" lon="1.68583">
        <ele>155.19999694824</ele>
        <time>2015-07-21T10:19:13.000Z</time>
      </trkpt>
      <trkpt lat="48.79782" lon="1.68584">
        <ele>155.19999694824</ele>
        <time>2015-07-21T10:19:14.000Z</time>
      </trkpt>
      <trkpt lat="48.79783" lon="1.68585">
        <ele>155.39999389648</ele>
        <time>2015-07-21T10:19:16.000Z</time>
      </trkpt>
      <trkpt lat="48.79785" lon="1.68586">
        <ele>155.60000610352</ele>
        <time>2015-07-21T10:19:19.000Z</time>
      </trkpt>
      <trkpt lat="48.798" lon="1.68602">
        <ele>158.60000610352</ele>
        <time>2015-07-21T10:19:38.000Z</time>
      </trkpt>
      <trkpt lat="48.79801" lon="1.68604">
        <ele>158.80000305176</ele>
        <time>2015-07-21T10:19:39.000Z</time>
      </trkpt>
      <trkpt lat="48.79803" lon="1.68607">
        <ele>159.19999694824</ele>
        <time>2015-07-21T10:19:41.000Z</time>
      </trkpt>
      <trkpt lat="48.79805" lon="1.6861">
        <ele>159.60000610352</ele>
        <time>2015-07-21T10:19:44.000Z</time>
      </trkpt>
      <trkpt lat="48.79808" lon="1.68612">
        <ele>160.39999389648</ele>
        <time>2015-07-21T10:19:46.000Z</time>
      </trkpt>
      <trkpt lat="48.79809" lon="1.68613">
        <ele>160.60000610352</ele>
        <time>2015-07-21T10:19:47.000Z</time>
      </trkpt>
      <trkpt lat="48.79812" lon="1.68616">
        <ele>161</ele>
        <time>2015-07-21T10:19:49.000Z</time>
      </trkpt>
      <trkpt lat="48.79813" lon="1.68618">
        <ele>161.39999389648</ele>
        <time>2015-07-21T10:19:50.000Z</time>
      </trkpt>
      <trkpt lat="48.7982" lon="1.68623">
        <ele>162.60000610352</ele>
        <time>2015-07-21T10:19:56.000Z</time>
      </trkpt>
      <trkpt lat="48.79826" lon="1.68625">
        <ele>163.39999389648</ele>
        <time>2015-07-21T10:20:01.000Z</time>
      </trkpt>
      <trkpt lat="48.7983" lon="1.6863">
        <ele>164.39999389648</ele>
        <time>2015-07-21T10:20:05.000Z</time>
      </trkpt>
      <trkpt lat="48.79831" lon="1.6863">
        <ele>164.60000610352</ele>
        <time>2015-07-21T10:20:06.000Z</time>
      </trkpt>
      <trkpt lat="48.79834" lon="1.68632">
        <ele>165</ele>
        <time>2015-07-21T10:20:09.000Z</time>
      </trkpt>
      <trkpt lat="48.79838" lon="1.68636">
        <ele>165.60000610352</ele>
        <time>2015-07-21T10:20:13.000Z</time>
      </trkpt>
      <trkpt lat="48.79844" lon="1.6864">
        <ele>166.60000610352</ele>
        <time>2015-07-21T10:20:17.000Z</time>
      </trkpt>
      <trkpt lat="48.79845" lon="1.68641">
        <ele>166.80000305176</ele>
        <time>2015-07-21T10:20:18.000Z</time>
      </trkpt>
      <trkpt lat="48.79855" lon="1.68645">
        <ele>167.80000305176</ele>
        <time>2015-07-21T10:20:25.000Z</time>
      </trkpt>
      <trkpt lat="48.7986" lon="1.68649">
        <ele>169</ele>
        <time>2015-07-21T10:20:30.000Z</time>
      </trkpt>
      <trkpt lat="48.79862" lon="1.68648">
        <ele>169</ele>
        <time>2015-07-21T10:20:31.000Z</time>
      </trkpt>
      <trkpt lat="48.79864" lon="1.68648">
        <ele>169.19999694824</ele>
        <time>2015-07-21T10:20:33.000Z</time>
      </trkpt>
      <trkpt lat="48.79868" lon="1.68649">
        <ele>169.60000610352</ele>
        <time>2015-07-21T10:20:36.000Z</time>
      </trkpt>
      <trkpt lat="48.79874" lon="1.68648">
        <ele>170.19999694824</ele>
        <time>2015-07-21T10:20:41.000Z</time>
      </trkpt>
      <trkpt lat="48.79877" lon="1.68649">
        <ele>170.60000610352</ele>
        <time>2015-07-21T10:20:43.000Z</time>
      </trkpt>
      <trkpt lat="48.79882" lon="1.6865">
        <ele>171.19999694824</ele>
        <time>2015-07-21T10:20:47.000Z</time>
      </trkpt>
      <trkpt lat="48.79891" lon="1.68653">
        <ele>172.39999389648</ele>
        <time>2015-07-21T10:20:53.000Z</time>
      </trkpt>
      <trkpt lat="48.79894" lon="1.68654">
        <ele>172.80000305176</ele>
        <time>2015-07-21T10:20:55.000Z</time>
      </trkpt>
      <trkpt lat="48.79896" lon="1.68655">
        <ele>173</ele>
        <time>2015-07-21T10:20:57.000Z</time>
      </trkpt>
      <trkpt lat="48.79899" lon="1.68655">
        <ele>173.39999389648</ele>
        <time>2015-07-21T10:21:00.000Z</time>
      </trkpt>
      <trkpt lat="48.79901" lon="1.68656">
        <ele>173.60000610352</ele>
        <time>2015-07-21T10:21:02.000Z</time>
      </trkpt>
      <trkpt lat="48.79904" lon="1.68655">
        <ele>173.80000305176</ele>
        <time>2015-07-21T10:21:04.000Z</time>
      </trkpt>
      <trkpt lat="48.79912" lon="1.68656">
        <ele>174.80000305176</ele>
        <time>2015-07-21T10:21:10.000Z</time>
      </trkpt>
      <trkpt lat="48.79914" lon="1.68656">
        <ele>174.80000305176</ele>
        <time>2015-07-21T10:21:11.000Z</time>
      </trkpt>
      <trkpt lat="48.79917" lon="1.68656">
        <ele>175.19999694824</ele>
        <time>2015-07-21T10:21:13.000Z</time>
      </trkpt>
      <trkpt lat="48.79919" lon="1.68656">
        <ele>175.39999389648</ele>
        <time>2015-07-21T10:21:15.000Z</time>
      </trkpt>
      <trkpt lat="48.79921" lon="1.68657">
        <ele>175.60000610352</ele>
        <time>2015-07-21T10:21:16.000Z</time>
      </trkpt>
      <trkpt lat="48.79925" lon="1.68658">
        <ele>176.19999694824</ele>
        <time>2015-07-21T10:21:19.000Z</time>
      </trkpt>
      <trkpt lat="48.79929" lon="1.68657">
        <ele>176.39999389648</ele>
        <time>2015-07-21T10:21:22.000Z</time>
      </trkpt>
      <trkpt lat="48.7993" lon="1.68657">
        <ele>176.60000610352</ele>
        <time>2015-07-21T10:21:23.000Z</time>
      </trkpt>
      <trkpt lat="48.79931" lon="1.68656">
        <ele>176.60000610352</ele>
        <time>2015-07-21T10:21:24.000Z</time>
      </trkpt>
      <trkpt lat="48.79935" lon="1.68657">
        <ele>177</ele>
        <time>2015-07-21T10:21:28.000Z</time>
      </trkpt>
      <trkpt lat="48.7994" lon="1.68657">
        <ele>177.39999389648</ele>
        <time>2015-07-21T10:21:32.000Z</time>
      </trkpt>
      <trkpt lat="48.79945" lon="1.68658">
        <ele>177.80000305176</ele>
        <time>2015-07-21T10:21:36.000Z</time>
      </trkpt>
      <trkpt lat="48.7995" lon="1.68658">
        <ele>178.19999694824</ele>
        <time>2015-07-21T10:21:40.000Z</time>
      </trkpt>
      <trkpt lat="48.79951" lon="1.68659">
        <ele>178.39999389648</ele>
        <time>2015-07-21T10:21:41.000Z</time>
      </trkpt>
      <trkpt lat="48.79954" lon="1.68661">
        <ele>178.80000305176</ele>
        <time>2015-07-21T10:21:44.000Z</time>
      </trkpt>
      <trkpt lat="48.79958" lon="1.68663">
        <ele>179.19999694824</ele>
        <time>2015-07-21T10:21:47.000Z</time>
      </trkpt>
      <trkpt lat="48.79963" lon="1.68664">
        <ele>179.60000610352</ele>
        <time>2015-07-21T10:21:51.000Z</time>
      </trkpt>
      <trkpt lat="48.79967" lon="1.68665">
        <ele>180</ele>
        <time>2015-07-21T10:21:54.000Z</time>
      </trkpt>
      <trkpt lat="48.79972" lon="1.68666">
        <ele>180.60000610352</ele>
        <time>2015-07-21T10:21:59.000Z</time>
      </trkpt>
      <trkpt lat="48.79974" lon="1.68666">
        <ele>180.80000305176</ele>
        <time>2015-07-21T10:22:01.000Z</time>
      </trkpt>
      <trkpt lat="48.79979" lon="1.68668">
        <ele>181.19999694824</ele>
        <time>2015-07-21T10:22:05.000Z</time>
      </trkpt>
      <trkpt lat="48.79981" lon="1.68669">
        <ele>181.39999389648</ele>
        <time>2015-07-21T10:22:06.000Z</time>
      </trkpt>
      <trkpt lat="48.79988" lon="1.68675">
        <ele>182.39999389648</ele>
        <time>2015-07-21T10:22:13.000Z</time>
      </trkpt>
      <trkpt lat="48.79991" lon="1.68678">
        <ele>182.60000610352</ele>
        <time>2015-07-21T10:22:17.000Z</time>
      </trkpt>
      <trkpt lat="48.79994" lon="1.68681">
        <ele>183</ele>
        <time>2015-07-21T10:22:20.000Z</time>
      </trkpt>
      <trkpt lat="48.79999" lon="1.68685">
        <ele>183.60000610352</ele>
        <time>2015-07-21T10:22:25.000Z</time>
      </trkpt>
      <trkpt lat="48.80001" lon="1.68686">
        <ele>183.80000305176</ele>
        <time>2015-07-21T10:22:27.000Z</time>
      </trkpt>
      <trkpt lat="48.80005" lon="1.68689">
        <ele>184.19999694824</ele>
        <time>2015-07-21T10:22:31.000Z</time>
      </trkpt>
      <trkpt lat="48.80008" lon="1.6869">
        <ele>184.60000610352</ele>
        <time>2015-07-21T10:22:33.000Z</time>
      </trkpt>
      <trkpt lat="48.80013" lon="1.68693">
        <ele>185.19999694824</ele>
        <time>2015-07-21T10:22:37.000Z</time>
      </trkpt>
      <trkpt lat="48.80021" lon="1.68699">
        <ele>186</ele>
        <time>2015-07-21T10:22:44.000Z</time>
      </trkpt>
      <trkpt lat="48.80024" lon="1.68702">
        <ele>186.19999694824</ele>
        <time>2015-07-21T10:22:48.000Z</time>
      </trkpt>
      <trkpt lat="48.80025" lon="1.68704">
        <ele>186.39999389648</ele>
        <time>2015-07-21T10:22:49.000Z</time>
      </trkpt>
      <trkpt lat="48.8003" lon="1.68709">
        <ele>186.60000610352</ele>
        <time>2015-07-21T10:22:54.000Z</time>
      </trkpt>
      <trkpt lat="48.80032" lon="1.68711">
        <ele>186.60000610352</ele>
        <time>2015-07-21T10:22:56.000Z</time>
      </trkpt>
      <trkpt lat="48.80036" lon="1.68716">
        <ele>186.80000305176</ele>
        <time>2015-07-21T10:23:00.000Z</time>
      </trkpt>
      <trkpt lat="48.80039" lon="1.68717">
        <ele>187</ele>
        <time>2015-07-21T10:23:01.000Z</time>
      </trkpt>
      <trkpt lat="48.80046" lon="1.68723">
        <ele>187.19999694824</ele>
        <time>2015-07-21T10:23:07.000Z</time>
      </trkpt>
      <trkpt lat="48.80049" lon="1.68726">
        <ele>187.39999389648</ele>
        <time>2015-07-21T10:23:09.000Z</time>
      </trkpt>
      <trkpt lat="48.8005" lon="1.68727">
        <ele>187.39999389648</ele>
        <time>2015-07-21T10:23:11.000Z</time>
      </trkpt>
      <trkpt lat="48.80053" lon="1.68728">
        <ele>187.60000610352</ele>
        <time>2015-07-21T10:23:13.000Z</time>
      </trkpt>
      <trkpt lat="48.80056" lon="1.6873">
        <ele>187.60000610352</ele>
        <time>2015-07-21T10:23:15.000Z</time>
      </trkpt>
      <trkpt lat="48.80062" lon="1.68733">
        <ele>187.80000305176</ele>
        <time>2015-07-21T10:23:19.000Z</time>
      </trkpt>
      <trkpt lat="48.80063" lon="1.68734">
        <ele>188</ele>
        <time>2015-07-21T10:23:20.000Z</time>
      </trkpt>
      <trkpt lat="48.80068" lon="1.68742">
        <ele>188.19999694824</ele>
        <time>2015-07-21T10:23:25.000Z</time>
      </trkpt>
      <trkpt lat="48.8007" lon="1.68743">
        <ele>188.39999389648</ele>
        <time>2015-07-21T10:23:26.000Z</time>
      </trkpt>
      <trkpt lat="48.80074" lon="1.68747">
        <ele>188.60000610352</ele>
        <time>2015-07-21T10:23:29.000Z</time>
      </trkpt>
      <trkpt lat="48.80079" lon="1.68751">
        <ele>188.80000305176</ele>
        <time>2015-07-21T10:23:33.000Z</time>
      </trkpt>
      <trkpt lat="48.8008" lon="1.68752">
        <ele>188.80000305176</ele>
        <time>2015-07-21T10:23:34.000Z</time>
      </trkpt>
      <trkpt lat="48.80086" lon="1.68756">
        <ele>189</ele>
        <time>2015-07-21T10:23:38.000Z</time>
      </trkpt>
      <trkpt lat="48.80097" lon="1.68763">
        <ele>189.39999389648</ele>
        <time>2015-07-21T10:23:46.000Z</time>
      </trkpt>
      <trkpt lat="48.80102" lon="1.68767">
        <ele>189.60000610352</ele>
        <time>2015-07-21T10:23:50.000Z</time>
      </trkpt>
      <trkpt lat="48.80105" lon="1.6877">
        <ele>189.80000305176</ele>
        <time>2015-07-21T10:23:53.000Z</time>
      </trkpt>
      <trkpt lat="48.80113" lon="1.68774">
        <ele>189.60000610352</ele>
        <time>2015-07-21T10:23:59.000Z</time>
      </trkpt>
      <trkpt lat="48.80114" lon="1.68775">
        <ele>189.60000610352</ele>
        <time>2015-07-21T10:24:00.000Z</time>
      </trkpt>
      <trkpt lat="48.80121" lon="1.68781">
        <ele>189.39999389648</ele>
        <time>2015-07-21T10:24:04.000Z</time>
      </trkpt>
      <trkpt lat="48.80127" lon="1.68787">
        <ele>189.39999389648</ele>
        <time>2015-07-21T10:24:08.000Z</time>
      </trkpt>
      <trkpt lat="48.80129" lon="1.68789">
        <ele>189.39999389648</ele>
        <time>2015-07-21T10:24:09.000Z</time>
      </trkpt>
      <trkpt lat="48.80131" lon="1.6879">
        <ele>189.39999389648</ele>
        <time>2015-07-21T10:24:10.000Z</time>
      </trkpt>
      <trkpt lat="48.80137" lon="1.68794">
        <ele>189.19999694824</ele>
        <time>2015-07-21T10:24:14.000Z</time>
      </trkpt>
      <trkpt lat="48.80138" lon="1.68795">
        <ele>189.19999694824</ele>
        <time>2015-07-21T10:24:15.000Z</time>
      </trkpt>
      <trkpt lat="48.80139" lon="1.68796">
        <ele>189.19999694824</ele>
        <time>2015-07-21T10:24:16.000Z</time>
      </trkpt>
      <trkpt lat="48.8014" lon="1.68798">
        <ele>189.19999694824</ele>
        <time>2015-07-21T10:24:17.000Z</time>
      </trkpt>
      <trkpt lat="48.80144" lon="1.68803">
        <ele>189.19999694824</ele>
        <time>2015-07-21T10:24:21.000Z</time>
      </trkpt>
      <trkpt lat="48.80148" lon="1.68807">
        <ele>189.19999694824</ele>
        <time>2015-07-21T10:24:25.000Z</time>
      </trkpt>
      <trkpt lat="48.80152" lon="1.68809">
        <ele>189</ele>
        <time>2015-07-21T10:24:28.000Z</time>
      </trkpt>
      <trkpt lat="48.80157" lon="1.68814">
        <ele>189</ele>
        <time>2015-07-21T10:24:32.000Z</time>
      </trkpt>
      <trkpt lat="48.8016" lon="1.68816">
        <ele>189</ele>
        <time>2015-07-21T10:24:33.000Z</time>
      </trkpt>
      <trkpt lat="48.80168" lon="1.68821">
        <ele>188.80000305176</ele>
        <time>2015-07-21T10:24:38.000Z</time>
      </trkpt>
      <trkpt lat="48.80169" lon="1.68822">
        <ele>188.80000305176</ele>
        <time>2015-07-21T10:24:39.000Z</time>
      </trkpt>
      <trkpt lat="48.80173" lon="1.68827">
        <ele>188.80000305176</ele>
        <time>2015-07-21T10:24:43.000Z</time>
      </trkpt>
      <trkpt lat="48.80176" lon="1.68829">
        <ele>188.60000610352</ele>
        <time>2015-07-21T10:24:45.000Z</time>
      </trkpt>
      <trkpt lat="48.80177" lon="1.6883">
        <ele>188.60000610352</ele>
        <time>2015-07-21T10:24:46.000Z</time>
      </trkpt>
      <trkpt lat="48.80184" lon="1.68835">
        <ele>188.60000610352</ele>
        <time>2015-07-21T10:24:51.000Z</time>
      </trkpt>
      <trkpt lat="48.80187" lon="1.68837">
        <ele>188.39999389648</ele>
        <time>2015-07-21T10:24:53.000Z</time>
      </trkpt>
      <trkpt lat="48.80189" lon="1.68841">
        <ele>188.39999389648</ele>
        <time>2015-07-21T10:24:56.000Z</time>
      </trkpt>
      <trkpt lat="48.80191" lon="1.68844">
        <ele>188.60000610352</ele>
        <time>2015-07-21T10:24:58.000Z</time>
      </trkpt>
      <trkpt lat="48.80192" lon="1.68847">
        <ele>188.60000610352</ele>
        <time>2015-07-21T10:25:00.000Z</time>
      </trkpt>
      <trkpt lat="48.80198" lon="1.6885">
        <ele>188.60000610352</ele>
        <time>2015-07-21T10:25:04.000Z</time>
      </trkpt>
      <trkpt lat="48.80199" lon="1.68851">
        <ele>188.60000610352</ele>
        <time>2015-07-21T10:25:05.000Z</time>
      </trkpt>
      <trkpt lat="48.80206" lon="1.68857">
        <ele>188.39999389648</ele>
        <time>2015-07-21T10:25:11.000Z</time>
      </trkpt>
      <trkpt lat="48.80211" lon="1.68864">
        <ele>188.60000610352</ele>
        <time>2015-07-21T10:25:16.000Z</time>
      </trkpt>
      <trkpt lat="48.80212" lon="1.68865">
        <ele>188.60000610352</ele>
        <time>2015-07-21T10:25:17.000Z</time>
      </trkpt>
      <trkpt lat="48.80217" lon="1.6887">
        <ele>188.60000610352</ele>
        <time>2015-07-21T10:25:21.000Z</time>
      </trkpt>
      <trkpt lat="48.80219" lon="1.68872">
        <ele>188.60000610352</ele>
        <time>2015-07-21T10:25:23.000Z</time>
      </trkpt>
      <trkpt lat="48.80224" lon="1.68876">
        <ele>188.39999389648</ele>
        <time>2015-07-21T10:25:26.000Z</time>
      </trkpt>
      <trkpt lat="48.80229" lon="1.68878">
        <ele>188.39999389648</ele>
        <time>2015-07-21T10:25:29.000Z</time>
      </trkpt>
      <trkpt lat="48.80238" lon="1.68881">
        <ele>188.19999694824</ele>
        <time>2015-07-21T10:25:35.000Z</time>
      </trkpt>
      <trkpt lat="48.8024" lon="1.68881">
        <ele>188.19999694824</ele>
        <time>2015-07-21T10:25:37.000Z</time>
      </trkpt>
      <trkpt lat="48.8024" lon="1.6888">
        <ele>188.19999694824</ele>
        <time>2015-07-21T10:25:39.000Z</time>
      </trkpt>
      <trkpt lat="48.80207" lon="1.68807">
        <ele>186.60000610352</ele>
        <time>2015-07-21T10:26:51.000Z</time>
      </trkpt>
      <trkpt lat="48.80206" lon="1.68806">
        <ele>186.60000610352</ele>
        <time>2015-07-21T10:26:52.000Z</time>
      </trkpt>
      <trkpt lat="48.80203" lon="1.68802">
        <ele>186.60000610352</ele>
        <time>2015-07-21T10:26:56.000Z</time>
      </trkpt>
      <trkpt lat="48.80202" lon="1.688">
        <ele>186.60000610352</ele>
        <time>2015-07-21T10:26:58.000Z</time>
      </trkpt>
      <trkpt lat="48.80199" lon="1.68794">
        <ele>186.60000610352</ele>
        <time>2015-07-21T10:27:02.000Z</time>
      </trkpt>
      <trkpt lat="48.80194" lon="1.68786">
        <ele>186.39999389648</ele>
        <time>2015-07-21T10:27:07.000Z</time>
      </trkpt>
      <trkpt lat="48.80188" lon="1.68774">
        <ele>186.39999389648</ele>
        <time>2015-07-21T10:27:14.000Z</time>
      </trkpt>
      <trkpt lat="48.80185" lon="1.6877">
        <ele>186.39999389648</ele>
        <time>2015-07-21T10:27:17.000Z</time>
      </trkpt>
      <trkpt lat="48.80183" lon="1.68764">
        <ele>186.19999694824</ele>
        <time>2015-07-21T10:27:20.000Z</time>
      </trkpt>
      <trkpt lat="48.80179" lon="1.68759">
        <ele>186.19999694824</ele>
        <time>2015-07-21T10:27:24.000Z</time>
      </trkpt>
      <trkpt lat="48.80177" lon="1.68755">
        <ele>186.19999694824</ele>
        <time>2015-07-21T10:27:26.000Z</time>
      </trkpt>
      <trkpt lat="48.80175" lon="1.68748">
        <ele>186</ele>
        <time>2015-07-21T10:27:31.000Z</time>
      </trkpt>
      <trkpt lat="48.80173" lon="1.68739">
        <ele>185.80000305176</ele>
        <time>2015-07-21T10:27:36.000Z</time>
      </trkpt>
      <trkpt lat="48.80173" lon="1.68729">
        <ele>185.60000610352</ele>
        <time>2015-07-21T10:27:41.000Z</time>
      </trkpt>
      <trkpt lat="48.80172" lon="1.68725">
        <ele>185.60000610352</ele>
        <time>2015-07-21T10:27:43.000Z</time>
      </trkpt>
      <trkpt lat="48.80172" lon="1.68723">
        <ele>185.60000610352</ele>
        <time>2015-07-21T10:27:44.000Z</time>
      </trkpt>
      <trkpt lat="48.80173" lon="1.68717">
        <ele>185.39999389648</ele>
        <time>2015-07-21T10:27:47.000Z</time>
      </trkpt>
      <trkpt lat="48.80172" lon="1.68716">
        <ele>185.19999694824</ele>
        <time>2015-07-21T10:27:48.000Z</time>
      </trkpt>
      <trkpt lat="48.80175" lon="1.68697">
        <ele>183.60000610352</ele>
        <time>2015-07-21T10:27:55.000Z</time>
      </trkpt>
      <trkpt lat="48.80176" lon="1.68689">
        <ele>183</ele>
        <time>2015-07-21T10:27:58.000Z</time>
      </trkpt>
      <trkpt lat="48.80177" lon="1.68684">
        <ele>182.39999389648</ele>
        <time>2015-07-21T10:28:00.000Z</time>
      </trkpt>
      <trkpt lat="48.80177" lon="1.68681">
        <ele>182.19999694824</ele>
        <time>2015-07-21T10:28:01.000Z</time>
      </trkpt>
      <trkpt lat="48.80179" lon="1.68677">
        <ele>181.80000305176</ele>
        <time>2015-07-21T10:28:03.000Z</time>
      </trkpt>
      <trkpt lat="48.8018" lon="1.68673">
        <ele>181.19999694824</ele>
        <time>2015-07-21T10:28:05.000Z</time>
      </trkpt>
      <trkpt lat="48.8018" lon="1.68671">
        <ele>181.19999694824</ele>
        <time>2015-07-21T10:28:06.000Z</time>
      </trkpt>
      <trkpt lat="48.80182" lon="1.68658">
        <ele>180</ele>
        <time>2015-07-21T10:28:12.000Z</time>
      </trkpt>
      <trkpt lat="48.80183" lon="1.68646">
        <ele>179</ele>
        <time>2015-07-21T10:28:17.000Z</time>
      </trkpt>
      <trkpt lat="48.80185" lon="1.68635">
        <ele>178.19999694824</ele>
        <time>2015-07-21T10:28:22.000Z</time>
      </trkpt>
      <trkpt lat="48.80186" lon="1.68626">
        <ele>177.60000610352</ele>
        <time>2015-07-21T10:28:27.000Z</time>
      </trkpt>
      <trkpt lat="48.80186" lon="1.68622">
        <ele>177.19999694824</ele>
        <time>2015-07-21T10:28:29.000Z</time>
      </trkpt>
      <trkpt lat="48.80186" lon="1.68619">
        <ele>177.19999694824</ele>
        <time>2015-07-21T10:28:31.000Z</time>
      </trkpt>
      <trkpt lat="48.80188" lon="1.68611">
        <ele>176.60000610352</ele>
        <time>2015-07-21T10:28:36.000Z</time>
      </trkpt>
      <trkpt lat="48.80189" lon="1.68605">
        <ele>176</ele>
        <time>2015-07-21T10:28:40.000Z</time>
      </trkpt>
      <trkpt lat="48.8019" lon="1.686">
        <ele>175.60000610352</ele>
        <time>2015-07-21T10:28:42.000Z</time>
      </trkpt>
      <trkpt lat="48.80191" lon="1.68593">
        <ele>175</ele>
        <time>2015-07-21T10:28:45.000Z</time>
      </trkpt>
      <trkpt lat="48.80192" lon="1.68591">
        <ele>174.80000305176</ele>
        <time>2015-07-21T10:28:47.000Z</time>
      </trkpt>
      <trkpt lat="48.80192" lon="1.68588">
        <ele>174.80000305176</ele>
        <time>2015-07-21T10:28:51.000Z</time>
      </trkpt>
      <trkpt lat="48.80191" lon="1.68587">
        <ele>174.60000610352</ele>
        <time>2015-07-21T10:28:54.000Z</time>
      </trkpt>
      <trkpt lat="48.80195" lon="1.68564">
        <ele>172.60000610352</ele>
        <time>2015-07-21T10:29:07.000Z</time>
      </trkpt>
      <trkpt lat="48.80197" lon="1.68556">
        <ele>171.60000610352</ele>
        <time>2015-07-21T10:29:10.000Z</time>
      </trkpt>
      <trkpt lat="48.80198" lon="1.6855">
        <ele>170.80000305176</ele>
        <time>2015-07-21T10:29:13.000Z</time>
      </trkpt>
      <trkpt lat="48.80199" lon="1.68544">
        <ele>169.80000305176</ele>
        <time>2015-07-21T10:29:16.000Z</time>
      </trkpt>
      <trkpt lat="48.80201" lon="1.68538">
        <ele>169</ele>
        <time>2015-07-21T10:29:19.000Z</time>
      </trkpt>
      <trkpt lat="48.80203" lon="1.68532">
        <ele>168</ele>
        <time>2015-07-21T10:29:22.000Z</time>
      </trkpt>
      <trkpt lat="48.80204" lon="1.68527">
        <ele>167.39999389648</ele>
        <time>2015-07-21T10:29:24.000Z</time>
      </trkpt>
      <trkpt lat="48.80207" lon="1.68519">
        <ele>166.19999694824</ele>
        <time>2015-07-21T10:29:28.000Z</time>
      </trkpt>
      <trkpt lat="48.80209" lon="1.68507">
        <ele>164.39999389648</ele>
        <time>2015-07-21T10:29:34.000Z</time>
      </trkpt>
      <trkpt lat="48.80209" lon="1.68506">
        <ele>164.39999389648</ele>
        <time>2015-07-21T10:29:35.000Z</time>
      </trkpt>
      <trkpt lat="48.80211" lon="1.68496">
        <ele>164</ele>
        <time>2015-07-21T10:29:40.000Z</time>
      </trkpt>
      <trkpt lat="48.80212" lon="1.68492">
        <ele>163.60000610352</ele>
        <time>2015-07-21T10:29:42.000Z</time>
      </trkpt>
      <trkpt lat="48.80213" lon="1.68486">
        <ele>163.39999389648</ele>
        <time>2015-07-21T10:29:45.000Z</time>
      </trkpt>
      <trkpt lat="48.80214" lon="1.68479">
        <ele>162.80000305176</ele>
        <time>2015-07-21T10:29:52.000Z</time>
      </trkpt>
      <trkpt lat="48.80214" lon="1.68478">
        <ele>162.60000610352</ele>
        <time>2015-07-21T10:29:53.000Z</time>
      </trkpt>
      <trkpt lat="48.80218" lon="1.68462">
        <ele>161.19999694824</ele>
        <time>2015-07-21T10:30:03.000Z</time>
      </trkpt>
      <trkpt lat="48.8022" lon="1.68453">
        <ele>160.39999389648</ele>
        <time>2015-07-21T10:30:07.000Z</time>
      </trkpt>
      <trkpt lat="48.80221" lon="1.6845">
        <ele>160.19999694824</ele>
        <time>2015-07-21T10:30:08.000Z</time>
      </trkpt>
      <trkpt lat="48.80225" lon="1.6844">
        <ele>159.19999694824</ele>
        <time>2015-07-21T10:30:12.000Z</time>
      </trkpt>
      <trkpt lat="48.80228" lon="1.68435">
        <ele>159</ele>
        <time>2015-07-21T10:30:15.000Z</time>
      </trkpt>
      <trkpt lat="48.80233" lon="1.68427">
        <ele>159</ele>
        <time>2015-07-21T10:30:19.000Z</time>
      </trkpt>
      <trkpt lat="48.80243" lon="1.68412">
        <ele>158.60000610352</ele>
        <time>2015-07-21T10:30:28.000Z</time>
      </trkpt>
      <trkpt lat="48.80249" lon="1.68402">
        <ele>158.39999389648</ele>
        <time>2015-07-21T10:30:35.000Z</time>
      </trkpt>
      <trkpt lat="48.8025" lon="1.68401">
        <ele>158.39999389648</ele>
        <time>2015-07-21T10:30:36.000Z</time>
      </trkpt>
      <trkpt lat="48.80253" lon="1.68398">
        <ele>158.19999694824</ele>
        <time>2015-07-21T10:30:40.000Z</time>
      </trkpt>
      <trkpt lat="48.80261" lon="1.68398">
        <ele>158.39999389648</ele>
        <time>2015-07-21T10:31:04.000Z</time>
      </trkpt>
      <trkpt lat="48.80266" lon="1.684">
        <ele>158.60000610352</ele>
        <time>2015-07-21T10:31:07.000Z</time>
      </trkpt>
      <trkpt lat="48.80275" lon="1.68404">
        <ele>159</ele>
        <time>2015-07-21T10:31:13.000Z</time>
      </trkpt>
      <trkpt lat="48.80285" lon="1.68408">
        <ele>158.60000610352</ele>
        <time>2015-07-21T10:31:20.000Z</time>
      </trkpt>
      <trkpt lat="48.80296" lon="1.68412">
        <ele>158.39999389648</ele>
        <time>2015-07-21T10:31:28.000Z</time>
      </trkpt>
      <trkpt lat="48.80306" lon="1.68417">
        <ele>158</ele>
        <time>2015-07-21T10:31:36.000Z</time>
      </trkpt>
      <trkpt lat="48.80314" lon="1.68421">
        <ele>157.80000305176</ele>
        <time>2015-07-21T10:31:42.000Z</time>
      </trkpt>
      <trkpt lat="48.80327" lon="1.68428">
        <ele>157.39999389648</ele>
        <time>2015-07-21T10:31:52.000Z</time>
      </trkpt>
      <trkpt lat="48.80333" lon="1.68432">
        <ele>157.19999694824</ele>
        <time>2015-07-21T10:31:57.000Z</time>
      </trkpt>
      <trkpt lat="48.80335" lon="1.68433">
        <ele>157.19999694824</ele>
        <time>2015-07-21T10:31:59.000Z</time>
      </trkpt>
      <trkpt lat="48.80345" lon="1.68434">
        <ele>156.80000305176</ele>
        <time>2015-07-21T10:32:06.000Z</time>
      </trkpt>
      <trkpt lat="48.80351" lon="1.68433">
        <ele>156.80000305176</ele>
        <time>2015-07-21T10:32:11.000Z</time>
      </trkpt>
      <trkpt lat="48.80361" lon="1.68436">
        <ele>156.60000610352</ele>
        <time>2015-07-21T10:32:19.000Z</time>
      </trkpt>
      <trkpt lat="48.8037" lon="1.68442">
        <ele>156.60000610352</ele>
        <time>2015-07-21T10:32:26.000Z</time>
      </trkpt>
      <trkpt lat="48.80378" lon="1.68445">
        <ele>156.39999389648</ele>
        <time>2015-07-21T10:32:32.000Z</time>
      </trkpt>
      <trkpt lat="48.80379" lon="1.68446">
        <ele>156.39999389648</ele>
        <time>2015-07-21T10:32:33.000Z</time>
      </trkpt>
      <trkpt lat="48.80389" lon="1.68447">
        <ele>156.39999389648</ele>
        <time>2015-07-21T10:32:40.000Z</time>
      </trkpt>
      <trkpt lat="48.80394" lon="1.6845">
        <ele>156.39999389648</ele>
        <time>2015-07-21T10:32:45.000Z</time>
      </trkpt>
      <trkpt lat="48.80395" lon="1.68451">
        <ele>156.39999389648</ele>
        <time>2015-07-21T10:32:47.000Z</time>
      </trkpt>
      <trkpt lat="48.80399" lon="1.6845">
        <ele>156.39999389648</ele>
        <time>2015-07-21T10:32:51.000Z</time>
      </trkpt>
      <trkpt lat="48.80399" lon="1.68448">
        <ele>156.39999389648</ele>
        <time>2015-07-21T10:32:52.000Z</time>
      </trkpt>
      <trkpt lat="48.804" lon="1.68445">
        <ele>156.39999389648</ele>
        <time>2015-07-21T10:32:56.000Z</time>
      </trkpt>
      <trkpt lat="48.804" lon="1.68445">
        <ele>156.39999389648</ele>
        <time>2015-07-21T10:32:57.000Z</time>
      </trkpt>
      <trkpt lat="48.80419" lon="1.68386">
        <ele>155.19999694824</ele>
        <time>2015-07-21T10:33:37.000Z</time>
      </trkpt>
      <trkpt lat="48.80422" lon="1.68377">
        <ele>155</ele>
        <time>2015-07-21T10:33:42.000Z</time>
      </trkpt>
      <trkpt lat="48.80424" lon="1.68369">
        <ele>154.80000305176</ele>
        <time>2015-07-21T10:33:47.000Z</time>
      </trkpt>
      <trkpt lat="48.80424" lon="1.68367">
        <ele>154.60000610352</ele>
        <time>2015-07-21T10:33:48.000Z</time>
      </trkpt>
      <trkpt lat="48.80425" lon="1.68366">
        <ele>154.60000610352</ele>
        <time>2015-07-21T10:33:49.000Z</time>
      </trkpt>
      <trkpt lat="48.80427" lon="1.6836">
        <ele>154.39999389648</ele>
        <time>2015-07-21T10:33:53.000Z</time>
      </trkpt>
      <trkpt lat="48.80428" lon="1.68355">
        <ele>154.19999694824</ele>
        <time>2015-07-21T10:33:56.000Z</time>
      </trkpt>
      <trkpt lat="48.80429" lon="1.68353">
        <ele>154.19999694824</ele>
        <time>2015-07-21T10:33:57.000Z</time>
      </trkpt>
      <trkpt lat="48.80433" lon="1.68342">
        <ele>153.80000305176</ele>
        <time>2015-07-21T10:34:03.000Z</time>
      </trkpt>
      <trkpt lat="48.8044" lon="1.68328">
        <ele>153.19999694824</ele>
        <time>2015-07-21T10:34:09.000Z</time>
      </trkpt>
      <trkpt lat="48.8044" lon="1.68324">
        <ele>153.19999694824</ele>
        <time>2015-07-21T10:34:12.000Z</time>
      </trkpt>
      <trkpt lat="48.8044" lon="1.6832">
        <ele>153</ele>
        <time>2015-07-21T10:34:17.000Z</time>
      </trkpt>
      <trkpt lat="48.80441" lon="1.68315">
        <ele>153</ele>
        <time>2015-07-21T10:34:21.000Z</time>
      </trkpt>
      <trkpt lat="48.80448" lon="1.68289">
        <ele>152.39999389648</ele>
        <time>2015-07-21T10:34:40.000Z</time>
      </trkpt>
      <trkpt lat="48.80448" lon="1.68286">
        <ele>152.39999389648</ele>
        <time>2015-07-21T10:34:41.000Z</time>
      </trkpt>
      <trkpt lat="48.80452" lon="1.68272">
        <ele>152.19999694824</ele>
        <time>2015-07-21T10:34:48.000Z</time>
      </trkpt>
      <trkpt lat="48.80452" lon="1.6827">
        <ele>152.19999694824</ele>
        <time>2015-07-21T10:34:49.000Z</time>
      </trkpt>
      <trkpt lat="48.80454" lon="1.68258">
        <ele>151.80000305176</ele>
        <time>2015-07-21T10:34:54.000Z</time>
      </trkpt>
      <trkpt lat="48.80456" lon="1.68252">
        <ele>151.80000305176</ele>
        <time>2015-07-21T10:34:57.000Z</time>
      </trkpt>
      <trkpt lat="48.80457" lon="1.68242">
        <ele>151.39999389648</ele>
        <time>2015-07-21T10:35:01.000Z</time>
      </trkpt>
      <trkpt lat="48.80458" lon="1.68233">
        <ele>151</ele>
        <time>2015-07-21T10:35:05.000Z</time>
      </trkpt>
      <trkpt lat="48.80458" lon="1.68231">
        <ele>150.80000305176</ele>
        <time>2015-07-21T10:35:06.000Z</time>
      </trkpt>
      <trkpt lat="48.8046" lon="1.68217">
        <ele>149.80000305176</ele>
        <time>2015-07-21T10:35:12.000Z</time>
      </trkpt>
      <trkpt lat="48.80462" lon="1.68203">
        <ele>148.80000305176</ele>
        <time>2015-07-21T10:35:18.000Z</time>
      </trkpt>
      <trkpt lat="48.80463" lon="1.68199">
        <ele>148.60000610352</ele>
        <time>2015-07-21T10:35:20.000Z</time>
      </trkpt>
      <trkpt lat="48.80464" lon="1.68188">
        <ele>147.80000305176</ele>
        <time>2015-07-21T10:35:24.000Z</time>
      </trkpt>
      <trkpt lat="48.80464" lon="1.68184">
        <ele>147.60000610352</ele>
        <time>2015-07-21T10:35:26.000Z</time>
      </trkpt>
      <trkpt lat="48.80465" lon="1.68176">
        <ele>147.19999694824</ele>
        <time>2015-07-21T10:35:29.000Z</time>
      </trkpt>
      <trkpt lat="48.80466" lon="1.68161">
        <ele>146.60000610352</ele>
        <time>2015-07-21T10:35:36.000Z</time>
      </trkpt>
      <trkpt lat="48.80468" lon="1.68146">
        <ele>146.19999694824</ele>
        <time>2015-07-21T10:35:42.000Z</time>
      </trkpt>
      <trkpt lat="48.80469" lon="1.68127">
        <ele>145.80000305176</ele>
        <time>2015-07-21T10:35:50.000Z</time>
      </trkpt>
      <trkpt lat="48.8047" lon="1.68122">
        <ele>145.80000305176</ele>
        <time>2015-07-21T10:35:52.000Z</time>
      </trkpt>
      <trkpt lat="48.80471" lon="1.68115">
        <ele>145.60000610352</ele>
        <time>2015-07-21T10:35:55.000Z</time>
      </trkpt>
      <trkpt lat="48.80472" lon="1.68104">
        <ele>145.39999389648</ele>
        <time>2015-07-21T10:35:59.000Z</time>
      </trkpt>
      <trkpt lat="48.80472" lon="1.68097">
        <ele>145.39999389648</ele>
        <time>2015-07-21T10:36:02.000Z</time>
      </trkpt>
      <trkpt lat="48.80475" lon="1.68087">
        <ele>145.39999389648</ele>
        <time>2015-07-21T10:36:06.000Z</time>
      </trkpt>
      <trkpt lat="48.80475" lon="1.68085">
        <ele>145.39999389648</ele>
        <time>2015-07-21T10:36:07.000Z</time>
      </trkpt>
      <trkpt lat="48.80475" lon="1.68074">
        <ele>145.19999694824</ele>
        <time>2015-07-21T10:36:13.000Z</time>
      </trkpt>
      <trkpt lat="48.80475" lon="1.68073">
        <ele>145.19999694824</ele>
        <time>2015-07-21T10:36:14.000Z</time>
      </trkpt>
      <trkpt lat="48.80475" lon="1.68071">
        <ele>145.19999694824</ele>
        <time>2015-07-21T10:36:15.000Z</time>
      </trkpt>
      <trkpt lat="48.80476" lon="1.68064">
        <ele>145.39999389648</ele>
        <time>2015-07-21T10:36:18.000Z</time>
      </trkpt>
      <trkpt lat="48.8048" lon="1.68052">
        <ele>145.60000610352</ele>
        <time>2015-07-21T10:36:24.000Z</time>
      </trkpt>
      <trkpt lat="48.80483" lon="1.68041">
        <ele>146</ele>
        <time>2015-07-21T10:36:30.000Z</time>
      </trkpt>
      <trkpt lat="48.80486" lon="1.68032">
        <ele>146.19999694824</ele>
        <time>2015-07-21T10:36:35.000Z</time>
      </trkpt>
      <trkpt lat="48.80488" lon="1.6802">
        <ele>146</ele>
        <time>2015-07-21T10:36:41.000Z</time>
      </trkpt>
      <trkpt lat="48.80492" lon="1.6801">
        <ele>145.80000305176</ele>
        <time>2015-07-21T10:36:46.000Z</time>
      </trkpt>
      <trkpt lat="48.80495" lon="1.68">
        <ele>145.60000610352</ele>
        <time>2015-07-21T10:36:51.000Z</time>
      </trkpt>
      <trkpt lat="48.80496" lon="1.67993">
        <ele>145.60000610352</ele>
        <time>2015-07-21T10:36:55.000Z</time>
      </trkpt>
      <trkpt lat="48.80496" lon="1.67993">
        <ele>145.60000610352</ele>
        <time>2015-07-21T10:36:56.000Z</time>
      </trkpt>
      <trkpt lat="48.8051" lon="1.67959">
        <ele>144.60000610352</ele>
        <time>2015-07-21T10:37:50.000Z</time>
      </trkpt>
      <trkpt lat="48.80516" lon="1.67953">
        <ele>144.39999389648</ele>
        <time>2015-07-21T10:37:56.000Z</time>
      </trkpt>
      <trkpt lat="48.80522" lon="1.67949">
        <ele>144.19999694824</ele>
        <time>2015-07-21T10:38:01.000Z</time>
      </trkpt>
      <trkpt lat="48.80524" lon="1.67946">
        <ele>144.19999694824</ele>
        <time>2015-07-21T10:38:03.000Z</time>
      </trkpt>
      <trkpt lat="48.8053" lon="1.67941">
        <ele>144.39999389648</ele>
        <time>2015-07-21T10:38:08.000Z</time>
      </trkpt>
      <trkpt lat="48.80531" lon="1.67941">
        <ele>144.39999389648</ele>
        <time>2015-07-21T10:38:09.000Z</time>
      </trkpt>
      <trkpt lat="48.80536" lon="1.67937">
        <ele>144.60000610352</ele>
        <time>2015-07-21T10:38:13.000Z</time>
      </trkpt>
      <trkpt lat="48.80542" lon="1.6793">
        <ele>144.60000610352</ele>
        <time>2015-07-21T10:38:18.000Z</time>
      </trkpt>
      <trkpt lat="48.80546" lon="1.67925">
        <ele>144.39999389648</ele>
        <time>2015-07-21T10:38:22.000Z</time>
      </trkpt>
      <trkpt lat="48.80548" lon="1.67922">
        <ele>144.39999389648</ele>
        <time>2015-07-21T10:38:24.000Z</time>
      </trkpt>
      <trkpt lat="48.80551" lon="1.67913">
        <ele>144</ele>
        <time>2015-07-21T10:38:28.000Z</time>
      </trkpt>
      <trkpt lat="48.80552" lon="1.67909">
        <ele>143.80000305176</ele>
        <time>2015-07-21T10:38:30.000Z</time>
      </trkpt>
      <trkpt lat="48.80554" lon="1.6789">
        <ele>143</ele>
        <time>2015-07-21T10:38:38.000Z</time>
      </trkpt>
      <trkpt lat="48.80554" lon="1.67883">
        <ele>142.80000305176</ele>
        <time>2015-07-21T10:38:43.000Z</time>
      </trkpt>
      <trkpt lat="48.80553" lon="1.6788">
        <ele>142.60000610352</ele>
        <time>2015-07-21T10:38:45.000Z</time>
      </trkpt>
      <trkpt lat="48.80553" lon="1.67875">
        <ele>142.39999389648</ele>
        <time>2015-07-21T10:38:49.000Z</time>
      </trkpt>
      <trkpt lat="48.80553" lon="1.6787">
        <ele>142.19999694824</ele>
        <time>2015-07-21T10:38:52.000Z</time>
      </trkpt>
      <trkpt lat="48.80552" lon="1.67864">
        <ele>142</ele>
        <time>2015-07-21T10:38:55.000Z</time>
      </trkpt>
      <trkpt lat="48.8055" lon="1.67847">
        <ele>141.39999389648</ele>
        <time>2015-07-21T10:39:03.000Z</time>
      </trkpt>
      <trkpt lat="48.80549" lon="1.67844">
        <ele>141.19999694824</ele>
        <time>2015-07-21T10:39:04.000Z</time>
      </trkpt>
      <trkpt lat="48.80547" lon="1.67835">
        <ele>141.19999694824</ele>
        <time>2015-07-21T10:39:07.000Z</time>
      </trkpt>
      <trkpt lat="48.80546" lon="1.67826">
        <ele>141</ele>
        <time>2015-07-21T10:39:09.000Z</time>
      </trkpt>
      <trkpt lat="48.80544" lon="1.67809">
        <ele>141.19999694824</ele>
        <time>2015-07-21T10:39:13.000Z</time>
      </trkpt>
      <trkpt lat="48.80542" lon="1.67767">
        <ele>142</ele>
        <time>2015-07-21T10:39:22.000Z</time>
      </trkpt>
      <trkpt lat="48.80542" lon="1.67724">
        <ele>142.60000610352</ele>
        <time>2015-07-21T10:39:31.000Z</time>
      </trkpt>
      <trkpt lat="48.80541" lon="1.67694">
        <ele>143</ele>
        <time>2015-07-21T10:39:38.000Z</time>
      </trkpt>
      <trkpt lat="48.80541" lon="1.67679">
        <ele>143</ele>
        <time>2015-07-21T10:39:44.000Z</time>
      </trkpt>
      <trkpt lat="48.8054" lon="1.6766">
        <ele>143.19999694824</ele>
        <time>2015-07-21T10:39:52.000Z</time>
      </trkpt>
      <trkpt lat="48.80539" lon="1.67647">
        <ele>143</ele>
        <time>2015-07-21T10:39:58.000Z</time>
      </trkpt>
      <trkpt lat="48.80536" lon="1.67628">
        <ele>142.80000305176</ele>
        <time>2015-07-21T10:40:07.000Z</time>
      </trkpt>
      <trkpt lat="48.80533" lon="1.67613">
        <ele>142.60000610352</ele>
        <time>2015-07-21T10:40:14.000Z</time>
      </trkpt>
      <trkpt lat="48.80529" lon="1.676">
        <ele>142.39999389648</ele>
        <time>2015-07-21T10:40:21.000Z</time>
      </trkpt>
      <trkpt lat="48.80529" lon="1.67596">
        <ele>142.39999389648</ele>
        <time>2015-07-21T10:40:23.000Z</time>
      </trkpt>
      <trkpt lat="48.8053" lon="1.67593">
        <ele>142.39999389648</ele>
        <time>2015-07-21T10:40:26.000Z</time>
      </trkpt>
      <trkpt lat="48.8053" lon="1.67592">
        <ele>142.39999389648</ele>
        <time>2015-07-21T10:40:27.000Z</time>
      </trkpt>
      <trkpt lat="48.80539" lon="1.67588">
        <ele>143</ele>
        <time>2015-07-21T10:40:41.000Z</time>
      </trkpt>
      <trkpt lat="48.80542" lon="1.67589">
        <ele>143.19999694824</ele>
        <time>2015-07-21T10:40:43.000Z</time>
      </trkpt>
      <trkpt lat="48.80544" lon="1.67589">
        <ele>143.19999694824</ele>
        <time>2015-07-21T10:40:45.000Z</time>
      </trkpt>
      <trkpt lat="48.80553" lon="1.67591">
        <ele>143.60000610352</ele>
        <time>2015-07-21T10:40:51.000Z</time>
      </trkpt>
      <trkpt lat="48.80567" lon="1.67595">
        <ele>144</ele>
        <time>2015-07-21T10:41:01.000Z</time>
      </trkpt>
      <trkpt lat="48.80578" lon="1.67599">
        <ele>144.39999389648</ele>
        <time>2015-07-21T10:41:09.000Z</time>
      </trkpt>
      <trkpt lat="48.80587" lon="1.67605">
        <ele>144.80000305176</ele>
        <time>2015-07-21T10:41:16.000Z</time>
      </trkpt>
      <trkpt lat="48.80597" lon="1.67614">
        <ele>145.39999389648</ele>
        <time>2015-07-21T10:41:24.000Z</time>
      </trkpt>
      <trkpt lat="48.8061" lon="1.67624">
        <ele>146.19999694824</ele>
        <time>2015-07-21T10:41:34.000Z</time>
      </trkpt>
      <trkpt lat="48.8062" lon="1.67633">
        <ele>146.80000305176</ele>
        <time>2015-07-21T10:41:42.000Z</time>
      </trkpt>
      <trkpt lat="48.8063" lon="1.6764">
        <ele>147.39999389648</ele>
        <time>2015-07-21T10:41:50.000Z</time>
      </trkpt>
      <trkpt lat="48.8064" lon="1.67649">
        <ele>148.19999694824</ele>
        <time>2015-07-21T10:41:57.000Z</time>
      </trkpt>
      <trkpt lat="48.80648" lon="1.67655">
        <ele>148.60000610352</ele>
        <time>2015-07-21T10:42:04.000Z</time>
      </trkpt>
      <trkpt lat="48.80659" lon="1.67664">
        <ele>149.19999694824</ele>
        <time>2015-07-21T10:42:13.000Z</time>
      </trkpt>
      <trkpt lat="48.80668" lon="1.67671">
        <ele>149.80000305176</ele>
        <time>2015-07-21T10:42:20.000Z</time>
      </trkpt>
      <trkpt lat="48.80679" lon="1.67678">
        <ele>150.19999694824</ele>
        <time>2015-07-21T10:42:28.000Z</time>
      </trkpt>
      <trkpt lat="48.80688" lon="1.67684">
        <ele>150.80000305176</ele>
        <time>2015-07-21T10:42:35.000Z</time>
      </trkpt>
      <trkpt lat="48.80702" lon="1.67692">
        <ele>151.80000305176</ele>
        <time>2015-07-21T10:42:44.000Z</time>
      </trkpt>
      <trkpt lat="48.80717" lon="1.67703">
        <ele>152.80000305176</ele>
        <time>2015-07-21T10:42:55.000Z</time>
      </trkpt>
      <trkpt lat="48.80724" lon="1.67707">
        <ele>153.39999389648</ele>
        <time>2015-07-21T10:43:01.000Z</time>
      </trkpt>
      <trkpt lat="48.80733" lon="1.67713">
        <ele>154.19999694824</ele>
        <time>2015-07-21T10:43:08.000Z</time>
      </trkpt>
      <trkpt lat="48.80741" lon="1.67717">
        <ele>154.60000610352</ele>
        <time>2015-07-21T10:43:14.000Z</time>
      </trkpt>
      <trkpt lat="48.80754" lon="1.67724">
        <ele>155.60000610352</ele>
        <time>2015-07-21T10:43:23.000Z</time>
      </trkpt>
      <trkpt lat="48.80757" lon="1.67726">
        <ele>155.80000305176</ele>
        <time>2015-07-21T10:43:26.000Z</time>
      </trkpt>
      <trkpt lat="48.80763" lon="1.67727">
        <ele>156.19999694824</ele>
        <time>2015-07-21T10:43:30.000Z</time>
      </trkpt>
      <trkpt lat="48.80765" lon="1.67729">
        <ele>156.39999389648</ele>
        <time>2015-07-21T10:43:32.000Z</time>
      </trkpt>
      <trkpt lat="48.80771" lon="1.67731">
        <ele>156.60000610352</ele>
        <time>2015-07-21T10:43:36.000Z</time>
      </trkpt>
      <trkpt lat="48.80772" lon="1.67732">
        <ele>156.80000305176</ele>
        <time>2015-07-21T10:43:37.000Z</time>
      </trkpt>
      <trkpt lat="48.80782" lon="1.67736">
        <ele>157.80000305176</ele>
        <time>2015-07-21T10:43:44.000Z</time>
      </trkpt>
      <trkpt lat="48.80794" lon="1.6774">
        <ele>159</ele>
        <time>2015-07-21T10:43:53.000Z</time>
      </trkpt>
      <trkpt lat="48.80805" lon="1.67743">
        <ele>160.19999694824</ele>
        <time>2015-07-21T10:44:00.000Z</time>
      </trkpt>
      <trkpt lat="48.8081" lon="1.67748">
        <ele>160.80000305176</ele>
        <time>2015-07-21T10:44:04.000Z</time>
      </trkpt>
      <trkpt lat="48.80816" lon="1.6775">
        <ele>161.39999389648</ele>
        <time>2015-07-21T10:44:09.000Z</time>
      </trkpt>
      <trkpt lat="48.80823" lon="1.67752">
        <ele>162</ele>
        <time>2015-07-21T10:44:14.000Z</time>
      </trkpt>
      <trkpt lat="48.80833" lon="1.67757">
        <ele>163.19999694824</ele>
        <time>2015-07-21T10:44:21.000Z</time>
      </trkpt>
      <trkpt lat="48.80843" lon="1.67759">
        <ele>164</ele>
        <time>2015-07-21T10:44:28.000Z</time>
      </trkpt>
      <trkpt lat="48.8085" lon="1.67762">
        <ele>164.80000305176</ele>
        <time>2015-07-21T10:44:33.000Z</time>
      </trkpt>
      <trkpt lat="48.80858" lon="1.67766">
        <ele>165.80000305176</ele>
        <time>2015-07-21T10:44:39.000Z</time>
      </trkpt>
      <trkpt lat="48.80861" lon="1.67766">
        <ele>166.19999694824</ele>
        <time>2015-07-21T10:44:41.000Z</time>
      </trkpt>
      <trkpt lat="48.80865" lon="1.6777">
        <ele>167</ele>
        <time>2015-07-21T10:44:44.000Z</time>
      </trkpt>
      <trkpt lat="48.80871" lon="1.67773">
        <ele>168</ele>
        <time>2015-07-21T10:44:49.000Z</time>
      </trkpt>
      <trkpt lat="48.80876" lon="1.67775">
        <ele>169</ele>
        <time>2015-07-21T10:44:54.000Z</time>
      </trkpt>
      <trkpt lat="48.80883" lon="1.67777">
        <ele>170</ele>
        <time>2015-07-21T10:44:59.000Z</time>
      </trkpt>
      <trkpt lat="48.80884" lon="1.67777">
        <ele>170</ele>
        <time>2015-07-21T10:45:00.000Z</time>
      </trkpt>
      <trkpt lat="48.80889" lon="1.6778">
        <ele>171</ele>
        <time>2015-07-21T10:45:06.000Z</time>
      </trkpt>
      <trkpt lat="48.80896" lon="1.67782">
        <ele>172</ele>
        <time>2015-07-21T10:45:12.000Z</time>
      </trkpt>
      <trkpt lat="48.80901" lon="1.67785">
        <ele>173</ele>
        <time>2015-07-21T10:45:17.000Z</time>
      </trkpt>
      <trkpt lat="48.80902" lon="1.67786">
        <ele>173.19999694824</ele>
        <time>2015-07-21T10:45:18.000Z</time>
      </trkpt>
      <trkpt lat="48.80903" lon="1.67789">
        <ele>173.39999389648</ele>
        <time>2015-07-21T10:45:22.000Z</time>
      </trkpt>
      <trkpt lat="48.80903" lon="1.6779">
        <ele>173.39999389648</ele>
        <time>2015-07-21T10:45:23.000Z</time>
      </trkpt>
      <trkpt lat="48.80921" lon="1.67793">
        <ele>176.19999694824</ele>
        <time>2015-07-21T10:45:58.000Z</time>
      </trkpt>
      <trkpt lat="48.80924" lon="1.67794">
        <ele>176.60000610352</ele>
        <time>2015-07-21T10:46:00.000Z</time>
      </trkpt>
      <trkpt lat="48.80928" lon="1.67796">
        <ele>177.39999389648</ele>
        <time>2015-07-21T10:46:04.000Z</time>
      </trkpt>
      <trkpt lat="48.8093" lon="1.67796">
        <ele>177.60000610352</ele>
        <time>2015-07-21T10:46:06.000Z</time>
      </trkpt>
      <trkpt lat="48.80935" lon="1.67797">
        <ele>178.39999389648</ele>
        <time>2015-07-21T10:46:09.000Z</time>
      </trkpt>
      <trkpt lat="48.80938" lon="1.67798">
        <ele>179</ele>
        <time>2015-07-21T10:46:11.000Z</time>
      </trkpt>
      <trkpt lat="48.8094" lon="1.67798">
        <ele>179</ele>
        <time>2015-07-21T10:46:12.000Z</time>
      </trkpt>
      <trkpt lat="48.80945" lon="1.678">
        <ele>179.19999694824</ele>
        <time>2015-07-21T10:46:17.000Z</time>
      </trkpt>
      <trkpt lat="48.80953" lon="1.67803">
        <ele>179.60000610352</ele>
        <time>2015-07-21T10:46:23.000Z</time>
      </trkpt>
      <trkpt lat="48.80961" lon="1.67805">
        <ele>179.80000305176</ele>
        <time>2015-07-21T10:46:29.000Z</time>
      </trkpt>
      <trkpt lat="48.8097" lon="1.67807">
        <ele>180.19999694824</ele>
        <time>2015-07-21T10:46:36.000Z</time>
      </trkpt>
      <trkpt lat="48.80976" lon="1.67807">
        <ele>180.19999694824</ele>
        <time>2015-07-21T10:46:40.000Z</time>
      </trkpt>
      <trkpt lat="48.80979" lon="1.67807">
        <ele>180.39999389648</ele>
        <time>2015-07-21T10:46:42.000Z</time>
      </trkpt>
      <trkpt lat="48.80987" lon="1.67809">
        <ele>180.60000610352</ele>
        <time>2015-07-21T10:46:48.000Z</time>
      </trkpt>
      <trkpt lat="48.80996" lon="1.67811">
        <ele>181</ele>
        <time>2015-07-21T10:46:54.000Z</time>
      </trkpt>
      <trkpt lat="48.81004" lon="1.67812">
        <ele>181.19999694824</ele>
        <time>2015-07-21T10:46:59.000Z</time>
      </trkpt>
      <trkpt lat="48.81008" lon="1.67813">
        <ele>181.39999389648</ele>
        <time>2015-07-21T10:47:02.000Z</time>
      </trkpt>
      <trkpt lat="48.81021" lon="1.67814">
        <ele>181.80000305176</ele>
        <time>2015-07-21T10:47:10.000Z</time>
      </trkpt>
      <trkpt lat="48.81024" lon="1.67815">
        <ele>181.80000305176</ele>
        <time>2015-07-21T10:47:12.000Z</time>
      </trkpt>
      <trkpt lat="48.81026" lon="1.67818">
        <ele>181.80000305176</ele>
        <time>2015-07-21T10:47:14.000Z</time>
      </trkpt>
      <trkpt lat="48.8103" lon="1.67818">
        <ele>181.60000610352</ele>
        <time>2015-07-21T10:47:17.000Z</time>
      </trkpt>
      <trkpt lat="48.81032" lon="1.67818">
        <ele>181.60000610352</ele>
        <time>2015-07-21T10:47:18.000Z</time>
      </trkpt>
      <trkpt lat="48.81034" lon="1.67818">
        <ele>181.39999389648</ele>
        <time>2015-07-21T10:47:20.000Z</time>
      </trkpt>
      <trkpt lat="48.81037" lon="1.67817">
        <ele>181.19999694824</ele>
        <time>2015-07-21T10:47:22.000Z</time>
      </trkpt>
      <trkpt lat="48.81042" lon="1.67816">
        <ele>181</ele>
        <time>2015-07-21T10:47:26.000Z</time>
      </trkpt>
      <trkpt lat="48.81045" lon="1.67815">
        <ele>180.80000305176</ele>
        <time>2015-07-21T10:47:28.000Z</time>
      </trkpt>
      <trkpt lat="48.81046" lon="1.67815">
        <ele>180.80000305176</ele>
        <time>2015-07-21T10:47:29.000Z</time>
      </trkpt>
      <trkpt lat="48.81053" lon="1.67814">
        <ele>180.39999389648</ele>
        <time>2015-07-21T10:47:34.000Z</time>
      </trkpt>
      <trkpt lat="48.8106" lon="1.67813">
        <ele>180</ele>
        <time>2015-07-21T10:47:39.000Z</time>
      </trkpt>
      <trkpt lat="48.81064" lon="1.67813">
        <ele>180</ele>
        <time>2015-07-21T10:47:41.000Z</time>
      </trkpt>
      <trkpt lat="48.81068" lon="1.67812">
        <ele>179.80000305176</ele>
        <time>2015-07-21T10:47:43.000Z</time>
      </trkpt>
      <trkpt lat="48.81072" lon="1.67813">
        <ele>179.60000610352</ele>
        <time>2015-07-21T10:47:46.000Z</time>
      </trkpt>
      <trkpt lat="48.81078" lon="1.67812">
        <ele>179.19999694824</ele>
        <time>2015-07-21T10:47:50.000Z</time>
      </trkpt>
      <trkpt lat="48.81079" lon="1.67812">
        <ele>179.19999694824</ele>
        <time>2015-07-21T10:47:51.000Z</time>
      </trkpt>
      <trkpt lat="48.81087" lon="1.67812">
        <ele>178.80000305176</ele>
        <time>2015-07-21T10:47:56.000Z</time>
      </trkpt>
      <trkpt lat="48.81092" lon="1.67812">
        <ele>178.60000610352</ele>
        <time>2015-07-21T10:48:00.000Z</time>
      </trkpt>
      <trkpt lat="48.81095" lon="1.67812">
        <ele>178.39999389648</ele>
        <time>2015-07-21T10:48:02.000Z</time>
      </trkpt>
      <trkpt lat="48.81096" lon="1.67811">
        <ele>178.39999389648</ele>
        <time>2015-07-21T10:48:03.000Z</time>
      </trkpt>
      <trkpt lat="48.811" lon="1.67811">
        <ele>178.19999694824</ele>
        <time>2015-07-21T10:48:06.000Z</time>
      </trkpt>
      <trkpt lat="48.81102" lon="1.67812">
        <ele>178.19999694824</ele>
        <time>2015-07-21T10:48:08.000Z</time>
      </trkpt>
      <trkpt lat="48.81103" lon="1.67812">
        <ele>178.19999694824</ele>
        <time>2015-07-21T10:48:09.000Z</time>
      </trkpt>
      <trkpt lat="48.81108" lon="1.67812">
        <ele>177.80000305176</ele>
        <time>2015-07-21T10:48:13.000Z</time>
      </trkpt>
      <trkpt lat="48.81115" lon="1.67817">
        <ele>177.19999694824</ele>
        <time>2015-07-21T10:48:19.000Z</time>
      </trkpt>
      <trkpt lat="48.81121" lon="1.67818">
        <ele>176.80000305176</ele>
        <time>2015-07-21T10:48:24.000Z</time>
      </trkpt>
      <trkpt lat="48.81122" lon="1.67818">
        <ele>176.60000610352</ele>
        <time>2015-07-21T10:48:25.000Z</time>
      </trkpt>
      <trkpt lat="48.8113" lon="1.6782">
        <ele>176</ele>
        <time>2015-07-21T10:48:31.000Z</time>
      </trkpt>
      <trkpt lat="48.81138" lon="1.67822">
        <ele>175</ele>
        <time>2015-07-21T10:48:37.000Z</time>
      </trkpt>
      <trkpt lat="48.81146" lon="1.67825">
        <ele>174.19999694824</ele>
        <time>2015-07-21T10:48:42.000Z</time>
      </trkpt>
      <trkpt lat="48.81148" lon="1.67825">
        <ele>174</ele>
        <time>2015-07-21T10:48:43.000Z</time>
      </trkpt>
      <trkpt lat="48.81152" lon="1.67828">
        <ele>173.39999389648</ele>
        <time>2015-07-21T10:48:46.000Z</time>
      </trkpt>
      <trkpt lat="48.81167" lon="1.67832">
        <ele>172</ele>
        <time>2015-07-21T10:48:54.000Z</time>
      </trkpt>
      <trkpt lat="48.81173" lon="1.67834">
        <ele>171.19999694824</ele>
        <time>2015-07-21T10:48:58.000Z</time>
      </trkpt>
      <trkpt lat="48.81177" lon="1.67834">
        <ele>171</ele>
        <time>2015-07-21T10:49:00.000Z</time>
      </trkpt>
      <trkpt lat="48.81184" lon="1.67841">
        <ele>169.80000305176</ele>
        <time>2015-07-21T10:49:05.000Z</time>
      </trkpt>
      <trkpt lat="48.81191" lon="1.67846">
        <ele>169</ele>
        <time>2015-07-21T10:49:10.000Z</time>
      </trkpt>
      <trkpt lat="48.81199" lon="1.67853">
        <ele>168</ele>
        <time>2015-07-21T10:49:16.000Z</time>
      </trkpt>
      <trkpt lat="48.81208" lon="1.67859">
        <ele>167</ele>
        <time>2015-07-21T10:49:23.000Z</time>
      </trkpt>
      <trkpt lat="48.81218" lon="1.67868">
        <ele>165.80000305176</ele>
        <time>2015-07-21T10:49:31.000Z</time>
      </trkpt>
      <trkpt lat="48.81231" lon="1.6788">
        <ele>164.19999694824</ele>
        <time>2015-07-21T10:49:41.000Z</time>
      </trkpt>
      <trkpt lat="48.8124" lon="1.67889">
        <ele>163</ele>
        <time>2015-07-21T10:49:48.000Z</time>
      </trkpt>
      <trkpt lat="48.81253" lon="1.67904">
        <ele>161.19999694824</ele>
        <time>2015-07-21T10:49:58.000Z</time>
      </trkpt>
      <trkpt lat="48.81254" lon="1.67905">
        <ele>161</ele>
        <time>2015-07-21T10:49:59.000Z</time>
      </trkpt>
      <trkpt lat="48.81261" lon="1.67915">
        <ele>160.19999694824</ele>
        <time>2015-07-21T10:50:05.000Z</time>
      </trkpt>
      <trkpt lat="48.8127" lon="1.67928">
        <ele>159.19999694824</ele>
        <time>2015-07-21T10:50:13.000Z</time>
      </trkpt>
      <trkpt lat="48.81271" lon="1.67928">
        <ele>159.19999694824</ele>
        <time>2015-07-21T10:50:14.000Z</time>
      </trkpt>
      <trkpt lat="48.81271" lon="1.67924">
        <ele>159.39999389648</ele>
        <time>2015-07-21T10:50:17.000Z</time>
      </trkpt>
      <trkpt lat="48.81269" lon="1.67923">
        <ele>159.39999389648</ele>
        <time>2015-07-21T10:50:18.000Z</time>
      </trkpt>
      <trkpt lat="48.81265" lon="1.67917">
        <ele>160</ele>
        <time>2015-07-21T10:50:22.000Z</time>
      </trkpt>
      <trkpt lat="48.81259" lon="1.67909">
        <ele>160.60000610352</ele>
        <time>2015-07-21T10:50:27.000Z</time>
      </trkpt>
      <trkpt lat="48.81258" lon="1.67908">
        <ele>160.60000610352</ele>
        <time>2015-07-21T10:50:28.000Z</time>
      </trkpt>
      <trkpt lat="48.81255" lon="1.67904">
        <ele>161</ele>
        <time>2015-07-21T10:50:31.000Z</time>
      </trkpt>
      <trkpt lat="48.81251" lon="1.679">
        <ele>161.39999389648</ele>
        <time>2015-07-21T10:50:34.000Z</time>
      </trkpt>
      <trkpt lat="48.81245" lon="1.67893">
        <ele>162.39999389648</ele>
        <time>2015-07-21T10:50:39.000Z</time>
      </trkpt>
      <trkpt lat="48.81241" lon="1.6789">
        <ele>162.80000305176</ele>
        <time>2015-07-21T10:50:42.000Z</time>
      </trkpt>
      <trkpt lat="48.81237" lon="1.67887">
        <ele>163.19999694824</ele>
        <time>2015-07-21T10:50:45.000Z</time>
      </trkpt>
      <trkpt lat="48.81232" lon="1.67882">
        <ele>163.80000305176</ele>
        <time>2015-07-21T10:50:49.000Z</time>
      </trkpt>
      <trkpt lat="48.81231" lon="1.67881">
        <ele>164</ele>
        <time>2015-07-21T10:50:50.000Z</time>
      </trkpt>
      <trkpt lat="48.81222" lon="1.67873">
        <ele>165.19999694824</ele>
        <time>2015-07-21T10:50:57.000Z</time>
      </trkpt>
      <trkpt lat="48.81214" lon="1.67864">
        <ele>166.19999694824</ele>
        <time>2015-07-21T10:51:04.000Z</time>
      </trkpt>
      <trkpt lat="48.81214" lon="1.67863">
        <ele>166.39999389648</ele>
        <time>2015-07-21T10:51:05.000Z</time>
      </trkpt>
      <trkpt lat="48.81216" lon="1.67854">
        <ele>166.80000305176</ele>
        <time>2015-07-21T10:51:09.000Z</time>
      </trkpt>
      <trkpt lat="48.81219" lon="1.67845">
        <ele>167.19999694824</ele>
        <time>2015-07-21T10:51:14.000Z</time>
      </trkpt>
      <trkpt lat="48.81225" lon="1.67841">
        <ele>166.80000305176</ele>
        <time>2015-07-21T10:51:19.000Z</time>
      </trkpt>
      <trkpt lat="48.81232" lon="1.6784">
        <ele>166.39999389648</ele>
        <time>2015-07-21T10:51:24.000Z</time>
      </trkpt>
      <trkpt lat="48.81239" lon="1.67843">
        <ele>165.60000610352</ele>
        <time>2015-07-21T10:51:29.000Z</time>
      </trkpt>
      <trkpt lat="48.81244" lon="1.67844">
        <ele>165.19999694824</ele>
        <time>2015-07-21T10:51:33.000Z</time>
      </trkpt>
      <trkpt lat="48.81249" lon="1.67847">
        <ele>164.60000610352</ele>
        <time>2015-07-21T10:51:37.000Z</time>
      </trkpt>
      <trkpt lat="48.81257" lon="1.6785">
        <ele>163.80000305176</ele>
        <time>2015-07-21T10:51:43.000Z</time>
      </trkpt>
      <trkpt lat="48.8126" lon="1.67852">
        <ele>163.39999389648</ele>
        <time>2015-07-21T10:51:45.000Z</time>
      </trkpt>
      <trkpt lat="48.81263" lon="1.67854">
        <ele>163.19999694824</ele>
        <time>2015-07-21T10:51:47.000Z</time>
      </trkpt>
      <trkpt lat="48.81271" lon="1.67858">
        <ele>162.19999694824</ele>
        <time>2015-07-21T10:51:53.000Z</time>
      </trkpt>
      <trkpt lat="48.81277" lon="1.6786">
        <ele>162</ele>
        <time>2015-07-21T10:51:58.000Z</time>
      </trkpt>
      <trkpt lat="48.81278" lon="1.67861">
        <ele>162</ele>
        <time>2015-07-21T10:51:59.000Z</time>
      </trkpt>
      <trkpt lat="48.81282" lon="1.67863">
        <ele>161.80000305176</ele>
        <time>2015-07-21T10:52:03.000Z</time>
      </trkpt>
      <trkpt lat="48.81286" lon="1.67866">
        <ele>161.60000610352</ele>
        <time>2015-07-21T10:52:06.000Z</time>
      </trkpt>
      <trkpt lat="48.81293" lon="1.6787">
        <ele>161.39999389648</ele>
        <time>2015-07-21T10:52:11.000Z</time>
      </trkpt>
      <trkpt lat="48.81299" lon="1.67873">
        <ele>161.19999694824</ele>
        <time>2015-07-21T10:52:16.000Z</time>
      </trkpt>
      <trkpt lat="48.8131" lon="1.67875">
        <ele>160.80000305176</ele>
        <time>2015-07-21T10:52:24.000Z</time>
      </trkpt>
      <trkpt lat="48.81319" lon="1.67878">
        <ele>160.60000610352</ele>
        <time>2015-07-21T10:52:31.000Z</time>
      </trkpt>
      <trkpt lat="48.81327" lon="1.67882">
        <ele>160.39999389648</ele>
        <time>2015-07-21T10:52:37.000Z</time>
      </trkpt>
      <trkpt lat="48.81337" lon="1.67885">
        <ele>160</ele>
        <time>2015-07-21T10:52:43.000Z</time>
      </trkpt>
      <trkpt lat="48.81339" lon="1.67886">
        <ele>160</ele>
        <time>2015-07-21T10:52:44.000Z</time>
      </trkpt>
      <trkpt lat="48.81348" lon="1.67889">
        <ele>159.60000610352</ele>
        <time>2015-07-21T10:52:50.000Z</time>
      </trkpt>
      <trkpt lat="48.81351" lon="1.67889">
        <ele>159.39999389648</ele>
        <time>2015-07-21T10:52:52.000Z</time>
      </trkpt>
      <trkpt lat="48.81356" lon="1.67889">
        <ele>159.39999389648</ele>
        <time>2015-07-21T10:52:56.000Z</time>
      </trkpt>
      <trkpt lat="48.81359" lon="1.6789">
        <ele>159.39999389648</ele>
        <time>2015-07-21T10:52:58.000Z</time>
      </trkpt>
      <trkpt lat="48.81364" lon="1.67891">
        <ele>159.19999694824</ele>
        <time>2015-07-21T10:53:02.000Z</time>
      </trkpt>
      <trkpt lat="48.81366" lon="1.67892">
        <ele>159.19999694824</ele>
        <time>2015-07-21T10:53:03.000Z</time>
      </trkpt>
      <trkpt lat="48.8137" lon="1.67894">
        <ele>159.19999694824</ele>
        <time>2015-07-21T10:53:06.000Z</time>
      </trkpt>
      <trkpt lat="48.81373" lon="1.67894">
        <ele>159.19999694824</ele>
        <time>2015-07-21T10:53:08.000Z</time>
      </trkpt>
      <trkpt lat="48.81378" lon="1.67896">
        <ele>159.19999694824</ele>
        <time>2015-07-21T10:53:12.000Z</time>
      </trkpt>
      <trkpt lat="48.81387" lon="1.67901">
        <ele>159</ele>
        <time>2015-07-21T10:53:18.000Z</time>
      </trkpt>
      <trkpt lat="48.81389" lon="1.67902">
        <ele>159</ele>
        <time>2015-07-21T10:53:19.000Z</time>
      </trkpt>
      <trkpt lat="48.81391" lon="1.67904">
        <ele>159</ele>
        <time>2015-07-21T10:53:21.000Z</time>
      </trkpt>
      <trkpt lat="48.81396" lon="1.67908">
        <ele>158.80000305176</ele>
        <time>2015-07-21T10:53:24.000Z</time>
      </trkpt>
      <trkpt lat="48.81404" lon="1.67913">
        <ele>158.60000610352</ele>
        <time>2015-07-21T10:53:30.000Z</time>
      </trkpt>
      <trkpt lat="48.81406" lon="1.67913">
        <ele>158.60000610352</ele>
        <time>2015-07-21T10:53:32.000Z</time>
      </trkpt>
      <trkpt lat="48.81412" lon="1.67914">
        <ele>158.39999389648</ele>
        <time>2015-07-21T10:53:35.000Z</time>
      </trkpt>
      <trkpt lat="48.81413" lon="1.67913">
        <ele>158.60000610352</ele>
        <time>2015-07-21T10:53:36.000Z</time>
      </trkpt>
      <trkpt lat="48.81419" lon="1.6791">
        <ele>158.60000610352</ele>
        <time>2015-07-21T10:53:41.000Z</time>
      </trkpt>
      <trkpt lat="48.81426" lon="1.67906">
        <ele>158.80000305176</ele>
        <time>2015-07-21T10:53:46.000Z</time>
      </trkpt>
      <trkpt lat="48.81431" lon="1.67898">
        <ele>159.19999694824</ele>
        <time>2015-07-21T10:53:52.000Z</time>
      </trkpt>
      <trkpt lat="48.81436" lon="1.67892">
        <ele>159.19999694824</ele>
        <time>2015-07-21T10:53:58.000Z</time>
      </trkpt>
      <trkpt lat="48.81437" lon="1.6789">
        <ele>159.19999694824</ele>
        <time>2015-07-21T10:54:01.000Z</time>
      </trkpt>
      <trkpt lat="48.81454" lon="1.67967">
        <ele>155.80000305176</ele>
        <time>2015-07-21T10:55:59.000Z</time>
      </trkpt>
      <trkpt lat="48.8146" lon="1.67973">
        <ele>155.39999389648</ele>
        <time>2015-07-21T10:56:04.000Z</time>
      </trkpt>
      <trkpt lat="48.81464" lon="1.67976">
        <ele>155.19999694824</ele>
        <time>2015-07-21T10:56:07.000Z</time>
      </trkpt>
      <trkpt lat="48.81469" lon="1.67981">
        <ele>155</ele>
        <time>2015-07-21T10:56:12.000Z</time>
      </trkpt>
      <trkpt lat="48.8147" lon="1.67982">
        <ele>154.80000305176</ele>
        <time>2015-07-21T10:56:14.000Z</time>
      </trkpt>
      <trkpt lat="48.81478" lon="1.67987">
        <ele>154.39999389648</ele>
        <time>2015-07-21T10:56:21.000Z</time>
      </trkpt>
      <trkpt lat="48.81481" lon="1.67988">
        <ele>154.39999389648</ele>
        <time>2015-07-21T10:56:25.000Z</time>
      </trkpt>
      <trkpt lat="48.81498" lon="1.67996">
        <ele>153.60000610352</ele>
        <time>2015-07-21T10:56:54.000Z</time>
      </trkpt>
      <trkpt lat="48.81505" lon="1.68003">
        <ele>153</ele>
        <time>2015-07-21T10:57:00.000Z</time>
      </trkpt>
      <trkpt lat="48.81513" lon="1.68007">
        <ele>152.60000610352</ele>
        <time>2015-07-21T10:57:06.000Z</time>
      </trkpt>
      <trkpt lat="48.8152" lon="1.68013">
        <ele>152</ele>
        <time>2015-07-21T10:57:12.000Z</time>
      </trkpt>
      <trkpt lat="48.81529" lon="1.68021">
        <ele>151.19999694824</ele>
        <time>2015-07-21T10:57:19.000Z</time>
      </trkpt>
      <trkpt lat="48.81536" lon="1.68023">
        <ele>150.60000610352</ele>
        <time>2015-07-21T10:57:24.000Z</time>
      </trkpt>
      <trkpt lat="48.81537" lon="1.68024">
        <ele>150.60000610352</ele>
        <time>2015-07-21T10:57:25.000Z</time>
      </trkpt>
      <trkpt lat="48.81553" lon="1.68034">
        <ele>149</ele>
        <time>2015-07-21T10:57:36.000Z</time>
      </trkpt>
      <trkpt lat="48.81563" lon="1.6804">
        <ele>148.19999694824</ele>
        <time>2015-07-21T10:57:44.000Z</time>
      </trkpt>
      <trkpt lat="48.81572" lon="1.68047">
        <ele>147.19999694824</ele>
        <time>2015-07-21T10:57:51.000Z</time>
      </trkpt>
      <trkpt lat="48.81577" lon="1.68052">
        <ele>146.60000610352</ele>
        <time>2015-07-21T10:57:56.000Z</time>
      </trkpt>
      <trkpt lat="48.81587" lon="1.68056">
        <ele>145.80000305176</ele>
        <time>2015-07-21T10:58:03.000Z</time>
      </trkpt>
      <trkpt lat="48.81596" lon="1.68064">
        <ele>144.80000305176</ele>
        <time>2015-07-21T10:58:10.000Z</time>
      </trkpt>
      <trkpt lat="48.81606" lon="1.68071">
        <ele>144</ele>
        <time>2015-07-21T10:58:18.000Z</time>
      </trkpt>
      <trkpt lat="48.8161" lon="1.68073">
        <ele>143.60000610352</ele>
        <time>2015-07-21T10:58:21.000Z</time>
      </trkpt>
      <trkpt lat="48.81613" lon="1.68075">
        <ele>143.39999389648</ele>
        <time>2015-07-21T10:58:24.000Z</time>
      </trkpt>
      <trkpt lat="48.81623" lon="1.68083">
        <ele>142.60000610352</ele>
        <time>2015-07-21T10:58:32.000Z</time>
      </trkpt>
      <trkpt lat="48.81637" lon="1.68092">
        <ele>141.80000305176</ele>
        <time>2015-07-21T10:58:42.000Z</time>
      </trkpt>
      <trkpt lat="48.81647" lon="1.68101">
        <ele>140.80000305176</ele>
        <time>2015-07-21T10:58:51.000Z</time>
      </trkpt>
      <trkpt lat="48.81656" lon="1.68108">
        <ele>140.19999694824</ele>
        <time>2015-07-21T10:58:58.000Z</time>
      </trkpt>
      <trkpt lat="48.81669" lon="1.68118">
        <ele>139.19999694824</ele>
        <time>2015-07-21T10:59:08.000Z</time>
      </trkpt>
      <trkpt lat="48.81676" lon="1.68125">
        <ele>138.60000610352</ele>
        <time>2015-07-21T10:59:13.000Z</time>
      </trkpt>
      <trkpt lat="48.81677" lon="1.68126">
        <ele>138.60000610352</ele>
        <time>2015-07-21T10:59:14.000Z</time>
      </trkpt>
      <trkpt lat="48.81684" lon="1.68132">
        <ele>138</ele>
        <time>2015-07-21T10:59:20.000Z</time>
      </trkpt>
      <trkpt lat="48.81695" lon="1.68135">
        <ele>137.39999389648</ele>
        <time>2015-07-21T10:59:28.000Z</time>
      </trkpt>
      <trkpt lat="48.817" lon="1.68132">
        <ele>137.39999389648</ele>
        <time>2015-07-21T10:59:33.000Z</time>
      </trkpt>
      <trkpt lat="48.81701" lon="1.68128">
        <ele>137.60000610352</ele>
        <time>2015-07-21T10:59:35.000Z</time>
      </trkpt>
      <trkpt lat="48.81702" lon="1.68113">
        <ele>138.19999694824</ele>
        <time>2015-07-21T10:59:42.000Z</time>
      </trkpt>
      <trkpt lat="48.817" lon="1.68099">
        <ele>138.60000610352</ele>
        <time>2015-07-21T10:59:50.000Z</time>
      </trkpt>
      <trkpt lat="48.81697" lon="1.68079">
        <ele>139.39999389648</ele>
        <time>2015-07-21T11:00:00.000Z</time>
      </trkpt>
      <trkpt lat="48.81694" lon="1.68059">
        <ele>140</ele>
        <time>2015-07-21T11:00:10.000Z</time>
      </trkpt>
      <trkpt lat="48.81692" lon="1.6804">
        <ele>140.60000610352</ele>
        <time>2015-07-21T11:00:19.000Z</time>
      </trkpt>
      <trkpt lat="48.81691" lon="1.6803">
        <ele>140.80000305176</ele>
        <time>2015-07-21T11:00:24.000Z</time>
      </trkpt>
      <trkpt lat="48.8169" lon="1.68017">
        <ele>141.19999694824</ele>
        <time>2015-07-21T11:00:30.000Z</time>
      </trkpt>
      <trkpt lat="48.81687" lon="1.67999">
        <ele>141.80000305176</ele>
        <time>2015-07-21T11:00:39.000Z</time>
      </trkpt>
      <trkpt lat="48.81685" lon="1.67981">
        <ele>142.39999389648</ele>
        <time>2015-07-21T11:00:48.000Z</time>
      </trkpt>
      <trkpt lat="48.81683" lon="1.67966">
        <ele>142.80000305176</ele>
        <time>2015-07-21T11:00:55.000Z</time>
      </trkpt>
      <trkpt lat="48.81682" lon="1.67953">
        <ele>143.39999389648</ele>
        <time>2015-07-21T11:01:01.000Z</time>
      </trkpt>
      <trkpt lat="48.81679" lon="1.67934">
        <ele>144</ele>
        <time>2015-07-21T11:01:10.000Z</time>
      </trkpt>
      <trkpt lat="48.81676" lon="1.67914">
        <ele>144.60000610352</ele>
        <time>2015-07-21T11:01:19.000Z</time>
      </trkpt>
      <trkpt lat="48.81674" lon="1.67897">
        <ele>145</ele>
        <time>2015-07-21T11:01:28.000Z</time>
      </trkpt>
      <trkpt lat="48.81672" lon="1.67881">
        <ele>145</ele>
        <time>2015-07-21T11:01:36.000Z</time>
      </trkpt>
      <trkpt lat="48.81668" lon="1.67859">
        <ele>145.60000610352</ele>
        <time>2015-07-21T11:01:47.000Z</time>
      </trkpt>
      <trkpt lat="48.81664" lon="1.6784">
        <ele>146</ele>
        <time>2015-07-21T11:01:57.000Z</time>
      </trkpt>
      <trkpt lat="48.81664" lon="1.67837">
        <ele>146</ele>
        <time>2015-07-21T11:01:58.000Z</time>
      </trkpt>
      <trkpt lat="48.81662" lon="1.67831">
        <ele>146.19999694824</ele>
        <time>2015-07-21T11:02:01.000Z</time>
      </trkpt>
      <trkpt lat="48.8166" lon="1.67819">
        <ele>146.39999389648</ele>
        <time>2015-07-21T11:02:07.000Z</time>
      </trkpt>
      <trkpt lat="48.81658" lon="1.67805">
        <ele>147</ele>
        <time>2015-07-21T11:02:14.000Z</time>
      </trkpt>
      <trkpt lat="48.81657" lon="1.67801">
        <ele>147.19999694824</ele>
        <time>2015-07-21T11:02:16.000Z</time>
      </trkpt>
      <trkpt lat="48.81656" lon="1.67793">
        <ele>147.60000610352</ele>
        <time>2015-07-21T11:02:20.000Z</time>
      </trkpt>
      <trkpt lat="48.81653" lon="1.67776">
        <ele>148.19999694824</ele>
        <time>2015-07-21T11:02:28.000Z</time>
      </trkpt>
      <trkpt lat="48.81652" lon="1.67767">
        <ele>148.39999389648</ele>
        <time>2015-07-21T11:02:32.000Z</time>
      </trkpt>
      <trkpt lat="48.81651" lon="1.67762">
        <ele>148.60000610352</ele>
        <time>2015-07-21T11:02:35.000Z</time>
      </trkpt>
      <trkpt lat="48.8165" lon="1.67755">
        <ele>148.80000305176</ele>
        <time>2015-07-21T11:02:39.000Z</time>
      </trkpt>
      <trkpt lat="48.81648" lon="1.67746">
        <ele>149.19999694824</ele>
        <time>2015-07-21T11:02:43.000Z</time>
      </trkpt>
      <trkpt lat="48.81648" lon="1.6773">
        <ele>149.60000610352</ele>
        <time>2015-07-21T11:02:51.000Z</time>
      </trkpt>
      <trkpt lat="48.8165" lon="1.67719">
        <ele>150</ele>
        <time>2015-07-21T11:02:57.000Z</time>
      </trkpt>
      <trkpt lat="48.81649" lon="1.6771">
        <ele>150.39999389648</ele>
        <time>2015-07-21T11:03:03.000Z</time>
      </trkpt>
      <trkpt lat="48.81649" lon="1.677">
        <ele>150.60000610352</ele>
        <time>2015-07-21T11:03:09.000Z</time>
      </trkpt>
      <trkpt lat="48.81648" lon="1.67694">
        <ele>150.80000305176</ele>
        <time>2015-07-21T11:03:13.000Z</time>
      </trkpt>
      <trkpt lat="48.81648" lon="1.6769">
        <ele>151</ele>
        <time>2015-07-21T11:03:15.000Z</time>
      </trkpt>
      <trkpt lat="48.81649" lon="1.67689">
        <ele>151</ele>
        <time>2015-07-21T11:03:16.000Z</time>
      </trkpt>
      <trkpt lat="48.81649" lon="1.67678">
        <ele>151</ele>
        <time>2015-07-21T11:03:21.000Z</time>
      </trkpt>
      <trkpt lat="48.81652" lon="1.67665">
        <ele>151</ele>
        <time>2015-07-21T11:03:27.000Z</time>
      </trkpt>
      <trkpt lat="48.81652" lon="1.67663">
        <ele>151</ele>
        <time>2015-07-21T11:03:28.000Z</time>
      </trkpt>
      <trkpt lat="48.81654" lon="1.67649">
        <ele>150.80000305176</ele>
        <time>2015-07-21T11:03:34.000Z</time>
      </trkpt>
      <trkpt lat="48.81657" lon="1.67635">
        <ele>150.60000610352</ele>
        <time>2015-07-21T11:03:41.000Z</time>
      </trkpt>
      <trkpt lat="48.81657" lon="1.6763">
        <ele>150.60000610352</ele>
        <time>2015-07-21T11:03:43.000Z</time>
      </trkpt>
      <trkpt lat="48.81658" lon="1.67618">
        <ele>150.60000610352</ele>
        <time>2015-07-21T11:03:49.000Z</time>
      </trkpt>
      <trkpt lat="48.81659" lon="1.67609">
        <ele>150.60000610352</ele>
        <time>2015-07-21T11:03:53.000Z</time>
      </trkpt>
      <trkpt lat="48.8166" lon="1.67604">
        <ele>150.60000610352</ele>
        <time>2015-07-21T11:03:55.000Z</time>
      </trkpt>
      <trkpt lat="48.81663" lon="1.67589">
        <ele>150.60000610352</ele>
        <time>2015-07-21T11:04:02.000Z</time>
      </trkpt>
      <trkpt lat="48.81663" lon="1.67581">
        <ele>150.60000610352</ele>
        <time>2015-07-21T11:04:05.000Z</time>
      </trkpt>
      <trkpt lat="48.81663" lon="1.67574">
        <ele>150.80000305176</ele>
        <time>2015-07-21T11:04:08.000Z</time>
      </trkpt>
      <trkpt lat="48.81663" lon="1.67568">
        <ele>150.80000305176</ele>
        <time>2015-07-21T11:04:10.000Z</time>
      </trkpt>
      <trkpt lat="48.81663" lon="1.67554">
        <ele>150.19999694824</ele>
        <time>2015-07-21T11:04:16.000Z</time>
      </trkpt>
      <trkpt lat="48.81663" lon="1.67537">
        <ele>149.80000305176</ele>
        <time>2015-07-21T11:04:23.000Z</time>
      </trkpt>
      <trkpt lat="48.81662" lon="1.67519">
        <ele>149.39999389648</ele>
        <time>2015-07-21T11:04:31.000Z</time>
      </trkpt>
      <trkpt lat="48.81662" lon="1.67504">
        <ele>149</ele>
        <time>2015-07-21T11:04:38.000Z</time>
      </trkpt>
      <trkpt lat="48.8166" lon="1.67488">
        <ele>148.80000305176</ele>
        <time>2015-07-21T11:04:45.000Z</time>
      </trkpt>
      <trkpt lat="48.8166" lon="1.67481">
        <ele>148.39999389648</ele>
        <time>2015-07-21T11:04:48.000Z</time>
      </trkpt>
      <trkpt lat="48.8166" lon="1.67475">
        <ele>148.19999694824</ele>
        <time>2015-07-21T11:04:50.000Z</time>
      </trkpt>
      <trkpt lat="48.81658" lon="1.67457">
        <ele>147.39999389648</ele>
        <time>2015-07-21T11:04:58.000Z</time>
      </trkpt>
      <trkpt lat="48.81657" lon="1.67444">
        <ele>147.60000610352</ele>
        <time>2015-07-21T11:05:03.000Z</time>
      </trkpt>
      <trkpt lat="48.81656" lon="1.67429">
        <ele>147.60000610352</ele>
        <time>2015-07-21T11:05:10.000Z</time>
      </trkpt>
      <trkpt lat="48.81655" lon="1.67411">
        <ele>148</ele>
        <time>2015-07-21T11:05:18.000Z</time>
      </trkpt>
      <trkpt lat="48.81654" lon="1.67388">
        <ele>147.39999389648</ele>
        <time>2015-07-21T11:05:28.000Z</time>
      </trkpt>
      <trkpt lat="48.81653" lon="1.67371">
        <ele>146.80000305176</ele>
        <time>2015-07-21T11:05:36.000Z</time>
      </trkpt>
      <trkpt lat="48.81651" lon="1.67356">
        <ele>146.60000610352</ele>
        <time>2015-07-21T11:05:43.000Z</time>
      </trkpt>
      <trkpt lat="48.81651" lon="1.67337">
        <ele>146.60000610352</ele>
        <time>2015-07-21T11:05:52.000Z</time>
      </trkpt>
      <trkpt lat="48.81654" lon="1.67316">
        <ele>146.60000610352</ele>
        <time>2015-07-21T11:06:02.000Z</time>
      </trkpt>
      <trkpt lat="48.81662" lon="1.67285">
        <ele>145.80000305176</ele>
        <time>2015-07-21T11:06:17.000Z</time>
      </trkpt>
      <trkpt lat="48.81667" lon="1.67272">
        <ele>145.39999389648</ele>
        <time>2015-07-21T11:06:24.000Z</time>
      </trkpt>
      <trkpt lat="48.81667" lon="1.67271">
        <ele>145.39999389648</ele>
        <time>2015-07-21T11:06:26.000Z</time>
      </trkpt>
      <trkpt lat="48.81675" lon="1.67255">
        <ele>145.19999694824</ele>
        <time>2015-07-21T11:07:07.000Z</time>
      </trkpt>
      <trkpt lat="48.81676" lon="1.67253">
        <ele>145.19999694824</ele>
        <time>2015-07-21T11:07:08.000Z</time>
      </trkpt>
      <trkpt lat="48.81682" lon="1.6724">
        <ele>145</ele>
        <time>2015-07-21T11:07:17.000Z</time>
      </trkpt>
      <trkpt lat="48.8169" lon="1.67228">
        <ele>145</ele>
        <time>2015-07-21T11:07:24.000Z</time>
      </trkpt>
      <trkpt lat="48.81694" lon="1.67223">
        <ele>145</ele>
        <time>2015-07-21T11:07:29.000Z</time>
      </trkpt>
      <trkpt lat="48.81696" lon="1.67218">
        <ele>145</ele>
        <time>2015-07-21T11:07:32.000Z</time>
      </trkpt>
      <trkpt lat="48.81698" lon="1.67212">
        <ele>145</ele>
        <time>2015-07-21T11:07:35.000Z</time>
      </trkpt>
      <trkpt lat="48.81703" lon="1.67207">
        <ele>145</ele>
        <time>2015-07-21T11:07:39.000Z</time>
      </trkpt>
      <trkpt lat="48.81706" lon="1.67204">
        <ele>145</ele>
        <time>2015-07-21T11:07:41.000Z</time>
      </trkpt>
      <trkpt lat="48.8172" lon="1.67196">
        <ele>145.19999694824</ele>
        <time>2015-07-21T11:07:47.000Z</time>
      </trkpt>
      <trkpt lat="48.81736" lon="1.67188">
        <ele>145.80000305176</ele>
        <time>2015-07-21T11:07:53.000Z</time>
      </trkpt>
      <trkpt lat="48.81756" lon="1.67179">
        <ele>147</ele>
        <time>2015-07-21T11:07:59.000Z</time>
      </trkpt>
      <trkpt lat="48.81774" lon="1.67172">
        <ele>147.80000305176</ele>
        <time>2015-07-21T11:08:05.000Z</time>
      </trkpt>
      <trkpt lat="48.81793" lon="1.67163">
        <ele>147.60000610352</ele>
        <time>2015-07-21T11:08:11.000Z</time>
      </trkpt>
      <trkpt lat="48.81812" lon="1.67155">
        <ele>147</ele>
        <time>2015-07-21T11:08:17.000Z</time>
      </trkpt>
      <trkpt lat="48.81841" lon="1.67143">
        <ele>146.39999389648</ele>
        <time>2015-07-21T11:08:26.000Z</time>
      </trkpt>
      <trkpt lat="48.81859" lon="1.67134">
        <ele>145.19999694824</ele>
        <time>2015-07-21T11:08:32.000Z</time>
      </trkpt>
      <trkpt lat="48.81894" lon="1.6712">
        <ele>144.39999389648</ele>
        <time>2015-07-21T11:08:43.000Z</time>
      </trkpt>
      <trkpt lat="48.81916" lon="1.67114">
        <ele>143.80000305176</ele>
        <time>2015-07-21T11:08:50.000Z</time>
      </trkpt>
      <trkpt lat="48.81932" lon="1.67105">
        <ele>143.39999389648</ele>
        <time>2015-07-21T11:08:56.000Z</time>
      </trkpt>
      <trkpt lat="48.8195" lon="1.67098">
        <ele>143</ele>
        <time>2015-07-21T11:09:04.000Z</time>
      </trkpt>
      <trkpt lat="48.81961" lon="1.67094">
        <ele>142.80000305176</ele>
        <time>2015-07-21T11:09:12.000Z</time>
      </trkpt>
      <trkpt lat="48.81964" lon="1.67092">
        <ele>142.80000305176</ele>
        <time>2015-07-21T11:09:14.000Z</time>
      </trkpt>
      <trkpt lat="48.81969" lon="1.67089">
        <ele>143</ele>
        <time>2015-07-21T11:09:18.000Z</time>
      </trkpt>
      <trkpt lat="48.81979" lon="1.67085">
        <ele>143.39999389648</ele>
        <time>2015-07-21T11:09:25.000Z</time>
      </trkpt>
      <trkpt lat="48.81991" lon="1.6708">
        <ele>143.80000305176</ele>
        <time>2015-07-21T11:09:34.000Z</time>
      </trkpt>
      <trkpt lat="48.82" lon="1.67076">
        <ele>144.19999694824</ele>
        <time>2015-07-21T11:09:41.000Z</time>
      </trkpt>
      <trkpt lat="48.82007" lon="1.67072">
        <ele>144.39999389648</ele>
        <time>2015-07-21T11:09:46.000Z</time>
      </trkpt>
      <trkpt lat="48.8201" lon="1.67071">
        <ele>144.60000610352</ele>
        <time>2015-07-21T11:09:49.000Z</time>
      </trkpt>
      <trkpt lat="48.82012" lon="1.6707">
        <ele>144.60000610352</ele>
        <time>2015-07-21T11:09:50.000Z</time>
      </trkpt>
      <trkpt lat="48.8202" lon="1.67068">
        <ele>144.80000305176</ele>
        <time>2015-07-21T11:09:56.000Z</time>
      </trkpt>
      <trkpt lat="48.82021" lon="1.67067">
        <ele>144.80000305176</ele>
        <time>2015-07-21T11:09:57.000Z</time>
      </trkpt>
      <trkpt lat="48.82025" lon="1.67065">
        <ele>144.80000305176</ele>
        <time>2015-07-21T11:10:00.000Z</time>
      </trkpt>
      <trkpt lat="48.82028" lon="1.67063">
        <ele>144.80000305176</ele>
        <time>2015-07-21T11:10:02.000Z</time>
      </trkpt>
      <trkpt lat="48.82035" lon="1.67059">
        <ele>144.80000305176</ele>
        <time>2015-07-21T11:10:07.000Z</time>
      </trkpt>
      <trkpt lat="48.82037" lon="1.67057">
        <ele>144.80000305176</ele>
        <time>2015-07-21T11:10:09.000Z</time>
      </trkpt>
      <trkpt lat="48.82043" lon="1.67052">
        <ele>144.60000610352</ele>
        <time>2015-07-21T11:10:14.000Z</time>
      </trkpt>
      <trkpt lat="48.82046" lon="1.67051">
        <ele>144.60000610352</ele>
        <time>2015-07-21T11:10:16.000Z</time>
      </trkpt>
      <trkpt lat="48.82052" lon="1.67047">
        <ele>144.39999389648</ele>
        <time>2015-07-21T11:10:21.000Z</time>
      </trkpt>
      <trkpt lat="48.82057" lon="1.67044">
        <ele>144.39999389648</ele>
        <time>2015-07-21T11:10:25.000Z</time>
      </trkpt>
      <trkpt lat="48.82061" lon="1.67041">
        <ele>144.39999389648</ele>
        <time>2015-07-21T11:10:28.000Z</time>
      </trkpt>
      <trkpt lat="48.82062" lon="1.67041">
        <ele>144.39999389648</ele>
        <time>2015-07-21T11:10:29.000Z</time>
      </trkpt>
      <trkpt lat="48.82066" lon="1.67038">
        <ele>144.19999694824</ele>
        <time>2015-07-21T11:10:32.000Z</time>
      </trkpt>
      <trkpt lat="48.82078" lon="1.67026">
        <ele>144.80000305176</ele>
        <time>2015-07-21T11:10:42.000Z</time>
      </trkpt>
      <trkpt lat="48.82087" lon="1.67019">
        <ele>145.39999389648</ele>
        <time>2015-07-21T11:10:49.000Z</time>
      </trkpt>
      <trkpt lat="48.82092" lon="1.67015">
        <ele>145.60000610352</ele>
        <time>2015-07-21T11:10:53.000Z</time>
      </trkpt>
      <trkpt lat="48.82095" lon="1.67012">
        <ele>145.80000305176</ele>
        <time>2015-07-21T11:10:55.000Z</time>
      </trkpt>
      <trkpt lat="48.82099" lon="1.67007">
        <ele>146.19999694824</ele>
        <time>2015-07-21T11:10:59.000Z</time>
      </trkpt>
      <trkpt lat="48.82105" lon="1.67003">
        <ele>146.60000610352</ele>
        <time>2015-07-21T11:11:03.000Z</time>
      </trkpt>
      <trkpt lat="48.82107" lon="1.67001">
        <ele>146.60000610352</ele>
        <time>2015-07-21T11:11:05.000Z</time>
      </trkpt>
      <trkpt lat="48.82118" lon="1.66993">
        <ele>146.60000610352</ele>
        <time>2015-07-21T11:11:14.000Z</time>
      </trkpt>
      <trkpt lat="48.82129" lon="1.66985">
        <ele>146.19999694824</ele>
        <time>2015-07-21T11:11:23.000Z</time>
      </trkpt>
      <trkpt lat="48.82134" lon="1.66979">
        <ele>145.80000305176</ele>
        <time>2015-07-21T11:11:29.000Z</time>
      </trkpt>
      <trkpt lat="48.82139" lon="1.66975">
        <ele>145.60000610352</ele>
        <time>2015-07-21T11:11:33.000Z</time>
      </trkpt>
      <trkpt lat="48.82142" lon="1.66974">
        <ele>145.60000610352</ele>
        <time>2015-07-21T11:11:35.000Z</time>
      </trkpt>
      <trkpt lat="48.82148" lon="1.66972">
        <ele>145.19999694824</ele>
        <time>2015-07-21T11:11:39.000Z</time>
      </trkpt>
      <trkpt lat="48.82149" lon="1.66971">
        <ele>145.19999694824</ele>
        <time>2015-07-21T11:11:40.000Z</time>
      </trkpt>
      <trkpt lat="48.82159" lon="1.66964">
        <ele>144.80000305176</ele>
        <time>2015-07-21T11:11:48.000Z</time>
      </trkpt>
      <trkpt lat="48.82168" lon="1.66958">
        <ele>144.60000610352</ele>
        <time>2015-07-21T11:11:55.000Z</time>
      </trkpt>
      <trkpt lat="48.82174" lon="1.66951">
        <ele>144.60000610352</ele>
        <time>2015-07-21T11:12:01.000Z</time>
      </trkpt>
      <trkpt lat="48.82179" lon="1.66948">
        <ele>144.60000610352</ele>
        <time>2015-07-21T11:12:05.000Z</time>
      </trkpt>
      <trkpt lat="48.8218" lon="1.66946">
        <ele>144.60000610352</ele>
        <time>2015-07-21T11:12:06.000Z</time>
      </trkpt>
      <trkpt lat="48.82192" lon="1.66937">
        <ele>144.60000610352</ele>
        <time>2015-07-21T11:12:16.000Z</time>
      </trkpt>
      <trkpt lat="48.82203" lon="1.66927">
        <ele>144.80000305176</ele>
        <time>2015-07-21T11:12:25.000Z</time>
      </trkpt>
      <trkpt lat="48.82212" lon="1.6692">
        <ele>145</ele>
        <time>2015-07-21T11:12:32.000Z</time>
      </trkpt>
      <trkpt lat="48.82222" lon="1.66911">
        <ele>145</ele>
        <time>2015-07-21T11:12:41.000Z</time>
      </trkpt>
      <trkpt lat="48.82233" lon="1.66903">
        <ele>145</ele>
        <time>2015-07-21T11:12:49.000Z</time>
      </trkpt>
      <trkpt lat="48.82234" lon="1.66902">
        <ele>145</ele>
        <time>2015-07-21T11:12:50.000Z</time>
      </trkpt>
      <trkpt lat="48.82242" lon="1.66896">
        <ele>145</ele>
        <time>2015-07-21T11:12:56.000Z</time>
      </trkpt>
      <trkpt lat="48.82253" lon="1.66888">
        <ele>144.80000305176</ele>
        <time>2015-07-21T11:13:05.000Z</time>
      </trkpt>
      <trkpt lat="48.82257" lon="1.66883">
        <ele>144.80000305176</ele>
        <time>2015-07-21T11:13:09.000Z</time>
      </trkpt>
      <trkpt lat="48.82269" lon="1.66874">
        <ele>145.19999694824</ele>
        <time>2015-07-21T11:13:18.000Z</time>
      </trkpt>
      <trkpt lat="48.82279" lon="1.66864">
        <ele>145.39999389648</ele>
        <time>2015-07-21T11:13:27.000Z</time>
      </trkpt>
      <trkpt lat="48.82281" lon="1.66863">
        <ele>145.39999389648</ele>
        <time>2015-07-21T11:13:28.000Z</time>
      </trkpt>
      <trkpt lat="48.82285" lon="1.6686">
        <ele>145.60000610352</ele>
        <time>2015-07-21T11:13:31.000Z</time>
      </trkpt>
      <trkpt lat="48.82291" lon="1.66856">
        <ele>145.60000610352</ele>
        <time>2015-07-21T11:13:36.000Z</time>
      </trkpt>
      <trkpt lat="48.82291" lon="1.66855">
        <ele>145.60000610352</ele>
        <time>2015-07-21T11:13:37.000Z</time>
      </trkpt>
      <trkpt lat="48.82296" lon="1.66852">
        <ele>145.60000610352</ele>
        <time>2015-07-21T11:13:41.000Z</time>
      </trkpt>
      <trkpt lat="48.82304" lon="1.66847">
        <ele>145.60000610352</ele>
        <time>2015-07-21T11:13:47.000Z</time>
      </trkpt>
      <trkpt lat="48.82317" lon="1.66838">
        <ele>145.80000305176</ele>
        <time>2015-07-21T11:13:57.000Z</time>
      </trkpt>
      <trkpt lat="48.82328" lon="1.6683">
        <ele>145.80000305176</ele>
        <time>2015-07-21T11:14:06.000Z</time>
      </trkpt>
      <trkpt lat="48.82335" lon="1.66825">
        <ele>146</ele>
        <time>2015-07-21T11:14:11.000Z</time>
      </trkpt>
      <trkpt lat="48.82336" lon="1.66824">
        <ele>146</ele>
        <time>2015-07-21T11:14:12.000Z</time>
      </trkpt>
      <trkpt lat="48.82342" lon="1.66819">
        <ele>146</ele>
        <time>2015-07-21T11:14:18.000Z</time>
      </trkpt>
      <trkpt lat="48.82346" lon="1.66816">
        <ele>146</ele>
        <time>2015-07-21T11:14:24.000Z</time>
      </trkpt>
      <trkpt lat="48.82357" lon="1.66806">
        <ele>146.39999389648</ele>
        <time>2015-07-21T11:14:32.000Z</time>
      </trkpt>
      <trkpt lat="48.82367" lon="1.66797">
        <ele>146.60000610352</ele>
        <time>2015-07-21T11:14:37.000Z</time>
      </trkpt>
      <trkpt lat="48.82385" lon="1.66781">
        <ele>147</ele>
        <time>2015-07-21T11:14:43.000Z</time>
      </trkpt>
      <trkpt lat="48.82407" lon="1.66765">
        <ele>147</ele>
        <time>2015-07-21T11:14:49.000Z</time>
      </trkpt>
      <trkpt lat="48.82431" lon="1.66747">
        <ele>147</ele>
        <time>2015-07-21T11:14:57.000Z</time>
      </trkpt>
      <trkpt lat="48.82444" lon="1.66736">
        <ele>146.80000305176</ele>
        <time>2015-07-21T11:15:03.000Z</time>
      </trkpt>
      <trkpt lat="48.82447" lon="1.66733">
        <ele>146.60000610352</ele>
        <time>2015-07-21T11:15:06.000Z</time>
      </trkpt>
      <trkpt lat="48.82451" lon="1.66732">
        <ele>146.19999694824</ele>
        <time>2015-07-21T11:15:09.000Z</time>
      </trkpt>
      <trkpt lat="48.82453" lon="1.66732">
        <ele>146.19999694824</ele>
        <time>2015-07-21T11:15:11.000Z</time>
      </trkpt>
      <trkpt lat="48.82454" lon="1.66731">
        <ele>146.19999694824</ele>
        <time>2015-07-21T11:15:13.000Z</time>
      </trkpt>
      <trkpt lat="48.82464" lon="1.66745">
        <ele>145.80000305176</ele>
        <time>2015-07-21T11:15:41.000Z</time>
      </trkpt>
      <trkpt lat="48.82475" lon="1.66749">
        <ele>145.39999389648</ele>
        <time>2015-07-21T11:15:48.000Z</time>
      </trkpt>
      <trkpt lat="48.82486" lon="1.66755">
        <ele>145</ele>
        <time>2015-07-21T11:15:56.000Z</time>
      </trkpt>
      <trkpt lat="48.82494" lon="1.66758">
        <ele>144.60000610352</ele>
        <time>2015-07-21T11:16:02.000Z</time>
      </trkpt>
      <trkpt lat="48.82503" lon="1.66765">
        <ele>144.19999694824</ele>
        <time>2015-07-21T11:16:09.000Z</time>
      </trkpt>
      <trkpt lat="48.82505" lon="1.66766">
        <ele>144.19999694824</ele>
        <time>2015-07-21T11:16:10.000Z</time>
      </trkpt>
      <trkpt lat="48.82509" lon="1.66769">
        <ele>144</ele>
        <time>2015-07-21T11:16:13.000Z</time>
      </trkpt>
      <trkpt lat="48.82512" lon="1.66771">
        <ele>143.80000305176</ele>
        <time>2015-07-21T11:16:16.000Z</time>
      </trkpt>
      <trkpt lat="48.82516" lon="1.66774">
        <ele>143.80000305176</ele>
        <time>2015-07-21T11:16:19.000Z</time>
      </trkpt>
      <trkpt lat="48.82524" lon="1.66779">
        <ele>143.39999389648</ele>
        <time>2015-07-21T11:16:25.000Z</time>
      </trkpt>
      <trkpt lat="48.82535" lon="1.66786">
        <ele>143.19999694824</ele>
        <time>2015-07-21T11:16:33.000Z</time>
      </trkpt>
      <trkpt lat="48.82544" lon="1.66792">
        <ele>143.19999694824</ele>
        <time>2015-07-21T11:16:40.000Z</time>
      </trkpt>
      <trkpt lat="48.82552" lon="1.66797">
        <ele>143</ele>
        <time>2015-07-21T11:16:46.000Z</time>
      </trkpt>
      <trkpt lat="48.82564" lon="1.66804">
        <ele>142.80000305176</ele>
        <time>2015-07-21T11:16:55.000Z</time>
      </trkpt>
      <trkpt lat="48.82574" lon="1.6681">
        <ele>142.60000610352</ele>
        <time>2015-07-21T11:17:02.000Z</time>
      </trkpt>
      <trkpt lat="48.82583" lon="1.66816">
        <ele>142.39999389648</ele>
        <time>2015-07-21T11:17:09.000Z</time>
      </trkpt>
      <trkpt lat="48.82594" lon="1.66822">
        <ele>142.19999694824</ele>
        <time>2015-07-21T11:17:16.000Z</time>
      </trkpt>
      <trkpt lat="48.82601" lon="1.66826">
        <ele>142</ele>
        <time>2015-07-21T11:17:22.000Z</time>
      </trkpt>
      <trkpt lat="48.82604" lon="1.66828">
        <ele>142</ele>
        <time>2015-07-21T11:17:24.000Z</time>
      </trkpt>
      <trkpt lat="48.82613" lon="1.66834">
        <ele>142</ele>
        <time>2015-07-21T11:17:31.000Z</time>
      </trkpt>
      <trkpt lat="48.82623" lon="1.66839">
        <ele>141.80000305176</ele>
        <time>2015-07-21T11:17:38.000Z</time>
      </trkpt>
      <trkpt lat="48.82634" lon="1.66846">
        <ele>141.60000610352</ele>
        <time>2015-07-21T11:17:46.000Z</time>
      </trkpt>
      <trkpt lat="48.82643" lon="1.66851">
        <ele>141.39999389648</ele>
        <time>2015-07-21T11:17:52.000Z</time>
      </trkpt>
      <trkpt lat="48.82653" lon="1.66856">
        <ele>141.19999694824</ele>
        <time>2015-07-21T11:17:59.000Z</time>
      </trkpt>
      <trkpt lat="48.8266" lon="1.66859">
        <ele>141</ele>
        <time>2015-07-21T11:18:04.000Z</time>
      </trkpt>
      <trkpt lat="48.82663" lon="1.66861">
        <ele>141</ele>
        <time>2015-07-21T11:18:06.000Z</time>
      </trkpt>
      <trkpt lat="48.82667" lon="1.66863">
        <ele>140.80000305176</ele>
        <time>2015-07-21T11:18:09.000Z</time>
      </trkpt>
      <trkpt lat="48.82672" lon="1.66863">
        <ele>140.60000610352</ele>
        <time>2015-07-21T11:18:13.000Z</time>
      </trkpt>
      <trkpt lat="48.82682" lon="1.66864">
        <ele>140.39999389648</ele>
        <time>2015-07-21T11:18:20.000Z</time>
      </trkpt>
      <trkpt lat="48.82688" lon="1.66866">
        <ele>140.19999694824</ele>
        <time>2015-07-21T11:18:24.000Z</time>
      </trkpt>
      <trkpt lat="48.8269" lon="1.66868">
        <ele>140.19999694824</ele>
        <time>2015-07-21T11:18:26.000Z</time>
      </trkpt>
      <trkpt lat="48.82696" lon="1.6687">
        <ele>140.19999694824</ele>
        <time>2015-07-21T11:18:30.000Z</time>
      </trkpt>
      <trkpt lat="48.827" lon="1.66871">
        <ele>140.19999694824</ele>
        <time>2015-07-21T11:18:33.000Z</time>
      </trkpt>
      <trkpt lat="48.82712" lon="1.66872">
        <ele>140</ele>
        <time>2015-07-21T11:18:42.000Z</time>
      </trkpt>
      <trkpt lat="48.82724" lon="1.66875">
        <ele>140</ele>
        <time>2015-07-21T11:18:50.000Z</time>
      </trkpt>
      <trkpt lat="48.82732" lon="1.66877">
        <ele>139.80000305176</ele>
        <time>2015-07-21T11:18:56.000Z</time>
      </trkpt>
      <trkpt lat="48.82733" lon="1.66876">
        <ele>139.80000305176</ele>
        <time>2015-07-21T11:18:57.000Z</time>
      </trkpt>
      <trkpt lat="48.82739" lon="1.66878">
        <ele>139.80000305176</ele>
        <time>2015-07-21T11:19:01.000Z</time>
      </trkpt>
      <trkpt lat="48.82748" lon="1.66879">
        <ele>139.80000305176</ele>
        <time>2015-07-21T11:19:08.000Z</time>
      </trkpt>
      <trkpt lat="48.82759" lon="1.66883">
        <ele>139.80000305176</ele>
        <time>2015-07-21T11:19:16.000Z</time>
      </trkpt>
      <trkpt lat="48.82767" lon="1.66884">
        <ele>139.80000305176</ele>
        <time>2015-07-21T11:19:22.000Z</time>
      </trkpt>
      <trkpt lat="48.8278" lon="1.66887">
        <ele>139.80000305176</ele>
        <time>2015-07-21T11:19:31.000Z</time>
      </trkpt>
      <trkpt lat="48.82792" lon="1.66891">
        <ele>139.60000610352</ele>
        <time>2015-07-21T11:19:39.000Z</time>
      </trkpt>
      <trkpt lat="48.82796" lon="1.66892">
        <ele>139.60000610352</ele>
        <time>2015-07-21T11:19:42.000Z</time>
      </trkpt>
      <trkpt lat="48.828" lon="1.66894">
        <ele>139.60000610352</ele>
        <time>2015-07-21T11:19:45.000Z</time>
      </trkpt>
      <trkpt lat="48.82804" lon="1.66896">
        <ele>139.60000610352</ele>
        <time>2015-07-21T11:19:48.000Z</time>
      </trkpt>
      <trkpt lat="48.82807" lon="1.66897">
        <ele>139.60000610352</ele>
        <time>2015-07-21T11:19:50.000Z</time>
      </trkpt>
      <trkpt lat="48.82816" lon="1.66901">
        <ele>139.39999389648</ele>
        <time>2015-07-21T11:19:56.000Z</time>
      </trkpt>
      <trkpt lat="48.82819" lon="1.66902">
        <ele>139.39999389648</ele>
        <time>2015-07-21T11:19:58.000Z</time>
      </trkpt>
      <trkpt lat="48.8283" lon="1.66909">
        <ele>139.39999389648</ele>
        <time>2015-07-21T11:20:06.000Z</time>
      </trkpt>
      <trkpt lat="48.82839" lon="1.66917">
        <ele>139.39999389648</ele>
        <time>2015-07-21T11:20:13.000Z</time>
      </trkpt>
      <trkpt lat="48.8285" lon="1.6693">
        <ele>139.39999389648</ele>
        <time>2015-07-21T11:20:22.000Z</time>
      </trkpt>
      <trkpt lat="48.82864" lon="1.66946">
        <ele>139.19999694824</ele>
        <time>2015-07-21T11:20:34.000Z</time>
      </trkpt>
      <trkpt lat="48.82867" lon="1.66951">
        <ele>139.19999694824</ele>
        <time>2015-07-21T11:20:37.000Z</time>
      </trkpt>
      <trkpt lat="48.82871" lon="1.66955">
        <ele>139</ele>
        <time>2015-07-21T11:20:40.000Z</time>
      </trkpt>
      <trkpt lat="48.82881" lon="1.66967">
        <ele>138.80000305176</ele>
        <time>2015-07-21T11:20:49.000Z</time>
      </trkpt>
      <trkpt lat="48.82886" lon="1.66975">
        <ele>138.80000305176</ele>
        <time>2015-07-21T11:20:54.000Z</time>
      </trkpt>
      <trkpt lat="48.82893" lon="1.66982">
        <ele>138.60000610352</ele>
        <time>2015-07-21T11:20:59.000Z</time>
      </trkpt>
      <trkpt lat="48.82894" lon="1.66984">
        <ele>138.60000610352</ele>
        <time>2015-07-21T11:21:00.000Z</time>
      </trkpt>
      <trkpt lat="48.82907" lon="1.67">
        <ele>138.39999389648</ele>
        <time>2015-07-21T11:21:09.000Z</time>
      </trkpt>
      <trkpt lat="48.82914" lon="1.67013">
        <ele>138.19999694824</ele>
        <time>2015-07-21T11:21:16.000Z</time>
      </trkpt>
      <trkpt lat="48.82914" lon="1.67016">
        <ele>138.19999694824</ele>
        <time>2015-07-21T11:21:17.000Z</time>
      </trkpt>
      <trkpt lat="48.82916" lon="1.67018">
        <ele>138.19999694824</ele>
        <time>2015-07-21T11:21:20.000Z</time>
      </trkpt>
      <trkpt lat="48.82917" lon="1.67018">
        <ele>138.19999694824</ele>
        <time>2015-07-21T11:21:21.000Z</time>
      </trkpt>
      <trkpt lat="48.82917" lon="1.67018">
        <ele>138.19999694824</ele>
        <time>2015-07-21T11:21:22.000Z</time>
      </trkpt>
      <trkpt lat="48.82929" lon="1.67019">
        <ele>137.80000305176</ele>
        <time>2015-07-21T11:21:36.000Z</time>
      </trkpt>
      <trkpt lat="48.82933" lon="1.67021">
        <ele>137.60000610352</ele>
        <time>2015-07-21T11:21:39.000Z</time>
      </trkpt>
      <trkpt lat="48.82946" lon="1.67029">
        <ele>137.39999389648</ele>
        <time>2015-07-21T11:21:49.000Z</time>
      </trkpt>
      <trkpt lat="48.82958" lon="1.67035">
        <ele>137.39999389648</ele>
        <time>2015-07-21T11:21:58.000Z</time>
      </trkpt>
      <trkpt lat="48.8297" lon="1.67035">
        <ele>137.19999694824</ele>
        <time>2015-07-21T11:22:07.000Z</time>
      </trkpt>
      <trkpt lat="48.82978" lon="1.67035">
        <ele>137.19999694824</ele>
        <time>2015-07-21T11:22:13.000Z</time>
      </trkpt>
      <trkpt lat="48.8299" lon="1.67033">
        <ele>137</ele>
        <time>2015-07-21T11:22:22.000Z</time>
      </trkpt>
      <trkpt lat="48.83001" lon="1.67033">
        <ele>136.80000305176</ele>
        <time>2015-07-21T11:22:30.000Z</time>
      </trkpt>
      <trkpt lat="48.83014" lon="1.67034">
        <ele>136.60000610352</ele>
        <time>2015-07-21T11:22:40.000Z</time>
      </trkpt>
      <trkpt lat="48.83015" lon="1.67034">
        <ele>136.60000610352</ele>
        <time>2015-07-21T11:22:41.000Z</time>
      </trkpt>
      <trkpt lat="48.83022" lon="1.67033">
        <ele>136.60000610352</ele>
        <time>2015-07-21T11:22:46.000Z</time>
      </trkpt>
      <trkpt lat="48.83031" lon="1.67031">
        <ele>136.39999389648</ele>
        <time>2015-07-21T11:22:53.000Z</time>
      </trkpt>
      <trkpt lat="48.83035" lon="1.67032">
        <ele>136.39999389648</ele>
        <time>2015-07-21T11:22:54.000Z</time>
      </trkpt>
      <trkpt lat="48.83038" lon="1.67032">
        <ele>136.39999389648</ele>
        <time>2015-07-21T11:22:57.000Z</time>
      </trkpt>
      <trkpt lat="48.8304" lon="1.67032">
        <ele>136.39999389648</ele>
        <time>2015-07-21T11:22:58.000Z</time>
      </trkpt>
      <trkpt lat="48.83047" lon="1.6703">
        <ele>136.19999694824</ele>
        <time>2015-07-21T11:23:04.000Z</time>
      </trkpt>
      <trkpt lat="48.83051" lon="1.67031">
        <ele>136.19999694824</ele>
        <time>2015-07-21T11:23:08.000Z</time>
      </trkpt>
      <trkpt lat="48.83054" lon="1.67032">
        <ele>136.19999694824</ele>
        <time>2015-07-21T11:23:10.000Z</time>
      </trkpt>
      <trkpt lat="48.83063" lon="1.67029">
        <ele>136</ele>
        <time>2015-07-21T11:23:18.000Z</time>
      </trkpt>
      <trkpt lat="48.8307" lon="1.67027">
        <ele>136</ele>
        <time>2015-07-21T11:23:23.000Z</time>
      </trkpt>
      <trkpt lat="48.83071" lon="1.67027">
        <ele>136</ele>
        <time>2015-07-21T11:23:24.000Z</time>
      </trkpt>
      <trkpt lat="48.83078" lon="1.67026">
        <ele>136</ele>
        <time>2015-07-21T11:23:29.000Z</time>
      </trkpt>
      <trkpt lat="48.83079" lon="1.67026">
        <ele>136</ele>
        <time>2015-07-21T11:23:30.000Z</time>
      </trkpt>
      <trkpt lat="48.83091" lon="1.67022">
        <ele>136</ele>
        <time>2015-07-21T11:23:39.000Z</time>
      </trkpt>
      <trkpt lat="48.83104" lon="1.67016">
        <ele>136</ele>
        <time>2015-07-21T11:23:47.000Z</time>
      </trkpt>
      <trkpt lat="48.83112" lon="1.67018">
        <ele>135.80000305176</ele>
        <time>2015-07-21T11:23:53.000Z</time>
      </trkpt>
      <trkpt lat="48.83125" lon="1.67016">
        <ele>135.60000610352</ele>
        <time>2015-07-21T11:24:02.000Z</time>
      </trkpt>
      <trkpt lat="48.83135" lon="1.67011">
        <ele>135.39999389648</ele>
        <time>2015-07-21T11:24:10.000Z</time>
      </trkpt>
      <trkpt lat="48.83142" lon="1.67006">
        <ele>135.39999389648</ele>
        <time>2015-07-21T11:24:16.000Z</time>
      </trkpt>
      <trkpt lat="48.83151" lon="1.67004">
        <ele>135.19999694824</ele>
        <time>2015-07-21T11:24:22.000Z</time>
      </trkpt>
      <trkpt lat="48.8316" lon="1.67001">
        <ele>135.19999694824</ele>
        <time>2015-07-21T11:24:28.000Z</time>
      </trkpt>
      <trkpt lat="48.83169" lon="1.66999">
        <ele>135</ele>
        <time>2015-07-21T11:24:34.000Z</time>
      </trkpt>
      <trkpt lat="48.83179" lon="1.66997">
        <ele>135</ele>
        <time>2015-07-21T11:24:41.000Z</time>
      </trkpt>
      <trkpt lat="48.8319" lon="1.66995">
        <ele>134.80000305176</ele>
        <time>2015-07-21T11:24:48.000Z</time>
      </trkpt>
      <trkpt lat="48.83201" lon="1.66995">
        <ele>134.60000610352</ele>
        <time>2015-07-21T11:24:56.000Z</time>
      </trkpt>
      <trkpt lat="48.83201" lon="1.66995">
        <ele>134.60000610352</ele>
        <time>2015-07-21T11:24:58.000Z</time>
      </trkpt>
      <trkpt lat="48.83211" lon="1.66991">
        <ele>134.39999389648</ele>
        <time>2015-07-21T11:25:06.000Z</time>
      </trkpt>
      <trkpt lat="48.83212" lon="1.6699">
        <ele>134.39999389648</ele>
        <time>2015-07-21T11:25:07.000Z</time>
      </trkpt>
      <trkpt lat="48.83219" lon="1.66988">
        <ele>134.19999694824</ele>
        <time>2015-07-21T11:25:12.000Z</time>
      </trkpt>
      <trkpt lat="48.83225" lon="1.66987">
        <ele>134.19999694824</ele>
        <time>2015-07-21T11:25:16.000Z</time>
      </trkpt>
      <trkpt lat="48.83228" lon="1.66986">
        <ele>134</ele>
        <time>2015-07-21T11:25:18.000Z</time>
      </trkpt>
      <trkpt lat="48.83241" lon="1.66984">
        <ele>133.80000305176</ele>
        <time>2015-07-21T11:25:27.000Z</time>
      </trkpt>
      <trkpt lat="48.83254" lon="1.66979">
        <ele>133.39999389648</ele>
        <time>2015-07-21T11:25:36.000Z</time>
      </trkpt>
      <trkpt lat="48.83264" lon="1.66976">
        <ele>133.19999694824</ele>
        <time>2015-07-21T11:25:43.000Z</time>
      </trkpt>
      <trkpt lat="48.83274" lon="1.66969">
        <ele>133</ele>
        <time>2015-07-21T11:25:51.000Z</time>
      </trkpt>
      <trkpt lat="48.83276" lon="1.66967">
        <ele>132.80000305176</ele>
        <time>2015-07-21T11:25:53.000Z</time>
      </trkpt>
      <trkpt lat="48.8328" lon="1.66964">
        <ele>132.80000305176</ele>
        <time>2015-07-21T11:25:56.000Z</time>
      </trkpt>
      <trkpt lat="48.83292" lon="1.66958">
        <ele>132.19999694824</ele>
        <time>2015-07-21T11:26:04.000Z</time>
      </trkpt>
      <trkpt lat="48.83299" lon="1.66948">
        <ele>132</ele>
        <time>2015-07-21T11:26:11.000Z</time>
      </trkpt>
      <trkpt lat="48.83307" lon="1.66936">
        <ele>131.80000305176</ele>
        <time>2015-07-21T11:26:19.000Z</time>
      </trkpt>
      <trkpt lat="48.83312" lon="1.66936">
        <ele>131.60000610352</ele>
        <time>2015-07-21T11:26:22.000Z</time>
      </trkpt>
      <trkpt lat="48.83316" lon="1.66939">
        <ele>131.39999389648</ele>
        <time>2015-07-21T11:26:25.000Z</time>
      </trkpt>
      <trkpt lat="48.83317" lon="1.6694">
        <ele>131.39999389648</ele>
        <time>2015-07-21T11:26:26.000Z</time>
      </trkpt>
      <trkpt lat="48.83319" lon="1.66942">
        <ele>131.39999389648</ele>
        <time>2015-07-21T11:26:28.000Z</time>
      </trkpt>
      <trkpt lat="48.83323" lon="1.66945">
        <ele>131.19999694824</ele>
        <time>2015-07-21T11:26:31.000Z</time>
      </trkpt>
      <trkpt lat="48.83331" lon="1.66952">
        <ele>131</ele>
        <time>2015-07-21T11:26:37.000Z</time>
      </trkpt>
      <trkpt lat="48.83337" lon="1.66958">
        <ele>130.60000610352</ele>
        <time>2015-07-21T11:26:42.000Z</time>
      </trkpt>
      <trkpt lat="48.83338" lon="1.66958">
        <ele>130.60000610352</ele>
        <time>2015-07-21T11:26:43.000Z</time>
      </trkpt>
      <trkpt lat="48.83343" lon="1.66963">
        <ele>130.39999389648</ele>
        <time>2015-07-21T11:26:47.000Z</time>
      </trkpt>
      <trkpt lat="48.83355" lon="1.66971">
        <ele>130</ele>
        <time>2015-07-21T11:26:56.000Z</time>
      </trkpt>
      <trkpt lat="48.83363" lon="1.66976">
        <ele>130</ele>
        <time>2015-07-21T11:27:02.000Z</time>
      </trkpt>
      <trkpt lat="48.83375" lon="1.66986">
        <ele>129.80000305176</ele>
        <time>2015-07-21T11:27:11.000Z</time>
      </trkpt>
      <trkpt lat="48.83385" lon="1.66995">
        <ele>129.60000610352</ele>
        <time>2015-07-21T11:27:19.000Z</time>
      </trkpt>
      <trkpt lat="48.83395" lon="1.67002">
        <ele>129.60000610352</ele>
        <time>2015-07-21T11:27:27.000Z</time>
      </trkpt>
      <trkpt lat="48.83406" lon="1.67011">
        <ele>129.39999389648</ele>
        <time>2015-07-21T11:27:36.000Z</time>
      </trkpt>
      <trkpt lat="48.83416" lon="1.67018">
        <ele>129.19999694824</ele>
        <time>2015-07-21T11:27:43.000Z</time>
      </trkpt>
      <trkpt lat="48.83417" lon="1.67019">
        <ele>129.19999694824</ele>
        <time>2015-07-21T11:27:45.000Z</time>
      </trkpt>
      <trkpt lat="48.83418" lon="1.6702">
        <ele>129.19999694824</ele>
        <time>2015-07-21T11:27:46.000Z</time>
      </trkpt>
      <trkpt lat="48.83432" lon="1.67032">
        <ele>129</ele>
        <time>2015-07-21T11:27:57.000Z</time>
      </trkpt>
      <trkpt lat="48.83443" lon="1.67046">
        <ele>129</ele>
        <time>2015-07-21T11:28:07.000Z</time>
      </trkpt>
      <trkpt lat="48.83452" lon="1.67058">
        <ele>129.19999694824</ele>
        <time>2015-07-21T11:28:15.000Z</time>
      </trkpt>
      <trkpt lat="48.83457" lon="1.67069">
        <ele>129.19999694824</ele>
        <time>2015-07-21T11:28:22.000Z</time>
      </trkpt>
      <trkpt lat="48.83459" lon="1.67073">
        <ele>129.19999694824</ele>
        <time>2015-07-21T11:28:24.000Z</time>
      </trkpt>
      <trkpt lat="48.83463" lon="1.67077">
        <ele>129.39999389648</ele>
        <time>2015-07-21T11:28:27.000Z</time>
      </trkpt>
      <trkpt lat="48.83471" lon="1.67083">
        <ele>129.60000610352</ele>
        <time>2015-07-21T11:28:33.000Z</time>
      </trkpt>
      <trkpt lat="48.83479" lon="1.67091">
        <ele>129.80000305176</ele>
        <time>2015-07-21T11:28:40.000Z</time>
      </trkpt>
      <trkpt lat="48.83486" lon="1.67101">
        <ele>130</ele>
        <time>2015-07-21T11:28:47.000Z</time>
      </trkpt>
      <trkpt lat="48.8349" lon="1.67107">
        <ele>130</ele>
        <time>2015-07-21T11:28:51.000Z</time>
      </trkpt>
      <trkpt lat="48.83493" lon="1.67112">
        <ele>130.19999694824</ele>
        <time>2015-07-21T11:28:54.000Z</time>
      </trkpt>
      <trkpt lat="48.83499" lon="1.67125">
        <ele>130.39999389648</ele>
        <time>2015-07-21T11:29:01.000Z</time>
      </trkpt>
      <trkpt lat="48.83502" lon="1.67137">
        <ele>130.60000610352</ele>
        <time>2015-07-21T11:29:08.000Z</time>
      </trkpt>
      <trkpt lat="48.83503" lon="1.67139">
        <ele>130.60000610352</ele>
        <time>2015-07-21T11:29:09.000Z</time>
      </trkpt>
      <trkpt lat="48.83504" lon="1.67143">
        <ele>130.80000305176</ele>
        <time>2015-07-21T11:29:12.000Z</time>
      </trkpt>
      <trkpt lat="48.83507" lon="1.67154">
        <ele>131</ele>
        <time>2015-07-21T11:29:19.000Z</time>
      </trkpt>
      <trkpt lat="48.83513" lon="1.67156">
        <ele>131</ele>
        <time>2015-07-21T11:29:24.000Z</time>
      </trkpt>
      <trkpt lat="48.83515" lon="1.67157">
        <ele>131.19999694824</ele>
        <time>2015-07-21T11:29:26.000Z</time>
      </trkpt>
      <trkpt lat="48.83517" lon="1.6716">
        <ele>131.19999694824</ele>
        <time>2015-07-21T11:29:28.000Z</time>
      </trkpt>
      <trkpt lat="48.83519" lon="1.67164">
        <ele>131.19999694824</ele>
        <time>2015-07-21T11:29:31.000Z</time>
      </trkpt>
      <trkpt lat="48.8352" lon="1.67165">
        <ele>131.19999694824</ele>
        <time>2015-07-21T11:29:32.000Z</time>
      </trkpt>
      <trkpt lat="48.83521" lon="1.67166">
        <ele>131.39999389648</ele>
        <time>2015-07-21T11:29:34.000Z</time>
      </trkpt>
      <trkpt lat="48.83517" lon="1.67161">
        <ele>131.19999694824</ele>
        <time>2015-07-21T11:29:38.000Z</time>
      </trkpt>
      <trkpt lat="48.83517" lon="1.67161">
        <ele>131.19999694824</ele>
        <time>2015-07-21T11:29:39.000Z</time>
      </trkpt>
      <trkpt lat="48.83518" lon="1.67161">
        <ele>131.19999694824</ele>
        <time>2015-07-21T11:29:40.000Z</time>
      </trkpt>
      <trkpt lat="48.83536" lon="1.67184">
        <ele>131.80000305176</ele>
        <time>2015-07-21T11:30:32.000Z</time>
      </trkpt>
      <trkpt lat="48.83539" lon="1.67188">
        <ele>132</ele>
        <time>2015-07-21T11:30:35.000Z</time>
      </trkpt>
      <trkpt lat="48.83541" lon="1.67194">
        <ele>132.19999694824</ele>
        <time>2015-07-21T11:30:38.000Z</time>
      </trkpt>
      <trkpt lat="48.83543" lon="1.67198">
        <ele>132.39999389648</ele>
        <time>2015-07-21T11:30:41.000Z</time>
      </trkpt>
      <trkpt lat="48.83546" lon="1.67204">
        <ele>132.60000610352</ele>
        <time>2015-07-21T11:30:44.000Z</time>
      </trkpt>
      <trkpt lat="48.83548" lon="1.67207">
        <ele>132.60000610352</ele>
        <time>2015-07-21T11:30:46.000Z</time>
      </trkpt>
      <trkpt lat="48.83552" lon="1.67213">
        <ele>132.80000305176</ele>
        <time>2015-07-21T11:30:50.000Z</time>
      </trkpt>
      <trkpt lat="48.83553" lon="1.67217">
        <ele>133</ele>
        <time>2015-07-21T11:30:52.000Z</time>
      </trkpt>
      <trkpt lat="48.83561" lon="1.6723">
        <ele>133.39999389648</ele>
        <time>2015-07-21T11:31:00.000Z</time>
      </trkpt>
      <trkpt lat="48.83566" lon="1.67242">
        <ele>133.80000305176</ele>
        <time>2015-07-21T11:31:06.000Z</time>
      </trkpt>
      <trkpt lat="48.83574" lon="1.67259">
        <ele>134.39999389648</ele>
        <time>2015-07-21T11:31:15.000Z</time>
      </trkpt>
      <trkpt lat="48.83583" lon="1.67275">
        <ele>135.19999694824</ele>
        <time>2015-07-21T11:31:24.000Z</time>
      </trkpt>
      <trkpt lat="48.8359" lon="1.67286">
        <ele>135.60000610352</ele>
        <time>2015-07-21T11:31:31.000Z</time>
      </trkpt>
      <trkpt lat="48.83594" lon="1.67297">
        <ele>136</ele>
        <time>2015-07-21T11:31:37.000Z</time>
      </trkpt>
      <trkpt lat="48.836" lon="1.67305">
        <ele>136.39999389648</ele>
        <time>2015-07-21T11:31:42.000Z</time>
      </trkpt>
      <trkpt lat="48.83603" lon="1.67311">
        <ele>136.60000610352</ele>
        <time>2015-07-21T11:31:45.000Z</time>
      </trkpt>
      <trkpt lat="48.83605" lon="1.67314">
        <ele>136.80000305176</ele>
        <time>2015-07-21T11:31:47.000Z</time>
      </trkpt>
      <trkpt lat="48.8361" lon="1.67326">
        <ele>137.19999694824</ele>
        <time>2015-07-21T11:31:54.000Z</time>
      </trkpt>
      <trkpt lat="48.83614" lon="1.67333">
        <ele>137.60000610352</ele>
        <time>2015-07-21T11:31:58.000Z</time>
      </trkpt>
      <trkpt lat="48.83615" lon="1.67334">
        <ele>137.60000610352</ele>
        <time>2015-07-21T11:31:59.000Z</time>
      </trkpt>
      <trkpt lat="48.83625" lon="1.67346">
        <ele>138</ele>
        <time>2015-07-21T11:32:08.000Z</time>
      </trkpt>
      <trkpt lat="48.83632" lon="1.67346">
        <ele>138</ele>
        <time>2015-07-21T11:32:15.000Z</time>
      </trkpt>
      <trkpt lat="48.83636" lon="1.67344">
        <ele>137.80000305176</ele>
        <time>2015-07-21T11:32:19.000Z</time>
      </trkpt>
      <trkpt lat="48.83637" lon="1.67342">
        <ele>137.80000305176</ele>
        <time>2015-07-21T11:32:20.000Z</time>
      </trkpt>
      <trkpt lat="48.83643" lon="1.67331">
        <ele>137.39999389648</ele>
        <time>2015-07-21T11:32:27.000Z</time>
      </trkpt>
      <trkpt lat="48.83644" lon="1.67329">
        <ele>137.39999389648</ele>
        <time>2015-07-21T11:32:28.000Z</time>
      </trkpt>
      <trkpt lat="48.83645" lon="1.67328">
        <ele>137.39999389648</ele>
        <time>2015-07-21T11:32:29.000Z</time>
      </trkpt>
      <trkpt lat="48.83649" lon="1.67323">
        <ele>137.19999694824</ele>
        <time>2015-07-21T11:32:32.000Z</time>
      </trkpt>
      <trkpt lat="48.8365" lon="1.67322">
        <ele>137</ele>
        <time>2015-07-21T11:32:33.000Z</time>
      </trkpt>
      <trkpt lat="48.83658" lon="1.67308">
        <ele>136.60000610352</ele>
        <time>2015-07-21T11:32:42.000Z</time>
      </trkpt>
      <trkpt lat="48.83666" lon="1.67294">
        <ele>136</ele>
        <time>2015-07-21T11:32:51.000Z</time>
      </trkpt>
      <trkpt lat="48.83667" lon="1.6729">
        <ele>136</ele>
        <time>2015-07-21T11:32:53.000Z</time>
      </trkpt>
      <trkpt lat="48.83671" lon="1.67285">
        <ele>136</ele>
        <time>2015-07-21T11:32:56.000Z</time>
      </trkpt>
      <trkpt lat="48.83672" lon="1.67283">
        <ele>136</ele>
        <time>2015-07-21T11:32:57.000Z</time>
      </trkpt>
      <trkpt lat="48.8368" lon="1.67271">
        <ele>135.80000305176</ele>
        <time>2015-07-21T11:33:05.000Z</time>
      </trkpt>
      <trkpt lat="48.83688" lon="1.67259">
        <ele>135.60000610352</ele>
        <time>2015-07-21T11:33:13.000Z</time>
      </trkpt>
      <trkpt lat="48.83696" lon="1.67244">
        <ele>135.19999694824</ele>
        <time>2015-07-21T11:33:22.000Z</time>
      </trkpt>
      <trkpt lat="48.83701" lon="1.6723">
        <ele>134.80000305176</ele>
        <time>2015-07-21T11:33:29.000Z</time>
      </trkpt>
      <trkpt lat="48.83702" lon="1.67229">
        <ele>134.80000305176</ele>
        <time>2015-07-21T11:33:30.000Z</time>
      </trkpt>
      <trkpt lat="48.83704" lon="1.67225">
        <ele>134.80000305176</ele>
        <time>2015-07-21T11:33:33.000Z</time>
      </trkpt>
      <trkpt lat="48.83706" lon="1.67221">
        <ele>134.60000610352</ele>
        <time>2015-07-21T11:33:35.000Z</time>
      </trkpt>
      <trkpt lat="48.83712" lon="1.67204">
        <ele>134.19999694824</ele>
        <time>2015-07-21T11:33:44.000Z</time>
      </trkpt>
      <trkpt lat="48.83714" lon="1.67195">
        <ele>134</ele>
        <time>2015-07-21T11:33:49.000Z</time>
      </trkpt>
      <trkpt lat="48.83717" lon="1.67182">
        <ele>133.60000610352</ele>
        <time>2015-07-21T11:33:56.000Z</time>
      </trkpt>
      <trkpt lat="48.8372" lon="1.6717">
        <ele>133.80000305176</ele>
        <time>2015-07-21T11:34:02.000Z</time>
      </trkpt>
      <trkpt lat="48.83726" lon="1.6715">
        <ele>133.80000305176</ele>
        <time>2015-07-21T11:34:12.000Z</time>
      </trkpt>
      <trkpt lat="48.83728" lon="1.67144">
        <ele>134</ele>
        <time>2015-07-21T11:34:15.000Z</time>
      </trkpt>
      <trkpt lat="48.83729" lon="1.6714">
        <ele>134</ele>
        <time>2015-07-21T11:34:17.000Z</time>
      </trkpt>
      <trkpt lat="48.83734" lon="1.67126">
        <ele>134</ele>
        <time>2015-07-21T11:34:24.000Z</time>
      </trkpt>
      <trkpt lat="48.83739" lon="1.67108">
        <ele>134.19999694824</ele>
        <time>2015-07-21T11:34:33.000Z</time>
      </trkpt>
      <trkpt lat="48.83744" lon="1.67092">
        <ele>134.39999389648</ele>
        <time>2015-07-21T11:34:41.000Z</time>
      </trkpt>
      <trkpt lat="48.83744" lon="1.67087">
        <ele>134.39999389648</ele>
        <time>2015-07-21T11:34:43.000Z</time>
      </trkpt>
      <trkpt lat="48.83747" lon="1.6708">
        <ele>134.39999389648</ele>
        <time>2015-07-21T11:34:47.000Z</time>
      </trkpt>
      <trkpt lat="48.83751" lon="1.67066">
        <ele>134.39999389648</ele>
        <time>2015-07-21T11:34:54.000Z</time>
      </trkpt>
      <trkpt lat="48.83751" lon="1.67064">
        <ele>134.39999389648</ele>
        <time>2015-07-21T11:34:55.000Z</time>
      </trkpt>
      <trkpt lat="48.83753" lon="1.67059">
        <ele>134.19999694824</ele>
        <time>2015-07-21T11:34:58.000Z</time>
      </trkpt>
      <trkpt lat="48.83754" lon="1.67055">
        <ele>134.19999694824</ele>
        <time>2015-07-21T11:35:00.000Z</time>
      </trkpt>
      <trkpt lat="48.83755" lon="1.6705">
        <ele>134.19999694824</ele>
        <time>2015-07-21T11:35:02.000Z</time>
      </trkpt>
      <trkpt lat="48.83756" lon="1.67046">
        <ele>134.19999694824</ele>
        <time>2015-07-21T11:35:04.000Z</time>
      </trkpt>
      <trkpt lat="48.83757" lon="1.67041">
        <ele>134.19999694824</ele>
        <time>2015-07-21T11:35:07.000Z</time>
      </trkpt>
      <trkpt lat="48.83758" lon="1.67037">
        <ele>134.39999389648</ele>
        <time>2015-07-21T11:35:09.000Z</time>
      </trkpt>
      <trkpt lat="48.8376" lon="1.6703">
        <ele>134.39999389648</ele>
        <time>2015-07-21T11:35:12.000Z</time>
      </trkpt>
      <trkpt lat="48.83764" lon="1.67014">
        <ele>134.60000610352</ele>
        <time>2015-07-21T11:35:20.000Z</time>
      </trkpt>
      <trkpt lat="48.83765" lon="1.67011">
        <ele>134.60000610352</ele>
        <time>2015-07-21T11:35:22.000Z</time>
      </trkpt>
      <trkpt lat="48.83767" lon="1.67004">
        <ele>134.80000305176</ele>
        <time>2015-07-21T11:35:25.000Z</time>
      </trkpt>
      <trkpt lat="48.8377" lon="1.66993">
        <ele>134.80000305176</ele>
        <time>2015-07-21T11:35:31.000Z</time>
      </trkpt>
      <trkpt lat="48.83776" lon="1.66968">
        <ele>134.80000305176</ele>
        <time>2015-07-21T11:35:43.000Z</time>
      </trkpt>
      <trkpt lat="48.8378" lon="1.66954">
        <ele>134.60000610352</ele>
        <time>2015-07-21T11:35:50.000Z</time>
      </trkpt>
      <trkpt lat="48.83781" lon="1.6695">
        <ele>134.39999389648</ele>
        <time>2015-07-21T11:35:52.000Z</time>
      </trkpt>
      <trkpt lat="48.83784" lon="1.66944">
        <ele>134.39999389648</ele>
        <time>2015-07-21T11:35:55.000Z</time>
      </trkpt>
      <trkpt lat="48.83784" lon="1.66943">
        <ele>134.39999389648</ele>
        <time>2015-07-21T11:35:56.000Z</time>
      </trkpt>
      <trkpt lat="48.83786" lon="1.66934">
        <ele>134.19999694824</ele>
        <time>2015-07-21T11:36:00.000Z</time>
      </trkpt>
      <trkpt lat="48.83787" lon="1.66932">
        <ele>134.19999694824</ele>
        <time>2015-07-21T11:36:01.000Z</time>
      </trkpt>
      <trkpt lat="48.83793" lon="1.66911">
        <ele>134.19999694824</ele>
        <time>2015-07-21T11:36:12.000Z</time>
      </trkpt>
      <trkpt lat="48.83795" lon="1.66905">
        <ele>134.19999694824</ele>
        <time>2015-07-21T11:36:15.000Z</time>
      </trkpt>
      <trkpt lat="48.83797" lon="1.66899">
        <ele>134.19999694824</ele>
        <time>2015-07-21T11:36:18.000Z</time>
      </trkpt>
      <trkpt lat="48.838" lon="1.6688">
        <ele>134.39999389648</ele>
        <time>2015-07-21T11:36:27.000Z</time>
      </trkpt>
      <trkpt lat="48.83805" lon="1.6686">
        <ele>134.39999389648</ele>
        <time>2015-07-21T11:36:37.000Z</time>
      </trkpt>
      <trkpt lat="48.83808" lon="1.66855">
        <ele>134.39999389648</ele>
        <time>2015-07-21T11:36:39.000Z</time>
      </trkpt>
      <trkpt lat="48.8381" lon="1.6685">
        <ele>134.39999389648</ele>
        <time>2015-07-21T11:36:42.000Z</time>
      </trkpt>
      <trkpt lat="48.83812" lon="1.66846">
        <ele>134.39999389648</ele>
        <time>2015-07-21T11:36:44.000Z</time>
      </trkpt>
      <trkpt lat="48.83812" lon="1.66845">
        <ele>134.39999389648</ele>
        <time>2015-07-21T11:36:45.000Z</time>
      </trkpt>
      <trkpt lat="48.83815" lon="1.66836">
        <ele>134.60000610352</ele>
        <time>2015-07-21T11:36:49.000Z</time>
      </trkpt>
      <trkpt lat="48.83819" lon="1.66822">
        <ele>134.60000610352</ele>
        <time>2015-07-21T11:36:56.000Z</time>
      </trkpt>
      <trkpt lat="48.83823" lon="1.66807">
        <ele>134.39999389648</ele>
        <time>2015-07-21T11:37:03.000Z</time>
      </trkpt>
      <trkpt lat="48.83824" lon="1.66801">
        <ele>134.39999389648</ele>
        <time>2015-07-21T11:37:06.000Z</time>
      </trkpt>
      <trkpt lat="48.83825" lon="1.66795">
        <ele>134.39999389648</ele>
        <time>2015-07-21T11:37:09.000Z</time>
      </trkpt>
      <trkpt lat="48.83827" lon="1.66791">
        <ele>134.39999389648</ele>
        <time>2015-07-21T11:37:13.000Z</time>
      </trkpt>
      <trkpt lat="48.83829" lon="1.66782">
        <ele>134.19999694824</ele>
        <time>2015-07-21T11:37:20.000Z</time>
      </trkpt>
      <trkpt lat="48.83831" lon="1.66773">
        <ele>134.19999694824</ele>
        <time>2015-07-21T11:37:25.000Z</time>
      </trkpt>
      <trkpt lat="48.83832" lon="1.66771">
        <ele>134.19999694824</ele>
        <time>2015-07-21T11:37:26.000Z</time>
      </trkpt>
      <trkpt lat="48.83836" lon="1.6676">
        <ele>134</ele>
        <time>2015-07-21T11:37:32.000Z</time>
      </trkpt>
      <trkpt lat="48.83839" lon="1.66752">
        <ele>134</ele>
        <time>2015-07-21T11:37:37.000Z</time>
      </trkpt>
      <trkpt lat="48.8384" lon="1.66748">
        <ele>134</ele>
        <time>2015-07-21T11:37:39.000Z</time>
      </trkpt>
      <trkpt lat="48.83841" lon="1.66742">
        <ele>133.80000305176</ele>
        <time>2015-07-21T11:37:42.000Z</time>
      </trkpt>
      <trkpt lat="48.83842" lon="1.66737">
        <ele>133.80000305176</ele>
        <time>2015-07-21T11:37:45.000Z</time>
      </trkpt>
      <trkpt lat="48.83843" lon="1.66734">
        <ele>133.80000305176</ele>
        <time>2015-07-21T11:37:46.000Z</time>
      </trkpt>
      <trkpt lat="48.83844" lon="1.6673">
        <ele>133.80000305176</ele>
        <time>2015-07-21T11:37:48.000Z</time>
      </trkpt>
      <trkpt lat="48.83847" lon="1.66719">
        <ele>133.60000610352</ele>
        <time>2015-07-21T11:37:54.000Z</time>
      </trkpt>
      <trkpt lat="48.83851" lon="1.66709">
        <ele>133.39999389648</ele>
        <time>2015-07-21T11:38:00.000Z</time>
      </trkpt>
      <trkpt lat="48.83852" lon="1.66705">
        <ele>133.19999694824</ele>
        <time>2015-07-21T11:38:02.000Z</time>
      </trkpt>
      <trkpt lat="48.83852" lon="1.66701">
        <ele>133.19999694824</ele>
        <time>2015-07-21T11:38:04.000Z</time>
      </trkpt>
      <trkpt lat="48.83853" lon="1.66699">
        <ele>133.19999694824</ele>
        <time>2015-07-21T11:38:05.000Z</time>
      </trkpt>
      <trkpt lat="48.83855" lon="1.66692">
        <ele>133</ele>
        <time>2015-07-21T11:38:09.000Z</time>
      </trkpt>
      <trkpt lat="48.83856" lon="1.66687">
        <ele>132.80000305176</ele>
        <time>2015-07-21T11:38:12.000Z</time>
      </trkpt>
      <trkpt lat="48.83858" lon="1.66681">
        <ele>132.60000610352</ele>
        <time>2015-07-21T11:38:15.000Z</time>
      </trkpt>
      <trkpt lat="48.8386" lon="1.66673">
        <ele>132.39999389648</ele>
        <time>2015-07-21T11:38:19.000Z</time>
      </trkpt>
      <trkpt lat="48.83861" lon="1.6667">
        <ele>132.39999389648</ele>
        <time>2015-07-21T11:38:21.000Z</time>
      </trkpt>
      <trkpt lat="48.83862" lon="1.66664">
        <ele>132.19999694824</ele>
        <time>2015-07-21T11:38:24.000Z</time>
      </trkpt>
      <trkpt lat="48.83863" lon="1.66662">
        <ele>132.19999694824</ele>
        <time>2015-07-21T11:38:25.000Z</time>
      </trkpt>
      <trkpt lat="48.83866" lon="1.66647">
        <ele>131.80000305176</ele>
        <time>2015-07-21T11:38:33.000Z</time>
      </trkpt>
      <trkpt lat="48.83868" lon="1.66641">
        <ele>131.60000610352</ele>
        <time>2015-07-21T11:38:36.000Z</time>
      </trkpt>
      <trkpt lat="48.83869" lon="1.66637">
        <ele>131.39999389648</ele>
        <time>2015-07-21T11:38:38.000Z</time>
      </trkpt>
      <trkpt lat="48.8387" lon="1.66633">
        <ele>131.39999389648</ele>
        <time>2015-07-21T11:38:40.000Z</time>
      </trkpt>
      <trkpt lat="48.83873" lon="1.66626">
        <ele>131.19999694824</ele>
        <time>2015-07-21T11:38:44.000Z</time>
      </trkpt>
      <trkpt lat="48.83876" lon="1.66616">
        <ele>130.80000305176</ele>
        <time>2015-07-21T11:38:48.000Z</time>
      </trkpt>
      <trkpt lat="48.83883" lon="1.66597">
        <ele>130.39999389648</ele>
        <time>2015-07-21T11:38:57.000Z</time>
      </trkpt>
      <trkpt lat="48.83885" lon="1.66593">
        <ele>130.19999694824</ele>
        <time>2015-07-21T11:38:59.000Z</time>
      </trkpt>
      <trkpt lat="48.8389" lon="1.66586">
        <ele>130.19999694824</ele>
        <time>2015-07-21T11:39:03.000Z</time>
      </trkpt>
      <trkpt lat="48.83897" lon="1.66574">
        <ele>130</ele>
        <time>2015-07-21T11:39:09.000Z</time>
      </trkpt>
      <trkpt lat="48.83899" lon="1.66571">
        <ele>130</ele>
        <time>2015-07-21T11:39:11.000Z</time>
      </trkpt>
      <trkpt lat="48.83903" lon="1.66566">
        <ele>130</ele>
        <time>2015-07-21T11:39:13.000Z</time>
      </trkpt>
      <trkpt lat="48.83905" lon="1.66559">
        <ele>129.80000305176</ele>
        <time>2015-07-21T11:39:17.000Z</time>
      </trkpt>
      <trkpt lat="48.83912" lon="1.66548">
        <ele>129.80000305176</ele>
        <time>2015-07-21T11:39:24.000Z</time>
      </trkpt>
      <trkpt lat="48.8392" lon="1.66537">
        <ele>129.80000305176</ele>
        <time>2015-07-21T11:39:31.000Z</time>
      </trkpt>
      <trkpt lat="48.83926" lon="1.66524">
        <ele>129.80000305176</ele>
        <time>2015-07-21T11:39:38.000Z</time>
      </trkpt>
      <trkpt lat="48.83926" lon="1.66523">
        <ele>129.80000305176</ele>
        <time>2015-07-21T11:39:39.000Z</time>
      </trkpt>
      <trkpt lat="48.83931" lon="1.66518">
        <ele>129.80000305176</ele>
        <time>2015-07-21T11:39:42.000Z</time>
      </trkpt>
      <trkpt lat="48.8393" lon="1.66516">
        <ele>129.80000305176</ele>
        <time>2015-07-21T11:39:43.000Z</time>
      </trkpt>
      <trkpt lat="48.83931" lon="1.66512">
        <ele>130</ele>
        <time>2015-07-21T11:39:45.000Z</time>
      </trkpt>
      <trkpt lat="48.83935" lon="1.66505">
        <ele>130</ele>
        <time>2015-07-21T11:39:49.000Z</time>
      </trkpt>
      <trkpt lat="48.83938" lon="1.66501">
        <ele>130</ele>
        <time>2015-07-21T11:39:52.000Z</time>
      </trkpt>
      <trkpt lat="48.83941" lon="1.66496">
        <ele>130</ele>
        <time>2015-07-21T11:39:55.000Z</time>
      </trkpt>
      <trkpt lat="48.8395" lon="1.66484">
        <ele>130.19999694824</ele>
        <time>2015-07-21T11:40:02.000Z</time>
      </trkpt>
      <trkpt lat="48.83957" lon="1.66473">
        <ele>130.19999694824</ele>
        <time>2015-07-21T11:40:09.000Z</time>
      </trkpt>
      <trkpt lat="48.83962" lon="1.66465">
        <ele>130.39999389648</ele>
        <time>2015-07-21T11:40:14.000Z</time>
      </trkpt>
      <trkpt lat="48.8397" lon="1.66455">
        <ele>130.39999389648</ele>
        <time>2015-07-21T11:40:21.000Z</time>
      </trkpt>
      <trkpt lat="48.83972" lon="1.66451">
        <ele>130.39999389648</ele>
        <time>2015-07-21T11:40:23.000Z</time>
      </trkpt>
      <trkpt lat="48.83978" lon="1.66444">
        <ele>130.39999389648</ele>
        <time>2015-07-21T11:40:28.000Z</time>
      </trkpt>
      <trkpt lat="48.83988" lon="1.66433">
        <ele>130.39999389648</ele>
        <time>2015-07-21T11:40:36.000Z</time>
      </trkpt>
      <trkpt lat="48.83997" lon="1.6642">
        <ele>130.19999694824</ele>
        <time>2015-07-21T11:40:44.000Z</time>
      </trkpt>
      <trkpt lat="48.84007" lon="1.66405">
        <ele>129.80000305176</ele>
        <time>2015-07-21T11:40:53.000Z</time>
      </trkpt>
      <trkpt lat="48.84012" lon="1.66397">
        <ele>129.80000305176</ele>
        <time>2015-07-21T11:40:57.000Z</time>
      </trkpt>
      <trkpt lat="48.84017" lon="1.6639">
        <ele>129.80000305176</ele>
        <time>2015-07-21T11:41:02.000Z</time>
      </trkpt>
      <trkpt lat="48.84018" lon="1.6639">
        <ele>129.80000305176</ele>
        <time>2015-07-21T11:41:03.000Z</time>
      </trkpt>
      <trkpt lat="48.84018" lon="1.6639">
        <ele>129.80000305176</ele>
        <time>2015-07-21T11:41:05.000Z</time>
      </trkpt>
      <trkpt lat="48.84022" lon="1.66383">
        <ele>130</ele>
        <time>2015-07-21T11:41:11.000Z</time>
      </trkpt>
      <trkpt lat="48.84023" lon="1.66382">
        <ele>130</ele>
        <time>2015-07-21T11:41:12.000Z</time>
      </trkpt>
      <trkpt lat="48.84033" lon="1.66371">
        <ele>130.80000305176</ele>
        <time>2015-07-21T11:41:21.000Z</time>
      </trkpt>
      <trkpt lat="48.84033" lon="1.66369">
        <ele>131</ele>
        <time>2015-07-21T11:41:22.000Z</time>
      </trkpt>
      <trkpt lat="48.84037" lon="1.66363">
        <ele>131.19999694824</ele>
        <time>2015-07-21T11:41:26.000Z</time>
      </trkpt>
      <trkpt lat="48.84043" lon="1.66354">
        <ele>131.80000305176</ele>
        <time>2015-07-21T11:41:31.000Z</time>
      </trkpt>
      <trkpt lat="48.84049" lon="1.66344">
        <ele>132.19999694824</ele>
        <time>2015-07-21T11:41:37.000Z</time>
      </trkpt>
      <trkpt lat="48.84051" lon="1.66341">
        <ele>132.39999389648</ele>
        <time>2015-07-21T11:41:39.000Z</time>
      </trkpt>
      <trkpt lat="48.8406" lon="1.66327">
        <ele>132.80000305176</ele>
        <time>2015-07-21T11:41:48.000Z</time>
      </trkpt>
      <trkpt lat="48.84067" lon="1.66321">
        <ele>133.19999694824</ele>
        <time>2015-07-21T11:41:54.000Z</time>
      </trkpt>
      <trkpt lat="48.8407" lon="1.66325">
        <ele>133.39999389648</ele>
        <time>2015-07-21T11:41:58.000Z</time>
      </trkpt>
      <trkpt lat="48.8407" lon="1.66325">
        <ele>133.39999389648</ele>
        <time>2015-07-21T11:41:59.000Z</time>
      </trkpt>
      <trkpt lat="48.84081" lon="1.66358">
        <ele>134.60000610352</ele>
        <time>2015-07-21T11:43:10.000Z</time>
      </trkpt>
      <trkpt lat="48.84085" lon="1.66366">
        <ele>135</ele>
        <time>2015-07-21T11:43:14.000Z</time>
      </trkpt>
      <trkpt lat="48.84086" lon="1.66368">
        <ele>135.19999694824</ele>
        <time>2015-07-21T11:43:15.000Z</time>
      </trkpt>
      <trkpt lat="48.84089" lon="1.66375">
        <ele>135.39999389648</ele>
        <time>2015-07-21T11:43:19.000Z</time>
      </trkpt>
      <trkpt lat="48.8409" lon="1.66375">
        <ele>135.60000610352</ele>
        <time>2015-07-21T11:43:20.000Z</time>
      </trkpt>
      <trkpt lat="48.8409" lon="1.66377">
        <ele>135.60000610352</ele>
        <time>2015-07-21T11:43:21.000Z</time>
      </trkpt>
      <trkpt lat="48.84091" lon="1.66381">
        <ele>135.80000305176</ele>
        <time>2015-07-21T11:43:24.000Z</time>
      </trkpt>
      <trkpt lat="48.84092" lon="1.66382">
        <ele>135.80000305176</ele>
        <time>2015-07-21T11:43:25.000Z</time>
      </trkpt>
      <trkpt lat="48.84093" lon="1.66384">
        <ele>135.80000305176</ele>
        <time>2015-07-21T11:43:27.000Z</time>
      </trkpt>
      <trkpt lat="48.84098" lon="1.66389">
        <ele>136.39999389648</ele>
        <time>2015-07-21T11:43:31.000Z</time>
      </trkpt>
      <trkpt lat="48.84103" lon="1.66392">
        <ele>136.60000610352</ele>
        <time>2015-07-21T11:43:35.000Z</time>
      </trkpt>
      <trkpt lat="48.84105" lon="1.66394">
        <ele>136.80000305176</ele>
        <time>2015-07-21T11:43:37.000Z</time>
      </trkpt>
      <trkpt lat="48.84109" lon="1.66402">
        <ele>137.19999694824</ele>
        <time>2015-07-21T11:43:42.000Z</time>
      </trkpt>
      <trkpt lat="48.84117" lon="1.66409">
        <ele>137.60000610352</ele>
        <time>2015-07-21T11:43:49.000Z</time>
      </trkpt>
      <trkpt lat="48.84118" lon="1.6641">
        <ele>137.80000305176</ele>
        <time>2015-07-21T11:43:50.000Z</time>
      </trkpt>
      <trkpt lat="48.84123" lon="1.66413">
        <ele>138</ele>
        <time>2015-07-21T11:43:55.000Z</time>
      </trkpt>
      <trkpt lat="48.84125" lon="1.66415">
        <ele>138.19999694824</ele>
        <time>2015-07-21T11:43:57.000Z</time>
      </trkpt>
      <trkpt lat="48.84127" lon="1.66418">
        <ele>138.19999694824</ele>
        <time>2015-07-21T11:44:00.000Z</time>
      </trkpt>
      <trkpt lat="48.84134" lon="1.66421">
        <ele>138.80000305176</ele>
        <time>2015-07-21T11:44:05.000Z</time>
      </trkpt>
      <trkpt lat="48.8414" lon="1.66426">
        <ele>139</ele>
        <time>2015-07-21T11:44:11.000Z</time>
      </trkpt>
      <trkpt lat="48.84145" lon="1.66428">
        <ele>139.39999389648</ele>
        <time>2015-07-21T11:44:15.000Z</time>
      </trkpt>
      <trkpt lat="48.84148" lon="1.66431">
        <ele>139.60000610352</ele>
        <time>2015-07-21T11:44:18.000Z</time>
      </trkpt>
      <trkpt lat="48.84151" lon="1.66431">
        <ele>139.80000305176</ele>
        <time>2015-07-21T11:44:19.000Z</time>
      </trkpt>
      <trkpt lat="48.84157" lon="1.66436">
        <ele>140</ele>
        <time>2015-07-21T11:44:24.000Z</time>
      </trkpt>
      <trkpt lat="48.84165" lon="1.66444">
        <ele>140.60000610352</ele>
        <time>2015-07-21T11:44:30.000Z</time>
      </trkpt>
      <trkpt lat="48.84174" lon="1.66451">
        <ele>141</ele>
        <time>2015-07-21T11:44:36.000Z</time>
      </trkpt>
      <trkpt lat="48.84175" lon="1.66453">
        <ele>141.19999694824</ele>
        <time>2015-07-21T11:44:38.000Z</time>
      </trkpt>
      <trkpt lat="48.84177" lon="1.66456">
        <ele>141.19999694824</ele>
        <time>2015-07-21T11:44:40.000Z</time>
      </trkpt>
      <trkpt lat="48.84182" lon="1.66463">
        <ele>141.60000610352</ele>
        <time>2015-07-21T11:44:45.000Z</time>
      </trkpt>
      <trkpt lat="48.84189" lon="1.6647">
        <ele>142</ele>
        <time>2015-07-21T11:44:50.000Z</time>
      </trkpt>
      <trkpt lat="48.8419" lon="1.66471">
        <ele>142</ele>
        <time>2015-07-21T11:44:52.000Z</time>
      </trkpt>
      <trkpt lat="48.84196" lon="1.66478">
        <ele>142.19999694824</ele>
        <time>2015-07-21T11:44:58.000Z</time>
      </trkpt>
      <trkpt lat="48.84199" lon="1.66483">
        <ele>142.39999389648</ele>
        <time>2015-07-21T11:45:03.000Z</time>
      </trkpt>
      <trkpt lat="48.842" lon="1.66484">
        <ele>142.39999389648</ele>
        <time>2015-07-21T11:45:04.000Z</time>
      </trkpt>
      <trkpt lat="48.84204" lon="1.66488">
        <ele>142.60000610352</ele>
        <time>2015-07-21T11:45:08.000Z</time>
      </trkpt>
      <trkpt lat="48.8421" lon="1.66496">
        <ele>143.19999694824</ele>
        <time>2015-07-21T11:45:15.000Z</time>
      </trkpt>
      <trkpt lat="48.84215" lon="1.66504">
        <ele>143.60000610352</ele>
        <time>2015-07-21T11:45:22.000Z</time>
      </trkpt>
      <trkpt lat="48.84221" lon="1.66512">
        <ele>144</ele>
        <time>2015-07-21T11:45:29.000Z</time>
      </trkpt>
      <trkpt lat="48.84227" lon="1.66519">
        <ele>144.60000610352</ele>
        <time>2015-07-21T11:45:35.000Z</time>
      </trkpt>
      <trkpt lat="48.84229" lon="1.66521">
        <ele>144.80000305176</ele>
        <time>2015-07-21T11:45:37.000Z</time>
      </trkpt>
      <trkpt lat="48.84231" lon="1.66524">
        <ele>144.80000305176</ele>
        <time>2015-07-21T11:45:39.000Z</time>
      </trkpt>
      <trkpt lat="48.84234" lon="1.66534">
        <ele>145.19999694824</ele>
        <time>2015-07-21T11:45:45.000Z</time>
      </trkpt>
      <trkpt lat="48.84235" lon="1.66536">
        <ele>145.19999694824</ele>
        <time>2015-07-21T11:45:47.000Z</time>
      </trkpt>
      <trkpt lat="48.84239" lon="1.6654">
        <ele>145.60000610352</ele>
        <time>2015-07-21T11:45:50.000Z</time>
      </trkpt>
      <trkpt lat="48.8424" lon="1.66542">
        <ele>145.60000610352</ele>
        <time>2015-07-21T11:45:51.000Z</time>
      </trkpt>
      <trkpt lat="48.84242" lon="1.66546">
        <ele>145.80000305176</ele>
        <time>2015-07-21T11:45:55.000Z</time>
      </trkpt>
      <trkpt lat="48.84245" lon="1.66548">
        <ele>146</ele>
        <time>2015-07-21T11:46:00.000Z</time>
      </trkpt>
      <trkpt lat="48.84249" lon="1.66548">
        <ele>146.19999694824</ele>
        <time>2015-07-21T11:46:05.000Z</time>
      </trkpt>
      <trkpt lat="48.84249" lon="1.66548">
        <ele>146.39999389648</ele>
        <time>2015-07-21T11:46:07.000Z</time>
      </trkpt>
      <trkpt lat="48.84248" lon="1.66555">
        <ele>146.19999694824</ele>
        <time>2015-07-21T11:46:58.000Z</time>
      </trkpt>
      <trkpt lat="48.84248" lon="1.66555">
        <ele>146.19999694824</ele>
        <time>2015-07-21T11:46:59.000Z</time>
      </trkpt>
      <trkpt lat="48.84248" lon="1.66555">
        <ele>146.19999694824</ele>
        <time>2015-07-21T11:47:00.000Z</time>
      </trkpt>
    </trkseg>
  </trk>
</gpx>